<?xml version="1.0" encoding="UTF-8" standalone="no" ?>
<gpx xmlns="http://www.topografix.com/GPX/1/1" xmlns:xsi="http://www.w3.org/2001/XMLSchema-instance" xsi:schemaLocation="http://www.topografix.com/GPX/1/1 http://www.topografix.com/GPX/1/1/gpx.xsd" version="1.1" creator="VisuGPX - https://www.visugpx.com">
  <metadata>
    <name>Royans</name>
    <desc><![CDATA[Le raviol\'tour]]></desc>
  </metadata>
  <trk>
    <name><![CDATA[Track 008]]></name>
    <desc><![CDATA[12 juin 2011  9:00 am]]></desc>
    <trkseg>
      <trkpt lat="45.14485" lon="5.3107">
        <ele>282.225944</ele>
        <time>2011-06-12T07:01:37Z</time>
      </trkpt>
      <trkpt lat="45.1449" lon="5.31065">
        <ele>282.163838</ele>
        <time>2011-06-12T07:01:39Z</time>
      </trkpt>
      <trkpt lat="45.145" lon="5.31057">
        <ele>282.124799</ele>
        <time>2011-06-12T07:01:42Z</time>
      </trkpt>
      <trkpt lat="45.14507" lon="5.31053">
        <ele>282.111582</ele>
        <time>2011-06-12T07:01:44Z</time>
      </trkpt>
      <trkpt lat="45.14512" lon="5.31048">
        <ele>282.112767</ele>
        <time>2011-06-12T07:01:46Z</time>
      </trkpt>
      <trkpt lat="45.14518" lon="5.31042">
        <ele>282.120072</ele>
        <time>2011-06-12T07:01:49Z</time>
      </trkpt>
      <trkpt lat="45.14521" lon="5.31037">
        <ele>282.132874</ele>
        <time>2011-06-12T07:01:51Z</time>
      </trkpt>
      <trkpt lat="45.14523" lon="5.31031">
        <ele>282.148146</ele>
        <time>2011-06-12T07:01:54Z</time>
      </trkpt>
      <trkpt lat="45.14524" lon="5.31023">
        <ele>282.158723</ele>
        <time>2011-06-12T07:01:58Z</time>
      </trkpt>
      <trkpt lat="45.1452" lon="5.31011">
        <ele>282.162325</ele>
        <time>2011-06-12T07:02:01Z</time>
      </trkpt>
      <trkpt lat="45.1451" lon="5.30998">
        <ele>282.161548</ele>
        <time>2011-06-12T07:02:04Z</time>
      </trkpt>
      <trkpt lat="45.14503" lon="5.3099">
        <ele>282.144531</ele>
        <time>2011-06-12T07:02:06Z</time>
      </trkpt>
      <trkpt lat="45.14495" lon="5.30982">
        <ele>282.090024</ele>
        <time>2011-06-12T07:02:08Z</time>
      </trkpt>
      <trkpt lat="45.14481" lon="5.30969">
        <ele>281.881189</ele>
        <time>2011-06-12T07:02:11Z</time>
      </trkpt>
      <trkpt lat="45.14471" lon="5.30961">
        <ele>281.408682</ele>
        <time>2011-06-12T07:02:13Z</time>
      </trkpt>
      <trkpt lat="45.14454" lon="5.30952">
        <ele>280.783471</ele>
        <time>2011-06-12T07:02:16Z</time>
      </trkpt>
      <trkpt lat="45.14438" lon="5.30941">
        <ele>280.210027</ele>
        <time>2011-06-12T07:02:19Z</time>
      </trkpt>
      <trkpt lat="45.14428" lon="5.30933">
        <ele>279.78971</ele>
        <time>2011-06-12T07:02:21Z</time>
      </trkpt>
      <trkpt lat="45.14413" lon="5.30921">
        <ele>279.542843</ele>
        <time>2011-06-12T07:02:24Z</time>
      </trkpt>
      <trkpt lat="45.14398" lon="5.30912">
        <ele>279.380566</ele>
        <time>2011-06-12T07:02:27Z</time>
      </trkpt>
      <trkpt lat="45.14388" lon="5.30907">
        <ele>279.193496</ele>
        <time>2011-06-12T07:02:29Z</time>
      </trkpt>
      <trkpt lat="45.14372" lon="5.30899">
        <ele>278.927356</ele>
        <time>2011-06-12T07:02:32Z</time>
      </trkpt>
      <trkpt lat="45.14362" lon="5.30895">
        <ele>278.566123</ele>
        <time>2011-06-12T07:02:34Z</time>
      </trkpt>
      <trkpt lat="45.14351" lon="5.30891">
        <ele>278.173406</ele>
        <time>2011-06-12T07:02:36Z</time>
      </trkpt>
      <trkpt lat="45.14334" lon="5.30886">
        <ele>277.835455</ele>
        <time>2011-06-12T07:02:39Z</time>
      </trkpt>
      <trkpt lat="45.14323" lon="5.30883">
        <ele>277.564619</ele>
        <time>2011-06-12T07:02:41Z</time>
      </trkpt>
      <trkpt lat="45.14306" lon="5.30877">
        <ele>277.372733</ele>
        <time>2011-06-12T07:02:44Z</time>
      </trkpt>
      <trkpt lat="45.14288" lon="5.3087">
        <ele>277.283655</ele>
        <time>2011-06-12T07:02:47Z</time>
      </trkpt>
      <trkpt lat="45.14277" lon="5.30865">
        <ele>277.271344</ele>
        <time>2011-06-12T07:02:49Z</time>
      </trkpt>
      <trkpt lat="45.14261" lon="5.30859">
        <ele>277.297849</ele>
        <time>2011-06-12T07:02:52Z</time>
      </trkpt>
      <trkpt lat="45.14251" lon="5.30856">
        <ele>277.340521</ele>
        <time>2011-06-12T07:02:54Z</time>
      </trkpt>
      <trkpt lat="45.14234" lon="5.30851">
        <ele>277.375439</ele>
        <time>2011-06-12T07:02:57Z</time>
      </trkpt>
      <trkpt lat="45.14222" lon="5.30847">
        <ele>277.389538</ele>
        <time>2011-06-12T07:02:59Z</time>
      </trkpt>
      <trkpt lat="45.14205" lon="5.30841">
        <ele>277.386919</ele>
        <time>2011-06-12T07:03:02Z</time>
      </trkpt>
      <trkpt lat="45.14187" lon="5.30834">
        <ele>277.352976</ele>
        <time>2011-06-12T07:03:05Z</time>
      </trkpt>
      <trkpt lat="45.14175" lon="5.30829">
        <ele>277.282704</ele>
        <time>2011-06-12T07:03:07Z</time>
      </trkpt>
      <trkpt lat="45.14158" lon="5.30824">
        <ele>277.200764</ele>
        <time>2011-06-12T07:03:10Z</time>
      </trkpt>
      <trkpt lat="45.14147" lon="5.30821">
        <ele>277.086506</ele>
        <time>2011-06-12T07:03:12Z</time>
      </trkpt>
      <trkpt lat="45.14135" lon="5.30817">
        <ele>276.892952</ele>
        <time>2011-06-12T07:03:14Z</time>
      </trkpt>
      <trkpt lat="45.14118" lon="5.30811">
        <ele>276.627082</ele>
        <time>2011-06-12T07:03:17Z</time>
      </trkpt>
      <trkpt lat="45.14102" lon="5.30804">
        <ele>276.333106</ele>
        <time>2011-06-12T07:03:20Z</time>
      </trkpt>
      <trkpt lat="45.14087" lon="5.30793">
        <ele>276.055976</ele>
        <time>2011-06-12T07:03:23Z</time>
      </trkpt>
      <trkpt lat="45.14077" lon="5.30785">
        <ele>275.803302</ele>
        <time>2011-06-12T07:03:25Z</time>
      </trkpt>
      <trkpt lat="45.14068" lon="5.30777">
        <ele>275.529245</ele>
        <time>2011-06-12T07:03:27Z</time>
      </trkpt>
      <trkpt lat="45.14053" lon="5.30764">
        <ele>275.217667</ele>
        <time>2011-06-12T07:03:30Z</time>
      </trkpt>
      <trkpt lat="45.14044" lon="5.30755">
        <ele>274.928349</ele>
        <time>2011-06-12T07:03:32Z</time>
      </trkpt>
      <trkpt lat="45.14031" lon="5.30741">
        <ele>274.724631</ele>
        <time>2011-06-12T07:03:35Z</time>
      </trkpt>
      <trkpt lat="45.14017" lon="5.30726">
        <ele>274.575607</ele>
        <time>2011-06-12T07:03:38Z</time>
      </trkpt>
      <trkpt lat="45.14004" lon="5.30712">
        <ele>274.401401</ele>
        <time>2011-06-12T07:03:41Z</time>
      </trkpt>
      <trkpt lat="45.13991" lon="5.30696">
        <ele>274.175358</ele>
        <time>2011-06-12T07:03:44Z</time>
      </trkpt>
      <trkpt lat="45.13975" lon="5.30681">
        <ele>273.915752</ele>
        <time>2011-06-12T07:03:47Z</time>
      </trkpt>
      <trkpt lat="45.13965" lon="5.30671">
        <ele>273.665846</ele>
        <time>2011-06-12T07:03:49Z</time>
      </trkpt>
      <trkpt lat="45.13955" lon="5.3066">
        <ele>273.493546</ele>
        <time>2011-06-12T07:03:51Z</time>
      </trkpt>
      <trkpt lat="45.13945" lon="5.3065">
        <ele>273.424957</ele>
        <time>2011-06-12T07:03:53Z</time>
      </trkpt>
      <trkpt lat="45.13935" lon="5.30639">
        <ele>273.422472</ele>
        <time>2011-06-12T07:03:55Z</time>
      </trkpt>
      <trkpt lat="45.13925" lon="5.30629">
        <ele>273.440146</ele>
        <time>2011-06-12T07:03:57Z</time>
      </trkpt>
      <trkpt lat="45.13915" lon="5.30619">
        <ele>273.456472</ele>
        <time>2011-06-12T07:03:59Z</time>
      </trkpt>
      <trkpt lat="45.13905" lon="5.30609">
        <ele>273.471036</ele>
        <time>2011-06-12T07:04:01Z</time>
      </trkpt>
      <trkpt lat="45.13895" lon="5.30599">
        <ele>273.485722</ele>
        <time>2011-06-12T07:04:03Z</time>
      </trkpt>
      <trkpt lat="45.1388" lon="5.30586">
        <ele>273.498432</ele>
        <time>2011-06-12T07:04:06Z</time>
      </trkpt>
      <trkpt lat="45.13864" lon="5.30576">
        <ele>273.519209</ele>
        <time>2011-06-12T07:04:09Z</time>
      </trkpt>
      <trkpt lat="45.13852" lon="5.30571">
        <ele>273.567461</ele>
        <time>2011-06-12T07:04:11Z</time>
      </trkpt>
      <trkpt lat="45.13834" lon="5.30565">
        <ele>273.633763</ele>
        <time>2011-06-12T07:04:14Z</time>
      </trkpt>
      <trkpt lat="45.13822" lon="5.30562">
        <ele>273.68313</ele>
        <time>2011-06-12T07:04:16Z</time>
      </trkpt>
      <trkpt lat="45.13804" lon="5.30559">
        <ele>273.701361</ele>
        <time>2011-06-12T07:04:19Z</time>
      </trkpt>
      <trkpt lat="45.13791" lon="5.30558">
        <ele>273.685908</ele>
        <time>2011-06-12T07:04:21Z</time>
      </trkpt>
      <trkpt lat="45.13779" lon="5.30557">
        <ele>273.62388</ele>
        <time>2011-06-12T07:04:23Z</time>
      </trkpt>
      <trkpt lat="45.13762" lon="5.30555">
        <ele>273.502602</ele>
        <time>2011-06-12T07:04:26Z</time>
      </trkpt>
      <trkpt lat="45.13751" lon="5.30554">
        <ele>273.341766</ele>
        <time>2011-06-12T07:04:28Z</time>
      </trkpt>
      <trkpt lat="45.13735" lon="5.30552">
        <ele>273.203373</ele>
        <time>2011-06-12T07:04:31Z</time>
      </trkpt>
      <trkpt lat="45.13724" lon="5.3055">
        <ele>273.134329</ele>
        <time>2011-06-12T07:04:33Z</time>
      </trkpt>
      <trkpt lat="45.13708" lon="5.30548">
        <ele>273.118586</ele>
        <time>2011-06-12T07:04:36Z</time>
      </trkpt>
      <trkpt lat="45.13697" lon="5.30546">
        <ele>273.120127</ele>
        <time>2011-06-12T07:04:38Z</time>
      </trkpt>
      <trkpt lat="45.13686" lon="5.30544">
        <ele>273.122032</ele>
        <time>2011-06-12T07:04:40Z</time>
      </trkpt>
      <trkpt lat="45.13668" lon="5.30539">
        <ele>273.122764</ele>
        <time>2011-06-12T07:04:43Z</time>
      </trkpt>
      <trkpt lat="45.13651" lon="5.30531">
        <ele>273.122772</ele>
        <time>2011-06-12T07:04:46Z</time>
      </trkpt>
      <trkpt lat="45.1364" lon="5.30524">
        <ele>273.122569</ele>
        <time>2011-06-12T07:04:48Z</time>
      </trkpt>
      <trkpt lat="45.1363" lon="5.30516">
        <ele>273.122414</ele>
        <time>2011-06-12T07:04:50Z</time>
      </trkpt>
      <trkpt lat="45.13615" lon="5.30503">
        <ele>273.122684</ele>
        <time>2011-06-12T07:04:53Z</time>
      </trkpt>
      <trkpt lat="45.13605" lon="5.30494">
        <ele>273.123541</ele>
        <time>2011-06-12T07:04:55Z</time>
      </trkpt>
      <trkpt lat="45.13596" lon="5.30484">
        <ele>273.124437</ele>
        <time>2011-06-12T07:04:57Z</time>
      </trkpt>
      <trkpt lat="45.13581" lon="5.3047">
        <ele>273.124867</ele>
        <time>2011-06-12T07:05:00Z</time>
      </trkpt>
      <trkpt lat="45.13572" lon="5.30461">
        <ele>273.122405</ele>
        <time>2011-06-12T07:05:02Z</time>
      </trkpt>
      <trkpt lat="45.13562" lon="5.30452">
        <ele>273.100031</ele>
        <time>2011-06-12T07:05:04Z</time>
      </trkpt>
      <trkpt lat="45.13548" lon="5.30438">
        <ele>273.051082</ele>
        <time>2011-06-12T07:05:07Z</time>
      </trkpt>
      <trkpt lat="45.13537" lon="5.30429">
        <ele>273.000076</ele>
        <time>2011-06-12T07:05:09Z</time>
      </trkpt>
      <trkpt lat="45.13527" lon="5.30419">
        <ele>272.967247</ele>
        <time>2011-06-12T07:05:11Z</time>
      </trkpt>
      <trkpt lat="45.13512" lon="5.30404">
        <ele>272.926272</ele>
        <time>2011-06-12T07:05:14Z</time>
      </trkpt>
      <trkpt lat="45.13502" lon="5.30393">
        <ele>272.848564</ele>
        <time>2011-06-12T07:05:16Z</time>
      </trkpt>
      <trkpt lat="45.13493" lon="5.30381">
        <ele>272.755314</ele>
        <time>2011-06-12T07:05:18Z</time>
      </trkpt>
      <trkpt lat="45.1348" lon="5.30361">
        <ele>272.689018</ele>
        <time>2011-06-12T07:05:21Z</time>
      </trkpt>
      <trkpt lat="45.13472" lon="5.30348">
        <ele>272.66108</ele>
        <time>2011-06-12T07:05:23Z</time>
      </trkpt>
      <trkpt lat="45.13465" lon="5.30334">
        <ele>272.65896</ele>
        <time>2011-06-12T07:05:25Z</time>
      </trkpt>
      <trkpt lat="45.13452" lon="5.30314">
        <ele>272.687879</ele>
        <time>2011-06-12T07:05:28Z</time>
      </trkpt>
      <trkpt lat="45.1344" lon="5.30295">
        <ele>272.780319</ele>
        <time>2011-06-12T07:05:31Z</time>
      </trkpt>
      <trkpt lat="45.13428" lon="5.30277">
        <ele>272.933259</ele>
        <time>2011-06-12T07:05:34Z</time>
      </trkpt>
      <trkpt lat="45.13415" lon="5.30258">
        <ele>273.127809</ele>
        <time>2011-06-12T07:05:37Z</time>
      </trkpt>
      <trkpt lat="45.13407" lon="5.30245">
        <ele>273.333705</ele>
        <time>2011-06-12T07:05:39Z</time>
      </trkpt>
      <trkpt lat="45.13395" lon="5.30226">
        <ele>273.479797</ele>
        <time>2011-06-12T07:05:42Z</time>
      </trkpt>
      <trkpt lat="45.13381" lon="5.30205">
        <ele>273.530989</ele>
        <time>2011-06-12T07:05:45Z</time>
      </trkpt>
      <trkpt lat="45.13368" lon="5.30184">
        <ele>273.527859</ele>
        <time>2011-06-12T07:05:48Z</time>
      </trkpt>
      <trkpt lat="45.13355" lon="5.30166">
        <ele>273.510919</ele>
        <time>2011-06-12T07:05:51Z</time>
      </trkpt>
      <trkpt lat="45.13347" lon="5.30157">
        <ele>273.484179</ele>
        <time>2011-06-12T07:05:53Z</time>
      </trkpt>
      <trkpt lat="45.13339" lon="5.30145">
        <ele>273.440218</ele>
        <time>2011-06-12T07:05:55Z</time>
      </trkpt>
      <trkpt lat="45.13332" lon="5.30134">
        <ele>273.396115</ele>
        <time>2011-06-12T07:05:57Z</time>
      </trkpt>
      <trkpt lat="45.13325" lon="5.30121">
        <ele>273.359181</ele>
        <time>2011-06-12T07:05:59Z</time>
      </trkpt>
      <trkpt lat="45.13312" lon="5.30102">
        <ele>273.281201</ele>
        <time>2011-06-12T07:06:02Z</time>
      </trkpt>
      <trkpt lat="45.13304" lon="5.30089">
        <ele>273.080801</ele>
        <time>2011-06-12T07:06:04Z</time>
      </trkpt>
      <trkpt lat="45.13293" lon="5.30069">
        <ele>272.73074</ele>
        <time>2011-06-12T07:06:07Z</time>
      </trkpt>
      <trkpt lat="45.13285" lon="5.30056">
        <ele>272.270718</ele>
        <time>2011-06-12T07:06:09Z</time>
      </trkpt>
      <trkpt lat="45.13273" lon="5.30036">
        <ele>271.8173</ele>
        <time>2011-06-12T07:06:12Z</time>
      </trkpt>
      <trkpt lat="45.13261" lon="5.30018">
        <ele>271.525853</ele>
        <time>2011-06-12T07:06:15Z</time>
      </trkpt>
      <trkpt lat="45.13254" lon="5.30005">
        <ele>271.435884</ele>
        <time>2011-06-12T07:06:17Z</time>
      </trkpt>
      <trkpt lat="45.13242" lon="5.29985">
        <ele>271.458161</ele>
        <time>2011-06-12T07:06:20Z</time>
      </trkpt>
      <trkpt lat="45.1323" lon="5.29963">
        <ele>271.513311</ele>
        <time>2011-06-12T07:06:23Z</time>
      </trkpt>
      <trkpt lat="45.13221" lon="5.2995">
        <ele>271.555326</ele>
        <time>2011-06-12T07:06:25Z</time>
      </trkpt>
      <trkpt lat="45.13212" lon="5.29938">
        <ele>271.571205</ele>
        <time>2011-06-12T07:06:27Z</time>
      </trkpt>
      <trkpt lat="45.13203" lon="5.29926">
        <ele>271.567988</ele>
        <time>2011-06-12T07:06:29Z</time>
      </trkpt>
      <trkpt lat="45.13189" lon="5.29908">
        <ele>271.516764</ele>
        <time>2011-06-12T07:06:32Z</time>
      </trkpt>
      <trkpt lat="45.1318" lon="5.29896">
        <ele>271.381658</ele>
        <time>2011-06-12T07:06:34Z</time>
      </trkpt>
      <trkpt lat="45.13167" lon="5.29878">
        <ele>271.198505</ele>
        <time>2011-06-12T07:06:37Z</time>
      </trkpt>
      <trkpt lat="45.13156" lon="5.2986">
        <ele>271.034021</ele>
        <time>2011-06-12T07:06:40Z</time>
      </trkpt>
      <trkpt lat="45.13148" lon="5.29849">
        <ele>270.909623</ele>
        <time>2011-06-12T07:06:42Z</time>
      </trkpt>
      <trkpt lat="45.13141" lon="5.29838">
        <ele>270.79344</ele>
        <time>2011-06-12T07:06:44Z</time>
      </trkpt>
      <trkpt lat="45.1313" lon="5.29823">
        <ele>270.59163</ele>
        <time>2011-06-12T07:06:47Z</time>
      </trkpt>
      <trkpt lat="45.13116" lon="5.29826">
        <ele>270.250204</ele>
        <time>2011-06-12T07:06:50Z</time>
      </trkpt>
      <trkpt lat="45.13108" lon="5.29835">
        <ele>269.851885</ele>
        <time>2011-06-12T07:06:52Z</time>
      </trkpt>
      <trkpt lat="45.131" lon="5.29844">
        <ele>269.53981</ele>
        <time>2011-06-12T07:06:54Z</time>
      </trkpt>
      <trkpt lat="45.13088" lon="5.29857">
        <ele>269.386025</ele>
        <time>2011-06-12T07:06:57Z</time>
      </trkpt>
      <trkpt lat="45.13075" lon="5.29871">
        <ele>269.352419</ele>
        <time>2011-06-12T07:07:00Z</time>
      </trkpt>
      <trkpt lat="45.13063" lon="5.29884">
        <ele>269.358216</ele>
        <time>2011-06-12T07:07:03Z</time>
      </trkpt>
      <trkpt lat="45.13055" lon="5.29891">
        <ele>269.365269</ele>
        <time>2011-06-12T07:07:05Z</time>
      </trkpt>
      <trkpt lat="45.13043" lon="5.29904">
        <ele>269.363775</ele>
        <time>2011-06-12T07:07:08Z</time>
      </trkpt>
      <trkpt lat="45.13035" lon="5.29913">
        <ele>269.322885</ele>
        <time>2011-06-12T07:07:10Z</time>
      </trkpt>
      <trkpt lat="45.13027" lon="5.29923">
        <ele>269.20305</ele>
        <time>2011-06-12T07:07:12Z</time>
      </trkpt>
      <trkpt lat="45.13019" lon="5.29933">
        <ele>269.03103</ele>
        <time>2011-06-12T07:07:14Z</time>
      </trkpt>
      <trkpt lat="45.13011" lon="5.29943">
        <ele>268.892794</ele>
        <time>2011-06-12T07:07:16Z</time>
      </trkpt>
      <trkpt lat="45.12994" lon="5.2996">
        <ele>268.831946</ele>
        <time>2011-06-12T07:07:19Z</time>
      </trkpt>
      <trkpt lat="45.12978" lon="5.29974">
        <ele>268.825577</ele>
        <time>2011-06-12T07:07:22Z</time>
      </trkpt>
      <trkpt lat="45.12964" lon="5.29988">
        <ele>268.857783</ele>
        <time>2011-06-12T07:07:25Z</time>
      </trkpt>
      <trkpt lat="45.12948" lon="5.30003">
        <ele>269.092309</ele>
        <time>2011-06-12T07:07:28Z</time>
      </trkpt>
      <trkpt lat="45.12934" lon="5.30016">
        <ele>269.655733</ele>
        <time>2011-06-12T07:07:30Z</time>
      </trkpt>
      <trkpt lat="45.12921" lon="5.30029">
        <ele>270.2919</ele>
        <time>2011-06-12T07:07:32Z</time>
      </trkpt>
      <trkpt lat="45.12901" lon="5.30047">
        <ele>270.729194</ele>
        <time>2011-06-12T07:07:35Z</time>
      </trkpt>
      <trkpt lat="45.12882" lon="5.30065">
        <ele>270.996562</ele>
        <time>2011-06-12T07:07:38Z</time>
      </trkpt>
      <trkpt lat="45.12864" lon="5.30081">
        <ele>271.145429</ele>
        <time>2011-06-12T07:07:41Z</time>
      </trkpt>
      <trkpt lat="45.12852" lon="5.30091">
        <ele>271.187156</ele>
        <time>2011-06-12T07:07:43Z</time>
      </trkpt>
      <trkpt lat="45.12834" lon="5.30105">
        <ele>271.176117</ele>
        <time>2011-06-12T07:07:46Z</time>
      </trkpt>
      <trkpt lat="45.12822" lon="5.30112">
        <ele>271.062473</ele>
        <time>2011-06-12T07:07:48Z</time>
      </trkpt>
      <trkpt lat="45.12811" lon="5.30117">
        <ele>270.740725</ele>
        <time>2011-06-12T07:07:50Z</time>
      </trkpt>
      <trkpt lat="45.128" lon="5.30121">
        <ele>270.251599</ele>
        <time>2011-06-12T07:07:52Z</time>
      </trkpt>
      <trkpt lat="45.12785" lon="5.30126">
        <ele>269.762969</ele>
        <time>2011-06-12T07:07:55Z</time>
      </trkpt>
      <trkpt lat="45.12774" lon="5.3013">
        <ele>269.386765</ele>
        <time>2011-06-12T07:07:57Z</time>
      </trkpt>
      <trkpt lat="45.12765" lon="5.30133">
        <ele>269.122255</ele>
        <time>2011-06-12T07:07:59Z</time>
      </trkpt>
      <trkpt lat="45.12755" lon="5.30137">
        <ele>268.899356</ele>
        <time>2011-06-12T07:08:01Z</time>
      </trkpt>
      <trkpt lat="45.12741" lon="5.30145">
        <ele>268.67425</ele>
        <time>2011-06-12T07:08:04Z</time>
      </trkpt>
      <trkpt lat="45.12727" lon="5.30156">
        <ele>268.444886</ele>
        <time>2011-06-12T07:08:07Z</time>
      </trkpt>
      <trkpt lat="45.12719" lon="5.30164">
        <ele>268.228441</ele>
        <time>2011-06-12T07:08:09Z</time>
      </trkpt>
      <trkpt lat="45.12706" lon="5.30178">
        <ele>268.034292</ele>
        <time>2011-06-12T07:08:12Z</time>
      </trkpt>
      <trkpt lat="45.12697" lon="5.30188">
        <ele>267.85528</ele>
        <time>2011-06-12T07:08:14Z</time>
      </trkpt>
      <trkpt lat="45.12688" lon="5.30199">
        <ele>267.697206</ele>
        <time>2011-06-12T07:08:16Z</time>
      </trkpt>
      <trkpt lat="45.12675" lon="5.30216">
        <ele>267.59083</ele>
        <time>2011-06-12T07:08:19Z</time>
      </trkpt>
      <trkpt lat="45.1266" lon="5.30233">
        <ele>267.548026</ele>
        <time>2011-06-12T07:08:22Z</time>
      </trkpt>
      <trkpt lat="45.1265" lon="5.30257">
        <ele>267.546147</ele>
        <time>2011-06-12T07:08:25Z</time>
      </trkpt>
      <trkpt lat="45.12645" lon="5.30287">
        <ele>267.573823</ele>
        <time>2011-06-12T07:08:28Z</time>
      </trkpt>
      <trkpt lat="45.12642" lon="5.3031">
        <ele>267.652753</ele>
        <time>2011-06-12T07:08:30Z</time>
      </trkpt>
      <trkpt lat="45.12637" lon="5.30332">
        <ele>267.830595</ele>
        <time>2011-06-12T07:08:32Z</time>
      </trkpt>
      <trkpt lat="45.12626" lon="5.30359">
        <ele>268.086836</ele>
        <time>2011-06-12T07:08:35Z</time>
      </trkpt>
      <trkpt lat="45.12618" lon="5.30373">
        <ele>268.311417</ele>
        <time>2011-06-12T07:08:37Z</time>
      </trkpt>
      <trkpt lat="45.12605" lon="5.30391">
        <ele>268.464271</ele>
        <time>2011-06-12T07:08:40Z</time>
      </trkpt>
      <trkpt lat="45.12592" lon="5.30409">
        <ele>268.657947</ele>
        <time>2011-06-12T07:08:43Z</time>
      </trkpt>
      <trkpt lat="45.1258" lon="5.30426">
        <ele>268.949173</ele>
        <time>2011-06-12T07:08:46Z</time>
      </trkpt>
      <trkpt lat="45.12572" lon="5.30437">
        <ele>269.230746</ele>
        <time>2011-06-12T07:08:48Z</time>
      </trkpt>
      <trkpt lat="45.1256" lon="5.30442">
        <ele>269.412423</ele>
        <time>2011-06-12T07:08:51Z</time>
      </trkpt>
      <trkpt lat="45.12545" lon="5.30427">
        <ele>269.522903</ele>
        <time>2011-06-12T07:08:54Z</time>
      </trkpt>
      <trkpt lat="45.12531" lon="5.30408">
        <ele>269.592973</ele>
        <time>2011-06-12T07:08:57Z</time>
      </trkpt>
      <trkpt lat="45.12522" lon="5.30395">
        <ele>269.626295</ele>
        <time>2011-06-12T07:08:59Z</time>
      </trkpt>
      <trkpt lat="45.12508" lon="5.30376">
        <ele>269.701801</ele>
        <time>2011-06-12T07:09:02Z</time>
      </trkpt>
      <trkpt lat="45.12499" lon="5.30365">
        <ele>269.893254</ele>
        <time>2011-06-12T07:09:04Z</time>
      </trkpt>
      <trkpt lat="45.1249" lon="5.30353">
        <ele>270.117265</ele>
        <time>2011-06-12T07:09:06Z</time>
      </trkpt>
      <trkpt lat="45.12478" lon="5.30337">
        <ele>270.249246</ele>
        <time>2011-06-12T07:09:09Z</time>
      </trkpt>
      <trkpt lat="45.12465" lon="5.30323">
        <ele>270.284666</ele>
        <time>2011-06-12T07:09:12Z</time>
      </trkpt>
      <trkpt lat="45.12451" lon="5.30328">
        <ele>270.256913</ele>
        <time>2011-06-12T07:09:15Z</time>
      </trkpt>
      <trkpt lat="45.12442" lon="5.30336">
        <ele>270.189723</ele>
        <time>2011-06-12T07:09:17Z</time>
      </trkpt>
      <trkpt lat="45.12429" lon="5.30347">
        <ele>270.117747</ele>
        <time>2011-06-12T07:09:20Z</time>
      </trkpt>
      <trkpt lat="45.12413" lon="5.30355">
        <ele>270.031511</ele>
        <time>2011-06-12T07:09:23Z</time>
      </trkpt>
      <trkpt lat="45.12403" lon="5.3036">
        <ele>269.899031</ele>
        <time>2011-06-12T07:09:25Z</time>
      </trkpt>
      <trkpt lat="45.12393" lon="5.30365">
        <ele>269.764738</ele>
        <time>2011-06-12T07:09:27Z</time>
      </trkpt>
      <trkpt lat="45.12377" lon="5.30373">
        <ele>269.691354</ele>
        <time>2011-06-12T07:09:30Z</time>
      </trkpt>
      <trkpt lat="45.12366" lon="5.30378">
        <ele>269.674435</ele>
        <time>2011-06-12T07:09:32Z</time>
      </trkpt>
      <trkpt lat="45.12353" lon="5.30383">
        <ele>269.710647</ele>
        <time>2011-06-12T07:09:34Z</time>
      </trkpt>
      <trkpt lat="45.12332" lon="5.3039">
        <ele>269.794616</ele>
        <time>2011-06-12T07:09:37Z</time>
      </trkpt>
      <trkpt lat="45.12318" lon="5.30395">
        <ele>269.875467</ele>
        <time>2011-06-12T07:09:39Z</time>
      </trkpt>
      <trkpt lat="45.12297" lon="5.30402">
        <ele>269.912338</ele>
        <time>2011-06-12T07:09:42Z</time>
      </trkpt>
      <trkpt lat="45.1228" lon="5.30407">
        <ele>269.827598</ele>
        <time>2011-06-12T07:09:44Z</time>
      </trkpt>
      <trkpt lat="45.12265" lon="5.30412">
        <ele>269.518753</ele>
        <time>2011-06-12T07:09:46Z</time>
      </trkpt>
      <trkpt lat="45.12248" lon="5.30417">
        <ele>268.97831</ele>
        <time>2011-06-12T07:09:48Z</time>
      </trkpt>
      <trkpt lat="45.12232" lon="5.30421">
        <ele>268.2868</ele>
        <time>2011-06-12T07:09:50Z</time>
      </trkpt>
      <trkpt lat="45.12205" lon="5.30427">
        <ele>267.552662</ele>
        <time>2011-06-12T07:09:53Z</time>
      </trkpt>
      <trkpt lat="45.12186" lon="5.30429">
        <ele>266.868663</ele>
        <time>2011-06-12T07:09:55Z</time>
      </trkpt>
      <trkpt lat="45.12157" lon="5.30428">
        <ele>266.246887</ele>
        <time>2011-06-12T07:09:58Z</time>
      </trkpt>
      <trkpt lat="45.12137" lon="5.30427">
        <ele>265.588233</ele>
        <time>2011-06-12T07:10:00Z</time>
      </trkpt>
      <trkpt lat="45.12109" lon="5.30435">
        <ele>264.79463</ele>
        <time>2011-06-12T07:10:03Z</time>
      </trkpt>
      <trkpt lat="45.12096" lon="5.3045">
        <ele>263.889993</ele>
        <time>2011-06-12T07:10:05Z</time>
      </trkpt>
      <trkpt lat="45.12087" lon="5.30477">
        <ele>262.999389</ele>
        <time>2011-06-12T07:10:08Z</time>
      </trkpt>
      <trkpt lat="45.12087" lon="5.30512">
        <ele>262.23923</ele>
        <time>2011-06-12T07:10:11Z</time>
      </trkpt>
      <trkpt lat="45.12092" lon="5.30537">
        <ele>261.654109</ele>
        <time>2011-06-12T07:10:13Z</time>
      </trkpt>
      <trkpt lat="45.12098" lon="5.30563">
        <ele>261.175145</ele>
        <time>2011-06-12T07:10:15Z</time>
      </trkpt>
      <trkpt lat="45.12105" lon="5.30589">
        <ele>260.678665</ele>
        <time>2011-06-12T07:10:17Z</time>
      </trkpt>
      <trkpt lat="45.12116" lon="5.3063">
        <ele>260.12699</ele>
        <time>2011-06-12T07:10:20Z</time>
      </trkpt>
      <trkpt lat="45.12121" lon="5.30658">
        <ele>259.631088</ele>
        <time>2011-06-12T07:10:22Z</time>
      </trkpt>
      <trkpt lat="45.12128" lon="5.30702">
        <ele>259.290219</ele>
        <time>2011-06-12T07:10:25Z</time>
      </trkpt>
      <trkpt lat="45.12134" lon="5.30747">
        <ele>259.080796</ele>
        <time>2011-06-12T07:10:28Z</time>
      </trkpt>
      <trkpt lat="45.12139" lon="5.30778">
        <ele>258.896688</ele>
        <time>2011-06-12T07:10:30Z</time>
      </trkpt>
      <trkpt lat="45.12144" lon="5.30809">
        <ele>258.642455</ele>
        <time>2011-06-12T07:10:32Z</time>
      </trkpt>
      <trkpt lat="45.12153" lon="5.30854">
        <ele>258.342699</ele>
        <time>2011-06-12T07:10:35Z</time>
      </trkpt>
      <trkpt lat="45.12161" lon="5.30898">
        <ele>258.112618</ele>
        <time>2011-06-12T07:10:38Z</time>
      </trkpt>
      <trkpt lat="45.12165" lon="5.30924">
        <ele>258.01058</ele>
        <time>2011-06-12T07:10:40Z</time>
      </trkpt>
      <trkpt lat="45.12172" lon="5.30962">
        <ele>257.989425</ele>
        <time>2011-06-12T07:10:43Z</time>
      </trkpt>
      <trkpt lat="45.12175" lon="5.30979">
        <ele>257.966432</ele>
        <time>2011-06-12T07:10:45Z</time>
      </trkpt>
      <trkpt lat="45.12178" lon="5.30996">
        <ele>257.857858</ele>
        <time>2011-06-12T07:10:48Z</time>
      </trkpt>
      <trkpt lat="45.12178" lon="5.30996">
        <ele>257.673659</ele>
        <time>2011-06-12T07:10:50Z</time>
      </trkpt>
      <trkpt lat="45.12168" lon="5.30983">
        <ele>257.520827</ele>
        <time>2011-06-12T07:10:54Z</time>
      </trkpt>
      <trkpt lat="45.12163" lon="5.30963">
        <ele>257.458385</ele>
        <time>2011-06-12T07:10:56Z</time>
      </trkpt>
      <trkpt lat="45.12158" lon="5.30944">
        <ele>257.46546</ele>
        <time>2011-06-12T07:10:58Z</time>
      </trkpt>
      <trkpt lat="45.12147" lon="5.30915">
        <ele>257.587473</ele>
        <time>2011-06-12T07:11:01Z</time>
      </trkpt>
      <trkpt lat="45.12135" lon="5.30888">
        <ele>257.995459</ele>
        <time>2011-06-12T07:11:04Z</time>
      </trkpt>
      <trkpt lat="45.12126" lon="5.3087">
        <ele>258.657993</ele>
        <time>2011-06-12T07:11:06Z</time>
      </trkpt>
      <trkpt lat="45.12117" lon="5.30852">
        <ele>259.225743</ele>
        <time>2011-06-12T07:11:08Z</time>
      </trkpt>
      <trkpt lat="45.12104" lon="5.30825">
        <ele>259.477539</ele>
        <time>2011-06-12T07:11:11Z</time>
      </trkpt>
      <trkpt lat="45.12091" lon="5.30795">
        <ele>259.505116</ele>
        <time>2011-06-12T07:11:14Z</time>
      </trkpt>
      <trkpt lat="45.12078" lon="5.30762">
        <ele>259.439706</ele>
        <time>2011-06-12T07:11:17Z</time>
      </trkpt>
      <trkpt lat="45.12071" lon="5.30741">
        <ele>259.311834</ele>
        <time>2011-06-12T07:11:19Z</time>
      </trkpt>
      <trkpt lat="45.12065" lon="5.30719">
        <ele>259.033033</ele>
        <time>2011-06-12T07:11:21Z</time>
      </trkpt>
      <trkpt lat="45.12056" lon="5.30684">
        <ele>258.554306</ele>
        <time>2011-06-12T07:11:24Z</time>
      </trkpt>
      <trkpt lat="45.12046" lon="5.30652">
        <ele>257.989837</ele>
        <time>2011-06-12T07:11:27Z</time>
      </trkpt>
      <trkpt lat="45.1204" lon="5.30632">
        <ele>257.442446</ele>
        <time>2011-06-12T07:11:29Z</time>
      </trkpt>
      <trkpt lat="45.12035" lon="5.30612">
        <ele>256.814716</ele>
        <time>2011-06-12T07:11:31Z</time>
      </trkpt>
      <trkpt lat="45.12031" lon="5.30591">
        <ele>255.895418</ele>
        <time>2011-06-12T07:11:33Z</time>
      </trkpt>
      <trkpt lat="45.12023" lon="5.30559">
        <ele>254.710811</ele>
        <time>2011-06-12T07:11:36Z</time>
      </trkpt>
      <trkpt lat="45.12014" lon="5.30528">
        <ele>253.557679</ele>
        <time>2011-06-12T07:11:39Z</time>
      </trkpt>
      <trkpt lat="45.12005" lon="5.30499">
        <ele>252.618376</ele>
        <time>2011-06-12T07:11:42Z</time>
      </trkpt>
      <trkpt lat="45.12" lon="5.3048">
        <ele>251.940914</ele>
        <time>2011-06-12T07:11:44Z</time>
      </trkpt>
      <trkpt lat="45.11993" lon="5.30462">
        <ele>251.578159</ele>
        <time>2011-06-12T07:11:46Z</time>
      </trkpt>
      <trkpt lat="45.11986" lon="5.30444">
        <ele>251.4233</ele>
        <time>2011-06-12T07:11:48Z</time>
      </trkpt>
      <trkpt lat="45.11971" lon="5.30412">
        <ele>251.269722</ele>
        <time>2011-06-12T07:11:51Z</time>
      </trkpt>
      <trkpt lat="45.11957" lon="5.30366">
        <ele>251.040877</ele>
        <time>2011-06-12T07:11:54Z</time>
      </trkpt>
      <trkpt lat="45.11945" lon="5.30317">
        <ele>250.742385</ele>
        <time>2011-06-12T07:11:57Z</time>
      </trkpt>
      <trkpt lat="45.11936" lon="5.30286">
        <ele>250.380852</ele>
        <time>2011-06-12T07:11:59Z</time>
      </trkpt>
      <trkpt lat="45.11925" lon="5.30259">
        <ele>250.034221</ele>
        <time>2011-06-12T07:12:01Z</time>
      </trkpt>
      <trkpt lat="45.11915" lon="5.30235">
        <ele>249.348239</ele>
        <time>2011-06-12T07:12:03Z</time>
      </trkpt>
      <trkpt lat="45.11898" lon="5.302">
        <ele>247.739457</ele>
        <time>2011-06-12T07:12:06Z</time>
      </trkpt>
      <trkpt lat="45.11887" lon="5.30179">
        <ele>245.374319</ele>
        <time>2011-06-12T07:12:08Z</time>
      </trkpt>
      <trkpt lat="45.11871" lon="5.30147">
        <ele>242.98246</ele>
        <time>2011-06-12T07:12:11Z</time>
      </trkpt>
      <trkpt lat="45.1186" lon="5.30117">
        <ele>240.927933</ele>
        <time>2011-06-12T07:12:14Z</time>
      </trkpt>
      <trkpt lat="45.11855" lon="5.30087">
        <ele>239.250058</ele>
        <time>2011-06-12T07:12:17Z</time>
      </trkpt>
      <trkpt lat="45.11852" lon="5.30069">
        <ele>237.899913</ele>
        <time>2011-06-12T07:12:19Z</time>
      </trkpt>
      <trkpt lat="45.11843" lon="5.30047">
        <ele>236.843509</ele>
        <time>2011-06-12T07:12:22Z</time>
      </trkpt>
      <trkpt lat="45.11841" lon="5.30029">
        <ele>236.028227</ele>
        <time>2011-06-12T07:12:24Z</time>
      </trkpt>
      <trkpt lat="45.1184" lon="5.29996">
        <ele>235.329621</ele>
        <time>2011-06-12T07:12:27Z</time>
      </trkpt>
      <trkpt lat="45.1184" lon="5.29962">
        <ele>234.56026</ele>
        <time>2011-06-12T07:12:30Z</time>
      </trkpt>
      <trkpt lat="45.11842" lon="5.29927">
        <ele>233.783391</ele>
        <time>2011-06-12T07:12:33Z</time>
      </trkpt>
      <trkpt lat="45.1184" lon="5.299">
        <ele>233.158579</ele>
        <time>2011-06-12T07:12:35Z</time>
      </trkpt>
      <trkpt lat="45.11836" lon="5.29862">
        <ele>232.39752</ele>
        <time>2011-06-12T07:12:38Z</time>
      </trkpt>
      <trkpt lat="45.11834" lon="5.29839">
        <ele>231.069974</ele>
        <time>2011-06-12T07:12:40Z</time>
      </trkpt>
      <trkpt lat="45.11831" lon="5.29816">
        <ele>229.397558</ele>
        <time>2011-06-12T07:12:42Z</time>
      </trkpt>
      <trkpt lat="45.11829" lon="5.29794">
        <ele>227.959057</ele>
        <time>2011-06-12T07:12:44Z</time>
      </trkpt>
      <trkpt lat="45.11825" lon="5.29762">
        <ele>227.013243</ele>
        <time>2011-06-12T07:12:47Z</time>
      </trkpt>
      <trkpt lat="45.11824" lon="5.29742">
        <ele>226.514768</ele>
        <time>2011-06-12T07:12:49Z</time>
      </trkpt>
      <trkpt lat="45.11822" lon="5.29722">
        <ele>226.296575</ele>
        <time>2011-06-12T07:12:51Z</time>
      </trkpt>
      <trkpt lat="45.11819" lon="5.29703">
        <ele>226.17024</ele>
        <time>2011-06-12T07:12:53Z</time>
      </trkpt>
      <trkpt lat="45.11815" lon="5.29675">
        <ele>226.041788</ele>
        <time>2011-06-12T07:12:56Z</time>
      </trkpt>
      <trkpt lat="45.11811" lon="5.29656">
        <ele>225.899512</ele>
        <time>2011-06-12T07:12:58Z</time>
      </trkpt>
      <trkpt lat="45.11806" lon="5.29637">
        <ele>225.677015</ele>
        <time>2011-06-12T07:13:00Z</time>
      </trkpt>
      <trkpt lat="45.11796" lon="5.29611">
        <ele>225.186397</ele>
        <time>2011-06-12T07:13:03Z</time>
      </trkpt>
      <trkpt lat="45.1179" lon="5.29594">
        <ele>224.389338</ele>
        <time>2011-06-12T07:13:05Z</time>
      </trkpt>
      <trkpt lat="45.11787" lon="5.29565">
        <ele>223.575442</ele>
        <time>2011-06-12T07:13:08Z</time>
      </trkpt>
      <trkpt lat="45.11785" lon="5.29545">
        <ele>223.038606</ele>
        <time>2011-06-12T07:13:10Z</time>
      </trkpt>
      <trkpt lat="45.11777" lon="5.29527">
        <ele>222.775436</ele>
        <time>2011-06-12T07:13:12Z</time>
      </trkpt>
      <trkpt lat="45.1177" lon="5.29508">
        <ele>222.636027</ele>
        <time>2011-06-12T07:13:14Z</time>
      </trkpt>
      <trkpt lat="45.11761" lon="5.29484">
        <ele>222.553219</ele>
        <time>2011-06-12T07:13:17Z</time>
      </trkpt>
      <trkpt lat="45.11754" lon="5.29467">
        <ele>222.526894</ele>
        <time>2011-06-12T07:13:19Z</time>
      </trkpt>
      <trkpt lat="45.11746" lon="5.29438">
        <ele>222.54063</ele>
        <time>2011-06-12T07:13:22Z</time>
      </trkpt>
      <trkpt lat="45.11742" lon="5.29414">
        <ele>222.576874</ele>
        <time>2011-06-12T07:13:24Z</time>
      </trkpt>
      <trkpt lat="45.11736" lon="5.29379">
        <ele>222.616638</ele>
        <time>2011-06-12T07:13:27Z</time>
      </trkpt>
      <trkpt lat="45.11732" lon="5.29363">
        <ele>222.648229</ele>
        <time>2011-06-12T07:13:29Z</time>
      </trkpt>
      <trkpt lat="45.11734" lon="5.29343">
        <ele>222.667139</ele>
        <time>2011-06-12T07:13:32Z</time>
      </trkpt>
      <trkpt lat="45.11735" lon="5.29334">
        <ele>222.672358</ele>
        <time>2011-06-12T07:13:34Z</time>
      </trkpt>
      <trkpt lat="45.11735" lon="5.29327">
        <ele>222.568375</ele>
        <time>2011-06-12T07:13:36Z</time>
      </trkpt>
      <trkpt lat="45.11734" lon="5.29319">
        <ele>222.169909</ele>
        <time>2011-06-12T07:13:38Z</time>
      </trkpt>
      <trkpt lat="45.11733" lon="5.29307">
        <ele>221.548625</ele>
        <time>2011-06-12T07:13:41Z</time>
      </trkpt>
      <trkpt lat="45.1173" lon="5.29292">
        <ele>221.034646</ele>
        <time>2011-06-12T07:13:44Z</time>
      </trkpt>
      <trkpt lat="45.11728" lon="5.29283">
        <ele>220.776676</ele>
        <time>2011-06-12T07:13:46Z</time>
      </trkpt>
      <trkpt lat="45.11725" lon="5.2927">
        <ele>220.663595</ele>
        <time>2011-06-12T07:13:49Z</time>
      </trkpt>
      <trkpt lat="45.11724" lon="5.29261">
        <ele>220.574545</ele>
        <time>2011-06-12T07:13:51Z</time>
      </trkpt>
      <trkpt lat="45.11722" lon="5.29245">
        <ele>220.477772</ele>
        <time>2011-06-12T07:13:54Z</time>
      </trkpt>
      <trkpt lat="45.1172" lon="5.2923">
        <ele>220.3933</ele>
        <time>2011-06-12T07:13:57Z</time>
      </trkpt>
      <trkpt lat="45.1172" lon="5.29221">
        <ele>220.33238</ele>
        <time>2011-06-12T07:13:59Z</time>
      </trkpt>
      <trkpt lat="45.11717" lon="5.29207">
        <ele>220.274299</ele>
        <time>2011-06-12T07:14:02Z</time>
      </trkpt>
      <trkpt lat="45.11716" lon="5.29198">
        <ele>220.168069</ele>
        <time>2011-06-12T07:14:04Z</time>
      </trkpt>
      <trkpt lat="45.11715" lon="5.2919">
        <ele>219.993416</ele>
        <time>2011-06-12T07:14:06Z</time>
      </trkpt>
      <trkpt lat="45.1171" lon="5.29179">
        <ele>219.774357</ele>
        <time>2011-06-12T07:14:09Z</time>
      </trkpt>
      <trkpt lat="45.11705" lon="5.29167">
        <ele>219.539605</ele>
        <time>2011-06-12T07:14:12Z</time>
      </trkpt>
      <trkpt lat="45.11701" lon="5.29155">
        <ele>219.318277</ele>
        <time>2011-06-12T07:14:14Z</time>
      </trkpt>
      <trkpt lat="45.11698" lon="5.29143">
        <ele>219.12119</ele>
        <time>2011-06-12T07:14:16Z</time>
      </trkpt>
      <trkpt lat="45.11692" lon="5.29122">
        <ele>218.932972</ele>
        <time>2011-06-12T07:14:19Z</time>
      </trkpt>
      <trkpt lat="45.11685" lon="5.29102">
        <ele>218.665434</ele>
        <time>2011-06-12T07:14:22Z</time>
      </trkpt>
      <trkpt lat="45.11681" lon="5.29089">
        <ele>218.216599</ele>
        <time>2011-06-12T07:14:24Z</time>
      </trkpt>
      <trkpt lat="45.11678" lon="5.29071">
        <ele>217.530124</ele>
        <time>2011-06-12T07:14:27Z</time>
      </trkpt>
      <trkpt lat="45.11676" lon="5.29052">
        <ele>216.610878</ele>
        <time>2011-06-12T07:14:30Z</time>
      </trkpt>
      <trkpt lat="45.11673" lon="5.29039">
        <ele>215.696756</ele>
        <time>2011-06-12T07:14:32Z</time>
      </trkpt>
      <trkpt lat="45.11669" lon="5.2902">
        <ele>215.138569</ele>
        <time>2011-06-12T07:14:35Z</time>
      </trkpt>
      <trkpt lat="45.11665" lon="5.28998">
        <ele>214.979284</ele>
        <time>2011-06-12T07:14:38Z</time>
      </trkpt>
      <trkpt lat="45.11661" lon="5.28984">
        <ele>215.036668</ele>
        <time>2011-06-12T07:14:40Z</time>
      </trkpt>
      <trkpt lat="45.11656" lon="5.28971">
        <ele>215.215285</ele>
        <time>2011-06-12T07:14:42Z</time>
      </trkpt>
      <trkpt lat="45.1165" lon="5.28957">
        <ele>215.511489</ele>
        <time>2011-06-12T07:14:44Z</time>
      </trkpt>
      <trkpt lat="45.11642" lon="5.28933">
        <ele>215.929524</ele>
        <time>2011-06-12T07:14:47Z</time>
      </trkpt>
      <trkpt lat="45.11637" lon="5.28918">
        <ele>216.458585</ele>
        <time>2011-06-12T07:14:49Z</time>
      </trkpt>
      <trkpt lat="45.1163" lon="5.28898">
        <ele>217.174563</ele>
        <time>2011-06-12T07:14:52Z</time>
      </trkpt>
      <trkpt lat="45.11627" lon="5.28873">
        <ele>218.168068</ele>
        <time>2011-06-12T07:14:55Z</time>
      </trkpt>
      <trkpt lat="45.11624" lon="5.28857">
        <ele>219.224507</ele>
        <time>2011-06-12T07:14:57Z</time>
      </trkpt>
      <trkpt lat="45.11621" lon="5.28834">
        <ele>219.999736</ele>
        <time>2011-06-12T07:15:00Z</time>
      </trkpt>
      <trkpt lat="45.11618" lon="5.2882">
        <ele>220.578138</ele>
        <time>2011-06-12T07:15:02Z</time>
      </trkpt>
      <trkpt lat="45.11616" lon="5.28807">
        <ele>221.168921</ele>
        <time>2011-06-12T07:15:04Z</time>
      </trkpt>
      <trkpt lat="45.1161" lon="5.28788">
        <ele>221.657994</ele>
        <time>2011-06-12T07:15:07Z</time>
      </trkpt>
      <trkpt lat="45.11607" lon="5.28776">
        <ele>221.904305</ele>
        <time>2011-06-12T07:15:09Z</time>
      </trkpt>
      <trkpt lat="45.116" lon="5.28756">
        <ele>221.974972</ele>
        <time>2011-06-12T07:15:12Z</time>
      </trkpt>
      <trkpt lat="45.11595" lon="5.28743">
        <ele>221.98291</ele>
        <time>2011-06-12T07:15:14Z</time>
      </trkpt>
      <trkpt lat="45.11591" lon="5.2873">
        <ele>221.998311</ele>
        <time>2011-06-12T07:15:16Z</time>
      </trkpt>
      <trkpt lat="45.11587" lon="5.28713">
        <ele>222.100556</ele>
        <time>2011-06-12T07:15:19Z</time>
      </trkpt>
      <trkpt lat="45.11584" lon="5.28698">
        <ele>222.348186</ele>
        <time>2011-06-12T07:15:22Z</time>
      </trkpt>
      <trkpt lat="45.11581" lon="5.28688">
        <ele>222.687223</ele>
        <time>2011-06-12T07:15:24Z</time>
      </trkpt>
      <trkpt lat="45.11578" lon="5.28671">
        <ele>222.993379</ele>
        <time>2011-06-12T07:15:27Z</time>
      </trkpt>
      <trkpt lat="45.11576" lon="5.2866">
        <ele>223.181916</ele>
        <time>2011-06-12T07:15:29Z</time>
      </trkpt>
      <trkpt lat="45.11574" lon="5.28649">
        <ele>223.249026</ele>
        <time>2011-06-12T07:15:31Z</time>
      </trkpt>
      <trkpt lat="45.1157" lon="5.28633">
        <ele>223.260773</ele>
        <time>2011-06-12T07:15:34Z</time>
      </trkpt>
      <trkpt lat="45.11565" lon="5.28622">
        <ele>223.27531</ele>
        <time>2011-06-12T07:15:36Z</time>
      </trkpt>
      <trkpt lat="45.11557" lon="5.28604">
        <ele>223.360286</ele>
        <time>2011-06-12T07:15:39Z</time>
      </trkpt>
      <trkpt lat="45.1155" lon="5.28581">
        <ele>223.618837</ele>
        <time>2011-06-12T07:15:42Z</time>
      </trkpt>
      <trkpt lat="45.11542" lon="5.28556">
        <ele>224.011447</ele>
        <time>2011-06-12T07:15:45Z</time>
      </trkpt>
      <trkpt lat="45.11532" lon="5.28523">
        <ele>224.325645</ele>
        <time>2011-06-12T07:15:48Z</time>
      </trkpt>
      <trkpt lat="45.1152" lon="5.28487">
        <ele>224.450049</ele>
        <time>2011-06-12T07:15:51Z</time>
      </trkpt>
      <trkpt lat="45.11513" lon="5.28462">
        <ele>224.404563</ele>
        <time>2011-06-12T07:15:53Z</time>
      </trkpt>
      <trkpt lat="45.11504" lon="5.28437">
        <ele>223.995107</ele>
        <time>2011-06-12T07:15:55Z</time>
      </trkpt>
      <trkpt lat="45.11486" lon="5.28408">
        <ele>222.850917</ele>
        <time>2011-06-12T07:15:58Z</time>
      </trkpt>
      <trkpt lat="45.11466" lon="5.28383">
        <ele>221.01892</ele>
        <time>2011-06-12T07:16:01Z</time>
      </trkpt>
      <trkpt lat="45.11451" lon="5.28356">
        <ele>219.062964</ele>
        <time>2011-06-12T07:16:04Z</time>
      </trkpt>
      <trkpt lat="45.11443" lon="5.28338">
        <ele>217.399143</ele>
        <time>2011-06-12T07:16:06Z</time>
      </trkpt>
      <trkpt lat="45.11434" lon="5.28319">
        <ele>216.15317</ele>
        <time>2011-06-12T07:16:08Z</time>
      </trkpt>
      <trkpt lat="45.11421" lon="5.2829">
        <ele>215.417471</ele>
        <time>2011-06-12T07:16:11Z</time>
      </trkpt>
      <trkpt lat="45.11413" lon="5.28272">
        <ele>215.113812</ele>
        <time>2011-06-12T07:16:13Z</time>
      </trkpt>
      <trkpt lat="45.11406" lon="5.28254">
        <ele>214.986106</ele>
        <time>2011-06-12T07:16:15Z</time>
      </trkpt>
      <trkpt lat="45.11395" lon="5.28227">
        <ele>214.886886</ele>
        <time>2011-06-12T07:16:18Z</time>
      </trkpt>
      <trkpt lat="45.11389" lon="5.28209">
        <ele>214.787986</ele>
        <time>2011-06-12T07:16:20Z</time>
      </trkpt>
      <trkpt lat="45.11383" lon="5.2819">
        <ele>214.688489</ele>
        <time>2011-06-12T07:16:22Z</time>
      </trkpt>
      <trkpt lat="45.11376" lon="5.28159">
        <ele>214.615759</ele>
        <time>2011-06-12T07:16:25Z</time>
      </trkpt>
      <trkpt lat="45.11371" lon="5.28139">
        <ele>214.589418</ele>
        <time>2011-06-12T07:16:27Z</time>
      </trkpt>
      <trkpt lat="45.11365" lon="5.2812">
        <ele>214.648972</ele>
        <time>2011-06-12T07:16:29Z</time>
      </trkpt>
      <trkpt lat="45.11356" lon="5.28103">
        <ele>214.855691</ele>
        <time>2011-06-12T07:16:31Z</time>
      </trkpt>
      <trkpt lat="45.11343" lon="5.28078">
        <ele>215.137646</ele>
        <time>2011-06-12T07:16:34Z</time>
      </trkpt>
      <trkpt lat="45.11334" lon="5.28061">
        <ele>215.342084</ele>
        <time>2011-06-12T07:16:36Z</time>
      </trkpt>
      <trkpt lat="45.11326" lon="5.28045">
        <ele>215.425705</ele>
        <time>2011-06-12T07:16:38Z</time>
      </trkpt>
      <trkpt lat="45.11314" lon="5.2802">
        <ele>215.430336</ele>
        <time>2011-06-12T07:16:41Z</time>
      </trkpt>
      <trkpt lat="45.11307" lon="5.28002">
        <ele>215.397553</ele>
        <time>2011-06-12T07:16:43Z</time>
      </trkpt>
      <trkpt lat="45.113" lon="5.27984">
        <ele>215.355374</ele>
        <time>2011-06-12T07:16:45Z</time>
      </trkpt>
      <trkpt lat="45.11292" lon="5.27967">
        <ele>215.30932</ele>
        <time>2011-06-12T07:16:47Z</time>
      </trkpt>
      <trkpt lat="45.11279" lon="5.27943">
        <ele>215.241514</ele>
        <time>2011-06-12T07:16:50Z</time>
      </trkpt>
      <trkpt lat="45.11268" lon="5.27926">
        <ele>215.098045</ele>
        <time>2011-06-12T07:16:52Z</time>
      </trkpt>
      <trkpt lat="45.11246" lon="5.27904">
        <ele>214.824224</ele>
        <time>2011-06-12T07:16:55Z</time>
      </trkpt>
      <trkpt lat="45.11227" lon="5.27896">
        <ele>214.493397</ele>
        <time>2011-06-12T07:16:57Z</time>
      </trkpt>
      <trkpt lat="45.112" lon="5.27889">
        <ele>214.263701</ele>
        <time>2011-06-12T07:17:00Z</time>
      </trkpt>
      <trkpt lat="45.11187" lon="5.27888">
        <ele>214.185237</ele>
        <time>2011-06-12T07:17:02Z</time>
      </trkpt>
      <trkpt lat="45.11175" lon="5.27898">
        <ele>214.163398</ele>
        <time>2011-06-12T07:17:05Z</time>
      </trkpt>
      <trkpt lat="45.11169" lon="5.27913">
        <ele>214.116038</ele>
        <time>2011-06-12T07:17:08Z</time>
      </trkpt>
      <trkpt lat="45.11161" lon="5.27917">
        <ele>214.056701</ele>
        <time>2011-06-12T07:17:10Z</time>
      </trkpt>
      <trkpt lat="45.1115" lon="5.27919">
        <ele>214.003479</ele>
        <time>2011-06-12T07:17:12Z</time>
      </trkpt>
      <trkpt lat="45.11137" lon="5.27916">
        <ele>213.819184</ele>
        <time>2011-06-12T07:17:14Z</time>
      </trkpt>
      <trkpt lat="45.11118" lon="5.279">
        <ele>213.351477</ele>
        <time>2011-06-12T07:17:17Z</time>
      </trkpt>
      <trkpt lat="45.11101" lon="5.27876">
        <ele>212.6097</ele>
        <time>2011-06-12T07:17:20Z</time>
      </trkpt>
      <trkpt lat="45.1109" lon="5.27859">
        <ele>211.675155</ele>
        <time>2011-06-12T07:17:22Z</time>
      </trkpt>
      <trkpt lat="45.11079" lon="5.2784">
        <ele>210.591148</ele>
        <time>2011-06-12T07:17:24Z</time>
      </trkpt>
      <trkpt lat="45.1107" lon="5.27819">
        <ele>209.536055</ele>
        <time>2011-06-12T07:17:26Z</time>
      </trkpt>
      <trkpt lat="45.11059" lon="5.27782">
        <ele>208.732139</ele>
        <time>2011-06-12T07:17:29Z</time>
      </trkpt>
      <trkpt lat="45.1105" lon="5.27742">
        <ele>208.144549</ele>
        <time>2011-06-12T07:17:32Z</time>
      </trkpt>
      <trkpt lat="45.11036" lon="5.27706">
        <ele>207.514445</ele>
        <time>2011-06-12T07:17:35Z</time>
      </trkpt>
      <trkpt lat="45.11015" lon="5.27677">
        <ele>206.581932</ele>
        <time>2011-06-12T07:17:38Z</time>
      </trkpt>
      <trkpt lat="45.11001" lon="5.27658">
        <ele>205.252625</ele>
        <time>2011-06-12T07:17:40Z</time>
      </trkpt>
      <trkpt lat="45.10984" lon="5.2763">
        <ele>203.694157</ele>
        <time>2011-06-12T07:17:43Z</time>
      </trkpt>
      <trkpt lat="45.10975" lon="5.27608">
        <ele>202.222869</ele>
        <time>2011-06-12T07:17:45Z</time>
      </trkpt>
      <trkpt lat="45.10968" lon="5.27586">
        <ele>201.118739</ele>
        <time>2011-06-12T07:17:47Z</time>
      </trkpt>
      <trkpt lat="45.10958" lon="5.27547">
        <ele>200.251458</ele>
        <time>2011-06-12T07:17:50Z</time>
      </trkpt>
      <trkpt lat="45.10952" lon="5.2752">
        <ele>199.156716</ele>
        <time>2011-06-12T07:17:52Z</time>
      </trkpt>
      <trkpt lat="45.10947" lon="5.27494">
        <ele>197.653108</ele>
        <time>2011-06-12T07:17:54Z</time>
      </trkpt>
      <trkpt lat="45.10938" lon="5.27459">
        <ele>195.814334</ele>
        <time>2011-06-12T07:17:57Z</time>
      </trkpt>
      <trkpt lat="45.10928" lon="5.2743">
        <ele>193.824489</ele>
        <time>2011-06-12T07:18:00Z</time>
      </trkpt>
      <trkpt lat="45.10918" lon="5.27401">
        <ele>192.006038</ele>
        <time>2011-06-12T07:18:03Z</time>
      </trkpt>
      <trkpt lat="45.1091" lon="5.27384">
        <ele>190.489355</ele>
        <time>2011-06-12T07:18:05Z</time>
      </trkpt>
      <trkpt lat="45.10892" lon="5.27363">
        <ele>189.095879</ele>
        <time>2011-06-12T07:18:08Z</time>
      </trkpt>
      <trkpt lat="45.10876" lon="5.27343">
        <ele>187.609324</ele>
        <time>2011-06-12T07:18:11Z</time>
      </trkpt>
      <trkpt lat="45.10866" lon="5.27331">
        <ele>186.177322</ele>
        <time>2011-06-12T07:18:13Z</time>
      </trkpt>
      <trkpt lat="45.10858" lon="5.2732">
        <ele>185.248252</ele>
        <time>2011-06-12T07:18:15Z</time>
      </trkpt>
      <trkpt lat="45.10846" lon="5.27303">
        <ele>184.932818</ele>
        <time>2011-06-12T07:18:18Z</time>
      </trkpt>
      <trkpt lat="45.10833" lon="5.27285">
        <ele>184.91049</ele>
        <time>2011-06-12T07:18:21Z</time>
      </trkpt>
      <trkpt lat="45.10826" lon="5.27275">
        <ele>184.922282</ele>
        <time>2011-06-12T07:18:23Z</time>
      </trkpt>
      <trkpt lat="45.10818" lon="5.27266">
        <ele>184.921056</ele>
        <time>2011-06-12T07:18:25Z</time>
      </trkpt>
      <trkpt lat="45.10811" lon="5.27257">
        <ele>184.927368</ele>
        <time>2011-06-12T07:18:27Z</time>
      </trkpt>
      <trkpt lat="45.10801" lon="5.27245">
        <ele>184.916843</ele>
        <time>2011-06-12T07:18:30Z</time>
      </trkpt>
      <trkpt lat="45.1079" lon="5.27235">
        <ele>184.870927</ele>
        <time>2011-06-12T07:18:33Z</time>
      </trkpt>
      <trkpt lat="45.10782" lon="5.2723">
        <ele>184.81032</ele>
        <time>2011-06-12T07:18:35Z</time>
      </trkpt>
      <trkpt lat="45.10774" lon="5.27227">
        <ele>184.765556</ele>
        <time>2011-06-12T07:18:37Z</time>
      </trkpt>
      <trkpt lat="45.10767" lon="5.27223">
        <ele>184.650971</ele>
        <time>2011-06-12T07:18:39Z</time>
      </trkpt>
      <trkpt lat="45.10756" lon="5.27217">
        <ele>184.297563</ele>
        <time>2011-06-12T07:18:42Z</time>
      </trkpt>
      <trkpt lat="45.10746" lon="5.2721">
        <ele>183.601974</ele>
        <time>2011-06-12T07:18:45Z</time>
      </trkpt>
      <trkpt lat="45.10736" lon="5.27203">
        <ele>182.611657</ele>
        <time>2011-06-12T07:18:48Z</time>
      </trkpt>
      <trkpt lat="45.10725" lon="5.27199">
        <ele>181.414241</ele>
        <time>2011-06-12T07:18:51Z</time>
      </trkpt>
      <trkpt lat="45.10717" lon="5.27196">
        <ele>180.203545</ele>
        <time>2011-06-12T07:18:53Z</time>
      </trkpt>
      <trkpt lat="45.10707" lon="5.27189">
        <ele>179.245285</ele>
        <time>2011-06-12T07:18:56Z</time>
      </trkpt>
      <trkpt lat="45.10697" lon="5.27183">
        <ele>178.65142</ele>
        <time>2011-06-12T07:18:59Z</time>
      </trkpt>
      <trkpt lat="45.10687" lon="5.27176">
        <ele>178.335554</ele>
        <time>2011-06-12T07:19:02Z</time>
      </trkpt>
      <trkpt lat="45.1068" lon="5.2717">
        <ele>178.149731</ele>
        <time>2011-06-12T07:19:04Z</time>
      </trkpt>
      <trkpt lat="45.10669" lon="5.2716">
        <ele>177.936406</ele>
        <time>2011-06-12T07:19:07Z</time>
      </trkpt>
      <trkpt lat="45.10659" lon="5.2715">
        <ele>177.64687</ele>
        <time>2011-06-12T07:19:10Z</time>
      </trkpt>
      <trkpt lat="45.10652" lon="5.27144">
        <ele>177.337823</ele>
        <time>2011-06-12T07:19:12Z</time>
      </trkpt>
      <trkpt lat="45.10644" lon="5.27135">
        <ele>177.099905</ele>
        <time>2011-06-12T07:19:15Z</time>
      </trkpt>
      <trkpt lat="45.10639" lon="5.27131">
        <ele>176.975215</ele>
        <time>2011-06-12T07:19:17Z</time>
      </trkpt>
      <trkpt lat="45.10629" lon="5.27125">
        <ele>176.936798</ele>
        <time>2011-06-12T07:19:20Z</time>
      </trkpt>
      <trkpt lat="45.10621" lon="5.27121">
        <ele>176.938542</ele>
        <time>2011-06-12T07:19:22Z</time>
      </trkpt>
      <trkpt lat="45.10613" lon="5.27115">
        <ele>176.949207</ele>
        <time>2011-06-12T07:19:24Z</time>
      </trkpt>
      <trkpt lat="45.10602" lon="5.27107">
        <ele>176.95673</ele>
        <time>2011-06-12T07:19:27Z</time>
      </trkpt>
      <trkpt lat="45.10596" lon="5.27098">
        <ele>176.961841</ele>
        <time>2011-06-12T07:19:29Z</time>
      </trkpt>
      <trkpt lat="45.10586" lon="5.2708">
        <ele>176.968157</ele>
        <time>2011-06-12T07:19:32Z</time>
      </trkpt>
      <trkpt lat="45.10576" lon="5.27066">
        <ele>176.973943</ele>
        <time>2011-06-12T07:19:35Z</time>
      </trkpt>
      <trkpt lat="45.10565" lon="5.27058">
        <ele>176.976494</ele>
        <time>2011-06-12T07:19:38Z</time>
      </trkpt>
      <trkpt lat="45.10552" lon="5.27053">
        <ele>176.975709</ele>
        <time>2011-06-12T07:19:41Z</time>
      </trkpt>
      <trkpt lat="45.10544" lon="5.27053">
        <ele>176.929556</ele>
        <time>2011-06-12T07:19:43Z</time>
      </trkpt>
      <trkpt lat="45.10531" lon="5.27053">
        <ele>176.7659</ele>
        <time>2011-06-12T07:19:46Z</time>
      </trkpt>
      <trkpt lat="45.10519" lon="5.27052">
        <ele>176.476573</ele>
        <time>2011-06-12T07:19:49Z</time>
      </trkpt>
      <trkpt lat="45.10511" lon="5.27052">
        <ele>176.141316</ele>
        <time>2011-06-12T07:19:51Z</time>
      </trkpt>
      <trkpt lat="45.10504" lon="5.27051">
        <ele>175.827221</ele>
        <time>2011-06-12T07:19:53Z</time>
      </trkpt>
      <trkpt lat="45.10493" lon="5.27049">
        <ele>175.536866</ele>
        <time>2011-06-12T07:19:56Z</time>
      </trkpt>
      <trkpt lat="45.10486" lon="5.27047">
        <ele>175.268052</ele>
        <time>2011-06-12T07:19:58Z</time>
      </trkpt>
      <trkpt lat="45.10478" lon="5.27045">
        <ele>175.045477</ele>
        <time>2011-06-12T07:20:00Z</time>
      </trkpt>
      <trkpt lat="45.10465" lon="5.27043">
        <ele>174.859247</ele>
        <time>2011-06-12T07:20:03Z</time>
      </trkpt>
      <trkpt lat="45.10454" lon="5.27042">
        <ele>174.683577</ele>
        <time>2011-06-12T07:20:06Z</time>
      </trkpt>
      <trkpt lat="45.10444" lon="5.27043">
        <ele>174.539016</ele>
        <time>2011-06-12T07:20:09Z</time>
      </trkpt>
      <trkpt lat="45.10437" lon="5.27043">
        <ele>174.458335</ele>
        <time>2011-06-12T07:20:11Z</time>
      </trkpt>
      <trkpt lat="45.10428" lon="5.27044">
        <ele>174.428506</ele>
        <time>2011-06-12T07:20:14Z</time>
      </trkpt>
      <trkpt lat="45.10421" lon="5.27044">
        <ele>174.417257</ele>
        <time>2011-06-12T07:20:16Z</time>
      </trkpt>
      <trkpt lat="45.10411" lon="5.27044">
        <ele>174.411413</ele>
        <time>2011-06-12T07:20:19Z</time>
      </trkpt>
      <trkpt lat="45.10401" lon="5.27041">
        <ele>174.410223</ele>
        <time>2011-06-12T07:20:22Z</time>
      </trkpt>
      <trkpt lat="45.10394" lon="5.27037">
        <ele>174.41637</ele>
        <time>2011-06-12T07:20:24Z</time>
      </trkpt>
      <trkpt lat="45.10384" lon="5.27028">
        <ele>174.443072</ele>
        <time>2011-06-12T07:20:27Z</time>
      </trkpt>
      <trkpt lat="45.10378" lon="5.27022">
        <ele>174.508886</ele>
        <time>2011-06-12T07:20:29Z</time>
      </trkpt>
      <trkpt lat="45.10369" lon="5.27017">
        <ele>174.611627</ele>
        <time>2011-06-12T07:20:32Z</time>
      </trkpt>
      <trkpt lat="45.10362" lon="5.27013">
        <ele>174.729248</ele>
        <time>2011-06-12T07:20:34Z</time>
      </trkpt>
      <trkpt lat="45.10351" lon="5.27007">
        <ele>174.847835</ele>
        <time>2011-06-12T07:20:37Z</time>
      </trkpt>
      <trkpt lat="45.1034" lon="5.27001">
        <ele>174.98576</ele>
        <time>2011-06-12T07:20:40Z</time>
      </trkpt>
      <trkpt lat="45.10334" lon="5.26995">
        <ele>175.172443</ele>
        <time>2011-06-12T07:20:42Z</time>
      </trkpt>
      <trkpt lat="45.10323" lon="5.26986">
        <ele>175.428746</ele>
        <time>2011-06-12T07:20:45Z</time>
      </trkpt>
      <trkpt lat="45.1031" lon="5.26973">
        <ele>175.769001</ele>
        <time>2011-06-12T07:20:48Z</time>
      </trkpt>
      <trkpt lat="45.10302" lon="5.26965">
        <ele>176.16778</ele>
        <time>2011-06-12T07:20:50Z</time>
      </trkpt>
      <trkpt lat="45.10287" lon="5.26958">
        <ele>176.581191</ele>
        <time>2011-06-12T07:20:53Z</time>
      </trkpt>
      <trkpt lat="45.10268" lon="5.26956">
        <ele>177.49509</ele>
        <time>2011-06-12T07:20:56Z</time>
      </trkpt>
      <trkpt lat="45.10256" lon="5.26957">
        <ele>179.492198</ele>
        <time>2011-06-12T07:20:58Z</time>
      </trkpt>
      <trkpt lat="45.10244" lon="5.26958">
        <ele>182.352452</ele>
        <time>2011-06-12T07:21:00Z</time>
      </trkpt>
      <trkpt lat="45.10233" lon="5.26958">
        <ele>185.414683</ele>
        <time>2011-06-12T07:21:02Z</time>
      </trkpt>
      <trkpt lat="45.10217" lon="5.26955">
        <ele>188.098032</ele>
        <time>2011-06-12T07:21:05Z</time>
      </trkpt>
      <trkpt lat="45.10206" lon="5.26953">
        <ele>189.952515</ele>
        <time>2011-06-12T07:21:07Z</time>
      </trkpt>
      <trkpt lat="45.1019" lon="5.26955">
        <ele>190.927684</ele>
        <time>2011-06-12T07:21:10Z</time>
      </trkpt>
      <trkpt lat="45.1018" lon="5.26959">
        <ele>191.241226</ele>
        <time>2011-06-12T07:21:12Z</time>
      </trkpt>
      <trkpt lat="45.10171" lon="5.26964">
        <ele>191.199152</ele>
        <time>2011-06-12T07:21:14Z</time>
      </trkpt>
      <trkpt lat="45.10164" lon="5.26968">
        <ele>191.016009</ele>
        <time>2011-06-12T07:21:16Z</time>
      </trkpt>
      <trkpt lat="45.10152" lon="5.26973">
        <ele>190.740163</ele>
        <time>2011-06-12T07:21:19Z</time>
      </trkpt>
      <trkpt lat="45.10143" lon="5.26977">
        <ele>190.438598</ele>
        <time>2011-06-12T07:21:21Z</time>
      </trkpt>
      <trkpt lat="45.10133" lon="5.26979">
        <ele>190.187132</ele>
        <time>2011-06-12T07:21:23Z</time>
      </trkpt>
      <trkpt lat="45.10119" lon="5.26979">
        <ele>189.922663</ele>
        <time>2011-06-12T07:21:26Z</time>
      </trkpt>
      <trkpt lat="45.10103" lon="5.26978">
        <ele>189.607674</ele>
        <time>2011-06-12T07:21:29Z</time>
      </trkpt>
      <trkpt lat="45.10091" lon="5.26978">
        <ele>189.350179</ele>
        <time>2011-06-12T07:21:31Z</time>
      </trkpt>
      <trkpt lat="45.10079" lon="5.26982">
        <ele>189.181614</ele>
        <time>2011-06-12T07:21:33Z</time>
      </trkpt>
      <trkpt lat="45.10062" lon="5.26993">
        <ele>188.550661</ele>
        <time>2011-06-12T07:21:36Z</time>
      </trkpt>
      <trkpt lat="45.10045" lon="5.27004">
        <ele>187.183287</ele>
        <time>2011-06-12T07:21:39Z</time>
      </trkpt>
      <trkpt lat="45.10028" lon="5.27014">
        <ele>185.852577</ele>
        <time>2011-06-12T07:21:42Z</time>
      </trkpt>
      <trkpt lat="45.10018" lon="5.27019">
        <ele>185.241524</ele>
        <time>2011-06-12T07:21:44Z</time>
      </trkpt>
      <trkpt lat="45.10007" lon="5.27022">
        <ele>185.202018</ele>
        <time>2011-06-12T07:21:46Z</time>
      </trkpt>
      <trkpt lat="45.0999" lon="5.27021">
        <ele>185.478489</ele>
        <time>2011-06-12T07:21:49Z</time>
      </trkpt>
      <trkpt lat="45.09972" lon="5.2702">
        <ele>185.879046</ele>
        <time>2011-06-12T07:21:52Z</time>
      </trkpt>
      <trkpt lat="45.09954" lon="5.27017">
        <ele>186.297481</ele>
        <time>2011-06-12T07:21:55Z</time>
      </trkpt>
      <trkpt lat="45.09935" lon="5.27011">
        <ele>186.690911</ele>
        <time>2011-06-12T07:21:58Z</time>
      </trkpt>
      <trkpt lat="45.09923" lon="5.27008">
        <ele>187.033135</ele>
        <time>2011-06-12T07:22:00Z</time>
      </trkpt>
      <trkpt lat="45.09911" lon="5.27005">
        <ele>187.298069</ele>
        <time>2011-06-12T07:22:02Z</time>
      </trkpt>
      <trkpt lat="45.09894" lon="5.26998">
        <ele>187.464872</ele>
        <time>2011-06-12T07:22:05Z</time>
      </trkpt>
      <trkpt lat="45.09884" lon="5.26995">
        <ele>187.572841</ele>
        <time>2011-06-12T07:22:07Z</time>
      </trkpt>
      <trkpt lat="45.0987" lon="5.26991">
        <ele>187.75282</ele>
        <time>2011-06-12T07:22:10Z</time>
      </trkpt>
      <trkpt lat="45.09861" lon="5.26988">
        <ele>188.030465</ele>
        <time>2011-06-12T07:22:12Z</time>
      </trkpt>
      <trkpt lat="45.09848" lon="5.26981">
        <ele>188.277847</ele>
        <time>2011-06-12T07:22:15Z</time>
      </trkpt>
      <trkpt lat="45.09835" lon="5.26972">
        <ele>188.420472</ele>
        <time>2011-06-12T07:22:18Z</time>
      </trkpt>
      <trkpt lat="45.09825" lon="5.26961">
        <ele>188.557818</ele>
        <time>2011-06-12T07:22:21Z</time>
      </trkpt>
      <trkpt lat="45.09815" lon="5.26953">
        <ele>188.937833</ele>
        <time>2011-06-12T07:22:24Z</time>
      </trkpt>
      <trkpt lat="45.09804" lon="5.26947">
        <ele>189.770353</ele>
        <time>2011-06-12T07:22:27Z</time>
      </trkpt>
      <trkpt lat="45.09793" lon="5.26945">
        <ele>190.87247</ele>
        <time>2011-06-12T07:22:30Z</time>
      </trkpt>
      <trkpt lat="45.09786" lon="5.26944">
        <ele>191.770234</ele>
        <time>2011-06-12T07:22:32Z</time>
      </trkpt>
      <trkpt lat="45.09777" lon="5.26943">
        <ele>192.220015</ele>
        <time>2011-06-12T07:22:35Z</time>
      </trkpt>
      <trkpt lat="45.09772" lon="5.26944">
        <ele>192.33399</ele>
        <time>2011-06-12T07:22:37Z</time>
      </trkpt>
      <trkpt lat="45.09766" lon="5.26944">
        <ele>192.316494</ele>
        <time>2011-06-12T07:22:39Z</time>
      </trkpt>
      <trkpt lat="45.09758" lon="5.26942">
        <ele>192.287835</ele>
        <time>2011-06-12T07:22:42Z</time>
      </trkpt>
      <trkpt lat="45.09752" lon="5.26939">
        <ele>192.280099</ele>
        <time>2011-06-12T07:22:44Z</time>
      </trkpt>
      <trkpt lat="45.09745" lon="5.26936">
        <ele>192.286349</ele>
        <time>2011-06-12T07:22:46Z</time>
      </trkpt>
      <trkpt lat="45.09732" lon="5.2693">
        <ele>192.294502</ele>
        <time>2011-06-12T07:22:49Z</time>
      </trkpt>
      <trkpt lat="45.09717" lon="5.26925">
        <ele>192.299278</ele>
        <time>2011-06-12T07:22:52Z</time>
      </trkpt>
      <trkpt lat="45.09702" lon="5.2692">
        <ele>192.301295</ele>
        <time>2011-06-12T07:22:55Z</time>
      </trkpt>
      <trkpt lat="45.09686" lon="5.26914">
        <ele>192.302323</ele>
        <time>2011-06-12T07:22:58Z</time>
      </trkpt>
      <trkpt lat="45.09676" lon="5.2691">
        <ele>192.30291</ele>
        <time>2011-06-12T07:23:00Z</time>
      </trkpt>
      <trkpt lat="45.09666" lon="5.26907">
        <ele>192.303058</ele>
        <time>2011-06-12T07:23:02Z</time>
      </trkpt>
      <trkpt lat="45.09656" lon="5.26903">
        <ele>192.231632</ele>
        <time>2011-06-12T07:23:04Z</time>
      </trkpt>
      <trkpt lat="45.09642" lon="5.26898">
        <ele>192.015936</ele>
        <time>2011-06-12T07:23:07Z</time>
      </trkpt>
      <trkpt lat="45.09626" lon="5.26893">
        <ele>191.747652</ele>
        <time>2011-06-12T07:23:10Z</time>
      </trkpt>
      <trkpt lat="45.0961" lon="5.26891">
        <ele>191.577644</ele>
        <time>2011-06-12T07:23:12Z</time>
      </trkpt>
      <trkpt lat="45.09595" lon="5.26889">
        <ele>191.521223</ele>
        <time>2011-06-12T07:23:15Z</time>
      </trkpt>
      <trkpt lat="45.09581" lon="5.26887">
        <ele>191.509941</ele>
        <time>2011-06-12T07:23:18Z</time>
      </trkpt>
      <trkpt lat="45.09567" lon="5.26885">
        <ele>191.4977</ele>
        <time>2011-06-12T07:23:21Z</time>
      </trkpt>
      <trkpt lat="45.09558" lon="5.26882">
        <ele>191.483715</ele>
        <time>2011-06-12T07:23:23Z</time>
      </trkpt>
      <trkpt lat="45.09549" lon="5.26878">
        <ele>191.442526</ele>
        <time>2011-06-12T07:23:25Z</time>
      </trkpt>
      <trkpt lat="45.09536" lon="5.26874">
        <ele>191.287287</ele>
        <time>2011-06-12T07:23:28Z</time>
      </trkpt>
      <trkpt lat="45.09522" lon="5.26871">
        <ele>191.027774</ele>
        <time>2011-06-12T07:23:31Z</time>
      </trkpt>
      <trkpt lat="45.0951" lon="5.26867">
        <ele>190.811895</ele>
        <time>2011-06-12T07:23:34Z</time>
      </trkpt>
      <trkpt lat="45.09498" lon="5.26865">
        <ele>190.723503</ele>
        <time>2011-06-12T07:23:37Z</time>
      </trkpt>
      <trkpt lat="45.09487" lon="5.26861">
        <ele>190.75328</ele>
        <time>2011-06-12T07:23:40Z</time>
      </trkpt>
      <trkpt lat="45.09481" lon="5.2686">
        <ele>190.917274</ele>
        <time>2011-06-12T07:23:42Z</time>
      </trkpt>
      <trkpt lat="45.09472" lon="5.26859">
        <ele>191.169414</ele>
        <time>2011-06-12T07:23:45Z</time>
      </trkpt>
      <trkpt lat="45.09462" lon="5.26859">
        <ele>191.382603</ele>
        <time>2011-06-12T07:23:48Z</time>
      </trkpt>
      <trkpt lat="45.09455" lon="5.26859">
        <ele>191.496004</ele>
        <time>2011-06-12T07:23:50Z</time>
      </trkpt>
      <trkpt lat="45.09442" lon="5.26859">
        <ele>191.548665</ele>
        <time>2011-06-12T07:23:53Z</time>
      </trkpt>
      <trkpt lat="45.09427" lon="5.2686">
        <ele>191.592122</ele>
        <time>2011-06-12T07:23:56Z</time>
      </trkpt>
      <trkpt lat="45.09418" lon="5.2686">
        <ele>191.690255</ele>
        <time>2011-06-12T07:23:58Z</time>
      </trkpt>
      <trkpt lat="45.09405" lon="5.2686">
        <ele>191.959177</ele>
        <time>2011-06-12T07:24:01Z</time>
      </trkpt>
      <trkpt lat="45.09396" lon="5.26862">
        <ele>192.465554</ele>
        <time>2011-06-12T07:24:03Z</time>
      </trkpt>
      <trkpt lat="45.09384" lon="5.26866">
        <ele>193.039263</ele>
        <time>2011-06-12T07:24:06Z</time>
      </trkpt>
      <trkpt lat="45.09376" lon="5.26869">
        <ele>193.422457</ele>
        <time>2011-06-12T07:24:08Z</time>
      </trkpt>
      <trkpt lat="45.0936" lon="5.26873">
        <ele>193.56629</ele>
        <time>2011-06-12T07:24:11Z</time>
      </trkpt>
      <trkpt lat="45.09348" lon="5.26876">
        <ele>193.586658</ele>
        <time>2011-06-12T07:24:13Z</time>
      </trkpt>
      <trkpt lat="45.09332" lon="5.26882">
        <ele>193.572525</ele>
        <time>2011-06-12T07:24:16Z</time>
      </trkpt>
      <trkpt lat="45.09317" lon="5.26888">
        <ele>193.617204</ele>
        <time>2011-06-12T07:24:19Z</time>
      </trkpt>
      <trkpt lat="45.09303" lon="5.26893">
        <ele>193.781893</ele>
        <time>2011-06-12T07:24:22Z</time>
      </trkpt>
      <trkpt lat="45.09292" lon="5.26896">
        <ele>194.037169</ele>
        <time>2011-06-12T07:24:24Z</time>
      </trkpt>
      <trkpt lat="45.09283" lon="5.26898">
        <ele>194.475802</ele>
        <time>2011-06-12T07:24:26Z</time>
      </trkpt>
      <trkpt lat="45.09269" lon="5.26901">
        <ele>195.316508</ele>
        <time>2011-06-12T07:24:29Z</time>
      </trkpt>
      <trkpt lat="45.09259" lon="5.26903">
        <ele>196.477968</ele>
        <time>2011-06-12T07:24:31Z</time>
      </trkpt>
      <trkpt lat="45.09243" lon="5.26906">
        <ele>197.578305</ele>
        <time>2011-06-12T07:24:34Z</time>
      </trkpt>
      <trkpt lat="45.09226" lon="5.26907">
        <ele>198.344764</ele>
        <time>2011-06-12T07:24:37Z</time>
      </trkpt>
      <trkpt lat="45.09211" lon="5.26908">
        <ele>198.74058</ele>
        <time>2011-06-12T07:24:40Z</time>
      </trkpt>
      <trkpt lat="45.09196" lon="5.26909">
        <ele>198.856844</ele>
        <time>2011-06-12T07:24:43Z</time>
      </trkpt>
      <trkpt lat="45.09185" lon="5.2691">
        <ele>198.834298</ele>
        <time>2011-06-12T07:24:45Z</time>
      </trkpt>
      <trkpt lat="45.09171" lon="5.2691">
        <ele>198.781414</ele>
        <time>2011-06-12T07:24:48Z</time>
      </trkpt>
      <trkpt lat="45.09163" lon="5.26911">
        <ele>198.728211</ele>
        <time>2011-06-12T07:24:50Z</time>
      </trkpt>
      <trkpt lat="45.09151" lon="5.26913">
        <ele>198.606777</ele>
        <time>2011-06-12T07:24:53Z</time>
      </trkpt>
      <trkpt lat="45.09136" lon="5.26915">
        <ele>198.320512</ele>
        <time>2011-06-12T07:24:56Z</time>
      </trkpt>
      <trkpt lat="45.09126" lon="5.26916">
        <ele>197.927531</ele>
        <time>2011-06-12T07:24:58Z</time>
      </trkpt>
      <trkpt lat="45.0911" lon="5.26916">
        <ele>197.584592</ele>
        <time>2011-06-12T07:25:01Z</time>
      </trkpt>
      <trkpt lat="45.09094" lon="5.26917">
        <ele>197.278333</ele>
        <time>2011-06-12T07:25:04Z</time>
      </trkpt>
      <trkpt lat="45.09083" lon="5.26917">
        <ele>196.945066</ele>
        <time>2011-06-12T07:25:06Z</time>
      </trkpt>
      <trkpt lat="45.09068" lon="5.26916">
        <ele>196.669478</ele>
        <time>2011-06-12T07:25:09Z</time>
      </trkpt>
      <trkpt lat="45.09058" lon="5.26916">
        <ele>196.511305</ele>
        <time>2011-06-12T07:25:11Z</time>
      </trkpt>
      <trkpt lat="45.09047" lon="5.26917">
        <ele>196.42611</ele>
        <time>2011-06-12T07:25:13Z</time>
      </trkpt>
      <trkpt lat="45.09032" lon="5.26919">
        <ele>196.369318</ele>
        <time>2011-06-12T07:25:16Z</time>
      </trkpt>
      <trkpt lat="45.09014" lon="5.26924">
        <ele>196.290111</ele>
        <time>2011-06-12T07:25:19Z</time>
      </trkpt>
      <trkpt lat="45.09002" lon="5.26927">
        <ele>196.157719</ele>
        <time>2011-06-12T07:25:21Z</time>
      </trkpt>
      <trkpt lat="45.08985" lon="5.26932">
        <ele>195.966936</ele>
        <time>2011-06-12T07:25:24Z</time>
      </trkpt>
      <trkpt lat="45.08969" lon="5.26935">
        <ele>195.751546</ele>
        <time>2011-06-12T07:25:27Z</time>
      </trkpt>
      <trkpt lat="45.08958" lon="5.26935">
        <ele>195.595735</ele>
        <time>2011-06-12T07:25:29Z</time>
      </trkpt>
      <trkpt lat="45.0894" lon="5.26934">
        <ele>195.512732</ele>
        <time>2011-06-12T07:25:32Z</time>
      </trkpt>
      <trkpt lat="45.08923" lon="5.26933">
        <ele>195.444302</ele>
        <time>2011-06-12T07:25:35Z</time>
      </trkpt>
      <trkpt lat="45.08911" lon="5.26934">
        <ele>195.389285</ele>
        <time>2011-06-12T07:25:37Z</time>
      </trkpt>
      <trkpt lat="45.08893" lon="5.26935">
        <ele>195.367412</ele>
        <time>2011-06-12T07:25:40Z</time>
      </trkpt>
      <trkpt lat="45.08882" lon="5.26936">
        <ele>195.32664</ele>
        <time>2011-06-12T07:25:42Z</time>
      </trkpt>
      <trkpt lat="45.08871" lon="5.2694">
        <ele>195.225284</ele>
        <time>2011-06-12T07:25:45Z</time>
      </trkpt>
      <trkpt lat="45.08862" lon="5.26942">
        <ele>195.11257</ele>
        <time>2011-06-12T07:25:47Z</time>
      </trkpt>
      <trkpt lat="45.08847" lon="5.26944">
        <ele>195.037728</ele>
        <time>2011-06-12T07:25:50Z</time>
      </trkpt>
      <trkpt lat="45.08837" lon="5.26943">
        <ele>194.958826</ele>
        <time>2011-06-12T07:25:52Z</time>
      </trkpt>
      <trkpt lat="45.08825" lon="5.26942">
        <ele>194.815295</ele>
        <time>2011-06-12T07:25:54Z</time>
      </trkpt>
      <trkpt lat="45.08813" lon="5.2694">
        <ele>194.622627</ele>
        <time>2011-06-12T07:25:56Z</time>
      </trkpt>
      <trkpt lat="45.088" lon="5.26936">
        <ele>194.465889</ele>
        <time>2011-06-12T07:25:58Z</time>
      </trkpt>
      <trkpt lat="45.08783" lon="5.2693">
        <ele>194.393729</ele>
        <time>2011-06-12T07:26:01Z</time>
      </trkpt>
      <trkpt lat="45.08766" lon="5.26926">
        <ele>194.384126</ele>
        <time>2011-06-12T07:26:04Z</time>
      </trkpt>
      <trkpt lat="45.08741" lon="5.26923">
        <ele>194.428971</ele>
        <time>2011-06-12T07:26:07Z</time>
      </trkpt>
      <trkpt lat="45.08722" lon="5.2692">
        <ele>194.542088</ele>
        <time>2011-06-12T07:26:10Z</time>
      </trkpt>
      <trkpt lat="45.08709" lon="5.26917">
        <ele>194.705434</ele>
        <time>2011-06-12T07:26:12Z</time>
      </trkpt>
      <trkpt lat="45.08698" lon="5.26914">
        <ele>194.867716</ele>
        <time>2011-06-12T07:26:14Z</time>
      </trkpt>
      <trkpt lat="45.08687" lon="5.26911">
        <ele>194.988818</ele>
        <time>2011-06-12T07:26:16Z</time>
      </trkpt>
      <trkpt lat="45.08671" lon="5.26907">
        <ele>195.066237</ele>
        <time>2011-06-12T07:26:19Z</time>
      </trkpt>
      <trkpt lat="45.08654" lon="5.26904">
        <ele>195.117299</ele>
        <time>2011-06-12T07:26:22Z</time>
      </trkpt>
      <trkpt lat="45.08642" lon="5.26902">
        <ele>195.143467</ele>
        <time>2011-06-12T07:26:24Z</time>
      </trkpt>
      <trkpt lat="45.08625" lon="5.26894">
        <ele>195.148595</ele>
        <time>2011-06-12T07:26:27Z</time>
      </trkpt>
      <trkpt lat="45.08613" lon="5.26888">
        <ele>195.08838</ele>
        <time>2011-06-12T07:26:29Z</time>
      </trkpt>
      <trkpt lat="45.08594" lon="5.26877">
        <ele>194.926944</ele>
        <time>2011-06-12T07:26:32Z</time>
      </trkpt>
      <trkpt lat="45.08583" lon="5.26871">
        <ele>194.735111</ele>
        <time>2011-06-12T07:26:34Z</time>
      </trkpt>
      <trkpt lat="45.08572" lon="5.26864">
        <ele>194.585166</ele>
        <time>2011-06-12T07:26:36Z</time>
      </trkpt>
      <trkpt lat="45.08563" lon="5.26858">
        <ele>194.430241</ele>
        <time>2011-06-12T07:26:38Z</time>
      </trkpt>
      <trkpt lat="45.08549" lon="5.2685">
        <ele>194.230326</ele>
        <time>2011-06-12T07:26:41Z</time>
      </trkpt>
      <trkpt lat="45.08539" lon="5.26844">
        <ele>194.029553</ele>
        <time>2011-06-12T07:26:43Z</time>
      </trkpt>
      <trkpt lat="45.08528" lon="5.26838">
        <ele>193.867768</ele>
        <time>2011-06-12T07:26:45Z</time>
      </trkpt>
      <trkpt lat="45.08513" lon="5.26828">
        <ele>193.706858</ele>
        <time>2011-06-12T07:26:48Z</time>
      </trkpt>
      <trkpt lat="45.08499" lon="5.26819">
        <ele>193.514237</ele>
        <time>2011-06-12T07:26:51Z</time>
      </trkpt>
      <trkpt lat="45.0849" lon="5.26813">
        <ele>193.313317</ele>
        <time>2011-06-12T07:26:53Z</time>
      </trkpt>
      <trkpt lat="45.0848" lon="5.26808">
        <ele>193.121864</ele>
        <time>2011-06-12T07:26:55Z</time>
      </trkpt>
      <trkpt lat="45.08465" lon="5.268">
        <ele>192.892091</ele>
        <time>2011-06-12T07:26:58Z</time>
      </trkpt>
      <trkpt lat="45.08454" lon="5.26794">
        <ele>192.632001</ele>
        <time>2011-06-12T07:27:00Z</time>
      </trkpt>
      <trkpt lat="45.08435" lon="5.26786">
        <ele>192.44448</ele>
        <time>2011-06-12T07:27:03Z</time>
      </trkpt>
      <trkpt lat="45.08418" lon="5.26779">
        <ele>192.377575</ele>
        <time>2011-06-12T07:27:06Z</time>
      </trkpt>
      <trkpt lat="45.08406" lon="5.26773">
        <ele>192.421248</ele>
        <time>2011-06-12T07:27:09Z</time>
      </trkpt>
      <trkpt lat="45.08399" lon="5.26771">
        <ele>192.711481</ele>
        <time>2011-06-12T07:27:11Z</time>
      </trkpt>
      <trkpt lat="45.08387" lon="5.26766">
        <ele>193.407418</ele>
        <time>2011-06-12T07:27:14Z</time>
      </trkpt>
      <trkpt lat="45.08375" lon="5.26761">
        <ele>194.342729</ele>
        <time>2011-06-12T07:27:16Z</time>
      </trkpt>
      <trkpt lat="45.08358" lon="5.26752">
        <ele>195.105448</ele>
        <time>2011-06-12T07:27:19Z</time>
      </trkpt>
      <trkpt lat="45.08347" lon="5.26745">
        <ele>195.48253</ele>
        <time>2011-06-12T07:27:21Z</time>
      </trkpt>
      <trkpt lat="45.0833" lon="5.26738">
        <ele>195.565664</ele>
        <time>2011-06-12T07:27:24Z</time>
      </trkpt>
      <trkpt lat="45.08313" lon="5.26736">
        <ele>195.528953</ele>
        <time>2011-06-12T07:27:27Z</time>
      </trkpt>
      <trkpt lat="45.08294" lon="5.26738">
        <ele>195.477661</ele>
        <time>2011-06-12T07:27:30Z</time>
      </trkpt>
      <trkpt lat="45.08277" lon="5.26739">
        <ele>195.393059</ele>
        <time>2011-06-12T07:27:33Z</time>
      </trkpt>
      <trkpt lat="45.08266" lon="5.26737">
        <ele>195.239401</ele>
        <time>2011-06-12T07:27:35Z</time>
      </trkpt>
      <trkpt lat="45.08249" lon="5.26732">
        <ele>195.091469</ele>
        <time>2011-06-12T07:27:38Z</time>
      </trkpt>
      <trkpt lat="45.08234" lon="5.26722">
        <ele>195.02401</ele>
        <time>2011-06-12T07:27:41Z</time>
      </trkpt>
      <trkpt lat="45.08219" lon="5.2671">
        <ele>195.042319</ele>
        <time>2011-06-12T07:27:44Z</time>
      </trkpt>
      <trkpt lat="45.08209" lon="5.26701">
        <ele>195.14586</ele>
        <time>2011-06-12T07:27:46Z</time>
      </trkpt>
      <trkpt lat="45.08194" lon="5.26689">
        <ele>195.283817</ele>
        <time>2011-06-12T07:27:49Z</time>
      </trkpt>
      <trkpt lat="45.0818" lon="5.26677">
        <ele>195.388056</ele>
        <time>2011-06-12T07:27:52Z</time>
      </trkpt>
      <trkpt lat="45.08171" lon="5.26669">
        <ele>195.445524</ele>
        <time>2011-06-12T07:27:54Z</time>
      </trkpt>
      <trkpt lat="45.08157" lon="5.26656">
        <ele>195.471162</ele>
        <time>2011-06-12T07:27:57Z</time>
      </trkpt>
      <trkpt lat="45.08147" lon="5.26646">
        <ele>195.477408</ele>
        <time>2011-06-12T07:27:59Z</time>
      </trkpt>
      <trkpt lat="45.08136" lon="5.26638">
        <ele>195.477306</ele>
        <time>2011-06-12T07:28:01Z</time>
      </trkpt>
      <trkpt lat="45.08121" lon="5.26626">
        <ele>195.511862</ele>
        <time>2011-06-12T07:28:04Z</time>
      </trkpt>
      <trkpt lat="45.08108" lon="5.26615">
        <ele>195.603397</ele>
        <time>2011-06-12T07:28:07Z</time>
      </trkpt>
      <trkpt lat="45.08095" lon="5.26604">
        <ele>195.698356</ele>
        <time>2011-06-12T07:28:10Z</time>
      </trkpt>
      <trkpt lat="45.08087" lon="5.26596">
        <ele>195.752217</ele>
        <time>2011-06-12T07:28:12Z</time>
      </trkpt>
      <trkpt lat="45.08081" lon="5.26588">
        <ele>195.781337</ele>
        <time>2011-06-12T07:28:14Z</time>
      </trkpt>
      <trkpt lat="45.08074" lon="5.26578">
        <ele>195.803747</ele>
        <time>2011-06-12T07:28:16Z</time>
      </trkpt>
      <trkpt lat="45.08068" lon="5.26569">
        <ele>195.84929</ele>
        <time>2011-06-12T07:28:18Z</time>
      </trkpt>
      <trkpt lat="45.08056" lon="5.26556">
        <ele>195.974922</ele>
        <time>2011-06-12T07:28:21Z</time>
      </trkpt>
      <trkpt lat="45.08047" lon="5.26549">
        <ele>196.21135</ele>
        <time>2011-06-12T07:28:23Z</time>
      </trkpt>
      <trkpt lat="45.08033" lon="5.26539">
        <ele>196.490177</ele>
        <time>2011-06-12T07:28:26Z</time>
      </trkpt>
      <trkpt lat="45.08023" lon="5.26532">
        <ele>196.69166</ele>
        <time>2011-06-12T07:28:28Z</time>
      </trkpt>
      <trkpt lat="45.08014" lon="5.26524">
        <ele>196.771553</ele>
        <time>2011-06-12T07:28:30Z</time>
      </trkpt>
      <trkpt lat="45.08001" lon="5.26512">
        <ele>196.774223</ele>
        <time>2011-06-12T07:28:33Z</time>
      </trkpt>
      <trkpt lat="45.07992" lon="5.26503">
        <ele>196.736037</ele>
        <time>2011-06-12T07:28:35Z</time>
      </trkpt>
      <trkpt lat="45.07983" lon="5.26494">
        <ele>196.640556</ele>
        <time>2011-06-12T07:28:37Z</time>
      </trkpt>
      <trkpt lat="45.0797" lon="5.26482">
        <ele>196.463656</ele>
        <time>2011-06-12T07:28:40Z</time>
      </trkpt>
      <trkpt lat="45.07959" lon="5.26469">
        <ele>196.23754</ele>
        <time>2011-06-12T07:28:43Z</time>
      </trkpt>
      <trkpt lat="45.0795" lon="5.26453">
        <ele>196.02247</ele>
        <time>2011-06-12T07:28:46Z</time>
      </trkpt>
      <trkpt lat="45.07946" lon="5.26442">
        <ele>195.848275</ele>
        <time>2011-06-12T07:28:48Z</time>
      </trkpt>
      <trkpt lat="45.07942" lon="5.26433">
        <ele>195.718579</ele>
        <time>2011-06-12T07:28:50Z</time>
      </trkpt>
      <trkpt lat="45.07936" lon="5.2642">
        <ele>195.62555</ele>
        <time>2011-06-12T07:28:53Z</time>
      </trkpt>
      <trkpt lat="45.0793" lon="5.26415">
        <ele>195.526718</ele>
        <time>2011-06-12T07:28:55Z</time>
      </trkpt>
      <trkpt lat="45.07921" lon="5.26409">
        <ele>195.403393</ele>
        <time>2011-06-12T07:28:58Z</time>
      </trkpt>
      <trkpt lat="45.07913" lon="5.26407">
        <ele>195.300446</ele>
        <time>2011-06-12T07:29:00Z</time>
      </trkpt>
      <trkpt lat="45.07905" lon="5.26404">
        <ele>195.25255</ele>
        <time>2011-06-12T07:29:02Z</time>
      </trkpt>
      <trkpt lat="45.07896" lon="5.26401">
        <ele>195.243764</ele>
        <time>2011-06-12T07:29:04Z</time>
      </trkpt>
      <trkpt lat="45.07888" lon="5.26397">
        <ele>195.252906</ele>
        <time>2011-06-12T07:29:06Z</time>
      </trkpt>
      <trkpt lat="45.07875" lon="5.26389">
        <ele>195.272023</ele>
        <time>2011-06-12T07:29:09Z</time>
      </trkpt>
      <trkpt lat="45.07866" lon="5.26382">
        <ele>195.307969</ele>
        <time>2011-06-12T07:29:11Z</time>
      </trkpt>
      <trkpt lat="45.07855" lon="5.26374">
        <ele>195.364624</ele>
        <time>2011-06-12T07:29:14Z</time>
      </trkpt>
      <trkpt lat="45.07847" lon="5.26368">
        <ele>195.452074</ele>
        <time>2011-06-12T07:29:16Z</time>
      </trkpt>
      <trkpt lat="45.07836" lon="5.26359">
        <ele>195.575192</ele>
        <time>2011-06-12T07:29:19Z</time>
      </trkpt>
      <trkpt lat="45.07823" lon="5.26352">
        <ele>195.703938</ele>
        <time>2011-06-12T07:29:22Z</time>
      </trkpt>
      <trkpt lat="45.0781" lon="5.26348">
        <ele>195.819879</ele>
        <time>2011-06-12T07:29:25Z</time>
      </trkpt>
      <trkpt lat="45.07802" lon="5.26344">
        <ele>195.993045</ele>
        <time>2011-06-12T07:29:27Z</time>
      </trkpt>
      <trkpt lat="45.07793" lon="5.26341">
        <ele>196.268343</ele>
        <time>2011-06-12T07:29:29Z</time>
      </trkpt>
      <trkpt lat="45.07784" lon="5.26337">
        <ele>196.546735</ele>
        <time>2011-06-12T07:29:31Z</time>
      </trkpt>
      <trkpt lat="45.0777" lon="5.2633">
        <ele>196.709365</ele>
        <time>2011-06-12T07:29:34Z</time>
      </trkpt>
      <trkpt lat="45.07761" lon="5.26325">
        <ele>196.755912</ele>
        <time>2011-06-12T07:29:36Z</time>
      </trkpt>
      <trkpt lat="45.07747" lon="5.26317">
        <ele>196.745452</ele>
        <time>2011-06-12T07:29:39Z</time>
      </trkpt>
      <trkpt lat="45.07733" lon="5.26311">
        <ele>196.723449</ele>
        <time>2011-06-12T07:29:42Z</time>
      </trkpt>
      <trkpt lat="45.07725" lon="5.26308">
        <ele>196.68146</ele>
        <time>2011-06-12T07:29:44Z</time>
      </trkpt>
      <trkpt lat="45.07712" lon="5.26304">
        <ele>196.549814</ele>
        <time>2011-06-12T07:29:47Z</time>
      </trkpt>
      <trkpt lat="45.077" lon="5.26301">
        <ele>196.298212</ele>
        <time>2011-06-12T07:29:50Z</time>
      </trkpt>
      <trkpt lat="45.07691" lon="5.26299">
        <ele>196.015814</ele>
        <time>2011-06-12T07:29:52Z</time>
      </trkpt>
      <trkpt lat="45.07677" lon="5.26299">
        <ele>195.752891</ele>
        <time>2011-06-12T07:29:55Z</time>
      </trkpt>
      <trkpt lat="45.07666" lon="5.26298">
        <ele>195.481335</ele>
        <time>2011-06-12T07:29:57Z</time>
      </trkpt>
      <trkpt lat="45.07652" lon="5.26292">
        <ele>195.241539</ele>
        <time>2011-06-12T07:30:00Z</time>
      </trkpt>
      <trkpt lat="45.07639" lon="5.26284">
        <ele>195.095658</ele>
        <time>2011-06-12T07:30:03Z</time>
      </trkpt>
      <trkpt lat="45.07631" lon="5.26276">
        <ele>195.03022</ele>
        <time>2011-06-12T07:30:05Z</time>
      </trkpt>
      <trkpt lat="45.07618" lon="5.26265">
        <ele>195.013888</ele>
        <time>2011-06-12T07:30:08Z</time>
      </trkpt>
      <trkpt lat="45.07608" lon="5.26252">
        <ele>195.019984</ele>
        <time>2011-06-12T07:30:11Z</time>
      </trkpt>
      <trkpt lat="45.07604" lon="5.26241">
        <ele>195.029222</ele>
        <time>2011-06-12T07:30:13Z</time>
      </trkpt>
      <trkpt lat="45.07596" lon="5.26224">
        <ele>195.036714</ele>
        <time>2011-06-12T07:30:16Z</time>
      </trkpt>
      <trkpt lat="45.07587" lon="5.26209">
        <ele>195.090741</ele>
        <time>2011-06-12T07:30:19Z</time>
      </trkpt>
      <trkpt lat="45.07578" lon="5.26193">
        <ele>195.218207</ele>
        <time>2011-06-12T07:30:22Z</time>
      </trkpt>
      <trkpt lat="45.07572" lon="5.26182">
        <ele>195.346279</ele>
        <time>2011-06-12T07:30:24Z</time>
      </trkpt>
      <trkpt lat="45.07561" lon="5.26165">
        <ele>195.421054</ele>
        <time>2011-06-12T07:30:27Z</time>
      </trkpt>
      <trkpt lat="45.0755" lon="5.2615">
        <ele>195.484315</ele>
        <time>2011-06-12T07:30:30Z</time>
      </trkpt>
      <trkpt lat="45.07542" lon="5.2614">
        <ele>195.557905</ele>
        <time>2011-06-12T07:30:32Z</time>
      </trkpt>
      <trkpt lat="45.07535" lon="5.2613">
        <ele>195.725083</ele>
        <time>2011-06-12T07:30:34Z</time>
      </trkpt>
      <trkpt lat="45.07523" lon="5.26115">
        <ele>196.115828</ele>
        <time>2011-06-12T07:30:37Z</time>
      </trkpt>
      <trkpt lat="45.07512" lon="5.261">
        <ele>196.652929</ele>
        <time>2011-06-12T07:30:40Z</time>
      </trkpt>
      <trkpt lat="45.075" lon="5.26086">
        <ele>197.105539</ele>
        <time>2011-06-12T07:30:43Z</time>
      </trkpt>
      <trkpt lat="45.07487" lon="5.26072">
        <ele>197.382816</ele>
        <time>2011-06-12T07:30:46Z</time>
      </trkpt>
      <trkpt lat="45.07473" lon="5.26057">
        <ele>197.568393</ele>
        <time>2011-06-12T07:30:49Z</time>
      </trkpt>
      <trkpt lat="45.07459" lon="5.26042">
        <ele>197.795178</ele>
        <time>2011-06-12T07:30:52Z</time>
      </trkpt>
      <trkpt lat="45.07445" lon="5.26028">
        <ele>198.064643</ele>
        <time>2011-06-12T07:30:55Z</time>
      </trkpt>
      <trkpt lat="45.07432" lon="5.26014">
        <ele>198.257616</ele>
        <time>2011-06-12T07:30:58Z</time>
      </trkpt>
      <trkpt lat="45.07419" lon="5.26001">
        <ele>198.325948</ele>
        <time>2011-06-12T07:31:01Z</time>
      </trkpt>
      <trkpt lat="45.07407" lon="5.25985">
        <ele>198.315</ele>
        <time>2011-06-12T07:31:04Z</time>
      </trkpt>
      <trkpt lat="45.07399" lon="5.25975">
        <ele>198.270153</ele>
        <time>2011-06-12T07:31:06Z</time>
      </trkpt>
      <trkpt lat="45.07388" lon="5.25959">
        <ele>198.22167</ele>
        <time>2011-06-12T07:31:09Z</time>
      </trkpt>
      <trkpt lat="45.07382" lon="5.25948">
        <ele>198.142897</ele>
        <time>2011-06-12T07:31:11Z</time>
      </trkpt>
      <trkpt lat="45.07376" lon="5.25935">
        <ele>197.979545</ele>
        <time>2011-06-12T07:31:13Z</time>
      </trkpt>
      <trkpt lat="45.07367" lon="5.25917">
        <ele>197.737977</ele>
        <time>2011-06-12T07:31:16Z</time>
      </trkpt>
      <trkpt lat="45.07361" lon="5.25905">
        <ele>197.475044</ele>
        <time>2011-06-12T07:31:18Z</time>
      </trkpt>
      <trkpt lat="45.07352" lon="5.25897">
        <ele>197.226148</ele>
        <time>2011-06-12T07:31:20Z</time>
      </trkpt>
      <trkpt lat="45.07338" lon="5.25881">
        <ele>196.981303</ele>
        <time>2011-06-12T07:31:23Z</time>
      </trkpt>
      <trkpt lat="45.07325" lon="5.25861">
        <ele>196.739479</ele>
        <time>2011-06-12T07:31:26Z</time>
      </trkpt>
      <trkpt lat="45.07312" lon="5.25842">
        <ele>196.549178</ele>
        <time>2011-06-12T07:31:29Z</time>
      </trkpt>
      <trkpt lat="45.07299" lon="5.25825">
        <ele>196.430662</ele>
        <time>2011-06-12T07:31:32Z</time>
      </trkpt>
      <trkpt lat="45.07285" lon="5.25818">
        <ele>196.360613</ele>
        <time>2011-06-12T07:31:35Z</time>
      </trkpt>
      <trkpt lat="45.07275" lon="5.25814">
        <ele>196.319656</ele>
        <time>2011-06-12T07:31:37Z</time>
      </trkpt>
      <trkpt lat="45.0726" lon="5.25806">
        <ele>196.288396</ele>
        <time>2011-06-12T07:31:40Z</time>
      </trkpt>
      <trkpt lat="45.07244" lon="5.25795">
        <ele>196.257052</ele>
        <time>2011-06-12T07:31:43Z</time>
      </trkpt>
      <trkpt lat="45.07233" lon="5.25781">
        <ele>196.218623</ele>
        <time>2011-06-12T07:31:46Z</time>
      </trkpt>
      <trkpt lat="45.07226" lon="5.2577">
        <ele>196.122919</ele>
        <time>2011-06-12T07:31:48Z</time>
      </trkpt>
      <trkpt lat="45.07215" lon="5.25753">
        <ele>195.960962</ele>
        <time>2011-06-12T07:31:51Z</time>
      </trkpt>
      <trkpt lat="45.07209" lon="5.25741">
        <ele>195.818027</ele>
        <time>2011-06-12T07:31:53Z</time>
      </trkpt>
      <trkpt lat="45.072" lon="5.25722">
        <ele>195.754376</ele>
        <time>2011-06-12T07:31:56Z</time>
      </trkpt>
      <trkpt lat="45.07192" lon="5.25705">
        <ele>195.747237</ele>
        <time>2011-06-12T07:31:59Z</time>
      </trkpt>
      <trkpt lat="45.07188" lon="5.25687">
        <ele>195.822075</ele>
        <time>2011-06-12T07:32:02Z</time>
      </trkpt>
      <trkpt lat="45.07184" lon="5.25672">
        <ele>196.11522</ele>
        <time>2011-06-12T07:32:05Z</time>
      </trkpt>
      <trkpt lat="45.07182" lon="5.25656">
        <ele>196.65249</ele>
        <time>2011-06-12T07:32:08Z</time>
      </trkpt>
      <trkpt lat="45.07182" lon="5.2564">
        <ele>197.2197</ele>
        <time>2011-06-12T07:32:11Z</time>
      </trkpt>
      <trkpt lat="45.07179" lon="5.25628">
        <ele>197.600118</ele>
        <time>2011-06-12T07:32:13Z</time>
      </trkpt>
      <trkpt lat="45.07177" lon="5.25617">
        <ele>197.773877</ele>
        <time>2011-06-12T07:32:15Z</time>
      </trkpt>
      <trkpt lat="45.07173" lon="5.25602">
        <ele>197.877294</ele>
        <time>2011-06-12T07:32:18Z</time>
      </trkpt>
      <trkpt lat="45.0717" lon="5.25587">
        <ele>198.053882</ele>
        <time>2011-06-12T07:32:21Z</time>
      </trkpt>
      <trkpt lat="45.07168" lon="5.25578">
        <ele>198.327431</ele>
        <time>2011-06-12T07:32:23Z</time>
      </trkpt>
      <trkpt lat="45.07167" lon="5.2557">
        <ele>198.630179</ele>
        <time>2011-06-12T07:32:25Z</time>
      </trkpt>
      <trkpt lat="45.07165" lon="5.2556">
        <ele>198.879997</ele>
        <time>2011-06-12T07:32:27Z</time>
      </trkpt>
      <trkpt lat="45.07161" lon="5.25545">
        <ele>199.031903</ele>
        <time>2011-06-12T07:32:30Z</time>
      </trkpt>
      <trkpt lat="45.07156" lon="5.25529">
        <ele>199.106755</ele>
        <time>2011-06-12T07:32:33Z</time>
      </trkpt>
      <trkpt lat="45.0715" lon="5.25512">
        <ele>199.158785</ele>
        <time>2011-06-12T07:32:36Z</time>
      </trkpt>
      <trkpt lat="45.07144" lon="5.25492">
        <ele>199.236334</ele>
        <time>2011-06-12T07:32:39Z</time>
      </trkpt>
      <trkpt lat="45.0714" lon="5.25479">
        <ele>199.367379</ele>
        <time>2011-06-12T07:32:41Z</time>
      </trkpt>
      <trkpt lat="45.07134" lon="5.25457">
        <ele>199.772941</ele>
        <time>2011-06-12T07:32:44Z</time>
      </trkpt>
      <trkpt lat="45.07131" lon="5.2544">
        <ele>200.684986</ele>
        <time>2011-06-12T07:32:46Z</time>
      </trkpt>
      <trkpt lat="45.07127" lon="5.25424">
        <ele>201.848426</ele>
        <time>2011-06-12T07:32:48Z</time>
      </trkpt>
      <trkpt lat="45.07124" lon="5.25408">
        <ele>202.828939</ele>
        <time>2011-06-12T07:32:50Z</time>
      </trkpt>
      <trkpt lat="45.07118" lon="5.25387">
        <ele>203.557927</ele>
        <time>2011-06-12T07:32:53Z</time>
      </trkpt>
      <trkpt lat="45.07114" lon="5.25374">
        <ele>204.151482</ele>
        <time>2011-06-12T07:32:55Z</time>
      </trkpt>
      <trkpt lat="45.07109" lon="5.25361">
        <ele>204.684203</ele>
        <time>2011-06-12T07:32:57Z</time>
      </trkpt>
      <trkpt lat="45.07104" lon="5.25348">
        <ele>205.171527</ele>
        <time>2011-06-12T07:32:59Z</time>
      </trkpt>
      <trkpt lat="45.071" lon="5.25335">
        <ele>205.579938</ele>
        <time>2011-06-12T07:33:01Z</time>
      </trkpt>
      <trkpt lat="45.07094" lon="5.25316">
        <ele>205.876612</ele>
        <time>2011-06-12T07:33:04Z</time>
      </trkpt>
      <trkpt lat="45.07089" lon="5.25298">
        <ele>206.073472</ele>
        <time>2011-06-12T07:33:07Z</time>
      </trkpt>
      <trkpt lat="45.07085" lon="5.25286">
        <ele>206.197257</ele>
        <time>2011-06-12T07:33:09Z</time>
      </trkpt>
      <trkpt lat="45.0708" lon="5.25268">
        <ele>206.254351</ele>
        <time>2011-06-12T07:33:12Z</time>
      </trkpt>
      <trkpt lat="45.07076" lon="5.25256">
        <ele>206.262014</ele>
        <time>2011-06-12T07:33:14Z</time>
      </trkpt>
      <trkpt lat="45.0707" lon="5.25236">
        <ele>206.236877</ele>
        <time>2011-06-12T07:33:17Z</time>
      </trkpt>
      <trkpt lat="45.07063" lon="5.25217">
        <ele>206.167354</ele>
        <time>2011-06-12T07:33:20Z</time>
      </trkpt>
      <trkpt lat="45.0706" lon="5.25204">
        <ele>206.067929</ele>
        <time>2011-06-12T07:33:22Z</time>
      </trkpt>
      <trkpt lat="45.07054" lon="5.25184">
        <ele>205.959956</ele>
        <time>2011-06-12T07:33:25Z</time>
      </trkpt>
      <trkpt lat="45.07051" lon="5.25171">
        <ele>205.784589</ele>
        <time>2011-06-12T07:33:27Z</time>
      </trkpt>
      <trkpt lat="45.07045" lon="5.25152">
        <ele>205.501597</ele>
        <time>2011-06-12T07:33:30Z</time>
      </trkpt>
      <trkpt lat="45.07042" lon="5.25139">
        <ele>205.210781</ele>
        <time>2011-06-12T07:33:32Z</time>
      </trkpt>
      <trkpt lat="45.07038" lon="5.2512">
        <ele>205.031349</ele>
        <time>2011-06-12T07:33:35Z</time>
      </trkpt>
      <trkpt lat="45.07032" lon="5.25099">
        <ele>204.970579</ele>
        <time>2011-06-12T07:33:38Z</time>
      </trkpt>
      <trkpt lat="45.07023" lon="5.25083">
        <ele>204.964742</ele>
        <time>2011-06-12T07:33:40Z</time>
      </trkpt>
      <trkpt lat="45.07013" lon="5.25066">
        <ele>204.965103</ele>
        <time>2011-06-12T07:33:42Z</time>
      </trkpt>
      <trkpt lat="45.07002" lon="5.25046">
        <ele>204.962097</ele>
        <time>2011-06-12T07:33:44Z</time>
      </trkpt>
      <trkpt lat="45.0699" lon="5.25026">
        <ele>204.934122</ele>
        <time>2011-06-12T07:33:46Z</time>
      </trkpt>
      <trkpt lat="45.06977" lon="5.25007">
        <ele>204.809497</ele>
        <time>2011-06-12T07:33:48Z</time>
      </trkpt>
      <trkpt lat="45.06958" lon="5.24979">
        <ele>204.543662</ele>
        <time>2011-06-12T07:33:51Z</time>
      </trkpt>
      <trkpt lat="45.06943" lon="5.24949">
        <ele>204.19914</ele>
        <time>2011-06-12T07:33:54Z</time>
      </trkpt>
      <trkpt lat="45.06935" lon="5.2493">
        <ele>203.905654</ele>
        <time>2011-06-12T07:33:56Z</time>
      </trkpt>
      <trkpt lat="45.06925" lon="5.24905">
        <ele>203.740723</ele>
        <time>2011-06-12T07:33:59Z</time>
      </trkpt>
      <trkpt lat="45.06918" lon="5.2488">
        <ele>203.641503</ele>
        <time>2011-06-12T07:34:02Z</time>
      </trkpt>
      <trkpt lat="45.06912" lon="5.24865">
        <ele>203.524292</ele>
        <time>2011-06-12T07:34:04Z</time>
      </trkpt>
      <trkpt lat="45.06903" lon="5.24844">
        <ele>203.405252</ele>
        <time>2011-06-12T07:34:07Z</time>
      </trkpt>
      <trkpt lat="45.06897" lon="5.2483">
        <ele>203.300093</ele>
        <time>2011-06-12T07:34:09Z</time>
      </trkpt>
      <trkpt lat="45.0689" lon="5.24808">
        <ele>203.181857</ele>
        <time>2011-06-12T07:34:12Z</time>
      </trkpt>
      <trkpt lat="45.06885" lon="5.24793">
        <ele>203.037965</ele>
        <time>2011-06-12T07:34:14Z</time>
      </trkpt>
      <trkpt lat="45.0688" lon="5.24777">
        <ele>202.882046</ele>
        <time>2011-06-12T07:34:17Z</time>
      </trkpt>
      <trkpt lat="45.06878" lon="5.2477">
        <ele>202.75432</ele>
        <time>2011-06-12T07:34:19Z</time>
      </trkpt>
      <trkpt lat="45.06875" lon="5.24765">
        <ele>202.6839</ele>
        <time>2011-06-12T07:34:22Z</time>
      </trkpt>
      <trkpt lat="45.06875" lon="5.24765">
        <ele>202.658428</ele>
        <time>2011-06-12T07:34:24Z</time>
      </trkpt>
      <trkpt lat="45.06875" lon="5.24765">
        <ele>202.653602</ele>
        <time>2011-06-12T07:34:49Z</time>
      </trkpt>
      <trkpt lat="45.06859" lon="5.24736">
        <ele>202.654162</ele>
        <time>2011-06-12T07:35:01Z</time>
      </trkpt>
      <trkpt lat="45.0686" lon="5.24726">
        <ele>202.655959</ele>
        <time>2011-06-12T07:35:03Z</time>
      </trkpt>
      <trkpt lat="45.06861" lon="5.24713">
        <ele>202.65715</ele>
        <time>2011-06-12T07:35:05Z</time>
      </trkpt>
      <trkpt lat="45.06863" lon="5.24694">
        <ele>202.673942</ele>
        <time>2011-06-12T07:35:08Z</time>
      </trkpt>
      <trkpt lat="45.06863" lon="5.2468">
        <ele>202.724307</ele>
        <time>2011-06-12T07:35:10Z</time>
      </trkpt>
      <trkpt lat="45.06863" lon="5.24667">
        <ele>202.847443</ele>
        <time>2011-06-12T07:35:12Z</time>
      </trkpt>
      <trkpt lat="45.06863" lon="5.24654">
        <ele>203.094239</ele>
        <time>2011-06-12T07:35:14Z</time>
      </trkpt>
      <trkpt lat="45.06862" lon="5.24632">
        <ele>203.424796</ele>
        <time>2011-06-12T07:35:17Z</time>
      </trkpt>
      <trkpt lat="45.06859" lon="5.24609">
        <ele>203.703378</ele>
        <time>2011-06-12T07:35:20Z</time>
      </trkpt>
      <trkpt lat="45.06856" lon="5.24595">
        <ele>203.845928</ele>
        <time>2011-06-12T07:35:22Z</time>
      </trkpt>
      <trkpt lat="45.06852" lon="5.24574">
        <ele>203.87414</ele>
        <time>2011-06-12T07:35:25Z</time>
      </trkpt>
      <trkpt lat="45.06848" lon="5.24552">
        <ele>203.854739</ele>
        <time>2011-06-12T07:35:28Z</time>
      </trkpt>
      <trkpt lat="45.06847" lon="5.24536">
        <ele>203.807397</ele>
        <time>2011-06-12T07:35:30Z</time>
      </trkpt>
      <trkpt lat="45.06845" lon="5.24518">
        <ele>203.731538</ele>
        <time>2011-06-12T07:35:32Z</time>
      </trkpt>
      <trkpt lat="45.06837" lon="5.24493">
        <ele>203.663269</ele>
        <time>2011-06-12T07:35:35Z</time>
      </trkpt>
      <trkpt lat="45.06833" lon="5.24476">
        <ele>203.633546</ele>
        <time>2011-06-12T07:35:37Z</time>
      </trkpt>
      <trkpt lat="45.06838" lon="5.24449">
        <ele>203.631769</ele>
        <time>2011-06-12T07:35:40Z</time>
      </trkpt>
      <trkpt lat="45.06853" lon="5.24428">
        <ele>203.668659</ele>
        <time>2011-06-12T07:35:43Z</time>
      </trkpt>
      <trkpt lat="45.06868" lon="5.24412">
        <ele>203.749305</ele>
        <time>2011-06-12T07:35:46Z</time>
      </trkpt>
      <trkpt lat="45.06879" lon="5.24407">
        <ele>203.827118</ele>
        <time>2011-06-12T07:35:48Z</time>
      </trkpt>
      <trkpt lat="45.06891" lon="5.24405">
        <ele>203.862652</ele>
        <time>2011-06-12T07:35:50Z</time>
      </trkpt>
      <trkpt lat="45.06906" lon="5.24406">
        <ele>203.834715</ele>
        <time>2011-06-12T07:35:53Z</time>
      </trkpt>
      <trkpt lat="45.06915" lon="5.2441">
        <ele>203.743399</ele>
        <time>2011-06-12T07:35:55Z</time>
      </trkpt>
      <trkpt lat="45.06928" lon="5.24414">
        <ele>203.650205</ele>
        <time>2011-06-12T07:35:58Z</time>
      </trkpt>
      <trkpt lat="45.06937" lon="5.24416">
        <ele>203.606145</ele>
        <time>2011-06-12T07:36:00Z</time>
      </trkpt>
      <trkpt lat="45.06945" lon="5.24418">
        <ele>203.670105</ele>
        <time>2011-06-12T07:36:02Z</time>
      </trkpt>
      <trkpt lat="45.06952" lon="5.24419">
        <ele>203.930487</ele>
        <time>2011-06-12T07:36:04Z</time>
      </trkpt>
      <trkpt lat="45.06961" lon="5.24417">
        <ele>204.33832</ele>
        <time>2011-06-12T07:36:07Z</time>
      </trkpt>
      <trkpt lat="45.06961" lon="5.24417">
        <ele>204.698762</ele>
        <time>2011-06-12T07:36:10Z</time>
      </trkpt>
      <trkpt lat="45.06967" lon="5.24395">
        <ele>204.903398</ele>
        <time>2011-06-12T07:36:14Z</time>
      </trkpt>
      <trkpt lat="45.06952" lon="5.24384">
        <ele>204.988703</ele>
        <time>2011-06-12T07:36:17Z</time>
      </trkpt>
      <trkpt lat="45.06934" lon="5.24374">
        <ele>205.01398</ele>
        <time>2011-06-12T07:36:20Z</time>
      </trkpt>
      <trkpt lat="45.06913" lon="5.24364">
        <ele>205.009455</ele>
        <time>2011-06-12T07:36:23Z</time>
      </trkpt>
      <trkpt lat="45.06889" lon="5.24356">
        <ele>204.931405</ele>
        <time>2011-06-12T07:36:26Z</time>
      </trkpt>
      <trkpt lat="45.06874" lon="5.2435">
        <ele>204.693547</ele>
        <time>2011-06-12T07:36:28Z</time>
      </trkpt>
      <trkpt lat="45.06849" lon="5.24343">
        <ele>204.330722</ele>
        <time>2011-06-12T07:36:31Z</time>
      </trkpt>
      <trkpt lat="45.06821" lon="5.24334">
        <ele>203.897824</ele>
        <time>2011-06-12T07:36:34Z</time>
      </trkpt>
      <trkpt lat="45.06804" lon="5.24326">
        <ele>203.379922</ele>
        <time>2011-06-12T07:36:36Z</time>
      </trkpt>
      <trkpt lat="45.06786" lon="5.24318">
        <ele>202.784272</ele>
        <time>2011-06-12T07:36:38Z</time>
      </trkpt>
      <trkpt lat="45.06761" lon="5.24306">
        <ele>202.144962</ele>
        <time>2011-06-12T07:36:41Z</time>
      </trkpt>
      <trkpt lat="45.06744" lon="5.243">
        <ele>201.579306</ele>
        <time>2011-06-12T07:36:43Z</time>
      </trkpt>
      <trkpt lat="45.06728" lon="5.24295">
        <ele>201.249499</ele>
        <time>2011-06-12T07:36:45Z</time>
      </trkpt>
      <trkpt lat="45.06703" lon="5.24285">
        <ele>201.082136</ele>
        <time>2011-06-12T07:36:48Z</time>
      </trkpt>
      <trkpt lat="45.06679" lon="5.24277">
        <ele>200.848686</ele>
        <time>2011-06-12T07:36:51Z</time>
      </trkpt>
      <trkpt lat="45.06655" lon="5.24269">
        <ele>200.446409</ele>
        <time>2011-06-12T07:36:54Z</time>
      </trkpt>
      <trkpt lat="45.06631" lon="5.24261">
        <ele>199.90248</ele>
        <time>2011-06-12T07:36:57Z</time>
      </trkpt>
      <trkpt lat="45.06614" lon="5.24255">
        <ele>199.345241</ele>
        <time>2011-06-12T07:36:59Z</time>
      </trkpt>
      <trkpt lat="45.06598" lon="5.24249">
        <ele>198.939193</ele>
        <time>2011-06-12T07:37:01Z</time>
      </trkpt>
      <trkpt lat="45.06582" lon="5.24242">
        <ele>198.549079</ele>
        <time>2011-06-12T07:37:03Z</time>
      </trkpt>
      <trkpt lat="45.06563" lon="5.24231">
        <ele>197.838071</ele>
        <time>2011-06-12T07:37:06Z</time>
      </trkpt>
      <trkpt lat="45.06547" lon="5.24218">
        <ele>196.730159</ele>
        <time>2011-06-12T07:37:09Z</time>
      </trkpt>
      <trkpt lat="45.06537" lon="5.2421">
        <ele>195.410355</ele>
        <time>2011-06-12T07:37:11Z</time>
      </trkpt>
      <trkpt lat="45.06523" lon="5.24198">
        <ele>194.005</ele>
        <time>2011-06-12T07:37:14Z</time>
      </trkpt>
      <trkpt lat="45.06511" lon="5.24186">
        <ele>192.591538</ele>
        <time>2011-06-12T07:37:17Z</time>
      </trkpt>
      <trkpt lat="45.06504" lon="5.2417">
        <ele>191.350903</ele>
        <time>2011-06-12T07:37:20Z</time>
      </trkpt>
      <trkpt lat="45.06501" lon="5.24158">
        <ele>190.438903</ele>
        <time>2011-06-12T07:37:22Z</time>
      </trkpt>
      <trkpt lat="45.06499" lon="5.24149">
        <ele>189.821602</ele>
        <time>2011-06-12T07:37:24Z</time>
      </trkpt>
      <trkpt lat="45.06498" lon="5.24138">
        <ele>189.414123</ele>
        <time>2011-06-12T07:37:27Z</time>
      </trkpt>
      <trkpt lat="45.06496" lon="5.24131">
        <ele>189.184381</ele>
        <time>2011-06-12T07:37:29Z</time>
      </trkpt>
      <trkpt lat="45.06488" lon="5.24124">
        <ele>189.101442</ele>
        <time>2011-06-12T07:37:32Z</time>
      </trkpt>
      <trkpt lat="45.0648" lon="5.24126">
        <ele>189.104533</ele>
        <time>2011-06-12T07:37:34Z</time>
      </trkpt>
      <trkpt lat="45.06466" lon="5.24133">
        <ele>189.133723</ele>
        <time>2011-06-12T07:37:37Z</time>
      </trkpt>
      <trkpt lat="45.06457" lon="5.24138">
        <ele>189.164192</ele>
        <time>2011-06-12T07:37:39Z</time>
      </trkpt>
      <trkpt lat="45.06448" lon="5.24143">
        <ele>189.207492</ele>
        <time>2011-06-12T07:37:41Z</time>
      </trkpt>
      <trkpt lat="45.06435" lon="5.24151">
        <ele>189.270272</ele>
        <time>2011-06-12T07:37:44Z</time>
      </trkpt>
      <trkpt lat="45.06422" lon="5.24159">
        <ele>189.324303</ele>
        <time>2011-06-12T07:37:47Z</time>
      </trkpt>
      <trkpt lat="45.06414" lon="5.24164">
        <ele>189.347045</ele>
        <time>2011-06-12T07:37:49Z</time>
      </trkpt>
      <trkpt lat="45.06401" lon="5.24173">
        <ele>189.325285</ele>
        <time>2011-06-12T07:37:52Z</time>
      </trkpt>
      <trkpt lat="45.06389" lon="5.24181">
        <ele>189.258968</ele>
        <time>2011-06-12T07:37:55Z</time>
      </trkpt>
      <trkpt lat="45.0638" lon="5.24187">
        <ele>189.191833</ele>
        <time>2011-06-12T07:37:57Z</time>
      </trkpt>
      <trkpt lat="45.06368" lon="5.24196">
        <ele>189.160245</ele>
        <time>2011-06-12T07:38:00Z</time>
      </trkpt>
      <trkpt lat="45.06359" lon="5.24202">
        <ele>189.174836</ele>
        <time>2011-06-12T07:38:02Z</time>
      </trkpt>
      <trkpt lat="45.06351" lon="5.24208">
        <ele>189.236767</ele>
        <time>2011-06-12T07:38:04Z</time>
      </trkpt>
      <trkpt lat="45.06337" lon="5.24217">
        <ele>189.317605</ele>
        <time>2011-06-12T07:38:07Z</time>
      </trkpt>
      <trkpt lat="45.06328" lon="5.24222">
        <ele>189.380866</ele>
        <time>2011-06-12T07:38:09Z</time>
      </trkpt>
      <trkpt lat="45.06318" lon="5.24227">
        <ele>189.412833</ele>
        <time>2011-06-12T07:38:11Z</time>
      </trkpt>
      <trkpt lat="45.06309" lon="5.24233">
        <ele>189.418845</ele>
        <time>2011-06-12T07:38:13Z</time>
      </trkpt>
      <trkpt lat="45.06296" lon="5.24243">
        <ele>189.402224</ele>
        <time>2011-06-12T07:38:16Z</time>
      </trkpt>
      <trkpt lat="45.06286" lon="5.24247">
        <ele>189.363085</ele>
        <time>2011-06-12T07:38:18Z</time>
      </trkpt>
      <trkpt lat="45.0627" lon="5.24251">
        <ele>189.32148</ele>
        <time>2011-06-12T07:38:21Z</time>
      </trkpt>
      <trkpt lat="45.0625" lon="5.24252">
        <ele>189.298715</ele>
        <time>2011-06-12T07:38:24Z</time>
      </trkpt>
      <trkpt lat="45.0623" lon="5.24253">
        <ele>189.29345</ele>
        <time>2011-06-12T07:38:27Z</time>
      </trkpt>
      <trkpt lat="45.06217" lon="5.24255">
        <ele>189.365455</ele>
        <time>2011-06-12T07:38:29Z</time>
      </trkpt>
      <trkpt lat="45.06204" lon="5.24258">
        <ele>189.639496</ele>
        <time>2011-06-12T07:38:31Z</time>
      </trkpt>
      <trkpt lat="45.06184" lon="5.24263">
        <ele>190.129608</ele>
        <time>2011-06-12T07:38:34Z</time>
      </trkpt>
      <trkpt lat="45.06163" lon="5.24268">
        <ele>190.682816</ele>
        <time>2011-06-12T07:38:37Z</time>
      </trkpt>
      <trkpt lat="45.06149" lon="5.24269">
        <ele>191.112118</ele>
        <time>2011-06-12T07:38:39Z</time>
      </trkpt>
      <trkpt lat="45.06134" lon="5.24271">
        <ele>191.322669</ele>
        <time>2011-06-12T07:38:41Z</time>
      </trkpt>
      <trkpt lat="45.06112" lon="5.24273">
        <ele>191.358679</ele>
        <time>2011-06-12T07:38:44Z</time>
      </trkpt>
      <trkpt lat="45.0609" lon="5.24275">
        <ele>191.306367</ele>
        <time>2011-06-12T07:38:47Z</time>
      </trkpt>
      <trkpt lat="45.06076" lon="5.24278">
        <ele>191.22083</ele>
        <time>2011-06-12T07:38:49Z</time>
      </trkpt>
      <trkpt lat="45.06056" lon="5.24284">
        <ele>191.152015</ele>
        <time>2011-06-12T07:38:52Z</time>
      </trkpt>
      <trkpt lat="45.06042" lon="5.24292">
        <ele>191.124639</ele>
        <time>2011-06-12T07:38:54Z</time>
      </trkpt>
      <trkpt lat="45.06031" lon="5.24306">
        <ele>191.123661</ele>
        <time>2011-06-12T07:38:56Z</time>
      </trkpt>
      <trkpt lat="45.06014" lon="5.24323">
        <ele>191.134604</ele>
        <time>2011-06-12T07:38:59Z</time>
      </trkpt>
      <trkpt lat="45.06004" lon="5.24341">
        <ele>191.165461</ele>
        <time>2011-06-12T07:39:01Z</time>
      </trkpt>
      <trkpt lat="45.05991" lon="5.2437">
        <ele>191.217514</ele>
        <time>2011-06-12T07:39:04Z</time>
      </trkpt>
      <trkpt lat="45.05978" lon="5.24395">
        <ele>191.247865</ele>
        <time>2011-06-12T07:39:07Z</time>
      </trkpt>
      <trkpt lat="45.05974" lon="5.24416">
        <ele>191.216583</ele>
        <time>2011-06-12T07:39:09Z</time>
      </trkpt>
      <trkpt lat="45.05972" lon="5.24452">
        <ele>191.148529</ele>
        <time>2011-06-12T07:39:12Z</time>
      </trkpt>
      <trkpt lat="45.05971" lon="5.24477">
        <ele>191.137084</ele>
        <time>2011-06-12T07:39:14Z</time>
      </trkpt>
      <trkpt lat="45.0597" lon="5.24501">
        <ele>191.24087</ele>
        <time>2011-06-12T07:39:16Z</time>
      </trkpt>
      <trkpt lat="45.0597" lon="5.24527">
        <ele>191.392315</ele>
        <time>2011-06-12T07:39:18Z</time>
      </trkpt>
      <trkpt lat="45.05972" lon="5.24563">
        <ele>191.606389</ele>
        <time>2011-06-12T07:39:21Z</time>
      </trkpt>
      <trkpt lat="45.05975" lon="5.24587">
        <ele>192.015574</ele>
        <time>2011-06-12T07:39:23Z</time>
      </trkpt>
      <trkpt lat="45.0598" lon="5.2461">
        <ele>192.576228</ele>
        <time>2011-06-12T07:39:25Z</time>
      </trkpt>
      <trkpt lat="45.05986" lon="5.24644">
        <ele>193.129744</ele>
        <time>2011-06-12T07:39:28Z</time>
      </trkpt>
      <trkpt lat="45.05994" lon="5.24666">
        <ele>193.670434</ele>
        <time>2011-06-12T07:39:30Z</time>
      </trkpt>
      <trkpt lat="45.06012" lon="5.24691">
        <ele>194.217467</ele>
        <time>2011-06-12T07:39:33Z</time>
      </trkpt>
      <trkpt lat="45.06033" lon="5.24704">
        <ele>194.654167</ele>
        <time>2011-06-12T07:39:36Z</time>
      </trkpt>
      <trkpt lat="45.06044" lon="5.2472">
        <ele>194.870155</ele>
        <time>2011-06-12T07:39:38Z</time>
      </trkpt>
      <trkpt lat="45.06053" lon="5.2475">
        <ele>194.908146</ele>
        <time>2011-06-12T07:39:41Z</time>
      </trkpt>
      <trkpt lat="45.06049" lon="5.2477">
        <ele>194.812402</ele>
        <time>2011-06-12T07:39:43Z</time>
      </trkpt>
      <trkpt lat="45.06041" lon="5.24798">
        <ele>194.613289</ele>
        <time>2011-06-12T07:39:46Z</time>
      </trkpt>
      <trkpt lat="45.06032" lon="5.24827">
        <ele>194.428072</ele>
        <time>2011-06-12T07:39:49Z</time>
      </trkpt>
      <trkpt lat="45.06026" lon="5.24847">
        <ele>194.345525</ele>
        <time>2011-06-12T07:39:51Z</time>
      </trkpt>
      <trkpt lat="45.06015" lon="5.24878">
        <ele>194.459588</ele>
        <time>2011-06-12T07:39:54Z</time>
      </trkpt>
      <trkpt lat="45.06003" lon="5.24907">
        <ele>194.797418</ele>
        <time>2011-06-12T07:39:57Z</time>
      </trkpt>
      <trkpt lat="45.05994" lon="5.24924">
        <ele>195.142318</ele>
        <time>2011-06-12T07:39:59Z</time>
      </trkpt>
      <trkpt lat="45.05984" lon="5.24939">
        <ele>195.305416</ele>
        <time>2011-06-12T07:40:01Z</time>
      </trkpt>
      <trkpt lat="45.05973" lon="5.24953">
        <ele>195.281838</ele>
        <time>2011-06-12T07:40:03Z</time>
      </trkpt>
      <trkpt lat="45.05957" lon="5.24971">
        <ele>195.077091</ele>
        <time>2011-06-12T07:40:06Z</time>
      </trkpt>
      <trkpt lat="45.0594" lon="5.24986">
        <ele>194.758997</ele>
        <time>2011-06-12T07:40:09Z</time>
      </trkpt>
      <trkpt lat="45.05928" lon="5.24995">
        <ele>194.467118</ele>
        <time>2011-06-12T07:40:11Z</time>
      </trkpt>
      <trkpt lat="45.05909" lon="5.2501">
        <ele>194.218651</ele>
        <time>2011-06-12T07:40:14Z</time>
      </trkpt>
      <trkpt lat="45.05892" lon="5.25025">
        <ele>193.840113</ele>
        <time>2011-06-12T07:40:17Z</time>
      </trkpt>
      <trkpt lat="45.05881" lon="5.25034">
        <ele>193.252976</ele>
        <time>2011-06-12T07:40:19Z</time>
      </trkpt>
      <trkpt lat="45.05867" lon="5.25047">
        <ele>192.51944</ele>
        <time>2011-06-12T07:40:22Z</time>
      </trkpt>
      <trkpt lat="45.05855" lon="5.25059">
        <ele>191.615209</ele>
        <time>2011-06-12T07:40:25Z</time>
      </trkpt>
      <trkpt lat="45.05847" lon="5.25068">
        <ele>190.571308</ele>
        <time>2011-06-12T07:40:27Z</time>
      </trkpt>
      <trkpt lat="45.05836" lon="5.25086">
        <ele>189.552433</ele>
        <time>2011-06-12T07:40:30Z</time>
      </trkpt>
      <trkpt lat="45.0583" lon="5.25106">
        <ele>188.642196</ele>
        <time>2011-06-12T07:40:33Z</time>
      </trkpt>
      <trkpt lat="45.05827" lon="5.25129">
        <ele>187.879018</ele>
        <time>2011-06-12T07:40:36Z</time>
      </trkpt>
      <trkpt lat="45.05825" lon="5.25155">
        <ele>187.311563</ele>
        <time>2011-06-12T07:40:39Z</time>
      </trkpt>
      <trkpt lat="45.05823" lon="5.25182">
        <ele>186.955403</ele>
        <time>2011-06-12T07:40:42Z</time>
      </trkpt>
      <trkpt lat="45.05821" lon="5.25209">
        <ele>186.800424</ele>
        <time>2011-06-12T07:40:45Z</time>
      </trkpt>
      <trkpt lat="45.05821" lon="5.25227">
        <ele>186.785363</ele>
        <time>2011-06-12T07:40:47Z</time>
      </trkpt>
      <trkpt lat="45.05824" lon="5.25253">
        <ele>186.870311</ele>
        <time>2011-06-12T07:40:50Z</time>
      </trkpt>
      <trkpt lat="45.05826" lon="5.25272">
        <ele>187.102919</ele>
        <time>2011-06-12T07:40:52Z</time>
      </trkpt>
      <trkpt lat="45.05827" lon="5.2529">
        <ele>187.482121</ele>
        <time>2011-06-12T07:40:54Z</time>
      </trkpt>
      <trkpt lat="45.05829" lon="5.25309">
        <ele>187.916771</ele>
        <time>2011-06-12T07:40:56Z</time>
      </trkpt>
      <trkpt lat="45.05831" lon="5.25329">
        <ele>188.302169</ele>
        <time>2011-06-12T07:40:58Z</time>
      </trkpt>
      <trkpt lat="45.05831" lon="5.25362">
        <ele>188.551351</ele>
        <time>2011-06-12T07:41:01Z</time>
      </trkpt>
      <trkpt lat="45.05832" lon="5.25386">
        <ele>188.644614</ele>
        <time>2011-06-12T07:41:03Z</time>
      </trkpt>
      <trkpt lat="45.05831" lon="5.2541">
        <ele>188.643747</ele>
        <time>2011-06-12T07:41:05Z</time>
      </trkpt>
      <trkpt lat="45.05828" lon="5.25436">
        <ele>188.556369</ele>
        <time>2011-06-12T07:41:07Z</time>
      </trkpt>
      <trkpt lat="45.05816" lon="5.25469">
        <ele>188.379471</ele>
        <time>2011-06-12T07:41:10Z</time>
      </trkpt>
      <trkpt lat="45.05803" lon="5.25501">
        <ele>188.211192</ele>
        <time>2011-06-12T07:41:13Z</time>
      </trkpt>
      <trkpt lat="45.05793" lon="5.2553">
        <ele>188.135054</ele>
        <time>2011-06-12T07:41:16Z</time>
      </trkpt>
      <trkpt lat="45.05787" lon="5.25548">
        <ele>188.145497</ele>
        <time>2011-06-12T07:41:18Z</time>
      </trkpt>
      <trkpt lat="45.05779" lon="5.25571">
        <ele>188.293725</ele>
        <time>2011-06-12T07:41:21Z</time>
      </trkpt>
      <trkpt lat="45.05772" lon="5.25593">
        <ele>188.624032</ele>
        <time>2011-06-12T07:41:24Z</time>
      </trkpt>
      <trkpt lat="45.05766" lon="5.25614">
        <ele>189.022124</ele>
        <time>2011-06-12T07:41:27Z</time>
      </trkpt>
      <trkpt lat="45.05761" lon="5.25633">
        <ele>189.321356</ele>
        <time>2011-06-12T07:41:30Z</time>
      </trkpt>
      <trkpt lat="45.05758" lon="5.25651">
        <ele>189.472513</ele>
        <time>2011-06-12T07:41:33Z</time>
      </trkpt>
      <trkpt lat="45.05756" lon="5.25663">
        <ele>189.512967</ele>
        <time>2011-06-12T07:41:35Z</time>
      </trkpt>
      <trkpt lat="45.05755" lon="5.25676">
        <ele>189.50032</ele>
        <time>2011-06-12T07:41:37Z</time>
      </trkpt>
      <trkpt lat="45.05755" lon="5.25698">
        <ele>189.479968</ele>
        <time>2011-06-12T07:41:40Z</time>
      </trkpt>
      <trkpt lat="45.05755" lon="5.25718">
        <ele>189.484537</ele>
        <time>2011-06-12T07:41:43Z</time>
      </trkpt>
      <trkpt lat="45.05757" lon="5.25731">
        <ele>189.575665</ele>
        <time>2011-06-12T07:41:45Z</time>
      </trkpt>
      <trkpt lat="45.05757" lon="5.25743">
        <ele>189.869146</ele>
        <time>2011-06-12T07:41:47Z</time>
      </trkpt>
      <trkpt lat="45.05756" lon="5.25754">
        <ele>190.346615</ele>
        <time>2011-06-12T07:41:49Z</time>
      </trkpt>
      <trkpt lat="45.05752" lon="5.25762">
        <ele>190.806865</ele>
        <time>2011-06-12T07:41:51Z</time>
      </trkpt>
      <trkpt lat="45.05744" lon="5.25756">
        <ele>191.143145</ele>
        <time>2011-06-12T07:41:54Z</time>
      </trkpt>
      <trkpt lat="45.05744" lon="5.25747">
        <ele>191.42812</ele>
        <time>2011-06-12T07:41:56Z</time>
      </trkpt>
      <trkpt lat="45.05744" lon="5.25735">
        <ele>191.714832</ele>
        <time>2011-06-12T07:41:59Z</time>
      </trkpt>
      <trkpt lat="45.05744" lon="5.25726">
        <ele>191.960132</ele>
        <time>2011-06-12T07:42:01Z</time>
      </trkpt>
      <trkpt lat="45.05744" lon="5.25711">
        <ele>192.096143</ele>
        <time>2011-06-12T07:42:04Z</time>
      </trkpt>
      <trkpt lat="45.05744" lon="5.25696">
        <ele>192.128527</ele>
        <time>2011-06-12T07:42:07Z</time>
      </trkpt>
      <trkpt lat="45.05743" lon="5.25687">
        <ele>192.097271</ele>
        <time>2011-06-12T07:42:09Z</time>
      </trkpt>
      <trkpt lat="45.05741" lon="5.25674">
        <ele>191.999514</ele>
        <time>2011-06-12T07:42:12Z</time>
      </trkpt>
      <trkpt lat="45.05739" lon="5.25666">
        <ele>191.816928</ele>
        <time>2011-06-12T07:42:14Z</time>
      </trkpt>
      <trkpt lat="45.05736" lon="5.25658">
        <ele>191.576377</ele>
        <time>2011-06-12T07:42:16Z</time>
      </trkpt>
      <trkpt lat="45.05729" lon="5.25649">
        <ele>191.324332</ele>
        <time>2011-06-12T07:42:19Z</time>
      </trkpt>
      <trkpt lat="45.05725" lon="5.25643">
        <ele>191.08687</ele>
        <time>2011-06-12T07:42:21Z</time>
      </trkpt>
      <trkpt lat="45.05721" lon="5.25638">
        <ele>190.879903</ele>
        <time>2011-06-12T07:42:23Z</time>
      </trkpt>
      <trkpt lat="45.05713" lon="5.25629">
        <ele>190.697016</ele>
        <time>2011-06-12T07:42:26Z</time>
      </trkpt>
      <trkpt lat="45.05702" lon="5.25624">
        <ele>190.517001</ele>
        <time>2011-06-12T07:42:29Z</time>
      </trkpt>
      <trkpt lat="45.05691" lon="5.2562">
        <ele>190.346365</ele>
        <time>2011-06-12T07:42:32Z</time>
      </trkpt>
      <trkpt lat="45.05685" lon="5.25619">
        <ele>190.190432</ele>
        <time>2011-06-12T07:42:34Z</time>
      </trkpt>
      <trkpt lat="45.05675" lon="5.25616">
        <ele>190.03351</ele>
        <time>2011-06-12T07:42:37Z</time>
      </trkpt>
      <trkpt lat="45.05665" lon="5.25615">
        <ele>189.872749</ele>
        <time>2011-06-12T07:42:40Z</time>
      </trkpt>
      <trkpt lat="45.05656" lon="5.25616">
        <ele>189.727837</ele>
        <time>2011-06-12T07:42:43Z</time>
      </trkpt>
      <trkpt lat="45.0565" lon="5.25616">
        <ele>189.612917</ele>
        <time>2011-06-12T07:42:45Z</time>
      </trkpt>
      <trkpt lat="45.05641" lon="5.25615">
        <ele>189.524308</ele>
        <time>2011-06-12T07:42:48Z</time>
      </trkpt>
      <trkpt lat="45.05634" lon="5.25614">
        <ele>189.46174</ele>
        <time>2011-06-12T07:42:50Z</time>
      </trkpt>
      <trkpt lat="45.05625" lon="5.25614">
        <ele>189.431786</ele>
        <time>2011-06-12T07:42:53Z</time>
      </trkpt>
      <trkpt lat="45.05616" lon="5.25615">
        <ele>189.427089</ele>
        <time>2011-06-12T07:42:56Z</time>
      </trkpt>
      <trkpt lat="45.05609" lon="5.25616">
        <ele>189.434746</ele>
        <time>2011-06-12T07:42:58Z</time>
      </trkpt>
      <trkpt lat="45.056" lon="5.25618">
        <ele>189.450226</ele>
        <time>2011-06-12T07:43:01Z</time>
      </trkpt>
      <trkpt lat="45.05594" lon="5.2562">
        <ele>189.4717</ele>
        <time>2011-06-12T07:43:03Z</time>
      </trkpt>
      <trkpt lat="45.05588" lon="5.25622">
        <ele>189.49336</ele>
        <time>2011-06-12T07:43:05Z</time>
      </trkpt>
      <trkpt lat="45.05583" lon="5.25625">
        <ele>189.509029</ele>
        <time>2011-06-12T07:43:07Z</time>
      </trkpt>
      <trkpt lat="45.05574" lon="5.2563">
        <ele>189.517832</ele>
        <time>2011-06-12T07:43:10Z</time>
      </trkpt>
      <trkpt lat="45.05569" lon="5.25634">
        <ele>189.524572</ele>
        <time>2011-06-12T07:43:12Z</time>
      </trkpt>
      <trkpt lat="45.05562" lon="5.2564">
        <ele>189.537135</ele>
        <time>2011-06-12T07:43:15Z</time>
      </trkpt>
      <trkpt lat="45.05555" lon="5.25647">
        <ele>189.567643</ele>
        <time>2011-06-12T07:43:18Z</time>
      </trkpt>
      <trkpt lat="45.05548" lon="5.25655">
        <ele>189.622135</ele>
        <time>2011-06-12T07:43:21Z</time>
      </trkpt>
      <trkpt lat="45.05544" lon="5.25661">
        <ele>189.6974</ele>
        <time>2011-06-12T07:43:23Z</time>
      </trkpt>
      <trkpt lat="45.05537" lon="5.25669">
        <ele>189.794041</ele>
        <time>2011-06-12T07:43:26Z</time>
      </trkpt>
      <trkpt lat="45.05532" lon="5.25674">
        <ele>189.918012</ele>
        <time>2011-06-12T07:43:28Z</time>
      </trkpt>
      <trkpt lat="45.05525" lon="5.25682">
        <ele>190.060263</ele>
        <time>2011-06-12T07:43:31Z</time>
      </trkpt>
      <trkpt lat="45.05518" lon="5.2569">
        <ele>190.204958</ele>
        <time>2011-06-12T07:43:34Z</time>
      </trkpt>
      <trkpt lat="45.05511" lon="5.257">
        <ele>190.343063</ele>
        <time>2011-06-12T07:43:37Z</time>
      </trkpt>
      <trkpt lat="45.05506" lon="5.25705">
        <ele>190.477076</ele>
        <time>2011-06-12T07:43:39Z</time>
      </trkpt>
      <trkpt lat="45.05499" lon="5.25713">
        <ele>190.620986</ele>
        <time>2011-06-12T07:43:42Z</time>
      </trkpt>
      <trkpt lat="45.05492" lon="5.25719">
        <ele>190.788079</ele>
        <time>2011-06-12T07:43:45Z</time>
      </trkpt>
      <trkpt lat="45.05487" lon="5.25725">
        <ele>190.966401</ele>
        <time>2011-06-12T07:43:47Z</time>
      </trkpt>
      <trkpt lat="45.05479" lon="5.25734">
        <ele>191.142882</ele>
        <time>2011-06-12T07:43:50Z</time>
      </trkpt>
      <trkpt lat="45.05473" lon="5.25741">
        <ele>191.326787</ele>
        <time>2011-06-12T07:43:52Z</time>
      </trkpt>
      <trkpt lat="45.05468" lon="5.25748">
        <ele>191.520166</ele>
        <time>2011-06-12T07:43:54Z</time>
      </trkpt>
      <trkpt lat="45.0546" lon="5.25757">
        <ele>191.714566</ele>
        <time>2011-06-12T07:43:57Z</time>
      </trkpt>
      <trkpt lat="45.05455" lon="5.25765">
        <ele>191.91086</ele>
        <time>2011-06-12T07:43:59Z</time>
      </trkpt>
      <trkpt lat="45.0545" lon="5.25773">
        <ele>192.105567</ele>
        <time>2011-06-12T07:44:01Z</time>
      </trkpt>
      <trkpt lat="45.05444" lon="5.25787">
        <ele>192.308429</ele>
        <time>2011-06-12T07:44:04Z</time>
      </trkpt>
      <trkpt lat="45.05441" lon="5.25798">
        <ele>192.535149</ele>
        <time>2011-06-12T07:44:06Z</time>
      </trkpt>
      <trkpt lat="45.05437" lon="5.25817">
        <ele>192.771323</ele>
        <time>2011-06-12T07:44:09Z</time>
      </trkpt>
      <trkpt lat="45.05434" lon="5.25836">
        <ele>193.292801</ele>
        <time>2011-06-12T07:44:12Z</time>
      </trkpt>
      <trkpt lat="45.05432" lon="5.25854">
        <ele>194.473796</ele>
        <time>2011-06-12T07:44:15Z</time>
      </trkpt>
      <trkpt lat="45.05432" lon="5.25867">
        <ele>196.202719</ele>
        <time>2011-06-12T07:44:17Z</time>
      </trkpt>
      <trkpt lat="45.05432" lon="5.25879">
        <ele>198.0272</ele>
        <time>2011-06-12T07:44:19Z</time>
      </trkpt>
      <trkpt lat="45.05432" lon="5.25891">
        <ele>199.594035</ele>
        <time>2011-06-12T07:44:21Z</time>
      </trkpt>
      <trkpt lat="45.05429" lon="5.25909">
        <ele>200.72165</ele>
        <time>2011-06-12T07:44:24Z</time>
      </trkpt>
      <trkpt lat="45.05428" lon="5.25926">
        <ele>201.44633</ele>
        <time>2011-06-12T07:44:27Z</time>
      </trkpt>
      <trkpt lat="45.05426" lon="5.25943">
        <ele>201.909898</ele>
        <time>2011-06-12T07:44:30Z</time>
      </trkpt>
      <trkpt lat="45.05424" lon="5.25959">
        <ele>202.256438</ele>
        <time>2011-06-12T07:44:33Z</time>
      </trkpt>
      <trkpt lat="45.05422" lon="5.25971">
        <ele>202.565983</ele>
        <time>2011-06-12T07:44:35Z</time>
      </trkpt>
      <trkpt lat="45.0542" lon="5.25983">
        <ele>202.859043</ele>
        <time>2011-06-12T07:44:37Z</time>
      </trkpt>
      <trkpt lat="45.05417" lon="5.25994">
        <ele>203.140522</ele>
        <time>2011-06-12T07:44:39Z</time>
      </trkpt>
      <trkpt lat="45.05412" lon="5.26011">
        <ele>203.380158</ele>
        <time>2011-06-12T07:44:42Z</time>
      </trkpt>
      <trkpt lat="45.05409" lon="5.26023">
        <ele>203.532318</ele>
        <time>2011-06-12T07:44:44Z</time>
      </trkpt>
      <trkpt lat="45.05407" lon="5.26035">
        <ele>203.612753</ele>
        <time>2011-06-12T07:44:46Z</time>
      </trkpt>
      <trkpt lat="45.05403" lon="5.26046">
        <ele>203.682505</ele>
        <time>2011-06-12T07:44:48Z</time>
      </trkpt>
      <trkpt lat="45.05398" lon="5.26064">
        <ele>203.769201</ele>
        <time>2011-06-12T07:44:51Z</time>
      </trkpt>
      <trkpt lat="45.05395" lon="5.26077">
        <ele>203.861863</ele>
        <time>2011-06-12T07:44:53Z</time>
      </trkpt>
      <trkpt lat="45.05388" lon="5.26094">
        <ele>203.943706</ele>
        <time>2011-06-12T07:44:56Z</time>
      </trkpt>
      <trkpt lat="45.05382" lon="5.26105">
        <ele>204.013398</ele>
        <time>2011-06-12T07:44:58Z</time>
      </trkpt>
      <trkpt lat="45.05372" lon="5.2612">
        <ele>204.085823</ele>
        <time>2011-06-12T07:45:01Z</time>
      </trkpt>
      <trkpt lat="45.05365" lon="5.2613">
        <ele>204.17919</ele>
        <time>2011-06-12T07:45:03Z</time>
      </trkpt>
      <trkpt lat="45.05358" lon="5.2614">
        <ele>204.2859</ele>
        <time>2011-06-12T07:45:05Z</time>
      </trkpt>
      <trkpt lat="45.05347" lon="5.26155">
        <ele>204.381613</ele>
        <time>2011-06-12T07:45:08Z</time>
      </trkpt>
      <trkpt lat="45.05341" lon="5.26165">
        <ele>204.462212</ele>
        <time>2011-06-12T07:45:10Z</time>
      </trkpt>
      <trkpt lat="45.05336" lon="5.26175">
        <ele>204.540936</ele>
        <time>2011-06-12T07:45:12Z</time>
      </trkpt>
      <trkpt lat="45.05329" lon="5.2619">
        <ele>204.675549</ele>
        <time>2011-06-12T07:45:15Z</time>
      </trkpt>
      <trkpt lat="45.05326" lon="5.26208">
        <ele>204.92701</ele>
        <time>2011-06-12T07:45:18Z</time>
      </trkpt>
      <trkpt lat="45.05324" lon="5.26224">
        <ele>205.244491</ele>
        <time>2011-06-12T07:45:21Z</time>
      </trkpt>
      <trkpt lat="45.05323" lon="5.26236">
        <ele>205.525086</ele>
        <time>2011-06-12T07:45:23Z</time>
      </trkpt>
      <trkpt lat="45.05323" lon="5.26248">
        <ele>205.747366</ele>
        <time>2011-06-12T07:45:25Z</time>
      </trkpt>
      <trkpt lat="45.05324" lon="5.26266">
        <ele>205.927536</ele>
        <time>2011-06-12T07:45:28Z</time>
      </trkpt>
      <trkpt lat="45.05324" lon="5.26277">
        <ele>206.077021</ele>
        <time>2011-06-12T07:45:30Z</time>
      </trkpt>
      <trkpt lat="45.05326" lon="5.26296">
        <ele>206.228063</ele>
        <time>2011-06-12T07:45:33Z</time>
      </trkpt>
      <trkpt lat="45.0533" lon="5.26317">
        <ele>206.418433</ele>
        <time>2011-06-12T07:45:36Z</time>
      </trkpt>
      <trkpt lat="45.05332" lon="5.2633">
        <ele>206.658177</ele>
        <time>2011-06-12T07:45:38Z</time>
      </trkpt>
      <trkpt lat="45.05334" lon="5.26344">
        <ele>207.013004</ele>
        <time>2011-06-12T07:45:40Z</time>
      </trkpt>
      <trkpt lat="45.05337" lon="5.26364">
        <ele>207.597061</ele>
        <time>2011-06-12T07:45:43Z</time>
      </trkpt>
      <trkpt lat="45.0534" lon="5.26382">
        <ele>208.352362</ele>
        <time>2011-06-12T07:45:46Z</time>
      </trkpt>
      <trkpt lat="45.05341" lon="5.26393">
        <ele>209.036108</ele>
        <time>2011-06-12T07:45:48Z</time>
      </trkpt>
      <trkpt lat="45.05342" lon="5.26405">
        <ele>209.514585</ele>
        <time>2011-06-12T07:45:50Z</time>
      </trkpt>
      <trkpt lat="45.05345" lon="5.26423">
        <ele>209.850086</ele>
        <time>2011-06-12T07:45:53Z</time>
      </trkpt>
      <trkpt lat="45.05346" lon="5.26442">
        <ele>210.113972</ele>
        <time>2011-06-12T07:45:56Z</time>
      </trkpt>
      <trkpt lat="45.05346" lon="5.26456">
        <ele>210.342854</ele>
        <time>2011-06-12T07:45:58Z</time>
      </trkpt>
      <trkpt lat="45.05347" lon="5.26469">
        <ele>210.626514</ele>
        <time>2011-06-12T07:46:00Z</time>
      </trkpt>
      <trkpt lat="45.05347" lon="5.26487">
        <ele>211.083296</ele>
        <time>2011-06-12T07:46:03Z</time>
      </trkpt>
      <trkpt lat="45.05345" lon="5.265">
        <ele>211.728843</ele>
        <time>2011-06-12T07:46:05Z</time>
      </trkpt>
      <trkpt lat="45.05343" lon="5.26512">
        <ele>212.488405</ele>
        <time>2011-06-12T07:46:07Z</time>
      </trkpt>
      <trkpt lat="45.0534" lon="5.26523">
        <ele>213.326489</ele>
        <time>2011-06-12T07:46:09Z</time>
      </trkpt>
      <trkpt lat="45.05333" lon="5.26539">
        <ele>214.180882</ele>
        <time>2011-06-12T07:46:12Z</time>
      </trkpt>
      <trkpt lat="45.05327" lon="5.26549">
        <ele>214.921296</ele>
        <time>2011-06-12T07:46:14Z</time>
      </trkpt>
      <trkpt lat="45.0532" lon="5.26559">
        <ele>215.493456</ele>
        <time>2011-06-12T07:46:16Z</time>
      </trkpt>
      <trkpt lat="45.05313" lon="5.26567">
        <ele>215.939703</ele>
        <time>2011-06-12T07:46:18Z</time>
      </trkpt>
      <trkpt lat="45.05305" lon="5.26574">
        <ele>216.297327</ele>
        <time>2011-06-12T07:46:20Z</time>
      </trkpt>
      <trkpt lat="45.05294" lon="5.26585">
        <ele>216.578997</ele>
        <time>2011-06-12T07:46:23Z</time>
      </trkpt>
      <trkpt lat="45.05287" lon="5.26592">
        <ele>216.78963</ele>
        <time>2011-06-12T07:46:25Z</time>
      </trkpt>
      <trkpt lat="45.0528" lon="5.26598">
        <ele>216.960126</ele>
        <time>2011-06-12T07:46:27Z</time>
      </trkpt>
      <trkpt lat="45.0527" lon="5.26607">
        <ele>217.165432</ele>
        <time>2011-06-12T07:46:30Z</time>
      </trkpt>
      <trkpt lat="45.05264" lon="5.26614">
        <ele>217.47604</ele>
        <time>2011-06-12T07:46:32Z</time>
      </trkpt>
      <trkpt lat="45.05253" lon="5.26622">
        <ele>217.890157</ele>
        <time>2011-06-12T07:46:35Z</time>
      </trkpt>
      <trkpt lat="45.05246" lon="5.26628">
        <ele>218.373171</ele>
        <time>2011-06-12T07:46:37Z</time>
      </trkpt>
      <trkpt lat="45.05236" lon="5.26639">
        <ele>218.886348</ele>
        <time>2011-06-12T07:46:40Z</time>
      </trkpt>
      <trkpt lat="45.05226" lon="5.26649">
        <ele>219.429708</ele>
        <time>2011-06-12T07:46:43Z</time>
      </trkpt>
      <trkpt lat="45.05219" lon="5.26657">
        <ele>220.023849</ele>
        <time>2011-06-12T07:46:45Z</time>
      </trkpt>
      <trkpt lat="45.05208" lon="5.26668">
        <ele>220.621483</ele>
        <time>2011-06-12T07:46:48Z</time>
      </trkpt>
      <trkpt lat="45.05196" lon="5.2668">
        <ele>221.155003</ele>
        <time>2011-06-12T07:46:51Z</time>
      </trkpt>
      <trkpt lat="45.05184" lon="5.26693">
        <ele>221.588186</ele>
        <time>2011-06-12T07:46:54Z</time>
      </trkpt>
      <trkpt lat="45.05173" lon="5.26708">
        <ele>221.890156</ele>
        <time>2011-06-12T07:46:57Z</time>
      </trkpt>
      <trkpt lat="45.05162" lon="5.26722">
        <ele>222.095445</ele>
        <time>2011-06-12T07:47:00Z</time>
      </trkpt>
      <trkpt lat="45.05152" lon="5.26736">
        <ele>222.249284</ele>
        <time>2011-06-12T07:47:03Z</time>
      </trkpt>
      <trkpt lat="45.05141" lon="5.2675">
        <ele>222.339931</ele>
        <time>2011-06-12T07:47:06Z</time>
      </trkpt>
      <trkpt lat="45.05134" lon="5.26759">
        <ele>222.364263</ele>
        <time>2011-06-12T07:47:08Z</time>
      </trkpt>
      <trkpt lat="45.05123" lon="5.26773">
        <ele>222.346877</ele>
        <time>2011-06-12T07:47:11Z</time>
      </trkpt>
      <trkpt lat="45.05111" lon="5.26788">
        <ele>222.289701</ele>
        <time>2011-06-12T07:47:14Z</time>
      </trkpt>
      <trkpt lat="45.05103" lon="5.26798">
        <ele>222.148972</ele>
        <time>2011-06-12T07:47:16Z</time>
      </trkpt>
      <trkpt lat="45.05092" lon="5.26812">
        <ele>221.854413</ele>
        <time>2011-06-12T07:47:19Z</time>
      </trkpt>
      <trkpt lat="45.05082" lon="5.26827">
        <ele>221.373607</ele>
        <time>2011-06-12T07:47:22Z</time>
      </trkpt>
      <trkpt lat="45.05078" lon="5.26839">
        <ele>220.758083</ele>
        <time>2011-06-12T07:47:24Z</time>
      </trkpt>
      <trkpt lat="45.05075" lon="5.26852">
        <ele>220.06781</ele>
        <time>2011-06-12T07:47:26Z</time>
      </trkpt>
      <trkpt lat="45.05075" lon="5.26874">
        <ele>219.375976</ele>
        <time>2011-06-12T07:47:29Z</time>
      </trkpt>
      <trkpt lat="45.05079" lon="5.2689">
        <ele>218.843272</ele>
        <time>2011-06-12T07:47:31Z</time>
      </trkpt>
      <trkpt lat="45.05084" lon="5.26906">
        <ele>218.589719</ele>
        <time>2011-06-12T07:47:33Z</time>
      </trkpt>
      <trkpt lat="45.05089" lon="5.26922">
        <ele>218.550836</ele>
        <time>2011-06-12T07:47:35Z</time>
      </trkpt>
      <trkpt lat="45.05097" lon="5.26945">
        <ele>218.613262</ele>
        <time>2011-06-12T07:47:38Z</time>
      </trkpt>
      <trkpt lat="45.05104" lon="5.26968">
        <ele>218.749992</ele>
        <time>2011-06-12T07:47:41Z</time>
      </trkpt>
      <trkpt lat="45.05107" lon="5.26983">
        <ele>218.986159</ele>
        <time>2011-06-12T07:47:43Z</time>
      </trkpt>
      <trkpt lat="45.05109" lon="5.27">
        <ele>219.337475</ele>
        <time>2011-06-12T07:47:45Z</time>
      </trkpt>
      <trkpt lat="45.0511" lon="5.27024">
        <ele>219.796419</ele>
        <time>2011-06-12T07:47:48Z</time>
      </trkpt>
      <trkpt lat="45.05109" lon="5.27047">
        <ele>220.307849</ele>
        <time>2011-06-12T07:47:51Z</time>
      </trkpt>
      <trkpt lat="45.05107" lon="5.27062">
        <ele>220.765212</ele>
        <time>2011-06-12T07:47:53Z</time>
      </trkpt>
      <trkpt lat="45.05105" lon="5.27077">
        <ele>221.091737</ele>
        <time>2011-06-12T07:47:55Z</time>
      </trkpt>
      <trkpt lat="45.05101" lon="5.27099">
        <ele>221.310729</ele>
        <time>2011-06-12T07:47:58Z</time>
      </trkpt>
      <trkpt lat="45.05099" lon="5.27114">
        <ele>221.485281</ele>
        <time>2011-06-12T07:48:00Z</time>
      </trkpt>
      <trkpt lat="45.05094" lon="5.27135">
        <ele>221.637361</ele>
        <time>2011-06-12T07:48:03Z</time>
      </trkpt>
      <trkpt lat="45.05091" lon="5.27149">
        <ele>221.795403</ele>
        <time>2011-06-12T07:48:05Z</time>
      </trkpt>
      <trkpt lat="45.05085" lon="5.2717">
        <ele>222.024773</ele>
        <time>2011-06-12T07:48:08Z</time>
      </trkpt>
      <trkpt lat="45.05082" lon="5.27184">
        <ele>222.410104</ele>
        <time>2011-06-12T07:48:10Z</time>
      </trkpt>
      <trkpt lat="45.05077" lon="5.27205">
        <ele>222.958483</ele>
        <time>2011-06-12T07:48:13Z</time>
      </trkpt>
      <trkpt lat="45.05073" lon="5.27226">
        <ele>223.567602</ele>
        <time>2011-06-12T07:48:16Z</time>
      </trkpt>
      <trkpt lat="45.0507" lon="5.2724">
        <ele>224.118948</ele>
        <time>2011-06-12T07:48:18Z</time>
      </trkpt>
      <trkpt lat="45.05068" lon="5.27255">
        <ele>224.561701</ele>
        <time>2011-06-12T07:48:20Z</time>
      </trkpt>
      <trkpt lat="45.05068" lon="5.27271">
        <ele>224.910155</ele>
        <time>2011-06-12T07:48:22Z</time>
      </trkpt>
      <trkpt lat="45.05068" lon="5.27296">
        <ele>225.211728</ele>
        <time>2011-06-12T07:48:25Z</time>
      </trkpt>
      <trkpt lat="45.05068" lon="5.27314">
        <ele>225.503135</ele>
        <time>2011-06-12T07:48:27Z</time>
      </trkpt>
      <trkpt lat="45.05067" lon="5.27343">
        <ele>225.826764</ele>
        <time>2011-06-12T07:48:30Z</time>
      </trkpt>
      <trkpt lat="45.05067" lon="5.27374">
        <ele>226.144987</ele>
        <time>2011-06-12T07:48:33Z</time>
      </trkpt>
      <trkpt lat="45.05067" lon="5.27406">
        <ele>226.349445</ele>
        <time>2011-06-12T07:48:36Z</time>
      </trkpt>
      <trkpt lat="45.05067" lon="5.27439">
        <ele>226.412522</ele>
        <time>2011-06-12T07:48:39Z</time>
      </trkpt>
      <trkpt lat="45.05067" lon="5.27472">
        <ele>226.388441</ele>
        <time>2011-06-12T07:48:42Z</time>
      </trkpt>
      <trkpt lat="45.05067" lon="5.27508">
        <ele>226.28063</ele>
        <time>2011-06-12T07:48:45Z</time>
      </trkpt>
      <trkpt lat="45.05073" lon="5.27532">
        <ele>226.084612</ele>
        <time>2011-06-12T07:48:47Z</time>
      </trkpt>
      <trkpt lat="45.05088" lon="5.27564">
        <ele>225.881553</ele>
        <time>2011-06-12T07:48:50Z</time>
      </trkpt>
      <trkpt lat="45.05101" lon="5.27584">
        <ele>225.763544</ele>
        <time>2011-06-12T07:48:52Z</time>
      </trkpt>
      <trkpt lat="45.05124" lon="5.2761">
        <ele>225.732662</ele>
        <time>2011-06-12T07:48:55Z</time>
      </trkpt>
      <trkpt lat="45.0514" lon="5.27624">
        <ele>225.751602</ele>
        <time>2011-06-12T07:48:57Z</time>
      </trkpt>
      <trkpt lat="45.05165" lon="5.27645">
        <ele>225.790463</ele>
        <time>2011-06-12T07:49:00Z</time>
      </trkpt>
      <trkpt lat="45.05189" lon="5.2767">
        <ele>225.822828</ele>
        <time>2011-06-12T07:49:03Z</time>
      </trkpt>
      <trkpt lat="45.05205" lon="5.27689">
        <ele>225.836092</ele>
        <time>2011-06-12T07:49:05Z</time>
      </trkpt>
      <trkpt lat="45.05228" lon="5.27717">
        <ele>225.78761</ele>
        <time>2011-06-12T07:49:08Z</time>
      </trkpt>
      <trkpt lat="45.05242" lon="5.27733">
        <ele>225.63599</ele>
        <time>2011-06-12T07:49:10Z</time>
      </trkpt>
      <trkpt lat="45.0526" lon="5.27736">
        <ele>225.446954</ele>
        <time>2011-06-12T07:49:12Z</time>
      </trkpt>
      <trkpt lat="45.05285" lon="5.27727">
        <ele>225.323139</ele>
        <time>2011-06-12T07:49:15Z</time>
      </trkpt>
      <trkpt lat="45.05307" lon="5.27713">
        <ele>225.273827</ele>
        <time>2011-06-12T07:49:18Z</time>
      </trkpt>
      <trkpt lat="45.05327" lon="5.27699">
        <ele>225.243753</ele>
        <time>2011-06-12T07:49:21Z</time>
      </trkpt>
      <trkpt lat="45.05346" lon="5.27688">
        <ele>225.148521</ele>
        <time>2011-06-12T07:49:24Z</time>
      </trkpt>
      <trkpt lat="45.0536" lon="5.27684">
        <ele>224.890795</ele>
        <time>2011-06-12T07:49:26Z</time>
      </trkpt>
      <trkpt lat="45.05379" lon="5.2769">
        <ele>224.427713</ele>
        <time>2011-06-12T07:49:29Z</time>
      </trkpt>
      <trkpt lat="45.05398" lon="5.27701">
        <ele>223.902911</ele>
        <time>2011-06-12T07:49:32Z</time>
      </trkpt>
      <trkpt lat="45.05417" lon="5.27714">
        <ele>223.55033</ele>
        <time>2011-06-12T07:49:35Z</time>
      </trkpt>
      <trkpt lat="45.05431" lon="5.27723">
        <ele>223.434728</ele>
        <time>2011-06-12T07:49:37Z</time>
      </trkpt>
      <trkpt lat="45.05445" lon="5.27732">
        <ele>223.435974</ele>
        <time>2011-06-12T07:49:39Z</time>
      </trkpt>
      <trkpt lat="45.05465" lon="5.27747">
        <ele>223.468877</ele>
        <time>2011-06-12T07:49:42Z</time>
      </trkpt>
      <trkpt lat="45.05484" lon="5.27764">
        <ele>223.537546</ele>
        <time>2011-06-12T07:49:45Z</time>
      </trkpt>
      <trkpt lat="45.05494" lon="5.27778">
        <ele>223.652994</ele>
        <time>2011-06-12T07:49:47Z</time>
      </trkpt>
      <trkpt lat="45.05502" lon="5.27793">
        <ele>223.780584</ele>
        <time>2011-06-12T07:49:49Z</time>
      </trkpt>
      <trkpt lat="45.05509" lon="5.2781">
        <ele>223.887811</ele>
        <time>2011-06-12T07:49:51Z</time>
      </trkpt>
      <trkpt lat="45.05515" lon="5.27836">
        <ele>223.984195</ele>
        <time>2011-06-12T07:49:54Z</time>
      </trkpt>
      <trkpt lat="45.05516" lon="5.27856">
        <ele>224.106197</ele>
        <time>2011-06-12T07:49:56Z</time>
      </trkpt>
      <trkpt lat="45.05516" lon="5.27876">
        <ele>224.279573</ele>
        <time>2011-06-12T07:49:58Z</time>
      </trkpt>
      <trkpt lat="45.05515" lon="5.27906">
        <ele>224.502057</ele>
        <time>2011-06-12T07:50:01Z</time>
      </trkpt>
      <trkpt lat="45.05514" lon="5.27925">
        <ele>224.723156</ele>
        <time>2011-06-12T07:50:03Z</time>
      </trkpt>
      <trkpt lat="45.05514" lon="5.27945">
        <ele>224.900788</ele>
        <time>2011-06-12T07:50:05Z</time>
      </trkpt>
      <trkpt lat="45.05514" lon="5.27974">
        <ele>225.038522</ele>
        <time>2011-06-12T07:50:08Z</time>
      </trkpt>
      <trkpt lat="45.05514" lon="5.28003">
        <ele>225.137087</ele>
        <time>2011-06-12T07:50:11Z</time>
      </trkpt>
      <trkpt lat="45.05514" lon="5.28022">
        <ele>225.192755</ele>
        <time>2011-06-12T07:50:13Z</time>
      </trkpt>
      <trkpt lat="45.05513" lon="5.28049">
        <ele>225.25996</ele>
        <time>2011-06-12T07:50:16Z</time>
      </trkpt>
      <trkpt lat="45.05514" lon="5.28076">
        <ele>225.388655</ele>
        <time>2011-06-12T07:50:19Z</time>
      </trkpt>
      <trkpt lat="45.05514" lon="5.28093">
        <ele>225.536467</ele>
        <time>2011-06-12T07:50:21Z</time>
      </trkpt>
      <trkpt lat="45.05514" lon="5.28111">
        <ele>225.634349</ele>
        <time>2011-06-12T07:50:23Z</time>
      </trkpt>
      <trkpt lat="45.05514" lon="5.28128">
        <ele>225.710558</ele>
        <time>2011-06-12T07:50:25Z</time>
      </trkpt>
      <trkpt lat="45.05515" lon="5.28146">
        <ele>225.83209</ele>
        <time>2011-06-12T07:50:27Z</time>
      </trkpt>
      <trkpt lat="45.05514" lon="5.28163">
        <ele>225.983959</ele>
        <time>2011-06-12T07:50:29Z</time>
      </trkpt>
      <trkpt lat="45.05513" lon="5.28189">
        <ele>226.110153</ele>
        <time>2011-06-12T07:50:32Z</time>
      </trkpt>
      <trkpt lat="45.05513" lon="5.28214">
        <ele>226.194665</ele>
        <time>2011-06-12T07:50:35Z</time>
      </trkpt>
      <trkpt lat="45.05513" lon="5.28231">
        <ele>226.237062</ele>
        <time>2011-06-12T07:50:37Z</time>
      </trkpt>
      <trkpt lat="45.05513" lon="5.28248">
        <ele>226.244863</ele>
        <time>2011-06-12T07:50:39Z</time>
      </trkpt>
      <trkpt lat="45.05513" lon="5.28265">
        <ele>226.236549</ele>
        <time>2011-06-12T07:50:41Z</time>
      </trkpt>
      <trkpt lat="45.05513" lon="5.2829">
        <ele>226.183728</ele>
        <time>2011-06-12T07:50:44Z</time>
      </trkpt>
      <trkpt lat="45.05513" lon="5.28308">
        <ele>226.00718</ele>
        <time>2011-06-12T07:50:46Z</time>
      </trkpt>
      <trkpt lat="45.05513" lon="5.28325">
        <ele>225.679187</ele>
        <time>2011-06-12T07:50:48Z</time>
      </trkpt>
      <trkpt lat="45.05513" lon="5.28351">
        <ele>225.260111</ele>
        <time>2011-06-12T07:50:51Z</time>
      </trkpt>
      <trkpt lat="45.05513" lon="5.28377">
        <ele>224.855337</ele>
        <time>2011-06-12T07:50:54Z</time>
      </trkpt>
      <trkpt lat="45.05513" lon="5.28395">
        <ele>224.576447</ele>
        <time>2011-06-12T07:50:56Z</time>
      </trkpt>
      <trkpt lat="45.05512" lon="5.2842">
        <ele>224.453401</ele>
        <time>2011-06-12T07:50:59Z</time>
      </trkpt>
      <trkpt lat="45.05511" lon="5.28445">
        <ele>224.419926</ele>
        <time>2011-06-12T07:51:02Z</time>
      </trkpt>
      <trkpt lat="45.0551" lon="5.2847">
        <ele>224.415975</ele>
        <time>2011-06-12T07:51:05Z</time>
      </trkpt>
      <trkpt lat="45.05508" lon="5.28495">
        <ele>224.42032</ele>
        <time>2011-06-12T07:51:08Z</time>
      </trkpt>
      <trkpt lat="45.05507" lon="5.28512">
        <ele>224.426935</ele>
        <time>2011-06-12T07:51:10Z</time>
      </trkpt>
      <trkpt lat="45.05504" lon="5.28538">
        <ele>224.436509</ele>
        <time>2011-06-12T07:51:13Z</time>
      </trkpt>
      <trkpt lat="45.05503" lon="5.28554">
        <ele>224.457948</ele>
        <time>2011-06-12T07:51:15Z</time>
      </trkpt>
      <trkpt lat="45.05502" lon="5.28571">
        <ele>224.512412</ele>
        <time>2011-06-12T07:51:17Z</time>
      </trkpt>
      <trkpt lat="45.05499" lon="5.28587">
        <ele>224.618452</ele>
        <time>2011-06-12T07:51:19Z</time>
      </trkpt>
      <trkpt lat="45.0549" lon="5.28609">
        <ele>224.770792</ele>
        <time>2011-06-12T07:51:22Z</time>
      </trkpt>
      <trkpt lat="45.05481" lon="5.28631">
        <ele>224.971259</ele>
        <time>2011-06-12T07:51:25Z</time>
      </trkpt>
      <trkpt lat="45.05476" lon="5.28646">
        <ele>225.232891</ele>
        <time>2011-06-12T07:51:27Z</time>
      </trkpt>
      <trkpt lat="45.05465" lon="5.28666">
        <ele>225.554233</ele>
        <time>2011-06-12T07:51:30Z</time>
      </trkpt>
      <trkpt lat="45.05454" lon="5.28684">
        <ele>225.867857</ele>
        <time>2011-06-12T07:51:33Z</time>
      </trkpt>
      <trkpt lat="45.05447" lon="5.28696">
        <ele>226.068868</ele>
        <time>2011-06-12T07:51:35Z</time>
      </trkpt>
      <trkpt lat="45.05438" lon="5.28715">
        <ele>226.130662</ele>
        <time>2011-06-12T07:51:38Z</time>
      </trkpt>
      <trkpt lat="45.05432" lon="5.28728">
        <ele>226.085827</ele>
        <time>2011-06-12T07:51:40Z</time>
      </trkpt>
      <trkpt lat="45.05426" lon="5.2874">
        <ele>225.951083</ele>
        <time>2011-06-12T07:51:42Z</time>
      </trkpt>
      <trkpt lat="45.05418" lon="5.28759">
        <ele>225.748528</ele>
        <time>2011-06-12T07:51:45Z</time>
      </trkpt>
      <trkpt lat="45.05412" lon="5.28772">
        <ele>225.49779</ele>
        <time>2011-06-12T07:51:47Z</time>
      </trkpt>
      <trkpt lat="45.05407" lon="5.28786">
        <ele>225.210599</ele>
        <time>2011-06-12T07:51:49Z</time>
      </trkpt>
      <trkpt lat="45.05402" lon="5.28799">
        <ele>224.873986</ele>
        <time>2011-06-12T07:51:51Z</time>
      </trkpt>
      <trkpt lat="45.05393" lon="5.28818">
        <ele>224.485983</ele>
        <time>2011-06-12T07:51:54Z</time>
      </trkpt>
      <trkpt lat="45.05388" lon="5.2883">
        <ele>224.125189</ele>
        <time>2011-06-12T07:51:56Z</time>
      </trkpt>
      <trkpt lat="45.05383" lon="5.28842">
        <ele>223.870699</ele>
        <time>2011-06-12T07:51:58Z</time>
      </trkpt>
      <trkpt lat="45.05376" lon="5.2886">
        <ele>223.702837</ele>
        <time>2011-06-12T07:52:01Z</time>
      </trkpt>
      <trkpt lat="45.05369" lon="5.28873">
        <ele>223.573399</ele>
        <time>2011-06-12T07:52:03Z</time>
      </trkpt>
      <trkpt lat="45.05363" lon="5.28887">
        <ele>223.482475</ele>
        <time>2011-06-12T07:52:05Z</time>
      </trkpt>
      <trkpt lat="45.05356" lon="5.28901">
        <ele>223.444578</ele>
        <time>2011-06-12T07:52:07Z</time>
      </trkpt>
      <trkpt lat="45.05348" lon="5.28922">
        <ele>223.441987</ele>
        <time>2011-06-12T07:52:10Z</time>
      </trkpt>
      <trkpt lat="45.05343" lon="5.28936">
        <ele>223.452333</ele>
        <time>2011-06-12T07:52:12Z</time>
      </trkpt>
      <trkpt lat="45.05334" lon="5.28955">
        <ele>223.465893</ele>
        <time>2011-06-12T07:52:15Z</time>
      </trkpt>
      <trkpt lat="45.05329" lon="5.28968">
        <ele>223.499669</ele>
        <time>2011-06-12T07:52:17Z</time>
      </trkpt>
      <trkpt lat="45.0532" lon="5.28986">
        <ele>223.562057</ele>
        <time>2011-06-12T07:52:20Z</time>
      </trkpt>
      <trkpt lat="45.05312" lon="5.29006">
        <ele>223.630893</ele>
        <time>2011-06-12T07:52:23Z</time>
      </trkpt>
      <trkpt lat="45.05303" lon="5.29026">
        <ele>223.685071</ele>
        <time>2011-06-12T07:52:26Z</time>
      </trkpt>
      <trkpt lat="45.05295" lon="5.29046">
        <ele>223.739778</ele>
        <time>2011-06-12T07:52:29Z</time>
      </trkpt>
      <trkpt lat="45.05287" lon="5.29066">
        <ele>223.807022</ele>
        <time>2011-06-12T07:52:32Z</time>
      </trkpt>
      <trkpt lat="45.05282" lon="5.2908">
        <ele>223.880968</ele>
        <time>2011-06-12T07:52:34Z</time>
      </trkpt>
      <trkpt lat="45.05273" lon="5.291">
        <ele>223.986406</ele>
        <time>2011-06-12T07:52:37Z</time>
      </trkpt>
      <trkpt lat="45.05264" lon="5.29121">
        <ele>224.139053</ele>
        <time>2011-06-12T07:52:40Z</time>
      </trkpt>
      <trkpt lat="45.05255" lon="5.29141">
        <ele>224.283622</ele>
        <time>2011-06-12T07:52:43Z</time>
      </trkpt>
      <trkpt lat="45.05246" lon="5.2916">
        <ele>224.371533</ele>
        <time>2011-06-12T07:52:46Z</time>
      </trkpt>
      <trkpt lat="45.05237" lon="5.29179">
        <ele>224.404764</ele>
        <time>2011-06-12T07:52:49Z</time>
      </trkpt>
      <trkpt lat="45.05231" lon="5.29191">
        <ele>224.404704</ele>
        <time>2011-06-12T07:52:51Z</time>
      </trkpt>
      <trkpt lat="45.0522" lon="5.29211">
        <ele>224.395191</ele>
        <time>2011-06-12T07:52:54Z</time>
      </trkpt>
      <trkpt lat="45.05212" lon="5.29223">
        <ele>224.391643</ele>
        <time>2011-06-12T07:52:56Z</time>
      </trkpt>
      <trkpt lat="45.05198" lon="5.29237">
        <ele>224.402863</ele>
        <time>2011-06-12T07:52:59Z</time>
      </trkpt>
      <trkpt lat="45.05184" lon="5.29249">
        <ele>224.448013</ele>
        <time>2011-06-12T07:53:02Z</time>
      </trkpt>
      <trkpt lat="45.0517" lon="5.2926">
        <ele>224.527248</ele>
        <time>2011-06-12T07:53:05Z</time>
      </trkpt>
      <trkpt lat="45.0516" lon="5.29268">
        <ele>224.59769</ele>
        <time>2011-06-12T07:53:07Z</time>
      </trkpt>
      <trkpt lat="45.05151" lon="5.29275">
        <ele>224.628083</ele>
        <time>2011-06-12T07:53:09Z</time>
      </trkpt>
      <trkpt lat="45.05136" lon="5.29286">
        <ele>224.592377</ele>
        <time>2011-06-12T07:53:12Z</time>
      </trkpt>
      <trkpt lat="45.0512" lon="5.29297">
        <ele>224.447619</ele>
        <time>2011-06-12T07:53:15Z</time>
      </trkpt>
      <trkpt lat="45.0511" lon="5.29303">
        <ele>224.207705</ele>
        <time>2011-06-12T07:53:17Z</time>
      </trkpt>
      <trkpt lat="45.05096" lon="5.29314">
        <ele>223.925885</ele>
        <time>2011-06-12T07:53:20Z</time>
      </trkpt>
      <trkpt lat="45.05086" lon="5.29321">
        <ele>223.642385</ele>
        <time>2011-06-12T07:53:22Z</time>
      </trkpt>
      <trkpt lat="45.05071" lon="5.2933">
        <ele>223.389009</ele>
        <time>2011-06-12T07:53:25Z</time>
      </trkpt>
      <trkpt lat="45.05062" lon="5.29337">
        <ele>223.151777</ele>
        <time>2011-06-12T07:53:27Z</time>
      </trkpt>
      <trkpt lat="45.05052" lon="5.29343">
        <ele>222.909891</ele>
        <time>2011-06-12T07:53:29Z</time>
      </trkpt>
      <trkpt lat="45.05037" lon="5.29354">
        <ele>222.714654</ele>
        <time>2011-06-12T07:53:32Z</time>
      </trkpt>
      <trkpt lat="45.05027" lon="5.29361">
        <ele>222.618637</ele>
        <time>2011-06-12T07:53:34Z</time>
      </trkpt>
      <trkpt lat="45.05017" lon="5.29369">
        <ele>222.602063</ele>
        <time>2011-06-12T07:53:36Z</time>
      </trkpt>
      <trkpt lat="45.05003" lon="5.29379">
        <ele>222.629165</ele>
        <time>2011-06-12T07:53:39Z</time>
      </trkpt>
      <trkpt lat="45.04987" lon="5.2939">
        <ele>222.694615</ele>
        <time>2011-06-12T07:53:42Z</time>
      </trkpt>
      <trkpt lat="45.04972" lon="5.294">
        <ele>222.781167</ele>
        <time>2011-06-12T07:53:45Z</time>
      </trkpt>
      <trkpt lat="45.04957" lon="5.2941">
        <ele>222.845335</ele>
        <time>2011-06-12T07:53:48Z</time>
      </trkpt>
      <trkpt lat="45.04942" lon="5.29422">
        <ele>222.868926</ele>
        <time>2011-06-12T07:53:51Z</time>
      </trkpt>
      <trkpt lat="45.04933" lon="5.29431">
        <ele>222.857858</ele>
        <time>2011-06-12T07:53:53Z</time>
      </trkpt>
      <trkpt lat="45.04919" lon="5.29442">
        <ele>222.79647</ele>
        <time>2011-06-12T07:53:56Z</time>
      </trkpt>
      <trkpt lat="45.04909" lon="5.29449">
        <ele>222.68405</ele>
        <time>2011-06-12T07:53:58Z</time>
      </trkpt>
      <trkpt lat="45.04894" lon="5.29463">
        <ele>222.566335</ele>
        <time>2011-06-12T07:54:01Z</time>
      </trkpt>
      <trkpt lat="45.04884" lon="5.29475">
        <ele>222.486162</ele>
        <time>2011-06-12T07:54:03Z</time>
      </trkpt>
      <trkpt lat="45.0487" lon="5.29491">
        <ele>222.44919</ele>
        <time>2011-06-12T07:54:06Z</time>
      </trkpt>
      <trkpt lat="45.0486" lon="5.29499">
        <ele>222.442418</ele>
        <time>2011-06-12T07:54:08Z</time>
      </trkpt>
      <trkpt lat="45.04845" lon="5.29511">
        <ele>222.44786</ele>
        <time>2011-06-12T07:54:11Z</time>
      </trkpt>
      <trkpt lat="45.04835" lon="5.29517">
        <ele>222.463834</ele>
        <time>2011-06-12T07:54:13Z</time>
      </trkpt>
      <trkpt lat="45.04819" lon="5.29525">
        <ele>222.497623</ele>
        <time>2011-06-12T07:54:16Z</time>
      </trkpt>
      <trkpt lat="45.04808" lon="5.29528">
        <ele>222.537494</ele>
        <time>2011-06-12T07:54:18Z</time>
      </trkpt>
      <trkpt lat="45.04797" lon="5.29533">
        <ele>222.562739</ele>
        <time>2011-06-12T07:54:20Z</time>
      </trkpt>
      <trkpt lat="45.04787" lon="5.29539">
        <ele>222.570363</ele>
        <time>2011-06-12T07:54:22Z</time>
      </trkpt>
      <trkpt lat="45.04773" lon="5.29549">
        <ele>222.544235</ele>
        <time>2011-06-12T07:54:25Z</time>
      </trkpt>
      <trkpt lat="45.04758" lon="5.2956">
        <ele>222.45673</ele>
        <time>2011-06-12T07:54:28Z</time>
      </trkpt>
      <trkpt lat="45.04743" lon="5.2957">
        <ele>222.336414</ele>
        <time>2011-06-12T07:54:31Z</time>
      </trkpt>
      <trkpt lat="45.04734" lon="5.29577">
        <ele>222.248306</ele>
        <time>2011-06-12T07:54:33Z</time>
      </trkpt>
      <trkpt lat="45.04723" lon="5.29584">
        <ele>222.208239</ele>
        <time>2011-06-12T07:54:35Z</time>
      </trkpt>
      <trkpt lat="45.04712" lon="5.29591">
        <ele>222.193788</ele>
        <time>2011-06-12T07:54:37Z</time>
      </trkpt>
      <trkpt lat="45.04696" lon="5.29601">
        <ele>222.190373</ele>
        <time>2011-06-12T07:54:40Z</time>
      </trkpt>
      <trkpt lat="45.04685" lon="5.29608">
        <ele>222.191923</ele>
        <time>2011-06-12T07:54:42Z</time>
      </trkpt>
      <trkpt lat="45.04671" lon="5.29619">
        <ele>222.230233</ele>
        <time>2011-06-12T07:54:45Z</time>
      </trkpt>
      <trkpt lat="45.04662" lon="5.29626">
        <ele>222.422334</ele>
        <time>2011-06-12T07:54:47Z</time>
      </trkpt>
      <trkpt lat="45.04647" lon="5.29637">
        <ele>222.847905</ele>
        <time>2011-06-12T07:54:50Z</time>
      </trkpt>
      <trkpt lat="45.04632" lon="5.29649">
        <ele>223.438263</ele>
        <time>2011-06-12T07:54:53Z</time>
      </trkpt>
      <trkpt lat="45.04617" lon="5.29661">
        <ele>224.048952</ele>
        <time>2011-06-12T07:54:56Z</time>
      </trkpt>
      <trkpt lat="45.04601" lon="5.29673">
        <ele>224.603832</ele>
        <time>2011-06-12T07:54:59Z</time>
      </trkpt>
      <trkpt lat="45.04586" lon="5.29685">
        <ele>225.137696</ele>
        <time>2011-06-12T07:55:02Z</time>
      </trkpt>
      <trkpt lat="45.04576" lon="5.29693">
        <ele>225.711073</ele>
        <time>2011-06-12T07:55:04Z</time>
      </trkpt>
      <trkpt lat="45.04567" lon="5.29701">
        <ele>226.322156</ele>
        <time>2011-06-12T07:55:06Z</time>
      </trkpt>
      <trkpt lat="45.04558" lon="5.29709">
        <ele>226.920028</ele>
        <time>2011-06-12T07:55:08Z</time>
      </trkpt>
      <trkpt lat="45.04543" lon="5.29719">
        <ele>227.388814</ele>
        <time>2011-06-12T07:55:11Z</time>
      </trkpt>
      <trkpt lat="45.04533" lon="5.29725">
        <ele>227.629938</ele>
        <time>2011-06-12T07:55:13Z</time>
      </trkpt>
      <trkpt lat="45.04516" lon="5.29731">
        <ele>227.677687</ele>
        <time>2011-06-12T07:55:16Z</time>
      </trkpt>
      <trkpt lat="45.04492" lon="5.29736">
        <ele>227.644891</ele>
        <time>2011-06-12T07:55:19Z</time>
      </trkpt>
      <trkpt lat="45.04475" lon="5.29738">
        <ele>227.606625</ele>
        <time>2011-06-12T07:55:21Z</time>
      </trkpt>
      <trkpt lat="45.0445" lon="5.29743">
        <ele>227.587194</ele>
        <time>2011-06-12T07:55:24Z</time>
      </trkpt>
      <trkpt lat="45.04426" lon="5.29747">
        <ele>227.658652</ele>
        <time>2011-06-12T07:55:27Z</time>
      </trkpt>
      <trkpt lat="45.04406" lon="5.29749">
        <ele>227.959789</ele>
        <time>2011-06-12T07:55:30Z</time>
      </trkpt>
      <trkpt lat="45.04385" lon="5.29748">
        <ele>228.536067</ele>
        <time>2011-06-12T07:55:33Z</time>
      </trkpt>
      <trkpt lat="45.04372" lon="5.29746">
        <ele>229.195754</ele>
        <time>2011-06-12T07:55:35Z</time>
      </trkpt>
      <trkpt lat="45.04359" lon="5.29743">
        <ele>229.662423</ele>
        <time>2011-06-12T07:55:37Z</time>
      </trkpt>
      <trkpt lat="45.04346" lon="5.2974">
        <ele>229.850316</ele>
        <time>2011-06-12T07:55:39Z</time>
      </trkpt>
      <trkpt lat="45.04327" lon="5.29735">
        <ele>229.889947</ele>
        <time>2011-06-12T07:55:42Z</time>
      </trkpt>
      <trkpt lat="45.04308" lon="5.2973">
        <ele>229.905217</ele>
        <time>2011-06-12T07:55:45Z</time>
      </trkpt>
      <trkpt lat="45.04289" lon="5.29725">
        <ele>229.922988</ele>
        <time>2011-06-12T07:55:48Z</time>
      </trkpt>
      <trkpt lat="45.04276" lon="5.29723">
        <ele>229.932</ele>
        <time>2011-06-12T07:55:50Z</time>
      </trkpt>
      <trkpt lat="45.04264" lon="5.2972">
        <ele>229.898532</ele>
        <time>2011-06-12T07:55:52Z</time>
      </trkpt>
      <trkpt lat="45.04253" lon="5.29718">
        <ele>229.777681</ele>
        <time>2011-06-12T07:55:54Z</time>
      </trkpt>
      <trkpt lat="45.04241" lon="5.29716">
        <ele>229.5793</ele>
        <time>2011-06-12T07:55:56Z</time>
      </trkpt>
      <trkpt lat="45.04225" lon="5.29713">
        <ele>229.354195</ele>
        <time>2011-06-12T07:55:59Z</time>
      </trkpt>
      <trkpt lat="45.0421" lon="5.29711">
        <ele>229.149077</ele>
        <time>2011-06-12T07:56:02Z</time>
      </trkpt>
      <trkpt lat="45.04199" lon="5.29709">
        <ele>228.9941</ele>
        <time>2011-06-12T07:56:04Z</time>
      </trkpt>
      <trkpt lat="45.04184" lon="5.29707">
        <ele>228.875072</ele>
        <time>2011-06-12T07:56:07Z</time>
      </trkpt>
      <trkpt lat="45.04169" lon="5.29706">
        <ele>228.732356</ele>
        <time>2011-06-12T07:56:10Z</time>
      </trkpt>
      <trkpt lat="45.04155" lon="5.29704">
        <ele>228.525861</ele>
        <time>2011-06-12T07:56:13Z</time>
      </trkpt>
      <trkpt lat="45.04142" lon="5.29703">
        <ele>228.271041</ele>
        <time>2011-06-12T07:56:16Z</time>
      </trkpt>
      <trkpt lat="45.04127" lon="5.29703">
        <ele>227.962902</ele>
        <time>2011-06-12T07:56:19Z</time>
      </trkpt>
      <trkpt lat="45.04118" lon="5.29703">
        <ele>227.576383</ele>
        <time>2011-06-12T07:56:21Z</time>
      </trkpt>
      <trkpt lat="45.04101" lon="5.29703">
        <ele>227.199713</ele>
        <time>2011-06-12T07:56:24Z</time>
      </trkpt>
      <trkpt lat="45.04089" lon="5.29704">
        <ele>226.971833</ele>
        <time>2011-06-12T07:56:26Z</time>
      </trkpt>
      <trkpt lat="45.04077" lon="5.29704">
        <ele>226.907797</ele>
        <time>2011-06-12T07:56:28Z</time>
      </trkpt>
      <trkpt lat="45.0406" lon="5.29707">
        <ele>226.996608</ele>
        <time>2011-06-12T07:56:31Z</time>
      </trkpt>
      <trkpt lat="45.0405" lon="5.29708">
        <ele>227.292192</ele>
        <time>2011-06-12T07:56:33Z</time>
      </trkpt>
      <trkpt lat="45.04039" lon="5.29709">
        <ele>227.770838</ele>
        <time>2011-06-12T07:56:35Z</time>
      </trkpt>
      <trkpt lat="45.04024" lon="5.2971">
        <ele>228.276066</ele>
        <time>2011-06-12T07:56:38Z</time>
      </trkpt>
      <trkpt lat="45.04008" lon="5.29712">
        <ele>228.646736</ele>
        <time>2011-06-12T07:56:41Z</time>
      </trkpt>
      <trkpt lat="45.03997" lon="5.29714">
        <ele>228.825459</ele>
        <time>2011-06-12T07:56:43Z</time>
      </trkpt>
      <trkpt lat="45.03986" lon="5.29715">
        <ele>228.875664</ele>
        <time>2011-06-12T07:56:45Z</time>
      </trkpt>
      <trkpt lat="45.03971" lon="5.29715">
        <ele>228.897911</ele>
        <time>2011-06-12T07:56:48Z</time>
      </trkpt>
      <trkpt lat="45.03961" lon="5.29717">
        <ele>228.93643</ele>
        <time>2011-06-12T07:56:50Z</time>
      </trkpt>
      <trkpt lat="45.03951" lon="5.29718">
        <ele>228.972762</ele>
        <time>2011-06-12T07:56:52Z</time>
      </trkpt>
      <trkpt lat="45.03935" lon="5.2972">
        <ele>228.989108</ele>
        <time>2011-06-12T07:56:55Z</time>
      </trkpt>
      <trkpt lat="45.03924" lon="5.29722">
        <ele>228.969528</ele>
        <time>2011-06-12T07:56:57Z</time>
      </trkpt>
      <trkpt lat="45.03906" lon="5.29723">
        <ele>228.884261</ele>
        <time>2011-06-12T07:57:00Z</time>
      </trkpt>
      <trkpt lat="45.03893" lon="5.29724">
        <ele>228.755994</ele>
        <time>2011-06-12T07:57:02Z</time>
      </trkpt>
      <trkpt lat="45.03874" lon="5.29726">
        <ele>228.657814</ele>
        <time>2011-06-12T07:57:05Z</time>
      </trkpt>
      <trkpt lat="45.03854" lon="5.29728">
        <ele>228.620532</ele>
        <time>2011-06-12T07:57:08Z</time>
      </trkpt>
      <trkpt lat="45.03841" lon="5.29729">
        <ele>228.637925</ele>
        <time>2011-06-12T07:57:10Z</time>
      </trkpt>
      <trkpt lat="45.03822" lon="5.29732">
        <ele>228.722331</ele>
        <time>2011-06-12T07:57:13Z</time>
      </trkpt>
      <trkpt lat="45.03803" lon="5.29733">
        <ele>228.85086</ele>
        <time>2011-06-12T07:57:16Z</time>
      </trkpt>
      <trkpt lat="45.03791" lon="5.29734">
        <ele>228.951831</ele>
        <time>2011-06-12T07:57:18Z</time>
      </trkpt>
      <trkpt lat="45.03774" lon="5.29737">
        <ele>228.991137</ele>
        <time>2011-06-12T07:57:21Z</time>
      </trkpt>
      <trkpt lat="45.03764" lon="5.29738">
        <ele>229.016872</ele>
        <time>2011-06-12T07:57:23Z</time>
      </trkpt>
      <trkpt lat="45.03748" lon="5.29741">
        <ele>229.07124</ele>
        <time>2011-06-12T07:57:26Z</time>
      </trkpt>
      <trkpt lat="45.03733" lon="5.29739">
        <ele>229.129739</ele>
        <time>2011-06-12T07:57:29Z</time>
      </trkpt>
      <trkpt lat="45.03719" lon="5.29735">
        <ele>229.158236</ele>
        <time>2011-06-12T07:57:32Z</time>
      </trkpt>
      <trkpt lat="45.03703" lon="5.29728">
        <ele>229.201603</ele>
        <time>2011-06-12T07:57:35Z</time>
      </trkpt>
      <trkpt lat="45.03694" lon="5.29719">
        <ele>229.342313</ele>
        <time>2011-06-12T07:57:37Z</time>
      </trkpt>
      <trkpt lat="45.03684" lon="5.29709">
        <ele>229.602932</ele>
        <time>2011-06-12T07:57:39Z</time>
      </trkpt>
      <trkpt lat="45.03674" lon="5.29698">
        <ele>229.919444</ele>
        <time>2011-06-12T07:57:41Z</time>
      </trkpt>
      <trkpt lat="45.03659" lon="5.2968">
        <ele>230.208214</ele>
        <time>2011-06-12T07:57:44Z</time>
      </trkpt>
      <trkpt lat="45.03643" lon="5.2966">
        <ele>230.415367</ele>
        <time>2011-06-12T07:57:47Z</time>
      </trkpt>
      <trkpt lat="45.03632" lon="5.29647">
        <ele>230.527921</ele>
        <time>2011-06-12T07:57:49Z</time>
      </trkpt>
      <trkpt lat="45.03622" lon="5.29634">
        <ele>230.563778</ele>
        <time>2011-06-12T07:57:51Z</time>
      </trkpt>
      <trkpt lat="45.03606" lon="5.29614">
        <ele>230.559267</ele>
        <time>2011-06-12T07:57:54Z</time>
      </trkpt>
      <trkpt lat="45.0359" lon="5.29593">
        <ele>230.545064</ele>
        <time>2011-06-12T07:57:57Z</time>
      </trkpt>
      <trkpt lat="45.03579" lon="5.2958">
        <ele>230.534407</ele>
        <time>2011-06-12T07:57:59Z</time>
      </trkpt>
      <trkpt lat="45.03568" lon="5.29567">
        <ele>230.445368</ele>
        <time>2011-06-12T07:58:01Z</time>
      </trkpt>
      <trkpt lat="45.03557" lon="5.29553">
        <ele>230.194903</ele>
        <time>2011-06-12T07:58:03Z</time>
      </trkpt>
      <trkpt lat="45.03542" lon="5.29531">
        <ele>229.886602</ele>
        <time>2011-06-12T07:58:06Z</time>
      </trkpt>
      <trkpt lat="45.03533" lon="5.29515">
        <ele>229.685864</ele>
        <time>2011-06-12T07:58:08Z</time>
      </trkpt>
      <trkpt lat="45.03524" lon="5.29496">
        <ele>229.61429</ele>
        <time>2011-06-12T07:58:10Z</time>
      </trkpt>
      <trkpt lat="45.0351" lon="5.29466">
        <ele>229.613243</ele>
        <time>2011-06-12T07:58:13Z</time>
      </trkpt>
      <trkpt lat="45.035" lon="5.29444">
        <ele>229.632848</ele>
        <time>2011-06-12T07:58:15Z</time>
      </trkpt>
      <trkpt lat="45.03486" lon="5.29411">
        <ele>229.652311</ele>
        <time>2011-06-12T07:58:18Z</time>
      </trkpt>
      <trkpt lat="45.03476" lon="5.29388">
        <ele>229.680066</ele>
        <time>2011-06-12T07:58:20Z</time>
      </trkpt>
      <trkpt lat="45.03463" lon="5.29369">
        <ele>229.728263</ele>
        <time>2011-06-12T07:58:22Z</time>
      </trkpt>
      <trkpt lat="45.03448" lon="5.29353">
        <ele>229.779524</ele>
        <time>2011-06-12T07:58:24Z</time>
      </trkpt>
      <trkpt lat="45.03424" lon="5.29332">
        <ele>229.80973</ele>
        <time>2011-06-12T07:58:27Z</time>
      </trkpt>
      <trkpt lat="45.03401" lon="5.29313">
        <ele>229.821661</ele>
        <time>2011-06-12T07:58:30Z</time>
      </trkpt>
      <trkpt lat="45.03378" lon="5.29295">
        <ele>229.826942</ele>
        <time>2011-06-12T07:58:33Z</time>
      </trkpt>
      <trkpt lat="45.03364" lon="5.29284">
        <ele>229.830842</ele>
        <time>2011-06-12T07:58:35Z</time>
      </trkpt>
      <trkpt lat="45.03343" lon="5.29266">
        <ele>229.834075</ele>
        <time>2011-06-12T07:58:38Z</time>
      </trkpt>
      <trkpt lat="45.03324" lon="5.2925">
        <ele>229.836343</ele>
        <time>2011-06-12T07:58:41Z</time>
      </trkpt>
      <trkpt lat="45.03306" lon="5.29236">
        <ele>229.836179</ele>
        <time>2011-06-12T07:58:44Z</time>
      </trkpt>
      <trkpt lat="45.03294" lon="5.29226">
        <ele>229.814372</ele>
        <time>2011-06-12T07:58:46Z</time>
      </trkpt>
      <trkpt lat="45.03282" lon="5.29217">
        <ele>229.725807</ele>
        <time>2011-06-12T07:58:48Z</time>
      </trkpt>
      <trkpt lat="45.03271" lon="5.29208">
        <ele>229.550254</ele>
        <time>2011-06-12T07:58:50Z</time>
      </trkpt>
      <trkpt lat="45.03253" lon="5.29194">
        <ele>229.33949</ele>
        <time>2011-06-12T07:58:53Z</time>
      </trkpt>
      <trkpt lat="45.0324" lon="5.29185">
        <ele>229.166047</ele>
        <time>2011-06-12T07:58:55Z</time>
      </trkpt>
      <trkpt lat="45.03226" lon="5.29173">
        <ele>229.023154</ele>
        <time>2011-06-12T07:58:57Z</time>
      </trkpt>
      <trkpt lat="45.03211" lon="5.29162">
        <ele>228.844181</ele>
        <time>2011-06-12T07:58:59Z</time>
      </trkpt>
      <trkpt lat="45.03189" lon="5.29144">
        <ele>228.640838</ele>
        <time>2011-06-12T07:59:02Z</time>
      </trkpt>
      <trkpt lat="45.03174" lon="5.29131">
        <ele>228.496509</ele>
        <time>2011-06-12T07:59:04Z</time>
      </trkpt>
      <trkpt lat="45.03161" lon="5.29119">
        <ele>228.436711</ele>
        <time>2011-06-12T07:59:06Z</time>
      </trkpt>
      <trkpt lat="45.03141" lon="5.29102">
        <ele>228.411223</ele>
        <time>2011-06-12T07:59:09Z</time>
      </trkpt>
      <trkpt lat="45.03124" lon="5.29085">
        <ele>228.362649</ele>
        <time>2011-06-12T07:59:12Z</time>
      </trkpt>
      <trkpt lat="45.03113" lon="5.29074">
        <ele>228.266557</ele>
        <time>2011-06-12T07:59:14Z</time>
      </trkpt>
      <trkpt lat="45.03102" lon="5.29063">
        <ele>228.154356</ele>
        <time>2011-06-12T07:59:16Z</time>
      </trkpt>
      <trkpt lat="45.03092" lon="5.29052">
        <ele>228.07814</ele>
        <time>2011-06-12T07:59:18Z</time>
      </trkpt>
      <trkpt lat="45.03076" lon="5.29035">
        <ele>228.051679</ele>
        <time>2011-06-12T07:59:21Z</time>
      </trkpt>
      <trkpt lat="45.03064" lon="5.29023">
        <ele>228.036106</ele>
        <time>2011-06-12T07:59:23Z</time>
      </trkpt>
      <trkpt lat="45.03053" lon="5.29012">
        <ele>228.002437</ele>
        <time>2011-06-12T07:59:25Z</time>
      </trkpt>
      <trkpt lat="45.03035" lon="5.28995">
        <ele>227.966236</ele>
        <time>2011-06-12T07:59:28Z</time>
      </trkpt>
      <trkpt lat="45.03016" lon="5.28978">
        <ele>227.963927</ele>
        <time>2011-06-12T07:59:31Z</time>
      </trkpt>
      <trkpt lat="45.02998" lon="5.28961">
        <ele>228.000887</ele>
        <time>2011-06-12T07:59:34Z</time>
      </trkpt>
      <trkpt lat="45.02979" lon="5.28946">
        <ele>228.044657</ele>
        <time>2011-06-12T07:59:37Z</time>
      </trkpt>
      <trkpt lat="45.02957" lon="5.28936">
        <ele>228.066217</ele>
        <time>2011-06-12T07:59:40Z</time>
      </trkpt>
      <trkpt lat="45.02941" lon="5.28932">
        <ele>228.068436</ele>
        <time>2011-06-12T07:59:42Z</time>
      </trkpt>
      <trkpt lat="45.02917" lon="5.28934">
        <ele>228.063139</ele>
        <time>2011-06-12T07:59:45Z</time>
      </trkpt>
      <trkpt lat="45.02899" lon="5.28938">
        <ele>228.058523</ele>
        <time>2011-06-12T07:59:47Z</time>
      </trkpt>
      <trkpt lat="45.02879" lon="5.28942">
        <ele>228.039421</ele>
        <time>2011-06-12T07:59:49Z</time>
      </trkpt>
      <trkpt lat="45.02846" lon="5.28945">
        <ele>227.961571</ele>
        <time>2011-06-12T07:59:52Z</time>
      </trkpt>
      <trkpt lat="45.02814" lon="5.28934">
        <ele>227.814059</ele>
        <time>2011-06-12T07:59:55Z</time>
      </trkpt>
      <trkpt lat="45.02793" lon="5.28926">
        <ele>227.635208</ele>
        <time>2011-06-12T07:59:57Z</time>
      </trkpt>
      <trkpt lat="45.02766" lon="5.28907">
        <ele>227.432159</ele>
        <time>2011-06-12T08:00:00Z</time>
      </trkpt>
      <trkpt lat="45.0275" lon="5.28892">
        <ele>227.210203</ele>
        <time>2011-06-12T08:00:02Z</time>
      </trkpt>
      <trkpt lat="45.02734" lon="5.28878">
        <ele>227.035848</ele>
        <time>2011-06-12T08:00:04Z</time>
      </trkpt>
      <trkpt lat="45.02719" lon="5.28864">
        <ele>226.952348</ele>
        <time>2011-06-12T08:00:06Z</time>
      </trkpt>
      <trkpt lat="45.02699" lon="5.28844">
        <ele>226.931123</ele>
        <time>2011-06-12T08:00:09Z</time>
      </trkpt>
      <trkpt lat="45.0268" lon="5.28828">
        <ele>226.926554</ele>
        <time>2011-06-12T08:00:12Z</time>
      </trkpt>
      <trkpt lat="45.02663" lon="5.28812">
        <ele>226.915077</ele>
        <time>2011-06-12T08:00:15Z</time>
      </trkpt>
      <trkpt lat="45.02653" lon="5.28802">
        <ele>226.809993</ele>
        <time>2011-06-12T08:00:17Z</time>
      </trkpt>
      <trkpt lat="45.02636" lon="5.28788">
        <ele>226.547519</ele>
        <time>2011-06-12T08:00:20Z</time>
      </trkpt>
      <trkpt lat="45.02626" lon="5.28782">
        <ele>226.158587</ele>
        <time>2011-06-12T08:00:22Z</time>
      </trkpt>
      <trkpt lat="45.02615" lon="5.28778">
        <ele>225.679482</ele>
        <time>2011-06-12T08:00:24Z</time>
      </trkpt>
      <trkpt lat="45.02606" lon="5.28773">
        <ele>225.123729</ele>
        <time>2011-06-12T08:00:26Z</time>
      </trkpt>
      <trkpt lat="45.02592" lon="5.28769">
        <ele>224.539243</ele>
        <time>2011-06-12T08:00:29Z</time>
      </trkpt>
      <trkpt lat="45.02578" lon="5.28778">
        <ele>223.99118</ele>
        <time>2011-06-12T08:00:32Z</time>
      </trkpt>
      <trkpt lat="45.0257" lon="5.28782">
        <ele>223.591145</ele>
        <time>2011-06-12T08:00:34Z</time>
      </trkpt>
      <trkpt lat="45.02562" lon="5.28783">
        <ele>223.401638</ele>
        <time>2011-06-12T08:00:36Z</time>
      </trkpt>
      <trkpt lat="45.02553" lon="5.28782">
        <ele>223.373113</ele>
        <time>2011-06-12T08:00:38Z</time>
      </trkpt>
      <trkpt lat="45.0254" lon="5.28774">
        <ele>223.406857</ele>
        <time>2011-06-12T08:00:41Z</time>
      </trkpt>
      <trkpt lat="45.02532" lon="5.28764">
        <ele>223.457913</ele>
        <time>2011-06-12T08:00:43Z</time>
      </trkpt>
      <trkpt lat="45.02523" lon="5.28753">
        <ele>223.534894</ele>
        <time>2011-06-12T08:00:45Z</time>
      </trkpt>
      <trkpt lat="45.02513" lon="5.28729">
        <ele>223.638708</ele>
        <time>2011-06-12T08:00:48Z</time>
      </trkpt>
      <trkpt lat="45.02502" lon="5.28706">
        <ele>223.733243</ele>
        <time>2011-06-12T08:00:51Z</time>
      </trkpt>
      <trkpt lat="45.02493" lon="5.28693">
        <ele>223.785445</ele>
        <time>2011-06-12T08:00:53Z</time>
      </trkpt>
      <trkpt lat="45.0248" lon="5.28676">
        <ele>223.797764</ele>
        <time>2011-06-12T08:00:56Z</time>
      </trkpt>
      <trkpt lat="45.02469" lon="5.28668">
        <ele>223.782434</ele>
        <time>2011-06-12T08:00:58Z</time>
      </trkpt>
      <trkpt lat="45.02454" lon="5.2866">
        <ele>223.749389</ele>
        <time>2011-06-12T08:01:01Z</time>
      </trkpt>
      <trkpt lat="45.02437" lon="5.28658">
        <ele>223.719189</ele>
        <time>2011-06-12T08:01:04Z</time>
      </trkpt>
      <trkpt lat="45.02421" lon="5.28662">
        <ele>223.705894</ele>
        <time>2011-06-12T08:01:07Z</time>
      </trkpt>
      <trkpt lat="45.02411" lon="5.28667">
        <ele>223.771158</ele>
        <time>2011-06-12T08:01:09Z</time>
      </trkpt>
      <trkpt lat="45.024" lon="5.28673">
        <ele>224.017702</ele>
        <time>2011-06-12T08:01:11Z</time>
      </trkpt>
      <trkpt lat="45.0239" lon="5.28681">
        <ele>224.38615</ele>
        <time>2011-06-12T08:01:13Z</time>
      </trkpt>
      <trkpt lat="45.02381" lon="5.2869">
        <ele>224.672338</ele>
        <time>2011-06-12T08:01:15Z</time>
      </trkpt>
      <trkpt lat="45.02369" lon="5.28703">
        <ele>224.787518</ele>
        <time>2011-06-12T08:01:18Z</time>
      </trkpt>
      <trkpt lat="45.02361" lon="5.28712">
        <ele>224.792587</ele>
        <time>2011-06-12T08:01:20Z</time>
      </trkpt>
      <trkpt lat="45.02354" lon="5.28721">
        <ele>224.763582</ele>
        <time>2011-06-12T08:01:22Z</time>
      </trkpt>
      <trkpt lat="45.02343" lon="5.28733">
        <ele>224.740327</ele>
        <time>2011-06-12T08:01:25Z</time>
      </trkpt>
      <trkpt lat="45.02337" lon="5.28742">
        <ele>224.731104</ele>
        <time>2011-06-12T08:01:27Z</time>
      </trkpt>
      <trkpt lat="45.02331" lon="5.28752">
        <ele>224.753038</ele>
        <time>2011-06-12T08:01:29Z</time>
      </trkpt>
      <trkpt lat="45.02323" lon="5.28767">
        <ele>224.889209</ele>
        <time>2011-06-12T08:01:32Z</time>
      </trkpt>
      <trkpt lat="45.02315" lon="5.28782">
        <ele>225.192314</ele>
        <time>2011-06-12T08:01:35Z</time>
      </trkpt>
      <trkpt lat="45.02308" lon="5.288">
        <ele>225.584918</ele>
        <time>2011-06-12T08:01:38Z</time>
      </trkpt>
      <trkpt lat="45.02302" lon="5.28819">
        <ele>226.008472</ele>
        <time>2011-06-12T08:01:41Z</time>
      </trkpt>
      <trkpt lat="45.02298" lon="5.28831">
        <ele>226.49254</ele>
        <time>2011-06-12T08:01:43Z</time>
      </trkpt>
      <trkpt lat="45.02295" lon="5.28842">
        <ele>227.020962</ele>
        <time>2011-06-12T08:01:45Z</time>
      </trkpt>
      <trkpt lat="45.02292" lon="5.28852">
        <ele>227.532106</ele>
        <time>2011-06-12T08:01:47Z</time>
      </trkpt>
      <trkpt lat="45.02287" lon="5.28865">
        <ele>227.983442</ele>
        <time>2011-06-12T08:01:50Z</time>
      </trkpt>
      <trkpt lat="45.02283" lon="5.28873">
        <ele>228.334876</ele>
        <time>2011-06-12T08:01:52Z</time>
      </trkpt>
      <trkpt lat="45.02276" lon="5.28886">
        <ele>228.551569</ele>
        <time>2011-06-12T08:01:55Z</time>
      </trkpt>
      <trkpt lat="45.02271" lon="5.28895">
        <ele>228.641821</ele>
        <time>2011-06-12T08:01:57Z</time>
      </trkpt>
      <trkpt lat="45.02263" lon="5.28908">
        <ele>228.671693</ele>
        <time>2011-06-12T08:02:00Z</time>
      </trkpt>
      <trkpt lat="45.02256" lon="5.28917">
        <ele>228.727321</ele>
        <time>2011-06-12T08:02:03Z</time>
      </trkpt>
      <trkpt lat="45.0225" lon="5.28925">
        <ele>228.827632</ele>
        <time>2011-06-12T08:02:06Z</time>
      </trkpt>
      <trkpt lat="45.02244" lon="5.28931">
        <ele>228.9181</ele>
        <time>2011-06-12T08:02:08Z</time>
      </trkpt>
      <trkpt lat="45.02239" lon="5.28938">
        <ele>228.964969</ele>
        <time>2011-06-12T08:02:10Z</time>
      </trkpt>
      <trkpt lat="45.0223" lon="5.28947">
        <ele>228.988526</ele>
        <time>2011-06-12T08:02:13Z</time>
      </trkpt>
      <trkpt lat="45.02224" lon="5.28953">
        <ele>229.019167</ele>
        <time>2011-06-12T08:02:15Z</time>
      </trkpt>
      <trkpt lat="45.02217" lon="5.28962">
        <ele>229.075164</ele>
        <time>2011-06-12T08:02:18Z</time>
      </trkpt>
      <trkpt lat="45.02213" lon="5.28968">
        <ele>229.167056</ele>
        <time>2011-06-12T08:02:20Z</time>
      </trkpt>
      <trkpt lat="45.02209" lon="5.28973">
        <ele>229.293504</ele>
        <time>2011-06-12T08:02:22Z</time>
      </trkpt>
      <trkpt lat="45.02205" lon="5.28978">
        <ele>229.440261</ele>
        <time>2011-06-12T08:02:24Z</time>
      </trkpt>
      <trkpt lat="45.02199" lon="5.28986">
        <ele>229.590055</ele>
        <time>2011-06-12T08:02:27Z</time>
      </trkpt>
      <trkpt lat="45.02193" lon="5.28994">
        <ele>229.727048</ele>
        <time>2011-06-12T08:02:30Z</time>
      </trkpt>
      <trkpt lat="45.02188" lon="5.28999">
        <ele>229.848154</ele>
        <time>2011-06-12T08:02:32Z</time>
      </trkpt>
      <trkpt lat="45.02184" lon="5.29006">
        <ele>229.989344</ele>
        <time>2011-06-12T08:02:34Z</time>
      </trkpt>
      <trkpt lat="45.02177" lon="5.29016">
        <ele>230.202065</ele>
        <time>2011-06-12T08:02:37Z</time>
      </trkpt>
      <trkpt lat="45.02173" lon="5.29022">
        <ele>230.48243</ele>
        <time>2011-06-12T08:02:39Z</time>
      </trkpt>
      <trkpt lat="45.02165" lon="5.29031">
        <ele>230.767429</ele>
        <time>2011-06-12T08:02:42Z</time>
      </trkpt>
      <trkpt lat="45.02159" lon="5.29037">
        <ele>231.028103</ele>
        <time>2011-06-12T08:02:44Z</time>
      </trkpt>
      <trkpt lat="45.02154" lon="5.29043">
        <ele>231.277164</ele>
        <time>2011-06-12T08:02:46Z</time>
      </trkpt>
      <trkpt lat="45.02147" lon="5.29052">
        <ele>231.531769</ele>
        <time>2011-06-12T08:02:49Z</time>
      </trkpt>
      <trkpt lat="45.02142" lon="5.29057">
        <ele>231.803074</ele>
        <time>2011-06-12T08:02:51Z</time>
      </trkpt>
      <trkpt lat="45.02137" lon="5.29062">
        <ele>232.080924</ele>
        <time>2011-06-12T08:02:53Z</time>
      </trkpt>
      <trkpt lat="45.0213" lon="5.2907">
        <ele>232.366229</ele>
        <time>2011-06-12T08:02:56Z</time>
      </trkpt>
      <trkpt lat="45.02125" lon="5.29075">
        <ele>232.670151</ele>
        <time>2011-06-12T08:02:58Z</time>
      </trkpt>
      <trkpt lat="45.02117" lon="5.29083">
        <ele>232.964273</ele>
        <time>2011-06-12T08:03:01Z</time>
      </trkpt>
      <trkpt lat="45.0211" lon="5.29091">
        <ele>233.235286</ele>
        <time>2011-06-12T08:03:04Z</time>
      </trkpt>
      <trkpt lat="45.02103" lon="5.29098">
        <ele>233.498675</ele>
        <time>2011-06-12T08:03:07Z</time>
      </trkpt>
      <trkpt lat="45.02099" lon="5.29103">
        <ele>233.759034</ele>
        <time>2011-06-12T08:03:09Z</time>
      </trkpt>
      <trkpt lat="45.02094" lon="5.29109">
        <ele>234.026816</ele>
        <time>2011-06-12T08:03:11Z</time>
      </trkpt>
      <trkpt lat="45.02086" lon="5.29117">
        <ele>234.31341</ele>
        <time>2011-06-12T08:03:14Z</time>
      </trkpt>
      <trkpt lat="45.02078" lon="5.29125">
        <ele>234.596747</ele>
        <time>2011-06-12T08:03:17Z</time>
      </trkpt>
      <trkpt lat="45.02074" lon="5.29129">
        <ele>234.845047</ele>
        <time>2011-06-12T08:03:19Z</time>
      </trkpt>
      <trkpt lat="45.02074" lon="5.29139">
        <ele>235.067942</ele>
        <time>2011-06-12T08:03:22Z</time>
      </trkpt>
      <trkpt lat="45.02077" lon="5.29147">
        <ele>235.314704</ele>
        <time>2011-06-12T08:03:24Z</time>
      </trkpt>
      <trkpt lat="45.02082" lon="5.29155">
        <ele>235.604877</ele>
        <time>2011-06-12T08:03:26Z</time>
      </trkpt>
      <trkpt lat="45.02087" lon="5.29163">
        <ele>235.940103</ele>
        <time>2011-06-12T08:03:28Z</time>
      </trkpt>
      <trkpt lat="45.02092" lon="5.29171">
        <ele>236.320097</ele>
        <time>2011-06-12T08:03:30Z</time>
      </trkpt>
      <trkpt lat="45.021" lon="5.29183">
        <ele>236.713445</ele>
        <time>2011-06-12T08:03:33Z</time>
      </trkpt>
      <trkpt lat="45.02108" lon="5.29192">
        <ele>237.086289</ele>
        <time>2011-06-12T08:03:36Z</time>
      </trkpt>
      <trkpt lat="45.02113" lon="5.29197">
        <ele>237.438226</ele>
        <time>2011-06-12T08:03:38Z</time>
      </trkpt>
      <trkpt lat="45.0212" lon="5.29205">
        <ele>237.797778</ele>
        <time>2011-06-12T08:03:41Z</time>
      </trkpt>
      <trkpt lat="45.02125" lon="5.29211">
        <ele>238.203667</ele>
        <time>2011-06-12T08:03:43Z</time>
      </trkpt>
      <trkpt lat="45.02133" lon="5.2922">
        <ele>238.635317</ele>
        <time>2011-06-12T08:03:46Z</time>
      </trkpt>
      <trkpt lat="45.02139" lon="5.29231">
        <ele>239.046938</ele>
        <time>2011-06-12T08:03:49Z</time>
      </trkpt>
      <trkpt lat="45.02142" lon="5.29238">
        <ele>239.425526</ele>
        <time>2011-06-12T08:03:51Z</time>
      </trkpt>
      <trkpt lat="45.02147" lon="5.29251">
        <ele>239.777218</ele>
        <time>2011-06-12T08:03:54Z</time>
      </trkpt>
      <trkpt lat="45.02151" lon="5.29264">
        <ele>240.119321</ele>
        <time>2011-06-12T08:03:57Z</time>
      </trkpt>
      <trkpt lat="45.02154" lon="5.29278">
        <ele>240.45155</ele>
        <time>2011-06-12T08:04:00Z</time>
      </trkpt>
      <trkpt lat="45.02154" lon="5.29287">
        <ele>240.756069</ele>
        <time>2011-06-12T08:04:02Z</time>
      </trkpt>
      <trkpt lat="45.02155" lon="5.29296">
        <ele>241.049583</ele>
        <time>2011-06-12T08:04:04Z</time>
      </trkpt>
      <trkpt lat="45.02157" lon="5.29311">
        <ele>241.354198</ele>
        <time>2011-06-12T08:04:07Z</time>
      </trkpt>
      <trkpt lat="45.02159" lon="5.29322">
        <ele>241.653223</ele>
        <time>2011-06-12T08:04:09Z</time>
      </trkpt>
      <trkpt lat="45.02161" lon="5.29331">
        <ele>241.915658</ele>
        <time>2011-06-12T08:04:11Z</time>
      </trkpt>
      <trkpt lat="45.02162" lon="5.29338">
        <ele>242.151356</ele>
        <time>2011-06-12T08:04:13Z</time>
      </trkpt>
      <trkpt lat="45.02162" lon="5.29345">
        <ele>242.394299</ele>
        <time>2011-06-12T08:04:17Z</time>
      </trkpt>
      <trkpt lat="45.02162" lon="5.29345">
        <ele>242.613043</ele>
        <time>2011-06-12T08:04:19Z</time>
      </trkpt>
      <trkpt lat="45.02162" lon="5.29345">
        <ele>242.740617</ele>
        <time>2011-06-12T08:05:17Z</time>
      </trkpt>
      <trkpt lat="45.02178" lon="5.2936">
        <ele>242.807376</ele>
        <time>2011-06-12T08:10:59Z</time>
      </trkpt>
      <trkpt lat="45.02189" lon="5.29363">
        <ele>242.915736</ele>
        <time>2011-06-12T08:11:02Z</time>
      </trkpt>
      <trkpt lat="45.02198" lon="5.29366">
        <ele>243.139494</ele>
        <time>2011-06-12T08:11:04Z</time>
      </trkpt>
      <trkpt lat="45.02207" lon="5.29369">
        <ele>244.435853</ele>
        <time>2011-06-12T08:11:06Z</time>
      </trkpt>
      <trkpt lat="45.02223" lon="5.29374">
        <ele>247.405396</ele>
        <time>2011-06-12T08:11:09Z</time>
      </trkpt>
      <trkpt lat="45.02239" lon="5.29379">
        <ele>250.602618</ele>
        <time>2011-06-12T08:11:12Z</time>
      </trkpt>
      <trkpt lat="45.02249" lon="5.29382">
        <ele>252.497469</ele>
        <time>2011-06-12T08:11:14Z</time>
      </trkpt>
      <trkpt lat="45.02265" lon="5.29386">
        <ele>253.222578</ele>
        <time>2011-06-12T08:11:17Z</time>
      </trkpt>
      <trkpt lat="45.02281" lon="5.29391">
        <ele>253.353976</ele>
        <time>2011-06-12T08:11:20Z</time>
      </trkpt>
      <trkpt lat="45.02293" lon="5.29395">
        <ele>253.303312</ele>
        <time>2011-06-12T08:11:22Z</time>
      </trkpt>
      <trkpt lat="45.0231" lon="5.294">
        <ele>253.244938</ele>
        <time>2011-06-12T08:11:25Z</time>
      </trkpt>
      <trkpt lat="45.0232" lon="5.29403">
        <ele>253.241048</ele>
        <time>2011-06-12T08:11:27Z</time>
      </trkpt>
      <trkpt lat="45.02336" lon="5.29407">
        <ele>253.294711</ele>
        <time>2011-06-12T08:11:30Z</time>
      </trkpt>
      <trkpt lat="45.02346" lon="5.2941">
        <ele>253.357669</ele>
        <time>2011-06-12T08:11:32Z</time>
      </trkpt>
      <trkpt lat="45.02362" lon="5.29415">
        <ele>253.389723</ele>
        <time>2011-06-12T08:11:35Z</time>
      </trkpt>
      <trkpt lat="45.02373" lon="5.29418">
        <ele>253.370274</ele>
        <time>2011-06-12T08:11:37Z</time>
      </trkpt>
      <trkpt lat="45.02389" lon="5.29422">
        <ele>253.26286</ele>
        <time>2011-06-12T08:11:40Z</time>
      </trkpt>
      <trkpt lat="45.02403" lon="5.2943">
        <ele>253.075173</ele>
        <time>2011-06-12T08:11:43Z</time>
      </trkpt>
      <trkpt lat="45.02413" lon="5.29436">
        <ele>252.891814</ele>
        <time>2011-06-12T08:11:45Z</time>
      </trkpt>
      <trkpt lat="45.02425" lon="5.29445">
        <ele>252.787642</ele>
        <time>2011-06-12T08:11:48Z</time>
      </trkpt>
      <trkpt lat="45.02429" lon="5.29456">
        <ele>252.761551</ele>
        <time>2011-06-12T08:11:50Z</time>
      </trkpt>
      <trkpt lat="45.0243" lon="5.29466">
        <ele>252.795906</ele>
        <time>2011-06-12T08:11:52Z</time>
      </trkpt>
      <trkpt lat="45.02431" lon="5.29475">
        <ele>252.894125</ele>
        <time>2011-06-12T08:11:54Z</time>
      </trkpt>
      <trkpt lat="45.0243" lon="5.29484">
        <ele>253.031638</ele>
        <time>2011-06-12T08:11:56Z</time>
      </trkpt>
      <trkpt lat="45.02428" lon="5.29499">
        <ele>253.164928</ele>
        <time>2011-06-12T08:11:59Z</time>
      </trkpt>
      <trkpt lat="45.02426" lon="5.29515">
        <ele>253.270965</ele>
        <time>2011-06-12T08:12:02Z</time>
      </trkpt>
      <trkpt lat="45.02424" lon="5.29525">
        <ele>253.340437</ele>
        <time>2011-06-12T08:12:04Z</time>
      </trkpt>
      <trkpt lat="45.0242" lon="5.29542">
        <ele>253.382533</ele>
        <time>2011-06-12T08:12:07Z</time>
      </trkpt>
      <trkpt lat="45.02418" lon="5.29554">
        <ele>253.42437</ele>
        <time>2011-06-12T08:12:09Z</time>
      </trkpt>
      <trkpt lat="45.02415" lon="5.29572">
        <ele>253.555466</ele>
        <time>2011-06-12T08:12:12Z</time>
      </trkpt>
      <trkpt lat="45.02411" lon="5.29591">
        <ele>253.888189</ele>
        <time>2011-06-12T08:12:15Z</time>
      </trkpt>
      <trkpt lat="45.02408" lon="5.29604">
        <ele>254.376537</ele>
        <time>2011-06-12T08:12:17Z</time>
      </trkpt>
      <trkpt lat="45.02405" lon="5.29615">
        <ele>254.833542</ele>
        <time>2011-06-12T08:12:19Z</time>
      </trkpt>
      <trkpt lat="45.02404" lon="5.29632">
        <ele>255.134522</ele>
        <time>2011-06-12T08:12:22Z</time>
      </trkpt>
      <trkpt lat="45.02409" lon="5.29641">
        <ele>255.278845</ele>
        <time>2011-06-12T08:12:24Z</time>
      </trkpt>
      <trkpt lat="45.0242" lon="5.29651">
        <ele>255.325856</ele>
        <time>2011-06-12T08:12:27Z</time>
      </trkpt>
      <trkpt lat="45.02429" lon="5.29658">
        <ele>255.329081</ele>
        <time>2011-06-12T08:12:29Z</time>
      </trkpt>
      <trkpt lat="45.02438" lon="5.29665">
        <ele>255.313755</ele>
        <time>2011-06-12T08:12:31Z</time>
      </trkpt>
      <trkpt lat="45.02449" lon="5.29673">
        <ele>255.293242</ele>
        <time>2011-06-12T08:12:33Z</time>
      </trkpt>
      <trkpt lat="45.02459" lon="5.29682">
        <ele>255.277827</ele>
        <time>2011-06-12T08:12:35Z</time>
      </trkpt>
      <trkpt lat="45.02477" lon="5.29695">
        <ele>255.271558</ele>
        <time>2011-06-12T08:12:38Z</time>
      </trkpt>
      <trkpt lat="45.02494" lon="5.29708">
        <ele>255.269668</ele>
        <time>2011-06-12T08:12:41Z</time>
      </trkpt>
      <trkpt lat="45.02512" lon="5.2972">
        <ele>255.268084</ele>
        <time>2011-06-12T08:12:44Z</time>
      </trkpt>
      <trkpt lat="45.02528" lon="5.29733">
        <ele>255.22426</ele>
        <time>2011-06-12T08:12:47Z</time>
      </trkpt>
      <trkpt lat="45.02545" lon="5.29744">
        <ele>255.042176</ele>
        <time>2011-06-12T08:12:50Z</time>
      </trkpt>
      <trkpt lat="45.02555" lon="5.29751">
        <ele>254.688507</ele>
        <time>2011-06-12T08:12:52Z</time>
      </trkpt>
      <trkpt lat="45.02565" lon="5.29758">
        <ele>254.265911</ele>
        <time>2011-06-12T08:12:54Z</time>
      </trkpt>
      <trkpt lat="45.02579" lon="5.29769">
        <ele>253.887295</ele>
        <time>2011-06-12T08:12:57Z</time>
      </trkpt>
      <trkpt lat="45.02588" lon="5.29777">
        <ele>253.57772</ele>
        <time>2011-06-12T08:12:59Z</time>
      </trkpt>
      <trkpt lat="45.02597" lon="5.29785">
        <ele>253.313604</ele>
        <time>2011-06-12T08:13:01Z</time>
      </trkpt>
      <trkpt lat="45.02606" lon="5.29792">
        <ele>253.037612</ele>
        <time>2011-06-12T08:13:03Z</time>
      </trkpt>
      <trkpt lat="45.02621" lon="5.29803">
        <ele>252.702976</ele>
        <time>2011-06-12T08:13:06Z</time>
      </trkpt>
      <trkpt lat="45.02631" lon="5.29811">
        <ele>252.343679</ele>
        <time>2011-06-12T08:13:08Z</time>
      </trkpt>
      <trkpt lat="45.02647" lon="5.29823">
        <ele>252.020861</ele>
        <time>2011-06-12T08:13:11Z</time>
      </trkpt>
      <trkpt lat="45.02658" lon="5.29831">
        <ele>251.72541</ele>
        <time>2011-06-12T08:13:13Z</time>
      </trkpt>
      <trkpt lat="45.02673" lon="5.29842">
        <ele>251.420593</ele>
        <time>2011-06-12T08:13:16Z</time>
      </trkpt>
      <trkpt lat="45.0269" lon="5.29854">
        <ele>251.146231</ele>
        <time>2011-06-12T08:13:19Z</time>
      </trkpt>
      <trkpt lat="45.02706" lon="5.29866">
        <ele>250.983674</ele>
        <time>2011-06-12T08:13:22Z</time>
      </trkpt>
      <trkpt lat="45.02722" lon="5.29876">
        <ele>250.935004</ele>
        <time>2011-06-12T08:13:25Z</time>
      </trkpt>
      <trkpt lat="45.02738" lon="5.29887">
        <ele>250.931054</ele>
        <time>2011-06-12T08:13:28Z</time>
      </trkpt>
      <trkpt lat="45.02754" lon="5.29898">
        <ele>250.922178</ele>
        <time>2011-06-12T08:13:31Z</time>
      </trkpt>
      <trkpt lat="45.0277" lon="5.29911">
        <ele>250.907188</ele>
        <time>2011-06-12T08:13:34Z</time>
      </trkpt>
      <trkpt lat="45.02786" lon="5.29923">
        <ele>250.898444</ele>
        <time>2011-06-12T08:13:37Z</time>
      </trkpt>
      <trkpt lat="45.02796" lon="5.2993">
        <ele>250.879459</ele>
        <time>2011-06-12T08:13:39Z</time>
      </trkpt>
      <trkpt lat="45.02807" lon="5.29938">
        <ele>250.814057</ele>
        <time>2011-06-12T08:13:41Z</time>
      </trkpt>
      <trkpt lat="45.02817" lon="5.29945">
        <ele>250.683857</ele>
        <time>2011-06-12T08:13:43Z</time>
      </trkpt>
      <trkpt lat="45.02827" lon="5.29953">
        <ele>250.499153</ele>
        <time>2011-06-12T08:13:45Z</time>
      </trkpt>
      <trkpt lat="45.02843" lon="5.29965">
        <ele>250.281613</ele>
        <time>2011-06-12T08:13:48Z</time>
      </trkpt>
      <trkpt lat="45.02853" lon="5.29972">
        <ele>250.049332</ele>
        <time>2011-06-12T08:13:50Z</time>
      </trkpt>
      <trkpt lat="45.02868" lon="5.29983">
        <ele>249.806433</ele>
        <time>2011-06-12T08:13:53Z</time>
      </trkpt>
      <trkpt lat="45.02883" lon="5.29994">
        <ele>249.553731</ele>
        <time>2011-06-12T08:13:56Z</time>
      </trkpt>
      <trkpt lat="45.02898" lon="5.30005">
        <ele>249.316354</ele>
        <time>2011-06-12T08:13:59Z</time>
      </trkpt>
      <trkpt lat="45.02914" lon="5.30016">
        <ele>249.118747</ele>
        <time>2011-06-12T08:14:02Z</time>
      </trkpt>
      <trkpt lat="45.02924" lon="5.30024">
        <ele>248.958142</ele>
        <time>2011-06-12T08:14:04Z</time>
      </trkpt>
      <trkpt lat="45.02937" lon="5.30035">
        <ele>248.834953</ele>
        <time>2011-06-12T08:14:07Z</time>
      </trkpt>
      <trkpt lat="45.02946" lon="5.30043">
        <ele>248.748349</ele>
        <time>2011-06-12T08:14:09Z</time>
      </trkpt>
      <trkpt lat="45.02955" lon="5.30051">
        <ele>248.67891</ele>
        <time>2011-06-12T08:14:11Z</time>
      </trkpt>
      <trkpt lat="45.02964" lon="5.30058">
        <ele>248.625222</ele>
        <time>2011-06-12T08:14:13Z</time>
      </trkpt>
      <trkpt lat="45.02973" lon="5.30066">
        <ele>248.598769</ele>
        <time>2011-06-12T08:14:15Z</time>
      </trkpt>
      <trkpt lat="45.02987" lon="5.30078">
        <ele>248.594174</ele>
        <time>2011-06-12T08:14:18Z</time>
      </trkpt>
      <trkpt lat="45.02999" lon="5.3009">
        <ele>248.615676</ele>
        <time>2011-06-12T08:14:21Z</time>
      </trkpt>
      <trkpt lat="45.03008" lon="5.30097">
        <ele>248.688049</ele>
        <time>2011-06-12T08:14:23Z</time>
      </trkpt>
      <trkpt lat="45.03016" lon="5.30104">
        <ele>248.836344</ele>
        <time>2011-06-12T08:14:25Z</time>
      </trkpt>
      <trkpt lat="45.03025" lon="5.30112">
        <ele>249.064817</ele>
        <time>2011-06-12T08:14:27Z</time>
      </trkpt>
      <trkpt lat="45.03037" lon="5.30122">
        <ele>249.325125</ele>
        <time>2011-06-12T08:14:30Z</time>
      </trkpt>
      <trkpt lat="45.03044" lon="5.30129">
        <ele>249.538844</ele>
        <time>2011-06-12T08:14:32Z</time>
      </trkpt>
      <trkpt lat="45.03056" lon="5.30139">
        <ele>249.676748</ele>
        <time>2011-06-12T08:14:35Z</time>
      </trkpt>
      <trkpt lat="45.03064" lon="5.30147">
        <ele>249.786359</ele>
        <time>2011-06-12T08:14:37Z</time>
      </trkpt>
      <trkpt lat="45.03072" lon="5.30162">
        <ele>249.929542</ele>
        <time>2011-06-12T08:14:40Z</time>
      </trkpt>
      <trkpt lat="45.03077" lon="5.30174">
        <ele>250.126079</ele>
        <time>2011-06-12T08:14:42Z</time>
      </trkpt>
      <trkpt lat="45.0308" lon="5.30194">
        <ele>250.358844</ele>
        <time>2011-06-12T08:14:45Z</time>
      </trkpt>
      <trkpt lat="45.0308" lon="5.30212">
        <ele>250.600771</ele>
        <time>2011-06-12T08:14:48Z</time>
      </trkpt>
      <trkpt lat="45.03079" lon="5.3023">
        <ele>250.823705</ele>
        <time>2011-06-12T08:14:51Z</time>
      </trkpt>
      <trkpt lat="45.03077" lon="5.30247">
        <ele>251.023401</ele>
        <time>2011-06-12T08:14:54Z</time>
      </trkpt>
      <trkpt lat="45.03075" lon="5.3026">
        <ele>251.230202</ele>
        <time>2011-06-12T08:14:56Z</time>
      </trkpt>
      <trkpt lat="45.03074" lon="5.30279">
        <ele>251.45434</ele>
        <time>2011-06-12T08:14:59Z</time>
      </trkpt>
      <trkpt lat="45.03071" lon="5.30299">
        <ele>251.641277</ele>
        <time>2011-06-12T08:15:02Z</time>
      </trkpt>
      <trkpt lat="45.03068" lon="5.30323">
        <ele>251.741807</ele>
        <time>2011-06-12T08:15:05Z</time>
      </trkpt>
      <trkpt lat="45.03066" lon="5.30339">
        <ele>251.769743</ele>
        <time>2011-06-12T08:15:07Z</time>
      </trkpt>
      <trkpt lat="45.03062" lon="5.30363">
        <ele>251.764055</ele>
        <time>2011-06-12T08:15:10Z</time>
      </trkpt>
      <trkpt lat="45.03058" lon="5.30386">
        <ele>251.751819</ele>
        <time>2011-06-12T08:15:13Z</time>
      </trkpt>
      <trkpt lat="45.03057" lon="5.30401">
        <ele>251.742551</ele>
        <time>2011-06-12T08:15:15Z</time>
      </trkpt>
      <trkpt lat="45.03055" lon="5.30424">
        <ele>251.719261</ele>
        <time>2011-06-12T08:15:18Z</time>
      </trkpt>
      <trkpt lat="45.03053" lon="5.30438">
        <ele>251.65682</ele>
        <time>2011-06-12T08:15:20Z</time>
      </trkpt>
      <trkpt lat="45.03051" lon="5.30458">
        <ele>251.558796</ele>
        <time>2011-06-12T08:15:23Z</time>
      </trkpt>
      <trkpt lat="45.03049" lon="5.30475">
        <ele>251.446839</ele>
        <time>2011-06-12T08:15:26Z</time>
      </trkpt>
      <trkpt lat="45.03048" lon="5.30485">
        <ele>251.343468</ele>
        <time>2011-06-12T08:15:28Z</time>
      </trkpt>
      <trkpt lat="45.03046" lon="5.30496">
        <ele>251.230615</ele>
        <time>2011-06-12T08:15:30Z</time>
      </trkpt>
      <trkpt lat="45.03045" lon="5.30508">
        <ele>251.089538</ele>
        <time>2011-06-12T08:15:32Z</time>
      </trkpt>
      <trkpt lat="45.03043" lon="5.3052">
        <ele>250.971014</ele>
        <time>2011-06-12T08:15:34Z</time>
      </trkpt>
      <trkpt lat="45.03041" lon="5.3054">
        <ele>250.92197</ele>
        <time>2011-06-12T08:15:37Z</time>
      </trkpt>
      <trkpt lat="45.03039" lon="5.30562">
        <ele>250.918975</ele>
        <time>2011-06-12T08:15:40Z</time>
      </trkpt>
      <trkpt lat="45.03035" lon="5.30589">
        <ele>250.945282</ele>
        <time>2011-06-12T08:15:43Z</time>
      </trkpt>
      <trkpt lat="45.03025" lon="5.30618">
        <ele>251.034798</ele>
        <time>2011-06-12T08:15:46Z</time>
      </trkpt>
      <trkpt lat="45.03008" lon="5.30643">
        <ele>251.259352</ele>
        <time>2011-06-12T08:15:49Z</time>
      </trkpt>
      <trkpt lat="45.02988" lon="5.3067">
        <ele>251.648839</ele>
        <time>2011-06-12T08:15:52Z</time>
      </trkpt>
      <trkpt lat="45.02975" lon="5.30687">
        <ele>252.079825</ele>
        <time>2011-06-12T08:15:54Z</time>
      </trkpt>
      <trkpt lat="45.0296" lon="5.30706">
        <ele>252.362993</ele>
        <time>2011-06-12T08:15:56Z</time>
      </trkpt>
      <trkpt lat="45.0294" lon="5.30734">
        <ele>252.453128</ele>
        <time>2011-06-12T08:15:59Z</time>
      </trkpt>
      <trkpt lat="45.02921" lon="5.30766">
        <ele>252.387101</ele>
        <time>2011-06-12T08:16:02Z</time>
      </trkpt>
      <trkpt lat="45.02909" lon="5.30789">
        <ele>252.12477</ele>
        <time>2011-06-12T08:16:04Z</time>
      </trkpt>
      <trkpt lat="45.02898" lon="5.30813">
        <ele>251.672124</ele>
        <time>2011-06-12T08:16:06Z</time>
      </trkpt>
      <trkpt lat="45.02883" lon="5.30851">
        <ele>251.205126</ele>
        <time>2011-06-12T08:16:09Z</time>
      </trkpt>
      <trkpt lat="45.02873" lon="5.30876">
        <ele>250.912523</ele>
        <time>2011-06-12T08:16:11Z</time>
      </trkpt>
      <trkpt lat="45.02861" lon="5.30914">
        <ele>250.814531</ele>
        <time>2011-06-12T08:16:14Z</time>
      </trkpt>
      <trkpt lat="45.0286" lon="5.30943">
        <ele>250.817237</ele>
        <time>2011-06-12T08:16:16Z</time>
      </trkpt>
      <trkpt lat="45.02872" lon="5.30988">
        <ele>250.843426</ele>
        <time>2011-06-12T08:16:19Z</time>
      </trkpt>
      <trkpt lat="45.02888" lon="5.31027">
        <ele>250.838237</ele>
        <time>2011-06-12T08:16:22Z</time>
      </trkpt>
      <trkpt lat="45.02898" lon="5.31053">
        <ele>250.716192</ele>
        <time>2011-06-12T08:16:24Z</time>
      </trkpt>
      <trkpt lat="45.02922" lon="5.31072">
        <ele>250.180212</ele>
        <time>2011-06-12T08:16:27Z</time>
      </trkpt>
      <trkpt lat="45.02944" lon="5.31063">
        <ele>248.914051</ele>
        <time>2011-06-12T08:16:30Z</time>
      </trkpt>
      <trkpt lat="45.02956" lon="5.31052">
        <ele>247.117951</ele>
        <time>2011-06-12T08:16:32Z</time>
      </trkpt>
      <trkpt lat="45.02969" lon="5.31042">
        <ele>245.164633</ele>
        <time>2011-06-12T08:16:35Z</time>
      </trkpt>
      <trkpt lat="45.02976" lon="5.31035">
        <ele>243.060108</ele>
        <time>2011-06-12T08:16:37Z</time>
      </trkpt>
      <trkpt lat="45.02984" lon="5.31031">
        <ele>240.939438</ele>
        <time>2011-06-12T08:16:39Z</time>
      </trkpt>
      <trkpt lat="45.02996" lon="5.31025">
        <ele>239.223535</ele>
        <time>2011-06-12T08:16:42Z</time>
      </trkpt>
      <trkpt lat="45.03008" lon="5.31021">
        <ele>238.115846</ele>
        <time>2011-06-12T08:16:45Z</time>
      </trkpt>
      <trkpt lat="45.03017" lon="5.31018">
        <ele>237.53995</ele>
        <time>2011-06-12T08:16:47Z</time>
      </trkpt>
      <trkpt lat="45.03029" lon="5.31015">
        <ele>237.336204</ele>
        <time>2011-06-12T08:16:50Z</time>
      </trkpt>
      <trkpt lat="45.0304" lon="5.3101">
        <ele>237.327766</ele>
        <time>2011-06-12T08:16:53Z</time>
      </trkpt>
      <trkpt lat="45.03048" lon="5.31008">
        <ele>237.379473</ele>
        <time>2011-06-12T08:16:56Z</time>
      </trkpt>
      <trkpt lat="45.03056" lon="5.31006">
        <ele>237.42345</ele>
        <time>2011-06-12T08:16:59Z</time>
      </trkpt>
      <trkpt lat="45.03062" lon="5.31005">
        <ele>237.461647</ele>
        <time>2011-06-12T08:17:01Z</time>
      </trkpt>
      <trkpt lat="45.03067" lon="5.31003">
        <ele>237.508092</ele>
        <time>2011-06-12T08:17:03Z</time>
      </trkpt>
      <trkpt lat="45.03075" lon="5.31002">
        <ele>237.547011</ele>
        <time>2011-06-12T08:17:06Z</time>
      </trkpt>
      <trkpt lat="45.0308" lon="5.31">
        <ele>237.563043</ele>
        <time>2011-06-12T08:17:08Z</time>
      </trkpt>
      <trkpt lat="45.03089" lon="5.30998">
        <ele>237.562555</ele>
        <time>2011-06-12T08:17:11Z</time>
      </trkpt>
      <trkpt lat="45.03094" lon="5.30996">
        <ele>237.554719</ele>
        <time>2011-06-12T08:17:13Z</time>
      </trkpt>
      <trkpt lat="45.03103" lon="5.30991">
        <ele>237.547127</ele>
        <time>2011-06-12T08:17:16Z</time>
      </trkpt>
      <trkpt lat="45.03111" lon="5.30989">
        <ele>237.543445</ele>
        <time>2011-06-12T08:17:19Z</time>
      </trkpt>
      <trkpt lat="45.03119" lon="5.30988">
        <ele>237.542839</ele>
        <time>2011-06-12T08:17:22Z</time>
      </trkpt>
      <trkpt lat="45.03128" lon="5.30988">
        <ele>237.546806</ele>
        <time>2011-06-12T08:17:25Z</time>
      </trkpt>
      <trkpt lat="45.03138" lon="5.30989">
        <ele>237.562326</ele>
        <time>2011-06-12T08:17:28Z</time>
      </trkpt>
      <trkpt lat="45.03144" lon="5.30991">
        <ele>237.596975</ele>
        <time>2011-06-12T08:17:30Z</time>
      </trkpt>
      <trkpt lat="45.03152" lon="5.30994">
        <ele>237.651445</ele>
        <time>2011-06-12T08:17:33Z</time>
      </trkpt>
      <trkpt lat="45.03161" lon="5.30997">
        <ele>237.717107</ele>
        <time>2011-06-12T08:17:36Z</time>
      </trkpt>
      <trkpt lat="45.0317" lon="5.30998">
        <ele>237.778853</ele>
        <time>2011-06-12T08:17:39Z</time>
      </trkpt>
      <trkpt lat="45.03175" lon="5.31">
        <ele>237.82876</ele>
        <time>2011-06-12T08:17:41Z</time>
      </trkpt>
      <trkpt lat="45.03181" lon="5.31002">
        <ele>237.875333</ele>
        <time>2011-06-12T08:17:43Z</time>
      </trkpt>
      <trkpt lat="45.03189" lon="5.31005">
        <ele>237.932377</ele>
        <time>2011-06-12T08:17:46Z</time>
      </trkpt>
      <trkpt lat="45.03196" lon="5.31008">
        <ele>238.000207</ele>
        <time>2011-06-12T08:17:49Z</time>
      </trkpt>
      <trkpt lat="45.03204" lon="5.31011">
        <ele>238.069112</ele>
        <time>2011-06-12T08:17:52Z</time>
      </trkpt>
      <trkpt lat="45.03213" lon="5.31014">
        <ele>238.140793</ele>
        <time>2011-06-12T08:17:55Z</time>
      </trkpt>
      <trkpt lat="45.03219" lon="5.31017">
        <ele>238.227577</ele>
        <time>2011-06-12T08:17:57Z</time>
      </trkpt>
      <trkpt lat="45.03227" lon="5.31022">
        <ele>238.331761</ele>
        <time>2011-06-12T08:18:00Z</time>
      </trkpt>
      <trkpt lat="45.03234" lon="5.31027">
        <ele>238.450455</ele>
        <time>2011-06-12T08:18:03Z</time>
      </trkpt>
      <trkpt lat="45.03238" lon="5.31032">
        <ele>238.580194</ele>
        <time>2011-06-12T08:18:05Z</time>
      </trkpt>
      <trkpt lat="45.03242" lon="5.31041">
        <ele>238.722313</ele>
        <time>2011-06-12T08:18:08Z</time>
      </trkpt>
      <trkpt lat="45.03244" lon="5.31047">
        <ele>238.892011</ele>
        <time>2011-06-12T08:18:10Z</time>
      </trkpt>
      <trkpt lat="45.03249" lon="5.31055">
        <ele>239.089447</ele>
        <time>2011-06-12T08:18:13Z</time>
      </trkpt>
      <trkpt lat="45.03253" lon="5.31058">
        <ele>239.301519</ele>
        <time>2011-06-12T08:18:15Z</time>
      </trkpt>
      <trkpt lat="45.0326" lon="5.31063">
        <ele>239.523529</ele>
        <time>2011-06-12T08:18:18Z</time>
      </trkpt>
      <trkpt lat="45.03264" lon="5.31067">
        <ele>239.758848</ele>
        <time>2011-06-12T08:18:20Z</time>
      </trkpt>
      <trkpt lat="45.03267" lon="5.31072">
        <ele>240.00447</ele>
        <time>2011-06-12T08:18:22Z</time>
      </trkpt>
      <trkpt lat="45.03271" lon="5.3108">
        <ele>240.254017</ele>
        <time>2011-06-12T08:18:25Z</time>
      </trkpt>
      <trkpt lat="45.03273" lon="5.31087">
        <ele>240.498087</ele>
        <time>2011-06-12T08:18:27Z</time>
      </trkpt>
      <trkpt lat="45.03274" lon="5.31095">
        <ele>240.72542</ele>
        <time>2011-06-12T08:18:29Z</time>
      </trkpt>
      <trkpt lat="45.03274" lon="5.31102">
        <ele>240.94212</ele>
        <time>2011-06-12T08:18:31Z</time>
      </trkpt>
      <trkpt lat="45.03275" lon="5.3111">
        <ele>241.164926</ele>
        <time>2011-06-12T08:18:33Z</time>
      </trkpt>
      <trkpt lat="45.03276" lon="5.3112">
        <ele>241.381</ele>
        <time>2011-06-12T08:18:36Z</time>
      </trkpt>
      <trkpt lat="45.03275" lon="5.3113">
        <ele>241.574701</ele>
        <time>2011-06-12T08:18:39Z</time>
      </trkpt>
      <trkpt lat="45.03274" lon="5.31141">
        <ele>241.75284</ele>
        <time>2011-06-12T08:18:42Z</time>
      </trkpt>
      <trkpt lat="45.03274" lon="5.31147">
        <ele>241.939931</ele>
        <time>2011-06-12T08:18:44Z</time>
      </trkpt>
      <trkpt lat="45.03274" lon="5.31154">
        <ele>242.165461</ele>
        <time>2011-06-12T08:18:46Z</time>
      </trkpt>
      <trkpt lat="45.03272" lon="5.31161">
        <ele>242.434417</ele>
        <time>2011-06-12T08:18:48Z</time>
      </trkpt>
      <trkpt lat="45.0327" lon="5.31171">
        <ele>242.716124</ele>
        <time>2011-06-12T08:18:51Z</time>
      </trkpt>
      <trkpt lat="45.03267" lon="5.31182">
        <ele>242.974969</ele>
        <time>2011-06-12T08:18:54Z</time>
      </trkpt>
      <trkpt lat="45.03266" lon="5.31192">
        <ele>243.203365</ele>
        <time>2011-06-12T08:18:57Z</time>
      </trkpt>
      <trkpt lat="45.03265" lon="5.31198">
        <ele>243.430279</ele>
        <time>2011-06-12T08:18:59Z</time>
      </trkpt>
      <trkpt lat="45.03264" lon="5.31207">
        <ele>243.687919</ele>
        <time>2011-06-12T08:19:02Z</time>
      </trkpt>
      <trkpt lat="45.03263" lon="5.31214">
        <ele>243.980258</ele>
        <time>2011-06-12T08:19:04Z</time>
      </trkpt>
      <trkpt lat="45.0326" lon="5.31223">
        <ele>244.27589</ele>
        <time>2011-06-12T08:19:07Z</time>
      </trkpt>
      <trkpt lat="45.03257" lon="5.31233">
        <ele>244.553901</ele>
        <time>2011-06-12T08:19:10Z</time>
      </trkpt>
      <trkpt lat="45.03255" lon="5.3124">
        <ele>244.817695</ele>
        <time>2011-06-12T08:19:12Z</time>
      </trkpt>
      <trkpt lat="45.03254" lon="5.31247">
        <ele>245.079133</ele>
        <time>2011-06-12T08:19:14Z</time>
      </trkpt>
      <trkpt lat="45.03252" lon="5.31259">
        <ele>245.35302</ele>
        <time>2011-06-12T08:19:17Z</time>
      </trkpt>
      <trkpt lat="45.0325" lon="5.3127">
        <ele>245.632135</ele>
        <time>2011-06-12T08:19:20Z</time>
      </trkpt>
      <trkpt lat="45.03249" lon="5.31278">
        <ele>245.8818</ele>
        <time>2011-06-12T08:19:22Z</time>
      </trkpt>
      <trkpt lat="45.03248" lon="5.31285">
        <ele>246.10834</ele>
        <time>2011-06-12T08:19:24Z</time>
      </trkpt>
      <trkpt lat="45.03245" lon="5.31295">
        <ele>246.356147</ele>
        <time>2011-06-12T08:19:27Z</time>
      </trkpt>
      <trkpt lat="45.03243" lon="5.31304">
        <ele>246.631745</ele>
        <time>2011-06-12T08:19:30Z</time>
      </trkpt>
      <trkpt lat="45.0324" lon="5.31314">
        <ele>246.898962</ele>
        <time>2011-06-12T08:19:33Z</time>
      </trkpt>
      <trkpt lat="45.03237" lon="5.31323">
        <ele>247.153904</ele>
        <time>2011-06-12T08:19:36Z</time>
      </trkpt>
      <trkpt lat="45.03234" lon="5.31334">
        <ele>247.430629</ele>
        <time>2011-06-12T08:19:39Z</time>
      </trkpt>
      <trkpt lat="45.03233" lon="5.31342">
        <ele>247.740338</ele>
        <time>2011-06-12T08:19:41Z</time>
      </trkpt>
      <trkpt lat="45.03231" lon="5.31349">
        <ele>248.06301</ele>
        <time>2011-06-12T08:19:43Z</time>
      </trkpt>
      <trkpt lat="45.03229" lon="5.31358">
        <ele>248.380448</ele>
        <time>2011-06-12T08:19:46Z</time>
      </trkpt>
      <trkpt lat="45.03227" lon="5.31367">
        <ele>248.675136</ele>
        <time>2011-06-12T08:19:49Z</time>
      </trkpt>
      <trkpt lat="45.03224" lon="5.31377">
        <ele>248.930345</ele>
        <time>2011-06-12T08:19:52Z</time>
      </trkpt>
      <trkpt lat="45.03222" lon="5.31383">
        <ele>249.160679</ele>
        <time>2011-06-12T08:19:54Z</time>
      </trkpt>
      <trkpt lat="45.0322" lon="5.31392">
        <ele>249.403946</ele>
        <time>2011-06-12T08:19:57Z</time>
      </trkpt>
      <trkpt lat="45.03218" lon="5.31401">
        <ele>249.67092</ele>
        <time>2011-06-12T08:20:00Z</time>
      </trkpt>
      <trkpt lat="45.03215" lon="5.31411">
        <ele>249.930377</ele>
        <time>2011-06-12T08:20:03Z</time>
      </trkpt>
      <trkpt lat="45.03213" lon="5.31419">
        <ele>250.155516</ele>
        <time>2011-06-12T08:20:05Z</time>
      </trkpt>
      <trkpt lat="45.03212" lon="5.31425">
        <ele>250.350704</ele>
        <time>2011-06-12T08:20:07Z</time>
      </trkpt>
      <trkpt lat="45.03209" lon="5.31436">
        <ele>250.525842</ele>
        <time>2011-06-12T08:20:10Z</time>
      </trkpt>
      <trkpt lat="45.03206" lon="5.31447">
        <ele>250.679363</ele>
        <time>2011-06-12T08:20:13Z</time>
      </trkpt>
      <trkpt lat="45.03205" lon="5.31456">
        <ele>250.815961</ele>
        <time>2011-06-12T08:20:15Z</time>
      </trkpt>
      <trkpt lat="45.03204" lon="5.31465">
        <ele>250.955967</ele>
        <time>2011-06-12T08:20:17Z</time>
      </trkpt>
      <trkpt lat="45.03203" lon="5.31474">
        <ele>251.126386</ele>
        <time>2011-06-12T08:20:19Z</time>
      </trkpt>
      <trkpt lat="45.03201" lon="5.31488">
        <ele>251.331261</ele>
        <time>2011-06-12T08:20:22Z</time>
      </trkpt>
      <trkpt lat="45.03199" lon="5.31496">
        <ele>251.557276</ele>
        <time>2011-06-12T08:20:24Z</time>
      </trkpt>
      <trkpt lat="45.03196" lon="5.31508">
        <ele>251.803648</ele>
        <time>2011-06-12T08:20:27Z</time>
      </trkpt>
      <trkpt lat="45.03192" lon="5.31519">
        <ele>252.103481</ele>
        <time>2011-06-12T08:20:30Z</time>
      </trkpt>
      <trkpt lat="45.03189" lon="5.31525">
        <ele>252.472394</ele>
        <time>2011-06-12T08:20:32Z</time>
      </trkpt>
      <trkpt lat="45.03186" lon="5.31532">
        <ele>252.891401</ele>
        <time>2011-06-12T08:20:34Z</time>
      </trkpt>
      <trkpt lat="45.03181" lon="5.31541">
        <ele>253.35486</ele>
        <time>2011-06-12T08:20:37Z</time>
      </trkpt>
      <trkpt lat="45.03178" lon="5.31547">
        <ele>253.842795</ele>
        <time>2011-06-12T08:20:39Z</time>
      </trkpt>
      <trkpt lat="45.03174" lon="5.31557">
        <ele>254.297677</ele>
        <time>2011-06-12T08:20:42Z</time>
      </trkpt>
      <trkpt lat="45.03171" lon="5.31568">
        <ele>254.723953</ele>
        <time>2011-06-12T08:20:45Z</time>
      </trkpt>
      <trkpt lat="45.03169" lon="5.31579">
        <ele>255.159694</ele>
        <time>2011-06-12T08:20:48Z</time>
      </trkpt>
      <trkpt lat="45.0317" lon="5.31589">
        <ele>255.616843</ele>
        <time>2011-06-12T08:20:51Z</time>
      </trkpt>
      <trkpt lat="45.03173" lon="5.31599">
        <ele>256.111258</ele>
        <time>2011-06-12T08:20:54Z</time>
      </trkpt>
      <trkpt lat="45.03177" lon="5.31605">
        <ele>256.652551</ele>
        <time>2011-06-12T08:20:56Z</time>
      </trkpt>
      <trkpt lat="45.03184" lon="5.31611">
        <ele>257.215056</ele>
        <time>2011-06-12T08:20:59Z</time>
      </trkpt>
      <trkpt lat="45.03191" lon="5.31616">
        <ele>257.777447</ele>
        <time>2011-06-12T08:21:02Z</time>
      </trkpt>
      <trkpt lat="45.03196" lon="5.31619">
        <ele>258.310891</ele>
        <time>2011-06-12T08:21:04Z</time>
      </trkpt>
      <trkpt lat="45.03204" lon="5.31624">
        <ele>258.807301</ele>
        <time>2011-06-12T08:21:07Z</time>
      </trkpt>
      <trkpt lat="45.03211" lon="5.31629">
        <ele>259.312261</ele>
        <time>2011-06-12T08:21:10Z</time>
      </trkpt>
      <trkpt lat="45.03215" lon="5.31634">
        <ele>259.837216</ele>
        <time>2011-06-12T08:21:12Z</time>
      </trkpt>
      <trkpt lat="45.0322" lon="5.31642">
        <ele>260.351194</ele>
        <time>2011-06-12T08:21:15Z</time>
      </trkpt>
      <trkpt lat="45.03223" lon="5.31653">
        <ele>260.869544</ele>
        <time>2011-06-12T08:21:18Z</time>
      </trkpt>
      <trkpt lat="45.03224" lon="5.31662">
        <ele>261.390765</ele>
        <time>2011-06-12T08:21:20Z</time>
      </trkpt>
      <trkpt lat="45.03222" lon="5.31675">
        <ele>261.889904</ele>
        <time>2011-06-12T08:21:23Z</time>
      </trkpt>
      <trkpt lat="45.03219" lon="5.31682">
        <ele>262.391313</ele>
        <time>2011-06-12T08:21:25Z</time>
      </trkpt>
      <trkpt lat="45.03215" lon="5.31689">
        <ele>262.893277</ele>
        <time>2011-06-12T08:21:27Z</time>
      </trkpt>
      <trkpt lat="45.0321" lon="5.31695">
        <ele>263.366983</ele>
        <time>2011-06-12T08:21:29Z</time>
      </trkpt>
      <trkpt lat="45.03203" lon="5.317">
        <ele>263.814046</ele>
        <time>2011-06-12T08:21:32Z</time>
      </trkpt>
      <trkpt lat="45.03194" lon="5.31705">
        <ele>264.22599</ele>
        <time>2011-06-12T08:21:35Z</time>
      </trkpt>
      <trkpt lat="45.03186" lon="5.31707">
        <ele>264.590259</ele>
        <time>2011-06-12T08:21:38Z</time>
      </trkpt>
      <trkpt lat="45.03177" lon="5.31709">
        <ele>264.943714</ele>
        <time>2011-06-12T08:21:41Z</time>
      </trkpt>
      <trkpt lat="45.03171" lon="5.31712">
        <ele>265.331487</ele>
        <time>2011-06-12T08:21:44Z</time>
      </trkpt>
      <trkpt lat="45.03166" lon="5.31714">
        <ele>265.75513</ele>
        <time>2011-06-12T08:21:46Z</time>
      </trkpt>
      <trkpt lat="45.03159" lon="5.31716">
        <ele>266.180863</ele>
        <time>2011-06-12T08:21:49Z</time>
      </trkpt>
      <trkpt lat="45.03154" lon="5.31717">
        <ele>266.584677</ele>
        <time>2011-06-12T08:21:51Z</time>
      </trkpt>
      <trkpt lat="45.03146" lon="5.31719">
        <ele>266.94618</ele>
        <time>2011-06-12T08:21:54Z</time>
      </trkpt>
      <trkpt lat="45.03141" lon="5.3172">
        <ele>267.263282</ele>
        <time>2011-06-12T08:21:56Z</time>
      </trkpt>
      <trkpt lat="45.03136" lon="5.31722">
        <ele>267.552614</ele>
        <time>2011-06-12T08:21:58Z</time>
      </trkpt>
      <trkpt lat="45.03129" lon="5.31726">
        <ele>267.829221</ele>
        <time>2011-06-12T08:22:01Z</time>
      </trkpt>
      <trkpt lat="45.03121" lon="5.31731">
        <ele>268.095063</ele>
        <time>2011-06-12T08:22:04Z</time>
      </trkpt>
      <trkpt lat="45.03114" lon="5.31737">
        <ele>268.341532</ele>
        <time>2011-06-12T08:22:07Z</time>
      </trkpt>
      <trkpt lat="45.03109" lon="5.31741">
        <ele>268.578285</ele>
        <time>2011-06-12T08:22:09Z</time>
      </trkpt>
      <trkpt lat="45.03104" lon="5.31748">
        <ele>268.843895</ele>
        <time>2011-06-12T08:22:12Z</time>
      </trkpt>
      <trkpt lat="45.03098" lon="5.31756">
        <ele>269.150663</ele>
        <time>2011-06-12T08:22:15Z</time>
      </trkpt>
      <trkpt lat="45.03094" lon="5.31762">
        <ele>269.465308</ele>
        <time>2011-06-12T08:22:17Z</time>
      </trkpt>
      <trkpt lat="45.03088" lon="5.3177">
        <ele>269.758467</ele>
        <time>2011-06-12T08:22:20Z</time>
      </trkpt>
      <trkpt lat="45.03083" lon="5.31779">
        <ele>270.041942</ele>
        <time>2011-06-12T08:22:23Z</time>
      </trkpt>
      <trkpt lat="45.03078" lon="5.31787">
        <ele>270.325775</ele>
        <time>2011-06-12T08:22:26Z</time>
      </trkpt>
      <trkpt lat="45.03074" lon="5.31792">
        <ele>270.607676</ele>
        <time>2011-06-12T08:22:28Z</time>
      </trkpt>
      <trkpt lat="45.0307" lon="5.31798">
        <ele>270.91053</ele>
        <time>2011-06-12T08:22:30Z</time>
      </trkpt>
      <trkpt lat="45.03066" lon="5.31804">
        <ele>271.252018</ele>
        <time>2011-06-12T08:22:32Z</time>
      </trkpt>
      <trkpt lat="45.0306" lon="5.31813">
        <ele>271.600438</ele>
        <time>2011-06-12T08:22:35Z</time>
      </trkpt>
      <trkpt lat="45.03055" lon="5.31821">
        <ele>271.909661</ele>
        <time>2011-06-12T08:22:38Z</time>
      </trkpt>
      <trkpt lat="45.03051" lon="5.31827">
        <ele>272.170263</ele>
        <time>2011-06-12T08:22:40Z</time>
      </trkpt>
      <trkpt lat="45.03048" lon="5.31832">
        <ele>272.420519</ele>
        <time>2011-06-12T08:22:42Z</time>
      </trkpt>
      <trkpt lat="45.03043" lon="5.31839">
        <ele>272.700127</ele>
        <time>2011-06-12T08:22:45Z</time>
      </trkpt>
      <trkpt lat="45.03039" lon="5.31846">
        <ele>272.997033</ele>
        <time>2011-06-12T08:22:48Z</time>
      </trkpt>
      <trkpt lat="45.03036" lon="5.31851">
        <ele>273.267626</ele>
        <time>2011-06-12T08:22:50Z</time>
      </trkpt>
      <trkpt lat="45.03031" lon="5.31859">
        <ele>273.513137</ele>
        <time>2011-06-12T08:22:53Z</time>
      </trkpt>
      <trkpt lat="45.03028" lon="5.31864">
        <ele>273.773191</ele>
        <time>2011-06-12T08:22:55Z</time>
      </trkpt>
      <trkpt lat="45.03024" lon="5.31868">
        <ele>274.054035</ele>
        <time>2011-06-12T08:22:57Z</time>
      </trkpt>
      <trkpt lat="45.03019" lon="5.31875">
        <ele>274.342378</ele>
        <time>2011-06-12T08:23:00Z</time>
      </trkpt>
      <trkpt lat="45.03014" lon="5.31879">
        <ele>274.631148</ele>
        <time>2011-06-12T08:23:02Z</time>
      </trkpt>
      <trkpt lat="45.0301" lon="5.31884">
        <ele>274.897963</ele>
        <time>2011-06-12T08:23:04Z</time>
      </trkpt>
      <trkpt lat="45.03005" lon="5.3189">
        <ele>275.138801</ele>
        <time>2011-06-12T08:23:06Z</time>
      </trkpt>
      <trkpt lat="45.02999" lon="5.31898">
        <ele>275.371779</ele>
        <time>2011-06-12T08:23:09Z</time>
      </trkpt>
      <trkpt lat="45.02994" lon="5.31904">
        <ele>275.587629</ele>
        <time>2011-06-12T08:23:11Z</time>
      </trkpt>
      <trkpt lat="45.0299" lon="5.31909">
        <ele>275.779903</ele>
        <time>2011-06-12T08:23:13Z</time>
      </trkpt>
      <trkpt lat="45.02984" lon="5.31916">
        <ele>275.983285</ele>
        <time>2011-06-12T08:23:16Z</time>
      </trkpt>
      <trkpt lat="45.02979" lon="5.31921">
        <ele>276.222125</ele>
        <time>2011-06-12T08:23:18Z</time>
      </trkpt>
      <trkpt lat="45.02975" lon="5.31925">
        <ele>276.474073</ele>
        <time>2011-06-12T08:23:20Z</time>
      </trkpt>
      <trkpt lat="45.02971" lon="5.31929">
        <ele>276.723317</ele>
        <time>2011-06-12T08:23:22Z</time>
      </trkpt>
      <trkpt lat="45.02965" lon="5.31935">
        <ele>276.976674</ele>
        <time>2011-06-12T08:23:25Z</time>
      </trkpt>
      <trkpt lat="45.0296" lon="5.31942">
        <ele>277.221531</ele>
        <time>2011-06-12T08:23:28Z</time>
      </trkpt>
      <trkpt lat="45.02956" lon="5.31946">
        <ele>277.443972</ele>
        <time>2011-06-12T08:23:30Z</time>
      </trkpt>
      <trkpt lat="45.02951" lon="5.31954">
        <ele>277.665237</ele>
        <time>2011-06-12T08:23:33Z</time>
      </trkpt>
      <trkpt lat="45.02947" lon="5.31958">
        <ele>277.917883</ele>
        <time>2011-06-12T08:23:35Z</time>
      </trkpt>
      <trkpt lat="45.02943" lon="5.31962">
        <ele>278.194569</ele>
        <time>2011-06-12T08:23:37Z</time>
      </trkpt>
      <trkpt lat="45.02937" lon="5.3197">
        <ele>278.474822</ele>
        <time>2011-06-12T08:23:40Z</time>
      </trkpt>
      <trkpt lat="45.02931" lon="5.31977">
        <ele>278.759499</ele>
        <time>2011-06-12T08:23:43Z</time>
      </trkpt>
      <trkpt lat="45.02926" lon="5.31982">
        <ele>279.040277</ele>
        <time>2011-06-12T08:23:45Z</time>
      </trkpt>
      <trkpt lat="45.02921" lon="5.31988">
        <ele>279.322869</ele>
        <time>2011-06-12T08:23:47Z</time>
      </trkpt>
      <trkpt lat="45.02916" lon="5.31994">
        <ele>279.642234</ele>
        <time>2011-06-12T08:23:49Z</time>
      </trkpt>
      <trkpt lat="45.02911" lon="5.32001">
        <ele>279.988437</ele>
        <time>2011-06-12T08:23:51Z</time>
      </trkpt>
      <trkpt lat="45.02904" lon="5.32011">
        <ele>280.312427</ele>
        <time>2011-06-12T08:23:54Z</time>
      </trkpt>
      <trkpt lat="45.02899" lon="5.32017">
        <ele>280.596427</ele>
        <time>2011-06-12T08:23:56Z</time>
      </trkpt>
      <trkpt lat="45.02895" lon="5.32022">
        <ele>280.858687</ele>
        <time>2011-06-12T08:23:58Z</time>
      </trkpt>
      <trkpt lat="45.02889" lon="5.3203">
        <ele>281.138492</ele>
        <time>2011-06-12T08:24:01Z</time>
      </trkpt>
      <trkpt lat="45.02882" lon="5.32038">
        <ele>281.457317</ele>
        <time>2011-06-12T08:24:04Z</time>
      </trkpt>
      <trkpt lat="45.02876" lon="5.32045">
        <ele>281.785847</ele>
        <time>2011-06-12T08:24:07Z</time>
      </trkpt>
      <trkpt lat="45.02872" lon="5.32049">
        <ele>282.114707</ele>
        <time>2011-06-12T08:24:09Z</time>
      </trkpt>
      <trkpt lat="45.02868" lon="5.32054">
        <ele>282.484301</ele>
        <time>2011-06-12T08:24:11Z</time>
      </trkpt>
      <trkpt lat="45.02864" lon="5.32059">
        <ele>282.91108</ele>
        <time>2011-06-12T08:24:13Z</time>
      </trkpt>
      <trkpt lat="45.02859" lon="5.32065">
        <ele>283.354404</ele>
        <time>2011-06-12T08:24:15Z</time>
      </trkpt>
      <trkpt lat="45.02852" lon="5.32072">
        <ele>283.761703</ele>
        <time>2011-06-12T08:24:18Z</time>
      </trkpt>
      <trkpt lat="45.02845" lon="5.32078">
        <ele>284.123223</ele>
        <time>2011-06-12T08:24:21Z</time>
      </trkpt>
      <trkpt lat="45.02839" lon="5.32085">
        <ele>284.464745</ele>
        <time>2011-06-12T08:24:24Z</time>
      </trkpt>
      <trkpt lat="45.02835" lon="5.32089">
        <ele>284.83</ele>
        <time>2011-06-12T08:24:26Z</time>
      </trkpt>
      <trkpt lat="45.02829" lon="5.32098">
        <ele>285.267927</ele>
        <time>2011-06-12T08:24:29Z</time>
      </trkpt>
      <trkpt lat="45.02825" lon="5.32105">
        <ele>285.787606</ele>
        <time>2011-06-12T08:24:31Z</time>
      </trkpt>
      <trkpt lat="45.0282" lon="5.32118">
        <ele>286.332421</ele>
        <time>2011-06-12T08:24:34Z</time>
      </trkpt>
      <trkpt lat="45.02816" lon="5.3213">
        <ele>286.855889</ele>
        <time>2011-06-12T08:24:37Z</time>
      </trkpt>
      <trkpt lat="45.02814" lon="5.32138">
        <ele>287.351</ele>
        <time>2011-06-12T08:24:39Z</time>
      </trkpt>
      <trkpt lat="45.02811" lon="5.32146">
        <ele>287.83484</ele>
        <time>2011-06-12T08:24:41Z</time>
      </trkpt>
      <trkpt lat="45.02808" lon="5.32159">
        <ele>288.350368</ele>
        <time>2011-06-12T08:24:44Z</time>
      </trkpt>
      <trkpt lat="45.02804" lon="5.32172">
        <ele>288.904362</ele>
        <time>2011-06-12T08:24:47Z</time>
      </trkpt>
      <trkpt lat="45.02798" lon="5.32183">
        <ele>289.433369</ele>
        <time>2011-06-12T08:24:50Z</time>
      </trkpt>
      <trkpt lat="45.02792" lon="5.32197">
        <ele>289.93783</ele>
        <time>2011-06-12T08:24:53Z</time>
      </trkpt>
      <trkpt lat="45.0279" lon="5.32207">
        <ele>290.491462</ele>
        <time>2011-06-12T08:24:55Z</time>
      </trkpt>
      <trkpt lat="45.02789" lon="5.32222">
        <ele>291.127348</ele>
        <time>2011-06-12T08:24:58Z</time>
      </trkpt>
      <trkpt lat="45.0279" lon="5.32235">
        <ele>292.111725</ele>
        <time>2011-06-12T08:25:01Z</time>
      </trkpt>
      <trkpt lat="45.0279" lon="5.32246">
        <ele>293.981185</ele>
        <time>2011-06-12T08:25:04Z</time>
      </trkpt>
      <trkpt lat="45.0279" lon="5.32257">
        <ele>296.612848</ele>
        <time>2011-06-12T08:25:07Z</time>
      </trkpt>
      <trkpt lat="45.02789" lon="5.32265">
        <ele>298.972118</ele>
        <time>2011-06-12T08:25:09Z</time>
      </trkpt>
      <trkpt lat="45.02788" lon="5.32278">
        <ele>300.314046</ele>
        <time>2011-06-12T08:25:12Z</time>
      </trkpt>
      <trkpt lat="45.02787" lon="5.32287">
        <ele>300.804827</ele>
        <time>2011-06-12T08:25:14Z</time>
      </trkpt>
      <trkpt lat="45.02786" lon="5.32296">
        <ele>300.938716</ele>
        <time>2011-06-12T08:25:16Z</time>
      </trkpt>
      <trkpt lat="45.02784" lon="5.32304">
        <ele>301.036929</ele>
        <time>2011-06-12T08:25:18Z</time>
      </trkpt>
      <trkpt lat="45.02782" lon="5.32317">
        <ele>301.20623</ele>
        <time>2011-06-12T08:25:21Z</time>
      </trkpt>
      <trkpt lat="45.0278" lon="5.32332">
        <ele>301.427893</ele>
        <time>2011-06-12T08:25:24Z</time>
      </trkpt>
      <trkpt lat="45.02778" lon="5.32341">
        <ele>301.654801</ele>
        <time>2011-06-12T08:25:26Z</time>
      </trkpt>
      <trkpt lat="45.02777" lon="5.32355">
        <ele>301.880561</ele>
        <time>2011-06-12T08:25:29Z</time>
      </trkpt>
      <trkpt lat="45.02775" lon="5.32369">
        <ele>302.123302</ele>
        <time>2011-06-12T08:25:32Z</time>
      </trkpt>
      <trkpt lat="45.02774" lon="5.32379">
        <ele>302.376268</ele>
        <time>2011-06-12T08:25:34Z</time>
      </trkpt>
      <trkpt lat="45.02774" lon="5.32388">
        <ele>302.621476</ele>
        <time>2011-06-12T08:25:36Z</time>
      </trkpt>
      <trkpt lat="45.02772" lon="5.32403">
        <ele>302.871087</ele>
        <time>2011-06-12T08:25:39Z</time>
      </trkpt>
      <trkpt lat="45.0277" lon="5.32418">
        <ele>303.127831</ele>
        <time>2011-06-12T08:25:42Z</time>
      </trkpt>
      <trkpt lat="45.0277" lon="5.32428">
        <ele>303.366032</ele>
        <time>2011-06-12T08:25:44Z</time>
      </trkpt>
      <trkpt lat="45.02769" lon="5.32438">
        <ele>303.590286</ele>
        <time>2011-06-12T08:25:46Z</time>
      </trkpt>
      <trkpt lat="45.0277" lon="5.32452">
        <ele>303.833908</ele>
        <time>2011-06-12T08:25:49Z</time>
      </trkpt>
      <trkpt lat="45.02771" lon="5.32462">
        <ele>304.09426</ele>
        <time>2011-06-12T08:25:51Z</time>
      </trkpt>
      <trkpt lat="45.02775" lon="5.32479">
        <ele>304.336512</ele>
        <time>2011-06-12T08:25:54Z</time>
      </trkpt>
      <trkpt lat="45.02778" lon="5.32491">
        <ele>304.561105</ele>
        <time>2011-06-12T08:25:56Z</time>
      </trkpt>
      <trkpt lat="45.02781" lon="5.32502">
        <ele>304.901649</ele>
        <time>2011-06-12T08:25:58Z</time>
      </trkpt>
      <trkpt lat="45.02784" lon="5.32512">
        <ele>305.641708</ele>
        <time>2011-06-12T08:26:00Z</time>
      </trkpt>
      <trkpt lat="45.02787" lon="5.32522">
        <ele>306.80375</ele>
        <time>2011-06-12T08:26:02Z</time>
      </trkpt>
      <trkpt lat="45.02793" lon="5.3254">
        <ele>307.974185</ele>
        <time>2011-06-12T08:26:05Z</time>
      </trkpt>
      <trkpt lat="45.02798" lon="5.32553">
        <ele>308.801171</ele>
        <time>2011-06-12T08:26:07Z</time>
      </trkpt>
      <trkpt lat="45.02802" lon="5.32574">
        <ele>309.27944</ele>
        <time>2011-06-12T08:26:10Z</time>
      </trkpt>
      <trkpt lat="45.02802" lon="5.32597">
        <ele>309.5484</ele>
        <time>2011-06-12T08:26:13Z</time>
      </trkpt>
      <trkpt lat="45.02797" lon="5.32613">
        <ele>309.72268</ele>
        <time>2011-06-12T08:26:16Z</time>
      </trkpt>
      <trkpt lat="45.02798" lon="5.32627">
        <ele>309.828391</ele>
        <time>2011-06-12T08:26:19Z</time>
      </trkpt>
      <trkpt lat="45.02801" lon="5.32636">
        <ele>309.868834</ele>
        <time>2011-06-12T08:26:21Z</time>
      </trkpt>
      <trkpt lat="45.02806" lon="5.32643">
        <ele>309.874626</ele>
        <time>2011-06-12T08:26:23Z</time>
      </trkpt>
      <trkpt lat="45.02815" lon="5.32656">
        <ele>309.87764</ele>
        <time>2011-06-12T08:26:26Z</time>
      </trkpt>
      <trkpt lat="45.02824" lon="5.32671">
        <ele>309.890687</ele>
        <time>2011-06-12T08:26:29Z</time>
      </trkpt>
      <trkpt lat="45.02836" lon="5.32684">
        <ele>309.912093</ele>
        <time>2011-06-12T08:26:32Z</time>
      </trkpt>
      <trkpt lat="45.02847" lon="5.32697">
        <ele>309.984544</ele>
        <time>2011-06-12T08:26:35Z</time>
      </trkpt>
      <trkpt lat="45.0286" lon="5.32712">
        <ele>310.129686</ele>
        <time>2011-06-12T08:26:38Z</time>
      </trkpt>
      <trkpt lat="45.02872" lon="5.32727">
        <ele>310.268189</ele>
        <time>2011-06-12T08:26:41Z</time>
      </trkpt>
      <trkpt lat="45.02885" lon="5.32744">
        <ele>310.330984</ele>
        <time>2011-06-12T08:26:44Z</time>
      </trkpt>
      <trkpt lat="45.02894" lon="5.32755">
        <ele>310.285043</ele>
        <time>2011-06-12T08:26:46Z</time>
      </trkpt>
      <trkpt lat="45.02907" lon="5.32774">
        <ele>310.06446</ele>
        <time>2011-06-12T08:26:49Z</time>
      </trkpt>
      <trkpt lat="45.02918" lon="5.32795">
        <ele>309.699858</ele>
        <time>2011-06-12T08:26:52Z</time>
      </trkpt>
      <trkpt lat="45.02925" lon="5.32809">
        <ele>309.360737</ele>
        <time>2011-06-12T08:26:54Z</time>
      </trkpt>
      <trkpt lat="45.02937" lon="5.3283">
        <ele>309.145075</ele>
        <time>2011-06-12T08:26:57Z</time>
      </trkpt>
      <trkpt lat="45.02944" lon="5.32843">
        <ele>309.002631</ele>
        <time>2011-06-12T08:26:59Z</time>
      </trkpt>
      <trkpt lat="45.02955" lon="5.32863">
        <ele>308.874902</ele>
        <time>2011-06-12T08:27:02Z</time>
      </trkpt>
      <trkpt lat="45.02962" lon="5.32877">
        <ele>308.769867</ele>
        <time>2011-06-12T08:27:04Z</time>
      </trkpt>
      <trkpt lat="45.02972" lon="5.329">
        <ele>308.70389</ele>
        <time>2011-06-12T08:27:07Z</time>
      </trkpt>
      <trkpt lat="45.02984" lon="5.32923">
        <ele>308.664712</ele>
        <time>2011-06-12T08:27:10Z</time>
      </trkpt>
      <trkpt lat="45.02991" lon="5.32938">
        <ele>308.634882</ele>
        <time>2011-06-12T08:27:12Z</time>
      </trkpt>
      <trkpt lat="45.03002" lon="5.32959">
        <ele>308.630579</ele>
        <time>2011-06-12T08:27:15Z</time>
      </trkpt>
      <trkpt lat="45.03009" lon="5.32973">
        <ele>308.661178</ele>
        <time>2011-06-12T08:27:17Z</time>
      </trkpt>
      <trkpt lat="45.03016" lon="5.32987">
        <ele>308.702442</ele>
        <time>2011-06-12T08:27:19Z</time>
      </trkpt>
      <trkpt lat="45.03026" lon="5.33009">
        <ele>308.767551</ele>
        <time>2011-06-12T08:27:22Z</time>
      </trkpt>
      <trkpt lat="45.03036" lon="5.33033">
        <ele>308.899656</ele>
        <time>2011-06-12T08:27:25Z</time>
      </trkpt>
      <trkpt lat="45.03045" lon="5.33057">
        <ele>309.090798</ele>
        <time>2011-06-12T08:27:28Z</time>
      </trkpt>
      <trkpt lat="45.0305" lon="5.33073">
        <ele>309.306184</ele>
        <time>2011-06-12T08:27:30Z</time>
      </trkpt>
      <trkpt lat="45.03058" lon="5.33098">
        <ele>309.537015</ele>
        <time>2011-06-12T08:27:33Z</time>
      </trkpt>
      <trkpt lat="45.03069" lon="5.33122">
        <ele>309.748477</ele>
        <time>2011-06-12T08:27:36Z</time>
      </trkpt>
      <trkpt lat="45.03082" lon="5.33143">
        <ele>309.878937</ele>
        <time>2011-06-12T08:27:39Z</time>
      </trkpt>
      <trkpt lat="45.03093" lon="5.33156">
        <ele>309.916789</ele>
        <time>2011-06-12T08:27:41Z</time>
      </trkpt>
      <trkpt lat="45.03105" lon="5.33167">
        <ele>309.876446</ele>
        <time>2011-06-12T08:27:43Z</time>
      </trkpt>
      <trkpt lat="45.03122" lon="5.33181">
        <ele>309.730494</ele>
        <time>2011-06-12T08:27:46Z</time>
      </trkpt>
      <trkpt lat="45.03141" lon="5.33191">
        <ele>309.482706</ele>
        <time>2011-06-12T08:27:49Z</time>
      </trkpt>
      <trkpt lat="45.03161" lon="5.33199">
        <ele>309.211255</ele>
        <time>2011-06-12T08:27:52Z</time>
      </trkpt>
      <trkpt lat="45.03175" lon="5.33205">
        <ele>308.995859</ele>
        <time>2011-06-12T08:27:54Z</time>
      </trkpt>
      <trkpt lat="45.03189" lon="5.3321">
        <ele>308.849802</ele>
        <time>2011-06-12T08:27:56Z</time>
      </trkpt>
      <trkpt lat="45.0321" lon="5.33217">
        <ele>308.716543</ele>
        <time>2011-06-12T08:27:59Z</time>
      </trkpt>
      <trkpt lat="45.03232" lon="5.33223">
        <ele>308.561016</ele>
        <time>2011-06-12T08:28:02Z</time>
      </trkpt>
      <trkpt lat="45.03246" lon="5.33224">
        <ele>308.414297</ele>
        <time>2011-06-12T08:28:04Z</time>
      </trkpt>
      <trkpt lat="45.03268" lon="5.33223">
        <ele>308.287259</ele>
        <time>2011-06-12T08:28:07Z</time>
      </trkpt>
      <trkpt lat="45.03284" lon="5.33221">
        <ele>308.138632</ele>
        <time>2011-06-12T08:28:09Z</time>
      </trkpt>
      <trkpt lat="45.03307" lon="5.33219">
        <ele>307.947082</ele>
        <time>2011-06-12T08:28:12Z</time>
      </trkpt>
      <trkpt lat="45.0333" lon="5.33221">
        <ele>307.708769</ele>
        <time>2011-06-12T08:28:15Z</time>
      </trkpt>
      <trkpt lat="45.03353" lon="5.33224">
        <ele>307.438586</ele>
        <time>2011-06-12T08:28:18Z</time>
      </trkpt>
      <trkpt lat="45.03368" lon="5.33224">
        <ele>307.202227</ele>
        <time>2011-06-12T08:28:20Z</time>
      </trkpt>
      <trkpt lat="45.03383" lon="5.33222">
        <ele>307.030637</ele>
        <time>2011-06-12T08:28:22Z</time>
      </trkpt>
      <trkpt lat="45.03405" lon="5.33217">
        <ele>306.841847</ele>
        <time>2011-06-12T08:28:25Z</time>
      </trkpt>
      <trkpt lat="45.03429" lon="5.33213">
        <ele>306.577666</ele>
        <time>2011-06-12T08:28:28Z</time>
      </trkpt>
      <trkpt lat="45.03452" lon="5.33213">
        <ele>306.26935</ele>
        <time>2011-06-12T08:28:31Z</time>
      </trkpt>
      <trkpt lat="45.03468" lon="5.33215">
        <ele>305.939093</ele>
        <time>2011-06-12T08:28:33Z</time>
      </trkpt>
      <trkpt lat="45.03484" lon="5.33219">
        <ele>305.595021</ele>
        <time>2011-06-12T08:28:35Z</time>
      </trkpt>
      <trkpt lat="45.03508" lon="5.33224">
        <ele>305.274714</ele>
        <time>2011-06-12T08:28:38Z</time>
      </trkpt>
      <trkpt lat="45.03531" lon="5.3323">
        <ele>305.020728</ele>
        <time>2011-06-12T08:28:41Z</time>
      </trkpt>
      <trkpt lat="45.03546" lon="5.33234">
        <ele>304.850323</ele>
        <time>2011-06-12T08:28:43Z</time>
      </trkpt>
      <trkpt lat="45.0357" lon="5.33239">
        <ele>304.754538</ele>
        <time>2011-06-12T08:28:46Z</time>
      </trkpt>
      <trkpt lat="45.03585" lon="5.33244">
        <ele>304.708935</ele>
        <time>2011-06-12T08:28:48Z</time>
      </trkpt>
      <trkpt lat="45.036" lon="5.33248">
        <ele>304.678586</ele>
        <time>2011-06-12T08:28:50Z</time>
      </trkpt>
      <trkpt lat="45.03622" lon="5.33257">
        <ele>304.640208</ele>
        <time>2011-06-12T08:28:53Z</time>
      </trkpt>
      <trkpt lat="45.03635" lon="5.33266">
        <ele>304.586444</ele>
        <time>2011-06-12T08:28:55Z</time>
      </trkpt>
      <trkpt lat="45.03646" lon="5.33277">
        <ele>304.491524</ele>
        <time>2011-06-12T08:28:57Z</time>
      </trkpt>
      <trkpt lat="45.03663" lon="5.33295">
        <ele>304.346732</ele>
        <time>2011-06-12T08:29:00Z</time>
      </trkpt>
      <trkpt lat="45.03674" lon="5.33307">
        <ele>304.201572</ele>
        <time>2011-06-12T08:29:02Z</time>
      </trkpt>
      <trkpt lat="45.03692" lon="5.33326">
        <ele>304.105362</ele>
        <time>2011-06-12T08:29:05Z</time>
      </trkpt>
      <trkpt lat="45.0371" lon="5.33345">
        <ele>304.024356</ele>
        <time>2011-06-12T08:29:08Z</time>
      </trkpt>
      <trkpt lat="45.03723" lon="5.33359">
        <ele>303.870361</ele>
        <time>2011-06-12T08:29:10Z</time>
      </trkpt>
      <trkpt lat="45.03735" lon="5.33372">
        <ele>303.571313</ele>
        <time>2011-06-12T08:29:12Z</time>
      </trkpt>
      <trkpt lat="45.03747" lon="5.33386">
        <ele>303.10637</ele>
        <time>2011-06-12T08:29:14Z</time>
      </trkpt>
      <trkpt lat="45.03764" lon="5.33407">
        <ele>302.527885</ele>
        <time>2011-06-12T08:29:17Z</time>
      </trkpt>
      <trkpt lat="45.0378" lon="5.33429">
        <ele>301.913603</ele>
        <time>2011-06-12T08:29:20Z</time>
      </trkpt>
      <trkpt lat="45.03795" lon="5.33449">
        <ele>301.306302</ele>
        <time>2011-06-12T08:29:23Z</time>
      </trkpt>
      <trkpt lat="45.03811" lon="5.33469">
        <ele>300.719058</ele>
        <time>2011-06-12T08:29:26Z</time>
      </trkpt>
      <trkpt lat="45.03825" lon="5.33489">
        <ele>300.17089</ele>
        <time>2011-06-12T08:29:29Z</time>
      </trkpt>
      <trkpt lat="45.03833" lon="5.33504">
        <ele>299.706568</ele>
        <time>2011-06-12T08:29:31Z</time>
      </trkpt>
      <trkpt lat="45.03843" lon="5.33527">
        <ele>299.378952</ele>
        <time>2011-06-12T08:29:34Z</time>
      </trkpt>
      <trkpt lat="45.03849" lon="5.33551">
        <ele>299.201063</ele>
        <time>2011-06-12T08:29:37Z</time>
      </trkpt>
      <trkpt lat="45.03856" lon="5.33574">
        <ele>299.13579</ele>
        <time>2011-06-12T08:29:40Z</time>
      </trkpt>
      <trkpt lat="45.0386" lon="5.33588">
        <ele>299.120626</ele>
        <time>2011-06-12T08:29:42Z</time>
      </trkpt>
      <trkpt lat="45.03867" lon="5.33607">
        <ele>299.065292</ele>
        <time>2011-06-12T08:29:45Z</time>
      </trkpt>
      <trkpt lat="45.03871" lon="5.33613">
        <ele>298.884398</ele>
        <time>2011-06-12T08:29:48Z</time>
      </trkpt>
      <trkpt lat="45.03871" lon="5.33613">
        <ele>298.630289</ele>
        <time>2011-06-12T08:30:16Z</time>
      </trkpt>
      <trkpt lat="45.03882" lon="5.33627">
        <ele>298.413267</ele>
        <time>2011-06-12T08:30:23Z</time>
      </trkpt>
      <trkpt lat="45.03887" lon="5.33639">
        <ele>298.219407</ele>
        <time>2011-06-12T08:30:26Z</time>
      </trkpt>
      <trkpt lat="45.03896" lon="5.33649">
        <ele>298.018959</ele>
        <time>2011-06-12T08:30:29Z</time>
      </trkpt>
      <trkpt lat="45.03901" lon="5.33655">
        <ele>297.811504</ele>
        <time>2011-06-12T08:30:31Z</time>
      </trkpt>
      <trkpt lat="45.0391" lon="5.33664">
        <ele>297.567248</ele>
        <time>2011-06-12T08:30:34Z</time>
      </trkpt>
      <trkpt lat="45.0392" lon="5.33673">
        <ele>297.314053</ele>
        <time>2011-06-12T08:30:37Z</time>
      </trkpt>
      <trkpt lat="45.03931" lon="5.33681">
        <ele>297.128668</ele>
        <time>2011-06-12T08:30:40Z</time>
      </trkpt>
      <trkpt lat="45.03943" lon="5.33688">
        <ele>297.018294</ele>
        <time>2011-06-12T08:30:43Z</time>
      </trkpt>
      <trkpt lat="45.03951" lon="5.33692">
        <ele>296.849281</ele>
        <time>2011-06-12T08:30:45Z</time>
      </trkpt>
      <trkpt lat="45.03963" lon="5.33698">
        <ele>296.468709</ele>
        <time>2011-06-12T08:30:48Z</time>
      </trkpt>
      <trkpt lat="45.03971" lon="5.33701">
        <ele>295.956562</ele>
        <time>2011-06-12T08:30:50Z</time>
      </trkpt>
      <trkpt lat="45.03982" lon="5.33706">
        <ele>295.546011</ele>
        <time>2011-06-12T08:30:53Z</time>
      </trkpt>
      <trkpt lat="45.03994" lon="5.3371">
        <ele>295.343064</ele>
        <time>2011-06-12T08:30:56Z</time>
      </trkpt>
      <trkpt lat="45.04002" lon="5.33712">
        <ele>295.291851</ele>
        <time>2011-06-12T08:30:58Z</time>
      </trkpt>
      <trkpt lat="45.04013" lon="5.33715">
        <ele>295.270719</ele>
        <time>2011-06-12T08:31:01Z</time>
      </trkpt>
      <trkpt lat="45.04024" lon="5.33719">
        <ele>295.191177</ele>
        <time>2011-06-12T08:31:04Z</time>
      </trkpt>
      <trkpt lat="45.04035" lon="5.33723">
        <ele>295.03888</ele>
        <time>2011-06-12T08:31:07Z</time>
      </trkpt>
      <trkpt lat="45.04047" lon="5.33727">
        <ele>294.831609</ele>
        <time>2011-06-12T08:31:10Z</time>
      </trkpt>
      <trkpt lat="45.04058" lon="5.33731">
        <ele>294.581144</ele>
        <time>2011-06-12T08:31:13Z</time>
      </trkpt>
      <trkpt lat="45.0407" lon="5.33736">
        <ele>294.317571</ele>
        <time>2011-06-12T08:31:16Z</time>
      </trkpt>
      <trkpt lat="45.04078" lon="5.33738">
        <ele>294.105132</ele>
        <time>2011-06-12T08:31:18Z</time>
      </trkpt>
      <trkpt lat="45.04091" lon="5.33741">
        <ele>293.994296</ele>
        <time>2011-06-12T08:31:21Z</time>
      </trkpt>
      <trkpt lat="45.04099" lon="5.33742">
        <ele>293.97148</ele>
        <time>2011-06-12T08:31:23Z</time>
      </trkpt>
      <trkpt lat="45.04111" lon="5.33745">
        <ele>293.987741</ele>
        <time>2011-06-12T08:31:26Z</time>
      </trkpt>
      <trkpt lat="45.04123" lon="5.33746">
        <ele>294.049691</ele>
        <time>2011-06-12T08:31:29Z</time>
      </trkpt>
      <trkpt lat="45.04134" lon="5.3375">
        <ele>294.197824</ele>
        <time>2011-06-12T08:31:32Z</time>
      </trkpt>
      <trkpt lat="45.04141" lon="5.33752">
        <ele>294.4049</ele>
        <time>2011-06-12T08:31:34Z</time>
      </trkpt>
      <trkpt lat="45.04153" lon="5.33755">
        <ele>294.580237</ele>
        <time>2011-06-12T08:31:37Z</time>
      </trkpt>
      <trkpt lat="45.04162" lon="5.33759">
        <ele>294.669951</ele>
        <time>2011-06-12T08:31:39Z</time>
      </trkpt>
      <trkpt lat="45.04177" lon="5.33766">
        <ele>294.687456</ele>
        <time>2011-06-12T08:31:42Z</time>
      </trkpt>
      <trkpt lat="45.04188" lon="5.33771">
        <ele>294.64467</ele>
        <time>2011-06-12T08:31:44Z</time>
      </trkpt>
      <trkpt lat="45.04203" lon="5.33779">
        <ele>294.546712</ele>
        <time>2011-06-12T08:31:47Z</time>
      </trkpt>
      <trkpt lat="45.04219" lon="5.33789">
        <ele>294.399856</ele>
        <time>2011-06-12T08:31:50Z</time>
      </trkpt>
      <trkpt lat="45.04235" lon="5.33798">
        <ele>294.171259</ele>
        <time>2011-06-12T08:31:53Z</time>
      </trkpt>
      <trkpt lat="45.04252" lon="5.33809">
        <ele>293.848805</ele>
        <time>2011-06-12T08:31:56Z</time>
      </trkpt>
      <trkpt lat="45.04262" lon="5.33816">
        <ele>293.535561</ele>
        <time>2011-06-12T08:31:58Z</time>
      </trkpt>
      <trkpt lat="45.04277" lon="5.33826">
        <ele>293.348292</ele>
        <time>2011-06-12T08:32:01Z</time>
      </trkpt>
      <trkpt lat="45.04288" lon="5.33831">
        <ele>293.296723</ele>
        <time>2011-06-12T08:32:03Z</time>
      </trkpt>
      <trkpt lat="45.04299" lon="5.33836">
        <ele>293.330472</ele>
        <time>2011-06-12T08:32:05Z</time>
      </trkpt>
      <trkpt lat="45.04316" lon="5.33843">
        <ele>293.425952</ele>
        <time>2011-06-12T08:32:08Z</time>
      </trkpt>
      <trkpt lat="45.04333" lon="5.3385">
        <ele>293.544161</ele>
        <time>2011-06-12T08:32:11Z</time>
      </trkpt>
      <trkpt lat="45.04344" lon="5.33855">
        <ele>293.625741</ele>
        <time>2011-06-12T08:32:13Z</time>
      </trkpt>
      <trkpt lat="45.0436" lon="5.33861">
        <ele>293.653407</ele>
        <time>2011-06-12T08:32:16Z</time>
      </trkpt>
      <trkpt lat="45.04375" lon="5.33867">
        <ele>293.643949</ele>
        <time>2011-06-12T08:32:19Z</time>
      </trkpt>
      <trkpt lat="45.0439" lon="5.33874">
        <ele>293.611106</ele>
        <time>2011-06-12T08:32:22Z</time>
      </trkpt>
      <trkpt lat="45.04407" lon="5.33879">
        <ele>293.573103</ele>
        <time>2011-06-12T08:32:25Z</time>
      </trkpt>
      <trkpt lat="45.04417" lon="5.33883">
        <ele>293.549034</ele>
        <time>2011-06-12T08:32:27Z</time>
      </trkpt>
      <trkpt lat="45.04428" lon="5.33886">
        <ele>293.541763</ele>
        <time>2011-06-12T08:32:29Z</time>
      </trkpt>
      <trkpt lat="45.04444" lon="5.33891">
        <ele>293.567544</ele>
        <time>2011-06-12T08:32:32Z</time>
      </trkpt>
      <trkpt lat="45.04454" lon="5.33895">
        <ele>293.666513</ele>
        <time>2011-06-12T08:32:34Z</time>
      </trkpt>
      <trkpt lat="45.0447" lon="5.33901">
        <ele>293.84036</ele>
        <time>2011-06-12T08:32:37Z</time>
      </trkpt>
      <trkpt lat="45.0448" lon="5.33906">
        <ele>294.043038</ele>
        <time>2011-06-12T08:32:39Z</time>
      </trkpt>
      <trkpt lat="45.04491" lon="5.33911">
        <ele>294.224479</ele>
        <time>2011-06-12T08:32:41Z</time>
      </trkpt>
      <trkpt lat="45.04501" lon="5.33916">
        <ele>294.35344</ele>
        <time>2011-06-12T08:32:43Z</time>
      </trkpt>
      <trkpt lat="45.04515" lon="5.33925">
        <ele>294.424857</ele>
        <time>2011-06-12T08:32:46Z</time>
      </trkpt>
      <trkpt lat="45.04524" lon="5.33931">
        <ele>294.45181</ele>
        <time>2011-06-12T08:32:48Z</time>
      </trkpt>
      <trkpt lat="45.04534" lon="5.33938">
        <ele>294.451729</ele>
        <time>2011-06-12T08:32:50Z</time>
      </trkpt>
      <trkpt lat="45.0455" lon="5.33946">
        <ele>294.440304</ele>
        <time>2011-06-12T08:32:53Z</time>
      </trkpt>
      <trkpt lat="45.04567" lon="5.33958">
        <ele>294.41935</ele>
        <time>2011-06-12T08:32:56Z</time>
      </trkpt>
      <trkpt lat="45.04583" lon="5.33969">
        <ele>294.392866</ele>
        <time>2011-06-12T08:32:59Z</time>
      </trkpt>
      <trkpt lat="45.046" lon="5.3398">
        <ele>294.373364</ele>
        <time>2011-06-12T08:33:02Z</time>
      </trkpt>
      <trkpt lat="45.04617" lon="5.33991">
        <ele>294.366245</ele>
        <time>2011-06-12T08:33:05Z</time>
      </trkpt>
      <trkpt lat="45.0463" lon="5.33997">
        <ele>294.386891</ele>
        <time>2011-06-12T08:33:07Z</time>
      </trkpt>
      <trkpt lat="45.04641" lon="5.34003">
        <ele>294.464921</ele>
        <time>2011-06-12T08:33:09Z</time>
      </trkpt>
      <trkpt lat="45.04653" lon="5.3401">
        <ele>294.613427</ele>
        <time>2011-06-12T08:33:11Z</time>
      </trkpt>
      <trkpt lat="45.04664" lon="5.34016">
        <ele>294.820764</ele>
        <time>2011-06-12T08:33:13Z</time>
      </trkpt>
      <trkpt lat="45.04674" lon="5.34022">
        <ele>295.067131</ele>
        <time>2011-06-12T08:33:15Z</time>
      </trkpt>
      <trkpt lat="45.04685" lon="5.34028">
        <ele>295.332071</ele>
        <time>2011-06-12T08:33:17Z</time>
      </trkpt>
      <trkpt lat="45.04696" lon="5.34034">
        <ele>295.605054</ele>
        <time>2011-06-12T08:33:19Z</time>
      </trkpt>
      <trkpt lat="45.04714" lon="5.34043">
        <ele>295.877982</ele>
        <time>2011-06-12T08:33:22Z</time>
      </trkpt>
      <trkpt lat="45.04732" lon="5.34055">
        <ele>296.136635</ele>
        <time>2011-06-12T08:33:25Z</time>
      </trkpt>
      <trkpt lat="45.04748" lon="5.34069">
        <ele>296.360069</ele>
        <time>2011-06-12T08:33:28Z</time>
      </trkpt>
      <trkpt lat="45.04759" lon="5.3408">
        <ele>296.529592</ele>
        <time>2011-06-12T08:33:30Z</time>
      </trkpt>
      <trkpt lat="45.04777" lon="5.34094">
        <ele>296.649273</ele>
        <time>2011-06-12T08:33:33Z</time>
      </trkpt>
      <trkpt lat="45.04792" lon="5.34103">
        <ele>296.753747</ele>
        <time>2011-06-12T08:33:35Z</time>
      </trkpt>
      <trkpt lat="45.04815" lon="5.341">
        <ele>296.853589</ele>
        <time>2011-06-12T08:33:38Z</time>
      </trkpt>
      <trkpt lat="45.0483" lon="5.34087">
        <ele>296.919924</ele>
        <time>2011-06-12T08:33:40Z</time>
      </trkpt>
      <trkpt lat="45.04853" lon="5.34063">
        <ele>296.941359</ele>
        <time>2011-06-12T08:33:43Z</time>
      </trkpt>
      <trkpt lat="45.04877" lon="5.34038">
        <ele>296.912981</ele>
        <time>2011-06-12T08:33:46Z</time>
      </trkpt>
      <trkpt lat="45.04893" lon="5.3402">
        <ele>296.797835</ele>
        <time>2011-06-12T08:33:48Z</time>
      </trkpt>
      <trkpt lat="45.0491" lon="5.34007">
        <ele>296.533633</ele>
        <time>2011-06-12T08:33:50Z</time>
      </trkpt>
      <trkpt lat="45.04928" lon="5.34001">
        <ele>296.159357</ele>
        <time>2011-06-12T08:33:52Z</time>
      </trkpt>
      <trkpt lat="45.04956" lon="5.34001">
        <ele>295.849614</ele>
        <time>2011-06-12T08:33:55Z</time>
      </trkpt>
      <trkpt lat="45.04973" lon="5.34013">
        <ele>295.713572</ele>
        <time>2011-06-12T08:33:57Z</time>
      </trkpt>
      <trkpt lat="45.04995" lon="5.34039">
        <ele>295.675244</ele>
        <time>2011-06-12T08:34:00Z</time>
      </trkpt>
      <trkpt lat="45.05009" lon="5.34061">
        <ele>295.640203</ele>
        <time>2011-06-12T08:34:02Z</time>
      </trkpt>
      <trkpt lat="45.05031" lon="5.34095">
        <ele>295.600492</ele>
        <time>2011-06-12T08:34:05Z</time>
      </trkpt>
      <trkpt lat="45.05055" lon="5.3413">
        <ele>295.521276</ele>
        <time>2011-06-12T08:34:08Z</time>
      </trkpt>
      <trkpt lat="45.05079" lon="5.34163">
        <ele>295.300032</ele>
        <time>2011-06-12T08:34:11Z</time>
      </trkpt>
      <trkpt lat="45.05096" lon="5.34184">
        <ele>294.838335</ele>
        <time>2011-06-12T08:34:13Z</time>
      </trkpt>
      <trkpt lat="45.05113" lon="5.34204">
        <ele>293.997098</ele>
        <time>2011-06-12T08:34:15Z</time>
      </trkpt>
      <trkpt lat="45.05131" lon="5.34225">
        <ele>292.632659</ele>
        <time>2011-06-12T08:34:17Z</time>
      </trkpt>
      <trkpt lat="45.05148" lon="5.34246">
        <ele>290.880227</ele>
        <time>2011-06-12T08:34:19Z</time>
      </trkpt>
      <trkpt lat="45.05175" lon="5.34278">
        <ele>289.073648</ele>
        <time>2011-06-12T08:34:22Z</time>
      </trkpt>
      <trkpt lat="45.05208" lon="5.34305">
        <ele>287.368544</ele>
        <time>2011-06-12T08:34:25Z</time>
      </trkpt>
      <trkpt lat="45.05231" lon="5.34313">
        <ele>285.741523</ele>
        <time>2011-06-12T08:34:27Z</time>
      </trkpt>
      <trkpt lat="45.05265" lon="5.3431">
        <ele>284.177115</ele>
        <time>2011-06-12T08:34:30Z</time>
      </trkpt>
      <trkpt lat="45.05289" lon="5.34298">
        <ele>282.639382</ele>
        <time>2011-06-12T08:34:32Z</time>
      </trkpt>
      <trkpt lat="45.05314" lon="5.34284">
        <ele>281.15497</ele>
        <time>2011-06-12T08:34:34Z</time>
      </trkpt>
      <trkpt lat="45.05349" lon="5.34263">
        <ele>279.746522</ele>
        <time>2011-06-12T08:34:37Z</time>
      </trkpt>
      <trkpt lat="45.05374" lon="5.34251">
        <ele>278.40376</ele>
        <time>2011-06-12T08:34:39Z</time>
      </trkpt>
      <trkpt lat="45.05411" lon="5.34248">
        <ele>277.206944</ele>
        <time>2011-06-12T08:34:42Z</time>
      </trkpt>
      <trkpt lat="45.05448" lon="5.34252">
        <ele>276.233219</ele>
        <time>2011-06-12T08:34:45Z</time>
      </trkpt>
      <trkpt lat="45.05472" lon="5.34253">
        <ele>275.46922</ele>
        <time>2011-06-12T08:34:47Z</time>
      </trkpt>
      <trkpt lat="45.05497" lon="5.34253">
        <ele>274.943779</ele>
        <time>2011-06-12T08:34:49Z</time>
      </trkpt>
      <trkpt lat="45.05535" lon="5.34251">
        <ele>274.606002</ele>
        <time>2011-06-12T08:34:52Z</time>
      </trkpt>
      <trkpt lat="45.05561" lon="5.34248">
        <ele>274.191066</ele>
        <time>2011-06-12T08:34:54Z</time>
      </trkpt>
      <trkpt lat="45.05597" lon="5.3423">
        <ele>273.336372</ele>
        <time>2011-06-12T08:34:57Z</time>
      </trkpt>
      <trkpt lat="45.05619" lon="5.34213">
        <ele>271.627588</ele>
        <time>2011-06-12T08:34:59Z</time>
      </trkpt>
      <trkpt lat="45.05638" lon="5.3419">
        <ele>269.086859</ele>
        <time>2011-06-12T08:35:01Z</time>
      </trkpt>
      <trkpt lat="45.05663" lon="5.34148">
        <ele>266.392701</ele>
        <time>2011-06-12T08:35:04Z</time>
      </trkpt>
      <trkpt lat="45.05689" lon="5.34107">
        <ele>264.223949</ele>
        <time>2011-06-12T08:35:07Z</time>
      </trkpt>
      <trkpt lat="45.05711" lon="5.34079">
        <ele>262.769836</ele>
        <time>2011-06-12T08:35:10Z</time>
      </trkpt>
      <trkpt lat="45.0573" lon="5.34064">
        <ele>261.832656</ele>
        <time>2011-06-12T08:35:13Z</time>
      </trkpt>
      <trkpt lat="45.0574" lon="5.3406">
        <ele>261.107347</ele>
        <time>2011-06-12T08:35:15Z</time>
      </trkpt>
      <trkpt lat="45.05744" lon="5.34067">
        <ele>260.462405</ele>
        <time>2011-06-12T08:35:17Z</time>
      </trkpt>
      <trkpt lat="45.0573" lon="5.34084">
        <ele>259.923228</ele>
        <time>2011-06-12T08:35:19Z</time>
      </trkpt>
      <trkpt lat="45.05711" lon="5.34097">
        <ele>259.598248</ele>
        <time>2011-06-12T08:35:21Z</time>
      </trkpt>
      <trkpt lat="45.05689" lon="5.3412">
        <ele>259.507497</ele>
        <time>2011-06-12T08:35:24Z</time>
      </trkpt>
      <trkpt lat="45.05678" lon="5.34141">
        <ele>259.714254</ele>
        <time>2011-06-12T08:35:26Z</time>
      </trkpt>
      <trkpt lat="45.05668" lon="5.34163">
        <ele>260.349799</ele>
        <time>2011-06-12T08:35:28Z</time>
      </trkpt>
      <trkpt lat="45.05656" lon="5.34198">
        <ele>261.211199</ele>
        <time>2011-06-12T08:35:31Z</time>
      </trkpt>
      <trkpt lat="45.05647" lon="5.34221">
        <ele>261.976662</ele>
        <time>2011-06-12T08:35:33Z</time>
      </trkpt>
      <trkpt lat="45.05627" lon="5.34247">
        <ele>262.608352</ele>
        <time>2011-06-12T08:35:36Z</time>
      </trkpt>
      <trkpt lat="45.05612" lon="5.3426">
        <ele>263.167474</ele>
        <time>2011-06-12T08:35:38Z</time>
      </trkpt>
      <trkpt lat="45.05591" lon="5.34278">
        <ele>263.637346</ele>
        <time>2011-06-12T08:35:41Z</time>
      </trkpt>
      <trkpt lat="45.05577" lon="5.3429">
        <ele>263.954913</ele>
        <time>2011-06-12T08:35:43Z</time>
      </trkpt>
      <trkpt lat="45.05575" lon="5.3431">
        <ele>264.089126</ele>
        <time>2011-06-12T08:35:45Z</time>
      </trkpt>
      <trkpt lat="45.05581" lon="5.34328">
        <ele>264.12524</ele>
        <time>2011-06-12T08:35:47Z</time>
      </trkpt>
      <trkpt lat="45.05591" lon="5.34341">
        <ele>264.17424</ele>
        <time>2011-06-12T08:35:49Z</time>
      </trkpt>
      <trkpt lat="45.05606" lon="5.34359">
        <ele>264.264101</ele>
        <time>2011-06-12T08:35:52Z</time>
      </trkpt>
      <trkpt lat="45.05621" lon="5.34372">
        <ele>264.419683</ele>
        <time>2011-06-12T08:35:55Z</time>
      </trkpt>
      <trkpt lat="45.05631" lon="5.34377">
        <ele>264.645512</ele>
        <time>2011-06-12T08:35:57Z</time>
      </trkpt>
      <trkpt lat="45.05638" lon="5.34381">
        <ele>264.840806</ele>
        <time>2011-06-12T08:35:59Z</time>
      </trkpt>
      <trkpt lat="45.05647" lon="5.34384">
        <ele>264.927145</ele>
        <time>2011-06-12T08:36:02Z</time>
      </trkpt>
      <trkpt lat="45.05657" lon="5.34386">
        <ele>264.936426</ele>
        <time>2011-06-12T08:36:05Z</time>
      </trkpt>
      <trkpt lat="45.05665" lon="5.34388">
        <ele>264.841459</ele>
        <time>2011-06-12T08:36:07Z</time>
      </trkpt>
      <trkpt lat="45.05675" lon="5.34385">
        <ele>264.430981</ele>
        <time>2011-06-12T08:36:10Z</time>
      </trkpt>
      <trkpt lat="45.05685" lon="5.34379">
        <ele>263.554128</ele>
        <time>2011-06-12T08:36:13Z</time>
      </trkpt>
      <trkpt lat="45.05691" lon="5.34374">
        <ele>262.427705</ele>
        <time>2011-06-12T08:36:15Z</time>
      </trkpt>
      <trkpt lat="45.05702" lon="5.34374">
        <ele>261.46433</ele>
        <time>2011-06-12T08:36:18Z</time>
      </trkpt>
      <trkpt lat="45.05714" lon="5.34372">
        <ele>260.823256</ele>
        <time>2011-06-12T08:36:21Z</time>
      </trkpt>
      <trkpt lat="45.05725" lon="5.3437">
        <ele>260.426589</ele>
        <time>2011-06-12T08:36:24Z</time>
      </trkpt>
      <trkpt lat="45.05732" lon="5.34369">
        <ele>260.22586</ele>
        <time>2011-06-12T08:36:26Z</time>
      </trkpt>
      <trkpt lat="45.05738" lon="5.34367">
        <ele>260.186547</ele>
        <time>2011-06-12T08:36:28Z</time>
      </trkpt>
      <trkpt lat="45.05749" lon="5.34365">
        <ele>260.211599</ele>
        <time>2011-06-12T08:36:31Z</time>
      </trkpt>
      <trkpt lat="45.05758" lon="5.34365">
        <ele>260.240247</ele>
        <time>2011-06-12T08:36:33Z</time>
      </trkpt>
      <trkpt lat="45.05769" lon="5.34364">
        <ele>260.254652</ele>
        <time>2011-06-12T08:36:35Z</time>
      </trkpt>
      <trkpt lat="45.05782" lon="5.34372">
        <ele>260.238353</ele>
        <time>2011-06-12T08:36:38Z</time>
      </trkpt>
      <trkpt lat="45.0579" lon="5.34377">
        <ele>260.044013</ele>
        <time>2011-06-12T08:36:40Z</time>
      </trkpt>
      <trkpt lat="45.05805" lon="5.34384">
        <ele>259.526567</ele>
        <time>2011-06-12T08:36:43Z</time>
      </trkpt>
      <trkpt lat="45.05816" lon="5.34387">
        <ele>258.709216</ele>
        <time>2011-06-12T08:36:45Z</time>
      </trkpt>
      <trkpt lat="45.05826" lon="5.3439">
        <ele>257.712355</ele>
        <time>2011-06-12T08:36:47Z</time>
      </trkpt>
      <trkpt lat="45.05837" lon="5.34392">
        <ele>256.624796</ele>
        <time>2011-06-12T08:36:49Z</time>
      </trkpt>
      <trkpt lat="45.05854" lon="5.34397">
        <ele>255.575542</ele>
        <time>2011-06-12T08:36:52Z</time>
      </trkpt>
      <trkpt lat="45.05864" lon="5.34401">
        <ele>254.699047</ele>
        <time>2011-06-12T08:36:54Z</time>
      </trkpt>
      <trkpt lat="45.05875" lon="5.34405">
        <ele>254.029497</ele>
        <time>2011-06-12T08:36:56Z</time>
      </trkpt>
      <trkpt lat="45.05889" lon="5.34411">
        <ele>253.494804</ele>
        <time>2011-06-12T08:36:59Z</time>
      </trkpt>
      <trkpt lat="45.05898" lon="5.34412">
        <ele>253.036664</ele>
        <time>2011-06-12T08:37:01Z</time>
      </trkpt>
      <trkpt lat="45.05913" lon="5.34412">
        <ele>252.543749</ele>
        <time>2011-06-12T08:37:04Z</time>
      </trkpt>
      <trkpt lat="45.05929" lon="5.34411">
        <ele>251.85047</ele>
        <time>2011-06-12T08:37:07Z</time>
      </trkpt>
      <trkpt lat="45.05939" lon="5.34412">
        <ele>250.9811</ele>
        <time>2011-06-12T08:37:09Z</time>
      </trkpt>
      <trkpt lat="45.05949" lon="5.34417">
        <ele>250.144185</ele>
        <time>2011-06-12T08:37:11Z</time>
      </trkpt>
      <trkpt lat="45.05959" lon="5.34422">
        <ele>249.472554</ele>
        <time>2011-06-12T08:37:13Z</time>
      </trkpt>
      <trkpt lat="45.05973" lon="5.3443">
        <ele>249.027635</ele>
        <time>2011-06-12T08:37:16Z</time>
      </trkpt>
      <trkpt lat="45.05981" lon="5.34438">
        <ele>248.829959</ele>
        <time>2011-06-12T08:37:18Z</time>
      </trkpt>
      <trkpt lat="45.05986" lon="5.34451">
        <ele>248.73351</ele>
        <time>2011-06-12T08:37:20Z</time>
      </trkpt>
      <trkpt lat="45.05991" lon="5.34464">
        <ele>248.517215</ele>
        <time>2011-06-12T08:37:22Z</time>
      </trkpt>
      <trkpt lat="45.05997" lon="5.34479">
        <ele>248.055905</ele>
        <time>2011-06-12T08:37:24Z</time>
      </trkpt>
      <trkpt lat="45.06001" lon="5.34503">
        <ele>247.337092</ele>
        <time>2011-06-12T08:37:27Z</time>
      </trkpt>
      <trkpt lat="45.06009" lon="5.34526">
        <ele>246.395502</ele>
        <time>2011-06-12T08:37:30Z</time>
      </trkpt>
      <trkpt lat="45.06013" lon="5.34542">
        <ele>245.363489</ele>
        <time>2011-06-12T08:37:32Z</time>
      </trkpt>
      <trkpt lat="45.06013" lon="5.34567">
        <ele>244.417828</ele>
        <time>2011-06-12T08:37:35Z</time>
      </trkpt>
      <trkpt lat="45.06012" lon="5.34592">
        <ele>243.677392</ele>
        <time>2011-06-12T08:37:38Z</time>
      </trkpt>
      <trkpt lat="45.06015" lon="5.34612">
        <ele>243.216988</ele>
        <time>2011-06-12T08:37:41Z</time>
      </trkpt>
      <trkpt lat="45.06019" lon="5.34623">
        <ele>243.03157</ele>
        <time>2011-06-12T08:37:43Z</time>
      </trkpt>
      <trkpt lat="45.06024" lon="5.34632">
        <ele>242.97713</ele>
        <time>2011-06-12T08:37:45Z</time>
      </trkpt>
      <trkpt lat="45.06031" lon="5.34645">
        <ele>242.923402</ele>
        <time>2011-06-12T08:37:48Z</time>
      </trkpt>
      <trkpt lat="45.06036" lon="5.34659">
        <ele>242.863929</ele>
        <time>2011-06-12T08:37:51Z</time>
      </trkpt>
      <trkpt lat="45.06039" lon="5.34669">
        <ele>242.833659</ele>
        <time>2011-06-12T08:37:54Z</time>
      </trkpt>
      <trkpt lat="45.06039" lon="5.34669">
        <ele>242.827843</ele>
        <time>2011-06-12T08:37:55Z</time>
      </trkpt>
      <trkpt lat="45.06039" lon="5.34669">
        <ele>242.831191</ele>
        <time>2011-06-12T08:38:21Z</time>
      </trkpt>
      <trkpt lat="45.06051" lon="5.34658">
        <ele>242.82844</ele>
        <time>2011-06-12T08:39:48Z</time>
      </trkpt>
      <trkpt lat="45.06058" lon="5.34644">
        <ele>242.781556</ele>
        <time>2011-06-12T08:39:51Z</time>
      </trkpt>
      <trkpt lat="45.06065" lon="5.34636">
        <ele>242.679474</ele>
        <time>2011-06-12T08:39:54Z</time>
      </trkpt>
      <trkpt lat="45.06069" lon="5.34632">
        <ele>241.936922</ele>
        <time>2011-06-12T08:39:57Z</time>
      </trkpt>
      <trkpt lat="45.06074" lon="5.34626">
        <ele>240.133601</ele>
        <time>2011-06-12T08:40:01Z</time>
      </trkpt>
      <trkpt lat="45.06077" lon="5.34621">
        <ele>238.12101</ele>
        <time>2011-06-12T08:40:05Z</time>
      </trkpt>
      <trkpt lat="45.06077" lon="5.34621">
        <ele>236.90001</ele>
        <time>2011-06-12T08:40:07Z</time>
      </trkpt>
      <trkpt lat="45.06077" lon="5.34621">
        <ele>236.459988</ele>
        <time>2011-06-12T08:40:50Z</time>
      </trkpt>
      <trkpt lat="45.06097" lon="5.34592">
        <ele>236.438185</ele>
        <time>2011-06-12T08:41:15Z</time>
      </trkpt>
      <trkpt lat="45.06101" lon="5.34584">
        <ele>236.520572</ele>
        <time>2011-06-12T08:41:17Z</time>
      </trkpt>
      <trkpt lat="45.06106" lon="5.3457">
        <ele>236.588737</ele>
        <time>2011-06-12T08:41:20Z</time>
      </trkpt>
      <trkpt lat="45.0611" lon="5.34552">
        <ele>236.663322</ele>
        <time>2011-06-12T08:41:23Z</time>
      </trkpt>
      <trkpt lat="45.06114" lon="5.3453">
        <ele>236.840307</ele>
        <time>2011-06-12T08:41:26Z</time>
      </trkpt>
      <trkpt lat="45.06115" lon="5.34517">
        <ele>237.109673</ele>
        <time>2011-06-12T08:41:28Z</time>
      </trkpt>
      <trkpt lat="45.06114" lon="5.34498">
        <ele>237.738255</ele>
        <time>2011-06-12T08:41:31Z</time>
      </trkpt>
      <trkpt lat="45.06117" lon="5.34476">
        <ele>239.255049</ele>
        <time>2011-06-12T08:41:33Z</time>
      </trkpt>
      <trkpt lat="45.06129" lon="5.34449">
        <ele>241.417318</ele>
        <time>2011-06-12T08:41:36Z</time>
      </trkpt>
      <trkpt lat="45.06137" lon="5.34431">
        <ele>243.310326</ele>
        <time>2011-06-12T08:41:38Z</time>
      </trkpt>
      <trkpt lat="45.06148" lon="5.34407">
        <ele>244.442478</ele>
        <time>2011-06-12T08:41:41Z</time>
      </trkpt>
      <trkpt lat="45.06157" lon="5.34387">
        <ele>244.861072</ele>
        <time>2011-06-12T08:41:44Z</time>
      </trkpt>
      <trkpt lat="45.06165" lon="5.34376">
        <ele>244.853265</ele>
        <time>2011-06-12T08:41:46Z</time>
      </trkpt>
      <trkpt lat="45.06172" lon="5.34366">
        <ele>244.64075</ele>
        <time>2011-06-12T08:41:48Z</time>
      </trkpt>
      <trkpt lat="45.06182" lon="5.34351">
        <ele>244.257984</ele>
        <time>2011-06-12T08:41:51Z</time>
      </trkpt>
      <trkpt lat="45.06191" lon="5.34339">
        <ele>243.799974</ele>
        <time>2011-06-12T08:41:54Z</time>
      </trkpt>
      <trkpt lat="45.06197" lon="5.34329">
        <ele>243.425583</ele>
        <time>2011-06-12T08:41:56Z</time>
      </trkpt>
      <trkpt lat="45.06206" lon="5.34311">
        <ele>243.197645</ele>
        <time>2011-06-12T08:41:59Z</time>
      </trkpt>
      <trkpt lat="45.06209" lon="5.34295">
        <ele>243.079606</ele>
        <time>2011-06-12T08:42:01Z</time>
      </trkpt>
      <trkpt lat="45.06215" lon="5.3427">
        <ele>242.993816</ele>
        <time>2011-06-12T08:42:04Z</time>
      </trkpt>
      <trkpt lat="45.06217" lon="5.34251">
        <ele>242.911032</ele>
        <time>2011-06-12T08:42:06Z</time>
      </trkpt>
      <trkpt lat="45.06222" lon="5.34221">
        <ele>242.85917</ele>
        <time>2011-06-12T08:42:09Z</time>
      </trkpt>
      <trkpt lat="45.06228" lon="5.34192">
        <ele>242.767152</ele>
        <time>2011-06-12T08:42:12Z</time>
      </trkpt>
      <trkpt lat="45.06232" lon="5.34174">
        <ele>242.51223</ele>
        <time>2011-06-12T08:42:14Z</time>
      </trkpt>
      <trkpt lat="45.06238" lon="5.34146">
        <ele>242.064841</ele>
        <time>2011-06-12T08:42:17Z</time>
      </trkpt>
      <trkpt lat="45.06244" lon="5.34118">
        <ele>241.453791</ele>
        <time>2011-06-12T08:42:20Z</time>
      </trkpt>
      <trkpt lat="45.06248" lon="5.341">
        <ele>240.7533</ele>
        <time>2011-06-12T08:42:22Z</time>
      </trkpt>
      <trkpt lat="45.06254" lon="5.34072">
        <ele>240.03278</ele>
        <time>2011-06-12T08:42:25Z</time>
      </trkpt>
      <trkpt lat="45.06263" lon="5.34045">
        <ele>239.28164</ele>
        <time>2011-06-12T08:42:28Z</time>
      </trkpt>
      <trkpt lat="45.06269" lon="5.34027">
        <ele>238.571392</ele>
        <time>2011-06-12T08:42:30Z</time>
      </trkpt>
      <trkpt lat="45.06279" lon="5.34001">
        <ele>238.033676</ele>
        <time>2011-06-12T08:42:33Z</time>
      </trkpt>
      <trkpt lat="45.06286" lon="5.33985">
        <ele>237.675216</ele>
        <time>2011-06-12T08:42:35Z</time>
      </trkpt>
      <trkpt lat="45.06292" lon="5.33968">
        <ele>237.450868</ele>
        <time>2011-06-12T08:42:37Z</time>
      </trkpt>
      <trkpt lat="45.063" lon="5.33943">
        <ele>237.256924</ele>
        <time>2011-06-12T08:42:40Z</time>
      </trkpt>
      <trkpt lat="45.06309" lon="5.33919">
        <ele>236.846094</ele>
        <time>2011-06-12T08:42:43Z</time>
      </trkpt>
      <trkpt lat="45.06318" lon="5.33896">
        <ele>236.067742</ele>
        <time>2011-06-12T08:42:46Z</time>
      </trkpt>
      <trkpt lat="45.06323" lon="5.33882">
        <ele>235.027106</ele>
        <time>2011-06-12T08:42:48Z</time>
      </trkpt>
      <trkpt lat="45.06332" lon="5.33861">
        <ele>233.856397</ele>
        <time>2011-06-12T08:42:51Z</time>
      </trkpt>
      <trkpt lat="45.06339" lon="5.33849">
        <ele>232.535323</ele>
        <time>2011-06-12T08:42:53Z</time>
      </trkpt>
      <trkpt lat="45.06345" lon="5.33836">
        <ele>231.043367</ele>
        <time>2011-06-12T08:42:55Z</time>
      </trkpt>
      <trkpt lat="45.06354" lon="5.33818">
        <ele>229.333995</ele>
        <time>2011-06-12T08:42:58Z</time>
      </trkpt>
      <trkpt lat="45.0636" lon="5.33805">
        <ele>227.442701</ele>
        <time>2011-06-12T08:43:00Z</time>
      </trkpt>
      <trkpt lat="45.06368" lon="5.33793">
        <ele>225.60753</ele>
        <time>2011-06-12T08:43:02Z</time>
      </trkpt>
      <trkpt lat="45.06378" lon="5.33776">
        <ele>223.887722</ele>
        <time>2011-06-12T08:43:05Z</time>
      </trkpt>
      <trkpt lat="45.06384" lon="5.33763">
        <ele>222.199761</ele>
        <time>2011-06-12T08:43:07Z</time>
      </trkpt>
      <trkpt lat="45.06394" lon="5.33745">
        <ele>220.735118</ele>
        <time>2011-06-12T08:43:10Z</time>
      </trkpt>
      <trkpt lat="45.06404" lon="5.33727">
        <ele>219.611372</ele>
        <time>2011-06-12T08:43:13Z</time>
      </trkpt>
      <trkpt lat="45.0641" lon="5.33715">
        <ele>218.702529</ele>
        <time>2011-06-12T08:43:15Z</time>
      </trkpt>
      <trkpt lat="45.06416" lon="5.33703">
        <ele>217.896813</ele>
        <time>2011-06-12T08:43:17Z</time>
      </trkpt>
      <trkpt lat="45.06424" lon="5.33685">
        <ele>217.149076</ele>
        <time>2011-06-12T08:43:20Z</time>
      </trkpt>
      <trkpt lat="45.06433" lon="5.33667">
        <ele>216.501357</ele>
        <time>2011-06-12T08:43:23Z</time>
      </trkpt>
      <trkpt lat="45.06442" lon="5.33648">
        <ele>216.037731</ele>
        <time>2011-06-12T08:43:26Z</time>
      </trkpt>
      <trkpt lat="45.06446" lon="5.33634">
        <ele>215.705</ele>
        <time>2011-06-12T08:43:28Z</time>
      </trkpt>
      <trkpt lat="45.06451" lon="5.33621">
        <ele>215.335384</ele>
        <time>2011-06-12T08:43:30Z</time>
      </trkpt>
      <trkpt lat="45.06454" lon="5.33606">
        <ele>214.831848</ele>
        <time>2011-06-12T08:43:32Z</time>
      </trkpt>
      <trkpt lat="45.06458" lon="5.33585">
        <ele>214.280414</ele>
        <time>2011-06-12T08:43:35Z</time>
      </trkpt>
      <trkpt lat="45.0646" lon="5.33564">
        <ele>213.862484</ele>
        <time>2011-06-12T08:43:38Z</time>
      </trkpt>
      <trkpt lat="45.06455" lon="5.33541">
        <ele>213.655061</ele>
        <time>2011-06-12T08:43:41Z</time>
      </trkpt>
      <trkpt lat="45.06451" lon="5.33528">
        <ele>213.587593</ele>
        <time>2011-06-12T08:43:43Z</time>
      </trkpt>
      <trkpt lat="45.06442" lon="5.33513">
        <ele>213.569783</ele>
        <time>2011-06-12T08:43:46Z</time>
      </trkpt>
      <trkpt lat="45.06435" lon="5.33504">
        <ele>213.446525</ele>
        <time>2011-06-12T08:43:48Z</time>
      </trkpt>
      <trkpt lat="45.06424" lon="5.33492">
        <ele>213.042282</ele>
        <time>2011-06-12T08:43:51Z</time>
      </trkpt>
      <trkpt lat="45.06417" lon="5.33484">
        <ele>212.403146</ele>
        <time>2011-06-12T08:43:53Z</time>
      </trkpt>
      <trkpt lat="45.06406" lon="5.33472">
        <ele>211.800981</ele>
        <time>2011-06-12T08:43:56Z</time>
      </trkpt>
      <trkpt lat="45.06395" lon="5.33462">
        <ele>211.453048</ele>
        <time>2011-06-12T08:43:59Z</time>
      </trkpt>
      <trkpt lat="45.06384" lon="5.33453">
        <ele>211.317521</ele>
        <time>2011-06-12T08:44:02Z</time>
      </trkpt>
      <trkpt lat="45.06373" lon="5.33445">
        <ele>211.13118</ele>
        <time>2011-06-12T08:44:05Z</time>
      </trkpt>
      <trkpt lat="45.06366" lon="5.3344">
        <ele>210.733018</ele>
        <time>2011-06-12T08:44:07Z</time>
      </trkpt>
      <trkpt lat="45.06355" lon="5.33434">
        <ele>210.26755</ele>
        <time>2011-06-12T08:44:10Z</time>
      </trkpt>
      <trkpt lat="45.06344" lon="5.33428">
        <ele>209.968431</ele>
        <time>2011-06-12T08:44:13Z</time>
      </trkpt>
      <trkpt lat="45.06333" lon="5.33424">
        <ele>209.876125</ele>
        <time>2011-06-12T08:44:16Z</time>
      </trkpt>
      <trkpt lat="45.0632" lon="5.33419">
        <ele>209.90309</ele>
        <time>2011-06-12T08:44:19Z</time>
      </trkpt>
      <trkpt lat="45.06313" lon="5.33418">
        <ele>209.987569</ele>
        <time>2011-06-12T08:44:21Z</time>
      </trkpt>
      <trkpt lat="45.06306" lon="5.33415">
        <ele>210.10615</ele>
        <time>2011-06-12T08:44:23Z</time>
      </trkpt>
      <trkpt lat="45.06295" lon="5.33409">
        <ele>210.320021</ele>
        <time>2011-06-12T08:44:26Z</time>
      </trkpt>
      <trkpt lat="45.06285" lon="5.33403">
        <ele>210.656477</ele>
        <time>2011-06-12T08:44:29Z</time>
      </trkpt>
      <trkpt lat="45.06278" lon="5.33394">
        <ele>210.982549</ele>
        <time>2011-06-12T08:44:32Z</time>
      </trkpt>
      <trkpt lat="45.06275" lon="5.33388">
        <ele>211.188567</ele>
        <time>2011-06-12T08:44:34Z</time>
      </trkpt>
      <trkpt lat="45.06271" lon="5.33381">
        <ele>211.31067</ele>
        <time>2011-06-12T08:44:36Z</time>
      </trkpt>
      <trkpt lat="45.06267" lon="5.33374">
        <ele>211.396512</ele>
        <time>2011-06-12T08:44:38Z</time>
      </trkpt>
      <trkpt lat="45.06264" lon="5.33367">
        <ele>211.461462</ele>
        <time>2011-06-12T08:44:40Z</time>
      </trkpt>
      <trkpt lat="45.06259" lon="5.33357">
        <ele>211.501951</ele>
        <time>2011-06-12T08:44:43Z</time>
      </trkpt>
      <trkpt lat="45.06254" lon="5.33346">
        <ele>211.517337</ele>
        <time>2011-06-12T08:44:46Z</time>
      </trkpt>
      <trkpt lat="45.0625" lon="5.3334">
        <ele>211.51737</ele>
        <time>2011-06-12T08:44:48Z</time>
      </trkpt>
      <trkpt lat="45.06246" lon="5.33333">
        <ele>211.507883</ele>
        <time>2011-06-12T08:44:50Z</time>
      </trkpt>
      <trkpt lat="45.0624" lon="5.33324">
        <ele>211.479223</ele>
        <time>2011-06-12T08:44:53Z</time>
      </trkpt>
      <trkpt lat="45.06235" lon="5.33318">
        <ele>211.425628</ele>
        <time>2011-06-12T08:44:55Z</time>
      </trkpt>
      <trkpt lat="45.0623" lon="5.33313">
        <ele>211.361318</ele>
        <time>2011-06-12T08:44:57Z</time>
      </trkpt>
      <trkpt lat="45.06228" lon="5.33308">
        <ele>211.297591</ele>
        <time>2011-06-12T08:44:59Z</time>
      </trkpt>
      <trkpt lat="45.06225" lon="5.33303">
        <ele>211.235313</ele>
        <time>2011-06-12T08:45:01Z</time>
      </trkpt>
      <trkpt lat="45.06222" lon="5.33298">
        <ele>211.178306</ele>
        <time>2011-06-12T08:45:03Z</time>
      </trkpt>
      <trkpt lat="45.06217" lon="5.33289">
        <ele>211.127615</ele>
        <time>2011-06-12T08:45:06Z</time>
      </trkpt>
      <trkpt lat="45.06212" lon="5.33281">
        <ele>211.077815</ele>
        <time>2011-06-12T08:45:09Z</time>
      </trkpt>
      <trkpt lat="45.06209" lon="5.33275">
        <ele>211.024401</ele>
        <time>2011-06-12T08:45:11Z</time>
      </trkpt>
      <trkpt lat="45.06207" lon="5.33267">
        <ele>210.960175</ele>
        <time>2011-06-12T08:45:14Z</time>
      </trkpt>
      <trkpt lat="45.06205" lon="5.33261">
        <ele>210.877881</ele>
        <time>2011-06-12T08:45:16Z</time>
      </trkpt>
      <trkpt lat="45.06201" lon="5.33251">
        <ele>210.787032</ele>
        <time>2011-06-12T08:45:19Z</time>
      </trkpt>
      <trkpt lat="45.06198" lon="5.33241">
        <ele>210.709352</ele>
        <time>2011-06-12T08:45:22Z</time>
      </trkpt>
      <trkpt lat="45.06195" lon="5.33231">
        <ele>210.658658</ele>
        <time>2011-06-12T08:45:25Z</time>
      </trkpt>
      <trkpt lat="45.06195" lon="5.33221">
        <ele>210.636397</ele>
        <time>2011-06-12T08:45:28Z</time>
      </trkpt>
      <trkpt lat="45.06192" lon="5.3321">
        <ele>210.634101</ele>
        <time>2011-06-12T08:45:31Z</time>
      </trkpt>
      <trkpt lat="45.06189" lon="5.33201">
        <ele>210.638772</ele>
        <time>2011-06-12T08:45:34Z</time>
      </trkpt>
      <trkpt lat="45.06188" lon="5.33193">
        <ele>210.644225</ele>
        <time>2011-06-12T08:45:37Z</time>
      </trkpt>
      <trkpt lat="45.06186" lon="5.33183">
        <ele>210.652243</ele>
        <time>2011-06-12T08:45:40Z</time>
      </trkpt>
      <trkpt lat="45.06186" lon="5.33183">
        <ele>210.663458</ele>
        <time>2011-06-12T08:45:43Z</time>
      </trkpt>
      <trkpt lat="45.06177" lon="5.33147">
        <ele>210.678943</ele>
        <time>2011-06-12T08:45:52Z</time>
      </trkpt>
      <trkpt lat="45.06175" lon="5.33139">
        <ele>210.703371</ele>
        <time>2011-06-12T08:45:55Z</time>
      </trkpt>
      <trkpt lat="45.06174" lon="5.3313">
        <ele>210.737176</ele>
        <time>2011-06-12T08:45:58Z</time>
      </trkpt>
      <trkpt lat="45.06171" lon="5.3312">
        <ele>210.791923</ele>
        <time>2011-06-12T08:46:01Z</time>
      </trkpt>
      <trkpt lat="45.06168" lon="5.3311">
        <ele>210.893413</ele>
        <time>2011-06-12T08:46:04Z</time>
      </trkpt>
      <trkpt lat="45.06166" lon="5.331">
        <ele>211.059127</ele>
        <time>2011-06-12T08:46:07Z</time>
      </trkpt>
      <trkpt lat="45.06165" lon="5.33094">
        <ele>211.30261</ele>
        <time>2011-06-12T08:46:09Z</time>
      </trkpt>
      <trkpt lat="45.06164" lon="5.33083">
        <ele>211.6371</ele>
        <time>2011-06-12T08:46:12Z</time>
      </trkpt>
      <trkpt lat="45.06163" lon="5.33072">
        <ele>212.058581</ele>
        <time>2011-06-12T08:46:15Z</time>
      </trkpt>
      <trkpt lat="45.06163" lon="5.33066">
        <ele>212.519161</ele>
        <time>2011-06-12T08:46:17Z</time>
      </trkpt>
      <trkpt lat="45.06163" lon="5.33059">
        <ele>212.968928</ele>
        <time>2011-06-12T08:46:19Z</time>
      </trkpt>
      <trkpt lat="45.06162" lon="5.33052">
        <ele>213.413479</ele>
        <time>2011-06-12T08:46:21Z</time>
      </trkpt>
      <trkpt lat="45.0616" lon="5.33042">
        <ele>213.854924</ele>
        <time>2011-06-12T08:46:24Z</time>
      </trkpt>
      <trkpt lat="45.0616" lon="5.33035">
        <ele>214.256442</ele>
        <time>2011-06-12T08:46:26Z</time>
      </trkpt>
      <trkpt lat="45.06158" lon="5.33028">
        <ele>214.608364</ele>
        <time>2011-06-12T08:46:28Z</time>
      </trkpt>
      <trkpt lat="45.06155" lon="5.33018">
        <ele>214.956074</ele>
        <time>2011-06-12T08:46:31Z</time>
      </trkpt>
      <trkpt lat="45.06151" lon="5.33007">
        <ele>215.333248</ele>
        <time>2011-06-12T08:46:34Z</time>
      </trkpt>
      <trkpt lat="45.06151" lon="5.33">
        <ele>215.713129</ele>
        <time>2011-06-12T08:46:36Z</time>
      </trkpt>
      <trkpt lat="45.06149" lon="5.3299">
        <ele>216.083173</ele>
        <time>2011-06-12T08:46:39Z</time>
      </trkpt>
      <trkpt lat="45.06147" lon="5.32983">
        <ele>216.479588</ele>
        <time>2011-06-12T08:46:41Z</time>
      </trkpt>
      <trkpt lat="45.06147" lon="5.32976">
        <ele>216.891653</ele>
        <time>2011-06-12T08:46:43Z</time>
      </trkpt>
      <trkpt lat="45.06146" lon="5.32968">
        <ele>217.287196</ele>
        <time>2011-06-12T08:46:45Z</time>
      </trkpt>
      <trkpt lat="45.06145" lon="5.32961">
        <ele>217.665897</ele>
        <time>2011-06-12T08:46:47Z</time>
      </trkpt>
      <trkpt lat="45.06146" lon="5.32949">
        <ele>218.022901</ele>
        <time>2011-06-12T08:46:50Z</time>
      </trkpt>
      <trkpt lat="45.06148" lon="5.32938">
        <ele>218.349503</ele>
        <time>2011-06-12T08:46:53Z</time>
      </trkpt>
      <trkpt lat="45.06149" lon="5.32931">
        <ele>218.65891</ele>
        <time>2011-06-12T08:46:55Z</time>
      </trkpt>
      <trkpt lat="45.06151" lon="5.32922">
        <ele>218.982258</ele>
        <time>2011-06-12T08:46:58Z</time>
      </trkpt>
      <trkpt lat="45.06152" lon="5.32913">
        <ele>219.357917</ele>
        <time>2011-06-12T08:47:01Z</time>
      </trkpt>
      <trkpt lat="45.06154" lon="5.32904">
        <ele>219.775215</ele>
        <time>2011-06-12T08:47:04Z</time>
      </trkpt>
      <trkpt lat="45.06156" lon="5.32896">
        <ele>220.222236</ele>
        <time>2011-06-12T08:47:07Z</time>
      </trkpt>
      <trkpt lat="45.06158" lon="5.32887">
        <ele>220.746267</ele>
        <time>2011-06-12T08:47:10Z</time>
      </trkpt>
      <trkpt lat="45.06159" lon="5.32875">
        <ele>221.37322</ele>
        <time>2011-06-12T08:47:13Z</time>
      </trkpt>
      <trkpt lat="45.0616" lon="5.32865">
        <ele>222.071795</ele>
        <time>2011-06-12T08:47:16Z</time>
      </trkpt>
      <trkpt lat="45.06161" lon="5.32856">
        <ele>222.815582</ele>
        <time>2011-06-12T08:47:19Z</time>
      </trkpt>
      <trkpt lat="45.06162" lon="5.32847">
        <ele>223.589671</ele>
        <time>2011-06-12T08:47:22Z</time>
      </trkpt>
      <trkpt lat="45.06161" lon="5.32837">
        <ele>224.377879</ele>
        <time>2011-06-12T08:47:25Z</time>
      </trkpt>
      <trkpt lat="45.06163" lon="5.32831">
        <ele>225.165487</ele>
        <time>2011-06-12T08:47:27Z</time>
      </trkpt>
      <trkpt lat="45.06166" lon="5.32822">
        <ele>225.941566</ele>
        <time>2011-06-12T08:47:30Z</time>
      </trkpt>
      <trkpt lat="45.06167" lon="5.32813">
        <ele>226.701246</ele>
        <time>2011-06-12T08:47:33Z</time>
      </trkpt>
      <trkpt lat="45.06169" lon="5.32804">
        <ele>227.412167</ele>
        <time>2011-06-12T08:47:36Z</time>
      </trkpt>
      <trkpt lat="45.06171" lon="5.32795">
        <ele>228.057568</ele>
        <time>2011-06-12T08:47:39Z</time>
      </trkpt>
      <trkpt lat="45.06173" lon="5.32786">
        <ele>228.690558</ele>
        <time>2011-06-12T08:47:42Z</time>
      </trkpt>
      <trkpt lat="45.06176" lon="5.32778">
        <ele>229.355301</ele>
        <time>2011-06-12T08:47:45Z</time>
      </trkpt>
      <trkpt lat="45.06178" lon="5.32772">
        <ele>230.031745</ele>
        <time>2011-06-12T08:47:47Z</time>
      </trkpt>
      <trkpt lat="45.06184" lon="5.32764">
        <ele>230.696873</ele>
        <time>2011-06-12T08:47:50Z</time>
      </trkpt>
      <trkpt lat="45.06189" lon="5.32759">
        <ele>231.346692</ele>
        <time>2011-06-12T08:47:52Z</time>
      </trkpt>
      <trkpt lat="45.06197" lon="5.32751">
        <ele>231.956318</ele>
        <time>2011-06-12T08:47:55Z</time>
      </trkpt>
      <trkpt lat="45.06206" lon="5.32744">
        <ele>232.511982</ele>
        <time>2011-06-12T08:47:58Z</time>
      </trkpt>
      <trkpt lat="45.06212" lon="5.3274">
        <ele>233.034261</ele>
        <time>2011-06-12T08:48:00Z</time>
      </trkpt>
      <trkpt lat="45.06218" lon="5.32736">
        <ele>233.549325</ele>
        <time>2011-06-12T08:48:02Z</time>
      </trkpt>
      <trkpt lat="45.06227" lon="5.32729">
        <ele>234.085146</ele>
        <time>2011-06-12T08:48:05Z</time>
      </trkpt>
      <trkpt lat="45.06236" lon="5.32723">
        <ele>234.631755</ele>
        <time>2011-06-12T08:48:08Z</time>
      </trkpt>
      <trkpt lat="45.06245" lon="5.32717">
        <ele>235.123866</ele>
        <time>2011-06-12T08:48:11Z</time>
      </trkpt>
      <trkpt lat="45.0625" lon="5.32713">
        <ele>235.56216</ele>
        <time>2011-06-12T08:48:13Z</time>
      </trkpt>
      <trkpt lat="45.06259" lon="5.32706">
        <ele>236.013299</ele>
        <time>2011-06-12T08:48:16Z</time>
      </trkpt>
      <trkpt lat="45.06267" lon="5.327">
        <ele>236.50687</ele>
        <time>2011-06-12T08:48:19Z</time>
      </trkpt>
      <trkpt lat="45.06276" lon="5.32694">
        <ele>236.997109</ele>
        <time>2011-06-12T08:48:22Z</time>
      </trkpt>
      <trkpt lat="45.06285" lon="5.32687">
        <ele>237.442314</ele>
        <time>2011-06-12T08:48:25Z</time>
      </trkpt>
      <trkpt lat="45.06295" lon="5.3268">
        <ele>237.863829</ele>
        <time>2011-06-12T08:48:28Z</time>
      </trkpt>
      <trkpt lat="45.06301" lon="5.32675">
        <ele>238.292903</ele>
        <time>2011-06-12T08:48:30Z</time>
      </trkpt>
      <trkpt lat="45.0631" lon="5.32668">
        <ele>238.72362</ele>
        <time>2011-06-12T08:48:33Z</time>
      </trkpt>
      <trkpt lat="45.06321" lon="5.32661">
        <ele>239.147569</ele>
        <time>2011-06-12T08:48:36Z</time>
      </trkpt>
      <trkpt lat="45.06328" lon="5.32657">
        <ele>239.546348</ele>
        <time>2011-06-12T08:48:38Z</time>
      </trkpt>
      <trkpt lat="45.06341" lon="5.3265">
        <ele>239.907876</ele>
        <time>2011-06-12T08:48:41Z</time>
      </trkpt>
      <trkpt lat="45.0635" lon="5.32645">
        <ele>240.519824</ele>
        <time>2011-06-12T08:48:43Z</time>
      </trkpt>
      <trkpt lat="45.06359" lon="5.32639">
        <ele>241.711776</ele>
        <time>2011-06-12T08:48:45Z</time>
      </trkpt>
      <trkpt lat="45.06373" lon="5.32629">
        <ele>243.315052</ele>
        <time>2011-06-12T08:48:48Z</time>
      </trkpt>
      <trkpt lat="45.06386" lon="5.32619">
        <ele>244.838709</ele>
        <time>2011-06-12T08:48:51Z</time>
      </trkpt>
      <trkpt lat="45.06396" lon="5.32613">
        <ele>245.957594</ele>
        <time>2011-06-12T08:48:53Z</time>
      </trkpt>
      <trkpt lat="45.06409" lon="5.32603">
        <ele>246.661976</ele>
        <time>2011-06-12T08:48:56Z</time>
      </trkpt>
      <trkpt lat="45.06418" lon="5.32597">
        <ele>247.172472</ele>
        <time>2011-06-12T08:48:58Z</time>
      </trkpt>
      <trkpt lat="45.06432" lon="5.32587">
        <ele>247.600295</ele>
        <time>2011-06-12T08:49:01Z</time>
      </trkpt>
      <trkpt lat="45.06445" lon="5.32577">
        <ele>247.915737</ele>
        <time>2011-06-12T08:49:04Z</time>
      </trkpt>
      <trkpt lat="45.06454" lon="5.32571">
        <ele>248.104429</ele>
        <time>2011-06-12T08:49:06Z</time>
      </trkpt>
      <trkpt lat="45.06467" lon="5.32562">
        <ele>248.19984</ele>
        <time>2011-06-12T08:49:09Z</time>
      </trkpt>
      <trkpt lat="45.06475" lon="5.32558">
        <ele>248.237213</ele>
        <time>2011-06-12T08:49:11Z</time>
      </trkpt>
      <trkpt lat="45.06483" lon="5.32561">
        <ele>248.245339</ele>
        <time>2011-06-12T08:49:13Z</time>
      </trkpt>
      <trkpt lat="45.06494" lon="5.32574">
        <ele>248.243921</ele>
        <time>2011-06-12T08:49:16Z</time>
      </trkpt>
      <trkpt lat="45.06505" lon="5.32587">
        <ele>248.262132</ele>
        <time>2011-06-12T08:49:19Z</time>
      </trkpt>
      <trkpt lat="45.06513" lon="5.32593">
        <ele>248.34094</ele>
        <time>2011-06-12T08:49:21Z</time>
      </trkpt>
      <trkpt lat="45.06522" lon="5.32604">
        <ele>248.512853</ele>
        <time>2011-06-12T08:49:24Z</time>
      </trkpt>
      <trkpt lat="45.06528" lon="5.32611">
        <ele>248.766852</ele>
        <time>2011-06-12T08:49:26Z</time>
      </trkpt>
      <trkpt lat="45.06536" lon="5.32623">
        <ele>249.037355</ele>
        <time>2011-06-12T08:49:29Z</time>
      </trkpt>
      <trkpt lat="45.06546" lon="5.32634">
        <ele>249.24978</ele>
        <time>2011-06-12T08:49:32Z</time>
      </trkpt>
      <trkpt lat="45.06555" lon="5.32646">
        <ele>249.373184</ele>
        <time>2011-06-12T08:49:35Z</time>
      </trkpt>
      <trkpt lat="45.06565" lon="5.32657">
        <ele>249.464131</ele>
        <time>2011-06-12T08:49:38Z</time>
      </trkpt>
      <trkpt lat="45.06572" lon="5.32664">
        <ele>249.631577</ele>
        <time>2011-06-12T08:49:40Z</time>
      </trkpt>
      <trkpt lat="45.06582" lon="5.32675">
        <ele>249.884312</ele>
        <time>2011-06-12T08:49:43Z</time>
      </trkpt>
      <trkpt lat="45.06593" lon="5.32686">
        <ele>250.117188</ele>
        <time>2011-06-12T08:49:46Z</time>
      </trkpt>
      <trkpt lat="45.066" lon="5.32693">
        <ele>250.258595</ele>
        <time>2011-06-12T08:49:48Z</time>
      </trkpt>
      <trkpt lat="45.06608" lon="5.32701">
        <ele>250.346536</ele>
        <time>2011-06-12T08:49:50Z</time>
      </trkpt>
      <trkpt lat="45.06619" lon="5.32712">
        <ele>250.471437</ele>
        <time>2011-06-12T08:49:53Z</time>
      </trkpt>
      <trkpt lat="45.06627" lon="5.32719">
        <ele>250.64932</ele>
        <time>2011-06-12T08:49:55Z</time>
      </trkpt>
      <trkpt lat="45.06639" lon="5.3273">
        <ele>250.805878</ele>
        <time>2011-06-12T08:49:58Z</time>
      </trkpt>
      <trkpt lat="45.06647" lon="5.32737">
        <ele>250.892509</ele>
        <time>2011-06-12T08:50:00Z</time>
      </trkpt>
      <trkpt lat="45.06655" lon="5.32744">
        <ele>250.925126</ele>
        <time>2011-06-12T08:50:02Z</time>
      </trkpt>
      <trkpt lat="45.06662" lon="5.32752">
        <ele>250.954031</ele>
        <time>2011-06-12T08:50:04Z</time>
      </trkpt>
      <trkpt lat="45.0667" lon="5.32759">
        <ele>251.031359</ele>
        <time>2011-06-12T08:50:06Z</time>
      </trkpt>
      <trkpt lat="45.06681" lon="5.32768">
        <ele>251.17187</ele>
        <time>2011-06-12T08:50:09Z</time>
      </trkpt>
      <trkpt lat="45.06688" lon="5.32774">
        <ele>251.355616</ele>
        <time>2011-06-12T08:50:11Z</time>
      </trkpt>
      <trkpt lat="45.06698" lon="5.32785">
        <ele>251.562451</ele>
        <time>2011-06-12T08:50:14Z</time>
      </trkpt>
      <trkpt lat="45.06705" lon="5.32791">
        <ele>251.78993</ele>
        <time>2011-06-12T08:50:16Z</time>
      </trkpt>
      <trkpt lat="45.06715" lon="5.328">
        <ele>252.044112</ele>
        <time>2011-06-12T08:50:19Z</time>
      </trkpt>
      <trkpt lat="45.06722" lon="5.32806">
        <ele>252.298214</ele>
        <time>2011-06-12T08:50:21Z</time>
      </trkpt>
      <trkpt lat="45.06731" lon="5.32815">
        <ele>252.490487</ele>
        <time>2011-06-12T08:50:24Z</time>
      </trkpt>
      <trkpt lat="45.06741" lon="5.32826">
        <ele>252.597875</ele>
        <time>2011-06-12T08:50:27Z</time>
      </trkpt>
      <trkpt lat="45.06748" lon="5.32833">
        <ele>252.648114</ele>
        <time>2011-06-12T08:50:29Z</time>
      </trkpt>
      <trkpt lat="45.06758" lon="5.32843">
        <ele>252.67339</ele>
        <time>2011-06-12T08:50:32Z</time>
      </trkpt>
      <trkpt lat="45.06768" lon="5.32853">
        <ele>252.735721</ele>
        <time>2011-06-12T08:50:35Z</time>
      </trkpt>
      <trkpt lat="45.06778" lon="5.32862">
        <ele>252.909515</ele>
        <time>2011-06-12T08:50:38Z</time>
      </trkpt>
      <trkpt lat="45.06788" lon="5.32868">
        <ele>253.223177</ele>
        <time>2011-06-12T08:50:41Z</time>
      </trkpt>
      <trkpt lat="45.06799" lon="5.32872">
        <ele>253.648454</ele>
        <time>2011-06-12T08:50:44Z</time>
      </trkpt>
      <trkpt lat="45.0681" lon="5.32872">
        <ele>254.149381</ele>
        <time>2011-06-12T08:50:47Z</time>
      </trkpt>
      <trkpt lat="45.0682" lon="5.32873">
        <ele>254.682929</ele>
        <time>2011-06-12T08:50:50Z</time>
      </trkpt>
      <trkpt lat="45.06827" lon="5.32872">
        <ele>255.184497</ele>
        <time>2011-06-12T08:50:52Z</time>
      </trkpt>
      <trkpt lat="45.06832" lon="5.32872">
        <ele>255.579748</ele>
        <time>2011-06-12T08:50:54Z</time>
      </trkpt>
      <trkpt lat="45.06837" lon="5.32873">
        <ele>255.825737</ele>
        <time>2011-06-12T08:50:56Z</time>
      </trkpt>
      <trkpt lat="45.06841" lon="5.32875">
        <ele>255.933686</ele>
        <time>2011-06-12T08:50:59Z</time>
      </trkpt>
      <trkpt lat="45.06841" lon="5.32875">
        <ele>255.962882</ele>
        <time>2011-06-12T08:51:03Z</time>
      </trkpt>
      <trkpt lat="45.06841" lon="5.32875">
        <ele>255.960582</ele>
        <time>2011-06-12T08:51:28Z</time>
      </trkpt>
      <trkpt lat="45.06858" lon="5.3288">
        <ele>255.957475</ele>
        <time>2011-06-12T08:51:47Z</time>
      </trkpt>
      <trkpt lat="45.06867" lon="5.3288">
        <ele>255.97793</ele>
        <time>2011-06-12T08:51:50Z</time>
      </trkpt>
      <trkpt lat="45.06873" lon="5.32881">
        <ele>256.039914</ele>
        <time>2011-06-12T08:51:52Z</time>
      </trkpt>
      <trkpt lat="45.06879" lon="5.32882">
        <ele>256.371707</ele>
        <time>2011-06-12T08:51:54Z</time>
      </trkpt>
      <trkpt lat="45.06888" lon="5.32882">
        <ele>257.101535</ele>
        <time>2011-06-12T08:51:57Z</time>
      </trkpt>
      <trkpt lat="45.06898" lon="5.32884">
        <ele>257.869462</ele>
        <time>2011-06-12T08:52:00Z</time>
      </trkpt>
      <trkpt lat="45.06909" lon="5.32883">
        <ele>258.320787</ele>
        <time>2011-06-12T08:52:03Z</time>
      </trkpt>
      <trkpt lat="45.06916" lon="5.32883">
        <ele>258.515362</ele>
        <time>2011-06-12T08:52:05Z</time>
      </trkpt>
      <trkpt lat="45.06924" lon="5.32882">
        <ele>258.624355</ele>
        <time>2011-06-12T08:52:07Z</time>
      </trkpt>
      <trkpt lat="45.06931" lon="5.32884">
        <ele>258.76953</ele>
        <time>2011-06-12T08:52:09Z</time>
      </trkpt>
      <trkpt lat="45.06938" lon="5.32883">
        <ele>258.972316</ele>
        <time>2011-06-12T08:52:11Z</time>
      </trkpt>
      <trkpt lat="45.06943" lon="5.32885">
        <ele>259.196874</ele>
        <time>2011-06-12T08:52:13Z</time>
      </trkpt>
      <trkpt lat="45.06951" lon="5.32887">
        <ele>259.420784</ele>
        <time>2011-06-12T08:52:16Z</time>
      </trkpt>
      <trkpt lat="45.06956" lon="5.32888">
        <ele>259.640103</ele>
        <time>2011-06-12T08:52:18Z</time>
      </trkpt>
      <trkpt lat="45.06962" lon="5.32889">
        <ele>259.851134</ele>
        <time>2011-06-12T08:52:20Z</time>
      </trkpt>
      <trkpt lat="45.0697" lon="5.32889">
        <ele>260.072563</ele>
        <time>2011-06-12T08:52:23Z</time>
      </trkpt>
      <trkpt lat="45.06975" lon="5.32888">
        <ele>260.321334</ele>
        <time>2011-06-12T08:52:25Z</time>
      </trkpt>
      <trkpt lat="45.06981" lon="5.32888">
        <ele>260.575169</ele>
        <time>2011-06-12T08:52:27Z</time>
      </trkpt>
      <trkpt lat="45.0699" lon="5.32888">
        <ele>260.81841</ele>
        <time>2011-06-12T08:52:30Z</time>
      </trkpt>
      <trkpt lat="45.06997" lon="5.32888">
        <ele>261.055593</ele>
        <time>2011-06-12T08:52:32Z</time>
      </trkpt>
      <trkpt lat="45.07007" lon="5.32888">
        <ele>261.269454</ele>
        <time>2011-06-12T08:52:35Z</time>
      </trkpt>
      <trkpt lat="45.07017" lon="5.32886">
        <ele>261.457649</ele>
        <time>2011-06-12T08:52:38Z</time>
      </trkpt>
      <trkpt lat="45.07023" lon="5.32886">
        <ele>261.645388</ele>
        <time>2011-06-12T08:52:40Z</time>
      </trkpt>
      <trkpt lat="45.07033" lon="5.32885">
        <ele>261.854638</ele>
        <time>2011-06-12T08:52:43Z</time>
      </trkpt>
      <trkpt lat="45.07039" lon="5.32885">
        <ele>262.105527</ele>
        <time>2011-06-12T08:52:45Z</time>
      </trkpt>
      <trkpt lat="45.07049" lon="5.32885">
        <ele>262.390811</ele>
        <time>2011-06-12T08:52:48Z</time>
      </trkpt>
      <trkpt lat="45.07056" lon="5.32885">
        <ele>262.683595</ele>
        <time>2011-06-12T08:52:50Z</time>
      </trkpt>
      <trkpt lat="45.07065" lon="5.32885">
        <ele>262.969206</ele>
        <time>2011-06-12T08:52:53Z</time>
      </trkpt>
      <trkpt lat="45.07074" lon="5.32885">
        <ele>263.247349</ele>
        <time>2011-06-12T08:52:56Z</time>
      </trkpt>
      <trkpt lat="45.0708" lon="5.32886">
        <ele>263.520192</ele>
        <time>2011-06-12T08:52:58Z</time>
      </trkpt>
      <trkpt lat="45.07087" lon="5.32887">
        <ele>263.793273</ele>
        <time>2011-06-12T08:53:00Z</time>
      </trkpt>
      <trkpt lat="45.07096" lon="5.32888">
        <ele>264.078931</ele>
        <time>2011-06-12T08:53:03Z</time>
      </trkpt>
      <trkpt lat="45.07106" lon="5.32888">
        <ele>264.372396</ele>
        <time>2011-06-12T08:53:06Z</time>
      </trkpt>
      <trkpt lat="45.07112" lon="5.32889">
        <ele>264.639173</ele>
        <time>2011-06-12T08:53:08Z</time>
      </trkpt>
      <trkpt lat="45.07123" lon="5.3289">
        <ele>264.882708</ele>
        <time>2011-06-12T08:53:11Z</time>
      </trkpt>
      <trkpt lat="45.07134" lon="5.3289">
        <ele>265.143699</ele>
        <time>2011-06-12T08:53:14Z</time>
      </trkpt>
      <trkpt lat="45.07142" lon="5.3289">
        <ele>265.426329</ele>
        <time>2011-06-12T08:53:16Z</time>
      </trkpt>
      <trkpt lat="45.0715" lon="5.3289">
        <ele>265.710512</ele>
        <time>2011-06-12T08:53:18Z</time>
      </trkpt>
      <trkpt lat="45.0716" lon="5.32891">
        <ele>266.003835</ele>
        <time>2011-06-12T08:53:21Z</time>
      </trkpt>
      <trkpt lat="45.07166" lon="5.32894">
        <ele>266.544407</ele>
        <time>2011-06-12T08:53:23Z</time>
      </trkpt>
      <trkpt lat="45.07178" lon="5.329">
        <ele>267.591137</ele>
        <time>2011-06-12T08:53:26Z</time>
      </trkpt>
      <trkpt lat="45.07189" lon="5.3291">
        <ele>268.899591</ele>
        <time>2011-06-12T08:53:29Z</time>
      </trkpt>
      <trkpt lat="45.07197" lon="5.32921">
        <ele>269.917988</ele>
        <time>2011-06-12T08:53:32Z</time>
      </trkpt>
      <trkpt lat="45.07207" lon="5.32932">
        <ele>270.547675</ele>
        <time>2011-06-12T08:53:35Z</time>
      </trkpt>
      <trkpt lat="45.07213" lon="5.32938">
        <ele>271.056599</ele>
        <time>2011-06-12T08:53:37Z</time>
      </trkpt>
      <trkpt lat="45.07218" lon="5.32944">
        <ele>271.508741</ele>
        <time>2011-06-12T08:53:39Z</time>
      </trkpt>
      <trkpt lat="45.07227" lon="5.32957">
        <ele>271.764168</ele>
        <time>2011-06-12T08:53:42Z</time>
      </trkpt>
      <trkpt lat="45.07238" lon="5.32968">
        <ele>271.828612</ele>
        <time>2011-06-12T08:53:45Z</time>
      </trkpt>
      <trkpt lat="45.07246" lon="5.32974">
        <ele>271.808193</ele>
        <time>2011-06-12T08:53:47Z</time>
      </trkpt>
      <trkpt lat="45.07255" lon="5.32979">
        <ele>271.778783</ele>
        <time>2011-06-12T08:53:49Z</time>
      </trkpt>
      <trkpt lat="45.07263" lon="5.32983">
        <ele>271.788537</ele>
        <time>2011-06-12T08:53:51Z</time>
      </trkpt>
      <trkpt lat="45.07273" lon="5.32989">
        <ele>271.904857</ele>
        <time>2011-06-12T08:53:54Z</time>
      </trkpt>
      <trkpt lat="45.07284" lon="5.32993">
        <ele>272.153066</ele>
        <time>2011-06-12T08:53:57Z</time>
      </trkpt>
      <trkpt lat="45.07294" lon="5.32989">
        <ele>272.442457</ele>
        <time>2011-06-12T08:54:00Z</time>
      </trkpt>
      <trkpt lat="45.07302" lon="5.32985">
        <ele>272.655952</ele>
        <time>2011-06-12T08:54:02Z</time>
      </trkpt>
      <trkpt lat="45.07316" lon="5.3298">
        <ele>272.772433</ele>
        <time>2011-06-12T08:54:05Z</time>
      </trkpt>
      <trkpt lat="45.07329" lon="5.32975">
        <ele>272.886845</ele>
        <time>2011-06-12T08:54:08Z</time>
      </trkpt>
      <trkpt lat="45.07343" lon="5.32976">
        <ele>273.110848</ele>
        <time>2011-06-12T08:54:11Z</time>
      </trkpt>
      <trkpt lat="45.07351" lon="5.32981">
        <ele>273.448464</ele>
        <time>2011-06-12T08:54:13Z</time>
      </trkpt>
      <trkpt lat="45.07363" lon="5.32987">
        <ele>273.838532</ele>
        <time>2011-06-12T08:54:16Z</time>
      </trkpt>
      <trkpt lat="45.07378" lon="5.32997">
        <ele>274.267848</ele>
        <time>2011-06-12T08:54:19Z</time>
      </trkpt>
      <trkpt lat="45.0739" lon="5.33003">
        <ele>274.6925</ele>
        <time>2011-06-12T08:54:21Z</time>
      </trkpt>
      <trkpt lat="45.07406" lon="5.33013">
        <ele>274.992513</ele>
        <time>2011-06-12T08:54:24Z</time>
      </trkpt>
      <trkpt lat="45.07417" lon="5.33026">
        <ele>275.113135</ele>
        <time>2011-06-12T08:54:27Z</time>
      </trkpt>
      <trkpt lat="45.07424" lon="5.33037">
        <ele>275.118358</ele>
        <time>2011-06-12T08:54:29Z</time>
      </trkpt>
      <trkpt lat="45.0743" lon="5.33051">
        <ele>274.853022</ele>
        <time>2011-06-12T08:54:31Z</time>
      </trkpt>
      <trkpt lat="45.07441" lon="5.33067">
        <ele>274.168132</ele>
        <time>2011-06-12T08:54:34Z</time>
      </trkpt>
      <trkpt lat="45.07448" lon="5.33074">
        <ele>273.403576</ele>
        <time>2011-06-12T08:54:36Z</time>
      </trkpt>
      <trkpt lat="45.07464" lon="5.33078">
        <ele>272.975083</ele>
        <time>2011-06-12T08:54:39Z</time>
      </trkpt>
      <trkpt lat="45.0748" lon="5.33074">
        <ele>272.87071</ele>
        <time>2011-06-12T08:54:42Z</time>
      </trkpt>
      <trkpt lat="45.07491" lon="5.33069">
        <ele>272.944413</ele>
        <time>2011-06-12T08:54:44Z</time>
      </trkpt>
      <trkpt lat="45.07507" lon="5.33064">
        <ele>273.253613</ele>
        <time>2011-06-12T08:54:47Z</time>
      </trkpt>
      <trkpt lat="45.07519" lon="5.33062">
        <ele>273.856655</ele>
        <time>2011-06-12T08:54:49Z</time>
      </trkpt>
      <trkpt lat="45.0753" lon="5.33062">
        <ele>274.533478</ele>
        <time>2011-06-12T08:54:51Z</time>
      </trkpt>
      <trkpt lat="45.07539" lon="5.33067">
        <ele>275.015018</ele>
        <time>2011-06-12T08:54:53Z</time>
      </trkpt>
      <trkpt lat="45.07547" lon="5.33072">
        <ele>275.235412</ele>
        <time>2011-06-12T08:54:55Z</time>
      </trkpt>
      <trkpt lat="45.07557" lon="5.3308">
        <ele>275.218481</ele>
        <time>2011-06-12T08:54:58Z</time>
      </trkpt>
      <trkpt lat="45.07565" lon="5.33088">
        <ele>275.05874</ele>
        <time>2011-06-12T08:55:01Z</time>
      </trkpt>
      <trkpt lat="45.07574" lon="5.33095">
        <ele>274.825102</ele>
        <time>2011-06-12T08:55:04Z</time>
      </trkpt>
      <trkpt lat="45.07579" lon="5.331">
        <ele>274.535943</ele>
        <time>2011-06-12T08:55:06Z</time>
      </trkpt>
      <trkpt lat="45.07587" lon="5.33105">
        <ele>274.233941</ele>
        <time>2011-06-12T08:55:09Z</time>
      </trkpt>
      <trkpt lat="45.07595" lon="5.3311">
        <ele>273.973124</ele>
        <time>2011-06-12T08:55:12Z</time>
      </trkpt>
      <trkpt lat="45.07602" lon="5.33116">
        <ele>273.760511</ele>
        <time>2011-06-12T08:55:15Z</time>
      </trkpt>
      <trkpt lat="45.07607" lon="5.3312">
        <ele>273.602954</ele>
        <time>2011-06-12T08:55:17Z</time>
      </trkpt>
      <trkpt lat="45.07614" lon="5.33126">
        <ele>273.484965</ele>
        <time>2011-06-12T08:55:20Z</time>
      </trkpt>
      <trkpt lat="45.0762" lon="5.33129">
        <ele>273.380261</ele>
        <time>2011-06-12T08:55:22Z</time>
      </trkpt>
      <trkpt lat="45.07626" lon="5.33134">
        <ele>273.282102</ele>
        <time>2011-06-12T08:55:25Z</time>
      </trkpt>
      <trkpt lat="45.07631" lon="5.33139">
        <ele>273.197391</ele>
        <time>2011-06-12T08:55:28Z</time>
      </trkpt>
      <trkpt lat="45.07637" lon="5.33143">
        <ele>273.131186</ele>
        <time>2011-06-12T08:55:31Z</time>
      </trkpt>
      <trkpt lat="45.07643" lon="5.33145">
        <ele>273.081927</ele>
        <time>2011-06-12T08:55:34Z</time>
      </trkpt>
      <trkpt lat="45.07648" lon="5.33149">
        <ele>273.04864</ele>
        <time>2011-06-12T08:55:37Z</time>
      </trkpt>
      <trkpt lat="45.07653" lon="5.33155">
        <ele>273.032062</ele>
        <time>2011-06-12T08:55:40Z</time>
      </trkpt>
      <trkpt lat="45.07659" lon="5.3316">
        <ele>273.029079</ele>
        <time>2011-06-12T08:55:43Z</time>
      </trkpt>
      <trkpt lat="45.07665" lon="5.33164">
        <ele>273.035609</ele>
        <time>2011-06-12T08:55:46Z</time>
      </trkpt>
      <trkpt lat="45.07672" lon="5.3317">
        <ele>273.068611</ele>
        <time>2011-06-12T08:55:49Z</time>
      </trkpt>
      <trkpt lat="45.07679" lon="5.33175">
        <ele>273.160807</ele>
        <time>2011-06-12T08:55:52Z</time>
      </trkpt>
      <trkpt lat="45.07686" lon="5.33182">
        <ele>273.321506</ele>
        <time>2011-06-12T08:55:55Z</time>
      </trkpt>
      <trkpt lat="45.07691" lon="5.3319">
        <ele>273.527683</ele>
        <time>2011-06-12T08:55:58Z</time>
      </trkpt>
      <trkpt lat="45.07698" lon="5.33198">
        <ele>273.764027</ele>
        <time>2011-06-12T08:56:01Z</time>
      </trkpt>
      <trkpt lat="45.07704" lon="5.33206">
        <ele>274.041669</ele>
        <time>2011-06-12T08:56:04Z</time>
      </trkpt>
      <trkpt lat="45.07711" lon="5.33214">
        <ele>274.366383</ele>
        <time>2011-06-12T08:56:07Z</time>
      </trkpt>
      <trkpt lat="45.07718" lon="5.33222">
        <ele>274.719885</ele>
        <time>2011-06-12T08:56:10Z</time>
      </trkpt>
      <trkpt lat="45.07722" lon="5.33228">
        <ele>275.088359</ele>
        <time>2011-06-12T08:56:12Z</time>
      </trkpt>
      <trkpt lat="45.07726" lon="5.33232">
        <ele>275.47706</ele>
        <time>2011-06-12T08:56:14Z</time>
      </trkpt>
      <trkpt lat="45.07731" lon="5.33236">
        <ele>275.886407</ele>
        <time>2011-06-12T08:56:16Z</time>
      </trkpt>
      <trkpt lat="45.07736" lon="5.33238">
        <ele>276.283627</ele>
        <time>2011-06-12T08:56:18Z</time>
      </trkpt>
      <trkpt lat="45.07742" lon="5.33241">
        <ele>276.625451</ele>
        <time>2011-06-12T08:56:21Z</time>
      </trkpt>
      <trkpt lat="45.07748" lon="5.33247">
        <ele>276.907419</ele>
        <time>2011-06-12T08:56:24Z</time>
      </trkpt>
      <trkpt lat="45.07753" lon="5.33252">
        <ele>277.158405</ele>
        <time>2011-06-12T08:56:27Z</time>
      </trkpt>
      <trkpt lat="45.07759" lon="5.33256">
        <ele>277.41745</ele>
        <time>2011-06-12T08:56:30Z</time>
      </trkpt>
      <trkpt lat="45.07765" lon="5.33259">
        <ele>277.725377</ele>
        <time>2011-06-12T08:56:33Z</time>
      </trkpt>
      <trkpt lat="45.07769" lon="5.33262">
        <ele>278.095506</ele>
        <time>2011-06-12T08:56:35Z</time>
      </trkpt>
      <trkpt lat="45.07775" lon="5.33266">
        <ele>278.506813</ele>
        <time>2011-06-12T08:56:38Z</time>
      </trkpt>
      <trkpt lat="45.07782" lon="5.33268">
        <ele>278.932246</ele>
        <time>2011-06-12T08:56:41Z</time>
      </trkpt>
      <trkpt lat="45.07787" lon="5.3327">
        <ele>279.342544</ele>
        <time>2011-06-12T08:56:44Z</time>
      </trkpt>
      <trkpt lat="45.07793" lon="5.3327">
        <ele>279.741277</ele>
        <time>2011-06-12T08:56:46Z</time>
      </trkpt>
      <trkpt lat="45.07797" lon="5.33269">
        <ele>280.1709</ele>
        <time>2011-06-12T08:56:48Z</time>
      </trkpt>
      <trkpt lat="45.07805" lon="5.33271">
        <ele>280.646763</ele>
        <time>2011-06-12T08:56:51Z</time>
      </trkpt>
      <trkpt lat="45.07812" lon="5.33271">
        <ele>281.116987</ele>
        <time>2011-06-12T08:56:54Z</time>
      </trkpt>
      <trkpt lat="45.0782" lon="5.3327">
        <ele>281.518503</ele>
        <time>2011-06-12T08:56:57Z</time>
      </trkpt>
      <trkpt lat="45.07828" lon="5.3327">
        <ele>281.858687</ele>
        <time>2011-06-12T08:57:00Z</time>
      </trkpt>
      <trkpt lat="45.07833" lon="5.3327">
        <ele>282.200007</ele>
        <time>2011-06-12T08:57:02Z</time>
      </trkpt>
      <trkpt lat="45.07839" lon="5.33271">
        <ele>282.563283</ele>
        <time>2011-06-12T08:57:04Z</time>
      </trkpt>
      <trkpt lat="45.07844" lon="5.33271">
        <ele>282.925183</ele>
        <time>2011-06-12T08:57:06Z</time>
      </trkpt>
      <trkpt lat="45.07853" lon="5.33271">
        <ele>283.252581</ele>
        <time>2011-06-12T08:57:09Z</time>
      </trkpt>
      <trkpt lat="45.07858" lon="5.33273">
        <ele>283.519719</ele>
        <time>2011-06-12T08:57:11Z</time>
      </trkpt>
      <trkpt lat="45.07862" lon="5.33273">
        <ele>283.737436</ele>
        <time>2011-06-12T08:57:13Z</time>
      </trkpt>
      <trkpt lat="45.0787" lon="5.33273">
        <ele>283.958179</ele>
        <time>2011-06-12T08:57:16Z</time>
      </trkpt>
      <trkpt lat="45.07874" lon="5.33274">
        <ele>284.216777</ele>
        <time>2011-06-12T08:57:18Z</time>
      </trkpt>
      <trkpt lat="45.07879" lon="5.33276">
        <ele>284.495749</ele>
        <time>2011-06-12T08:57:20Z</time>
      </trkpt>
      <trkpt lat="45.07884" lon="5.33277">
        <ele>284.784465</ele>
        <time>2011-06-12T08:57:22Z</time>
      </trkpt>
      <trkpt lat="45.07891" lon="5.33277">
        <ele>285.089979</ele>
        <time>2011-06-12T08:57:25Z</time>
      </trkpt>
      <trkpt lat="45.07898" lon="5.33279">
        <ele>285.388516</ele>
        <time>2011-06-12T08:57:28Z</time>
      </trkpt>
      <trkpt lat="45.07904" lon="5.33282">
        <ele>285.656985</ele>
        <time>2011-06-12T08:57:31Z</time>
      </trkpt>
      <trkpt lat="45.0791" lon="5.33284">
        <ele>285.919774</ele>
        <time>2011-06-12T08:57:34Z</time>
      </trkpt>
      <trkpt lat="45.07917" lon="5.33287">
        <ele>286.216507</ele>
        <time>2011-06-12T08:57:37Z</time>
      </trkpt>
      <trkpt lat="45.07923" lon="5.33289">
        <ele>286.555761</ele>
        <time>2011-06-12T08:57:40Z</time>
      </trkpt>
      <trkpt lat="45.07928" lon="5.33292">
        <ele>286.91609</ele>
        <time>2011-06-12T08:57:43Z</time>
      </trkpt>
      <trkpt lat="45.07934" lon="5.33294">
        <ele>287.279441</ele>
        <time>2011-06-12T08:57:46Z</time>
      </trkpt>
      <trkpt lat="45.07939" lon="5.33297">
        <ele>287.639926</ele>
        <time>2011-06-12T08:57:49Z</time>
      </trkpt>
      <trkpt lat="45.07945" lon="5.333">
        <ele>287.999492</ele>
        <time>2011-06-12T08:57:52Z</time>
      </trkpt>
      <trkpt lat="45.07951" lon="5.33302">
        <ele>288.361435</ele>
        <time>2011-06-12T08:57:55Z</time>
      </trkpt>
      <trkpt lat="45.07958" lon="5.33304">
        <ele>288.728599</ele>
        <time>2011-06-12T08:57:58Z</time>
      </trkpt>
      <trkpt lat="45.07964" lon="5.33307">
        <ele>289.10562</ele>
        <time>2011-06-12T08:58:01Z</time>
      </trkpt>
      <trkpt lat="45.0797" lon="5.3331">
        <ele>289.495544</ele>
        <time>2011-06-12T08:58:04Z</time>
      </trkpt>
      <trkpt lat="45.07975" lon="5.33312">
        <ele>289.89662</ele>
        <time>2011-06-12T08:58:06Z</time>
      </trkpt>
      <trkpt lat="45.07979" lon="5.33314">
        <ele>290.30877</ele>
        <time>2011-06-12T08:58:08Z</time>
      </trkpt>
      <trkpt lat="45.07985" lon="5.33318">
        <ele>290.734113</ele>
        <time>2011-06-12T08:58:11Z</time>
      </trkpt>
      <trkpt lat="45.07989" lon="5.33325">
        <ele>291.150064</ele>
        <time>2011-06-12T08:58:14Z</time>
      </trkpt>
      <trkpt lat="45.07994" lon="5.33331">
        <ele>291.520159</ele>
        <time>2011-06-12T08:58:17Z</time>
      </trkpt>
      <trkpt lat="45.07999" lon="5.33338">
        <ele>291.86232</ele>
        <time>2011-06-12T08:58:20Z</time>
      </trkpt>
      <trkpt lat="45.08003" lon="5.33345">
        <ele>292.239996</ele>
        <time>2011-06-12T08:58:23Z</time>
      </trkpt>
      <trkpt lat="45.08006" lon="5.33351">
        <ele>292.678915</ele>
        <time>2011-06-12T08:58:25Z</time>
      </trkpt>
      <trkpt lat="45.08008" lon="5.33358">
        <ele>293.154793</ele>
        <time>2011-06-12T08:58:27Z</time>
      </trkpt>
      <trkpt lat="45.08012" lon="5.33368">
        <ele>293.637286</ele>
        <time>2011-06-12T08:58:30Z</time>
      </trkpt>
      <trkpt lat="45.08017" lon="5.33377">
        <ele>294.090814</ele>
        <time>2011-06-12T08:58:33Z</time>
      </trkpt>
      <trkpt lat="45.0802" lon="5.33383">
        <ele>294.482085</ele>
        <time>2011-06-12T08:58:35Z</time>
      </trkpt>
      <trkpt lat="45.08023" lon="5.33389">
        <ele>294.838447</ele>
        <time>2011-06-12T08:58:37Z</time>
      </trkpt>
      <trkpt lat="45.08027" lon="5.33397">
        <ele>295.23025</ele>
        <time>2011-06-12T08:58:40Z</time>
      </trkpt>
      <trkpt lat="45.08031" lon="5.33402">
        <ele>295.658923</ele>
        <time>2011-06-12T08:58:42Z</time>
      </trkpt>
      <trkpt lat="45.08035" lon="5.33407">
        <ele>296.061408</ele>
        <time>2011-06-12T08:58:44Z</time>
      </trkpt>
      <trkpt lat="45.0804" lon="5.33414">
        <ele>296.42822</ele>
        <time>2011-06-12T08:58:47Z</time>
      </trkpt>
      <trkpt lat="45.08045" lon="5.33422">
        <ele>296.78887</ele>
        <time>2011-06-12T08:58:50Z</time>
      </trkpt>
      <trkpt lat="45.0805" lon="5.33427">
        <ele>297.133946</ele>
        <time>2011-06-12T08:58:53Z</time>
      </trkpt>
      <trkpt lat="45.08055" lon="5.33434">
        <ele>297.466962</ele>
        <time>2011-06-12T08:58:56Z</time>
      </trkpt>
      <trkpt lat="45.0806" lon="5.33438">
        <ele>297.831645</ele>
        <time>2011-06-12T08:58:59Z</time>
      </trkpt>
      <trkpt lat="45.08064" lon="5.33442">
        <ele>298.244064</ele>
        <time>2011-06-12T08:59:01Z</time>
      </trkpt>
      <trkpt lat="45.08068" lon="5.33447">
        <ele>298.689441</ele>
        <time>2011-06-12T08:59:03Z</time>
      </trkpt>
      <trkpt lat="45.08073" lon="5.33452">
        <ele>299.156374</ele>
        <time>2011-06-12T08:59:06Z</time>
      </trkpt>
      <trkpt lat="45.08078" lon="5.33458">
        <ele>299.616529</ele>
        <time>2011-06-12T08:59:09Z</time>
      </trkpt>
      <trkpt lat="45.08083" lon="5.33464">
        <ele>300.031121</ele>
        <time>2011-06-12T08:59:12Z</time>
      </trkpt>
      <trkpt lat="45.08088" lon="5.33469">
        <ele>300.422783</ele>
        <time>2011-06-12T08:59:15Z</time>
      </trkpt>
      <trkpt lat="45.08093" lon="5.33474">
        <ele>300.860518</ele>
        <time>2011-06-12T08:59:18Z</time>
      </trkpt>
      <trkpt lat="45.08097" lon="5.33477">
        <ele>301.360207</ele>
        <time>2011-06-12T08:59:20Z</time>
      </trkpt>
      <trkpt lat="45.08103" lon="5.33484">
        <ele>301.880244</ele>
        <time>2011-06-12T08:59:23Z</time>
      </trkpt>
      <trkpt lat="45.08109" lon="5.33489">
        <ele>302.382533</ele>
        <time>2011-06-12T08:59:26Z</time>
      </trkpt>
      <trkpt lat="45.08114" lon="5.33493">
        <ele>302.833222</ele>
        <time>2011-06-12T08:59:29Z</time>
      </trkpt>
      <trkpt lat="45.08119" lon="5.33497">
        <ele>303.224981</ele>
        <time>2011-06-12T08:59:32Z</time>
      </trkpt>
      <trkpt lat="45.08125" lon="5.335">
        <ele>303.601082</ele>
        <time>2011-06-12T08:59:35Z</time>
      </trkpt>
      <trkpt lat="45.08131" lon="5.33504">
        <ele>304.000004</ele>
        <time>2011-06-12T08:59:38Z</time>
      </trkpt>
      <trkpt lat="45.08138" lon="5.33508">
        <ele>304.41494</ele>
        <time>2011-06-12T08:59:41Z</time>
      </trkpt>
      <trkpt lat="45.08142" lon="5.3351">
        <ele>304.829699</ele>
        <time>2011-06-12T08:59:43Z</time>
      </trkpt>
      <trkpt lat="45.08148" lon="5.33515">
        <ele>305.237948</ele>
        <time>2011-06-12T08:59:46Z</time>
      </trkpt>
      <trkpt lat="45.08155" lon="5.33519">
        <ele>305.640454</ele>
        <time>2011-06-12T08:59:49Z</time>
      </trkpt>
      <trkpt lat="45.08161" lon="5.33524">
        <ele>306.020832</ele>
        <time>2011-06-12T08:59:52Z</time>
      </trkpt>
      <trkpt lat="45.08167" lon="5.33531">
        <ele>306.372155</ele>
        <time>2011-06-12T08:59:55Z</time>
      </trkpt>
      <trkpt lat="45.08171" lon="5.33536">
        <ele>306.725766</ele>
        <time>2011-06-12T08:59:57Z</time>
      </trkpt>
      <trkpt lat="45.08176" lon="5.33541">
        <ele>307.106175</ele>
        <time>2011-06-12T09:00:00Z</time>
      </trkpt>
      <trkpt lat="45.08181" lon="5.33546">
        <ele>307.503636</ele>
        <time>2011-06-12T09:00:03Z</time>
      </trkpt>
      <trkpt lat="45.08186" lon="5.33551">
        <ele>307.893161</ele>
        <time>2011-06-12T09:00:06Z</time>
      </trkpt>
      <trkpt lat="45.08192" lon="5.33555">
        <ele>308.274965</ele>
        <time>2011-06-12T09:00:09Z</time>
      </trkpt>
      <trkpt lat="45.08197" lon="5.33558">
        <ele>308.695184</ele>
        <time>2011-06-12T09:00:12Z</time>
      </trkpt>
      <trkpt lat="45.08202" lon="5.33562">
        <ele>309.185646</ele>
        <time>2011-06-12T09:00:15Z</time>
      </trkpt>
      <trkpt lat="45.08208" lon="5.33565">
        <ele>309.726465</ele>
        <time>2011-06-12T09:00:18Z</time>
      </trkpt>
      <trkpt lat="45.08214" lon="5.33567">
        <ele>310.282502</ele>
        <time>2011-06-12T09:00:21Z</time>
      </trkpt>
      <trkpt lat="45.08221" lon="5.33569">
        <ele>310.826353</ele>
        <time>2011-06-12T09:00:24Z</time>
      </trkpt>
      <trkpt lat="45.08225" lon="5.3357">
        <ele>311.345381</ele>
        <time>2011-06-12T09:00:26Z</time>
      </trkpt>
      <trkpt lat="45.08232" lon="5.33571">
        <ele>311.837425</ele>
        <time>2011-06-12T09:00:29Z</time>
      </trkpt>
      <trkpt lat="45.08239" lon="5.33572">
        <ele>312.304434</ele>
        <time>2011-06-12T09:00:32Z</time>
      </trkpt>
      <trkpt lat="45.08246" lon="5.33572">
        <ele>312.729686</ele>
        <time>2011-06-12T09:00:35Z</time>
      </trkpt>
      <trkpt lat="45.08254" lon="5.33573">
        <ele>313.10316</ele>
        <time>2011-06-12T09:00:38Z</time>
      </trkpt>
      <trkpt lat="45.08261" lon="5.33574">
        <ele>313.452922</ele>
        <time>2011-06-12T09:00:41Z</time>
      </trkpt>
      <trkpt lat="45.08267" lon="5.33574">
        <ele>313.807749</ele>
        <time>2011-06-12T09:00:44Z</time>
      </trkpt>
      <trkpt lat="45.08272" lon="5.33574">
        <ele>314.169314</ele>
        <time>2011-06-12T09:00:47Z</time>
      </trkpt>
      <trkpt lat="45.08279" lon="5.33575">
        <ele>314.528374</ele>
        <time>2011-06-12T09:00:50Z</time>
      </trkpt>
      <trkpt lat="45.08285" lon="5.33577">
        <ele>314.869275</ele>
        <time>2011-06-12T09:00:53Z</time>
      </trkpt>
      <trkpt lat="45.08291" lon="5.3358">
        <ele>315.184714</ele>
        <time>2011-06-12T09:00:56Z</time>
      </trkpt>
      <trkpt lat="45.08296" lon="5.33584">
        <ele>315.483856</ele>
        <time>2011-06-12T09:00:59Z</time>
      </trkpt>
      <trkpt lat="45.08301" lon="5.33586">
        <ele>315.780719</ele>
        <time>2011-06-12T09:01:02Z</time>
      </trkpt>
      <trkpt lat="45.08306" lon="5.33591">
        <ele>316.076797</ele>
        <time>2011-06-12T09:01:05Z</time>
      </trkpt>
      <trkpt lat="45.08312" lon="5.33594">
        <ele>316.358961</ele>
        <time>2011-06-12T09:01:08Z</time>
      </trkpt>
      <trkpt lat="45.08317" lon="5.33597">
        <ele>316.617043</ele>
        <time>2011-06-12T09:01:11Z</time>
      </trkpt>
      <trkpt lat="45.08322" lon="5.33601">
        <ele>316.859702</ele>
        <time>2011-06-12T09:01:14Z</time>
      </trkpt>
      <trkpt lat="45.08327" lon="5.33606">
        <ele>317.109554</ele>
        <time>2011-06-12T09:01:17Z</time>
      </trkpt>
      <trkpt lat="45.08332" lon="5.33611">
        <ele>317.38878</ele>
        <time>2011-06-12T09:01:20Z</time>
      </trkpt>
      <trkpt lat="45.08337" lon="5.33614">
        <ele>317.703837</ele>
        <time>2011-06-12T09:01:23Z</time>
      </trkpt>
      <trkpt lat="45.08342" lon="5.33616">
        <ele>318.040423</ele>
        <time>2011-06-12T09:01:26Z</time>
      </trkpt>
      <trkpt lat="45.08347" lon="5.33618">
        <ele>318.389259</ele>
        <time>2011-06-12T09:01:29Z</time>
      </trkpt>
      <trkpt lat="45.08352" lon="5.33622">
        <ele>318.762486</ele>
        <time>2011-06-12T09:01:32Z</time>
      </trkpt>
      <trkpt lat="45.08358" lon="5.33626">
        <ele>319.173878</ele>
        <time>2011-06-12T09:01:35Z</time>
      </trkpt>
      <trkpt lat="45.08363" lon="5.33632">
        <ele>319.629131</ele>
        <time>2011-06-12T09:01:38Z</time>
      </trkpt>
      <trkpt lat="45.08366" lon="5.33637">
        <ele>320.134056</ele>
        <time>2011-06-12T09:01:40Z</time>
      </trkpt>
      <trkpt lat="45.08369" lon="5.33644">
        <ele>320.69641</ele>
        <time>2011-06-12T09:01:42Z</time>
      </trkpt>
      <trkpt lat="45.08373" lon="5.33653">
        <ele>321.316359</ele>
        <time>2011-06-12T09:01:45Z</time>
      </trkpt>
      <trkpt lat="45.08376" lon="5.33659">
        <ele>321.953399</ele>
        <time>2011-06-12T09:01:47Z</time>
      </trkpt>
      <trkpt lat="45.08378" lon="5.33669">
        <ele>322.545273</ele>
        <time>2011-06-12T09:01:50Z</time>
      </trkpt>
      <trkpt lat="45.08379" lon="5.33675">
        <ele>323.107531</ele>
        <time>2011-06-12T09:01:52Z</time>
      </trkpt>
      <trkpt lat="45.08381" lon="5.33685">
        <ele>323.685742</ele>
        <time>2011-06-12T09:01:55Z</time>
      </trkpt>
      <trkpt lat="45.08381" lon="5.33694">
        <ele>324.278113</ele>
        <time>2011-06-12T09:01:58Z</time>
      </trkpt>
      <trkpt lat="45.08381" lon="5.33703">
        <ele>324.85726</ele>
        <time>2011-06-12T09:02:01Z</time>
      </trkpt>
      <trkpt lat="45.0838" lon="5.33712">
        <ele>325.414693</ele>
        <time>2011-06-12T09:02:04Z</time>
      </trkpt>
      <trkpt lat="45.08381" lon="5.33721">
        <ele>325.98124</ele>
        <time>2011-06-12T09:02:07Z</time>
      </trkpt>
      <trkpt lat="45.08382" lon="5.3373">
        <ele>326.598406</ele>
        <time>2011-06-12T09:02:10Z</time>
      </trkpt>
      <trkpt lat="45.08384" lon="5.33738">
        <ele>327.265245</ele>
        <time>2011-06-12T09:02:13Z</time>
      </trkpt>
      <trkpt lat="45.08387" lon="5.33747">
        <ele>327.964536</ele>
        <time>2011-06-12T09:02:16Z</time>
      </trkpt>
      <trkpt lat="45.08389" lon="5.33752">
        <ele>328.666939</ele>
        <time>2011-06-12T09:02:18Z</time>
      </trkpt>
      <trkpt lat="45.08391" lon="5.33758">
        <ele>329.34343</ele>
        <time>2011-06-12T09:02:20Z</time>
      </trkpt>
      <trkpt lat="45.08395" lon="5.33766">
        <ele>329.978691</ele>
        <time>2011-06-12T09:02:23Z</time>
      </trkpt>
      <trkpt lat="45.084" lon="5.33775">
        <ele>330.546616</ele>
        <time>2011-06-12T09:02:26Z</time>
      </trkpt>
      <trkpt lat="45.08404" lon="5.33781">
        <ele>331.020262</ele>
        <time>2011-06-12T09:02:29Z</time>
      </trkpt>
      <trkpt lat="45.08407" lon="5.33787">
        <ele>331.441373</ele>
        <time>2011-06-12T09:02:32Z</time>
      </trkpt>
      <trkpt lat="45.08411" lon="5.33793">
        <ele>331.893322</ele>
        <time>2011-06-12T09:02:35Z</time>
      </trkpt>
      <trkpt lat="45.08416" lon="5.33799">
        <ele>332.403172</ele>
        <time>2011-06-12T09:02:38Z</time>
      </trkpt>
      <trkpt lat="45.0842" lon="5.33805">
        <ele>332.947087</ele>
        <time>2011-06-12T09:02:41Z</time>
      </trkpt>
      <trkpt lat="45.08425" lon="5.33812">
        <ele>333.505496</ele>
        <time>2011-06-12T09:02:44Z</time>
      </trkpt>
      <trkpt lat="45.08429" lon="5.33818">
        <ele>334.069717</ele>
        <time>2011-06-12T09:02:47Z</time>
      </trkpt>
      <trkpt lat="45.08433" lon="5.33825">
        <ele>334.634978</ele>
        <time>2011-06-12T09:02:50Z</time>
      </trkpt>
      <trkpt lat="45.08438" lon="5.33832">
        <ele>335.198958</ele>
        <time>2011-06-12T09:02:53Z</time>
      </trkpt>
      <trkpt lat="45.08442" lon="5.33838">
        <ele>335.760295</ele>
        <time>2011-06-12T09:02:56Z</time>
      </trkpt>
      <trkpt lat="45.08447" lon="5.33845">
        <ele>336.315579</ele>
        <time>2011-06-12T09:02:59Z</time>
      </trkpt>
      <trkpt lat="45.08451" lon="5.33851">
        <ele>336.859578</ele>
        <time>2011-06-12T09:03:02Z</time>
      </trkpt>
      <trkpt lat="45.08455" lon="5.33857">
        <ele>337.390272</ele>
        <time>2011-06-12T09:03:05Z</time>
      </trkpt>
      <trkpt lat="45.0846" lon="5.33863">
        <ele>337.910978</ele>
        <time>2011-06-12T09:03:08Z</time>
      </trkpt>
      <trkpt lat="45.08464" lon="5.33869">
        <ele>338.423692</ele>
        <time>2011-06-12T09:03:11Z</time>
      </trkpt>
      <trkpt lat="45.08468" lon="5.33875">
        <ele>338.924657</ele>
        <time>2011-06-12T09:03:14Z</time>
      </trkpt>
      <trkpt lat="45.08472" lon="5.3388">
        <ele>339.410594</ele>
        <time>2011-06-12T09:03:17Z</time>
      </trkpt>
      <trkpt lat="45.08475" lon="5.33885">
        <ele>339.883875</ele>
        <time>2011-06-12T09:03:20Z</time>
      </trkpt>
      <trkpt lat="45.08479" lon="5.33892">
        <ele>340.349915</ele>
        <time>2011-06-12T09:03:23Z</time>
      </trkpt>
      <trkpt lat="45.08482" lon="5.33897">
        <ele>340.81366</ele>
        <time>2011-06-12T09:03:26Z</time>
      </trkpt>
      <trkpt lat="45.08486" lon="5.33902">
        <ele>341.279404</ele>
        <time>2011-06-12T09:03:29Z</time>
      </trkpt>
      <trkpt lat="45.08489" lon="5.33907">
        <ele>341.751101</ele>
        <time>2011-06-12T09:03:32Z</time>
      </trkpt>
      <trkpt lat="45.08492" lon="5.33912">
        <ele>342.229729</ele>
        <time>2011-06-12T09:03:35Z</time>
      </trkpt>
      <trkpt lat="45.08497" lon="5.33917">
        <ele>342.710949</ele>
        <time>2011-06-12T09:03:38Z</time>
      </trkpt>
      <trkpt lat="45.08501" lon="5.33923">
        <ele>343.186933</ele>
        <time>2011-06-12T09:03:41Z</time>
      </trkpt>
      <trkpt lat="45.08505" lon="5.33929">
        <ele>343.648788</ele>
        <time>2011-06-12T09:03:44Z</time>
      </trkpt>
      <trkpt lat="45.08509" lon="5.33935">
        <ele>344.08946</ele>
        <time>2011-06-12T09:03:47Z</time>
      </trkpt>
      <trkpt lat="45.08513" lon="5.3394">
        <ele>344.505458</ele>
        <time>2011-06-12T09:03:49Z</time>
      </trkpt>
      <trkpt lat="45.08518" lon="5.33948">
        <ele>344.895843</ele>
        <time>2011-06-12T09:03:52Z</time>
      </trkpt>
      <trkpt lat="45.08522" lon="5.33958">
        <ele>345.264409</ele>
        <time>2011-06-12T09:03:55Z</time>
      </trkpt>
      <trkpt lat="45.08524" lon="5.33965">
        <ele>345.604245</ele>
        <time>2011-06-12T09:03:57Z</time>
      </trkpt>
      <trkpt lat="45.08525" lon="5.33972">
        <ele>345.917286</ele>
        <time>2011-06-12T09:03:59Z</time>
      </trkpt>
      <trkpt lat="45.08526" lon="5.33979">
        <ele>346.244259</ele>
        <time>2011-06-12T09:04:01Z</time>
      </trkpt>
      <trkpt lat="45.08526" lon="5.33987">
        <ele>346.603527</ele>
        <time>2011-06-12T09:04:03Z</time>
      </trkpt>
      <trkpt lat="45.08525" lon="5.34">
        <ele>346.956159</ele>
        <time>2011-06-12T09:04:06Z</time>
      </trkpt>
      <trkpt lat="45.08521" lon="5.3401">
        <ele>347.274264</ele>
        <time>2011-06-12T09:04:09Z</time>
      </trkpt>
      <trkpt lat="45.08516" lon="5.34019">
        <ele>347.565619</ele>
        <time>2011-06-12T09:04:12Z</time>
      </trkpt>
      <trkpt lat="45.08509" lon="5.34025">
        <ele>347.865777</ele>
        <time>2011-06-12T09:04:15Z</time>
      </trkpt>
      <trkpt lat="45.08505" lon="5.3403">
        <ele>348.218006</ele>
        <time>2011-06-12T09:04:17Z</time>
      </trkpt>
      <trkpt lat="45.08501" lon="5.3404">
        <ele>348.626384</ele>
        <time>2011-06-12T09:04:20Z</time>
      </trkpt>
      <trkpt lat="45.08501" lon="5.34051">
        <ele>349.057577</ele>
        <time>2011-06-12T09:04:23Z</time>
      </trkpt>
      <trkpt lat="45.08506" lon="5.34058">
        <ele>349.465443</ele>
        <time>2011-06-12T09:04:26Z</time>
      </trkpt>
      <trkpt lat="45.08511" lon="5.34059">
        <ele>349.829266</ele>
        <time>2011-06-12T09:04:28Z</time>
      </trkpt>
      <trkpt lat="45.08519" lon="5.34057">
        <ele>350.180378</ele>
        <time>2011-06-12T09:04:31Z</time>
      </trkpt>
      <trkpt lat="45.08524" lon="5.34051">
        <ele>350.552563</ele>
        <time>2011-06-12T09:04:34Z</time>
      </trkpt>
      <trkpt lat="45.08527" lon="5.34044">
        <ele>350.924881</ele>
        <time>2011-06-12T09:04:37Z</time>
      </trkpt>
      <trkpt lat="45.0853" lon="5.34038">
        <ele>351.270828</ele>
        <time>2011-06-12T09:04:40Z</time>
      </trkpt>
      <trkpt lat="45.08535" lon="5.34032">
        <ele>351.601181</ele>
        <time>2011-06-12T09:04:43Z</time>
      </trkpt>
      <trkpt lat="45.0854" lon="5.34025">
        <ele>351.925615</ele>
        <time>2011-06-12T09:04:46Z</time>
      </trkpt>
      <trkpt lat="45.08543" lon="5.34021">
        <ele>352.224663</ele>
        <time>2011-06-12T09:04:48Z</time>
      </trkpt>
      <trkpt lat="45.08547" lon="5.34016">
        <ele>352.482029</ele>
        <time>2011-06-12T09:04:50Z</time>
      </trkpt>
      <trkpt lat="45.08552" lon="5.34008">
        <ele>352.693925</ele>
        <time>2011-06-12T09:04:53Z</time>
      </trkpt>
      <trkpt lat="45.08556" lon="5.34">
        <ele>352.861532</ele>
        <time>2011-06-12T09:04:56Z</time>
      </trkpt>
      <trkpt lat="45.08561" lon="5.33994">
        <ele>352.991173</ele>
        <time>2011-06-12T09:04:59Z</time>
      </trkpt>
      <trkpt lat="45.08567" lon="5.33989">
        <ele>353.107615</ele>
        <time>2011-06-12T09:05:02Z</time>
      </trkpt>
      <trkpt lat="45.0857" lon="5.33985">
        <ele>353.245424</ele>
        <time>2011-06-12T09:05:04Z</time>
      </trkpt>
      <trkpt lat="45.08575" lon="5.33977">
        <ele>353.41876</ele>
        <time>2011-06-12T09:05:07Z</time>
      </trkpt>
      <trkpt lat="45.08581" lon="5.3397">
        <ele>353.616663</ele>
        <time>2011-06-12T09:05:10Z</time>
      </trkpt>
      <trkpt lat="45.08586" lon="5.33964">
        <ele>353.814674</ele>
        <time>2011-06-12T09:05:13Z</time>
      </trkpt>
      <trkpt lat="45.08592" lon="5.33958">
        <ele>354.008363</ele>
        <time>2011-06-12T09:05:20Z</time>
      </trkpt>
      <trkpt lat="45.08592" lon="5.33958">
        <ele>354.1866</ele>
        <time>2011-06-12T09:05:29Z</time>
      </trkpt>
      <trkpt lat="45.08592" lon="5.33958">
        <ele>354.303048</ele>
        <time>2011-06-12T09:05:50Z</time>
      </trkpt>
      <trkpt lat="45.08586" lon="5.33977">
        <ele>354.397119</ele>
        <time>2011-06-12T09:08:22Z</time>
      </trkpt>
      <trkpt lat="45.08585" lon="5.33986">
        <ele>354.60524</ele>
        <time>2011-06-12T09:08:25Z</time>
      </trkpt>
      <trkpt lat="45.08584" lon="5.33997">
        <ele>355.053013</ele>
        <time>2011-06-12T09:08:28Z</time>
      </trkpt>
      <trkpt lat="45.08582" lon="5.34004">
        <ele>357.28196</ele>
        <time>2011-06-12T09:08:30Z</time>
      </trkpt>
      <trkpt lat="45.08581" lon="5.34013">
        <ele>362.046943</ele>
        <time>2011-06-12T09:08:33Z</time>
      </trkpt>
      <trkpt lat="45.08582" lon="5.34024">
        <ele>366.79888</ele>
        <time>2011-06-12T09:08:36Z</time>
      </trkpt>
      <trkpt lat="45.08584" lon="5.34031">
        <ele>369.227031</ele>
        <time>2011-06-12T09:08:38Z</time>
      </trkpt>
      <trkpt lat="45.08589" lon="5.34039">
        <ele>369.883016</ele>
        <time>2011-06-12T09:08:41Z</time>
      </trkpt>
      <trkpt lat="45.08596" lon="5.34047">
        <ele>369.873837</ele>
        <time>2011-06-12T09:08:44Z</time>
      </trkpt>
      <trkpt lat="45.08602" lon="5.34054">
        <ele>369.859559</ele>
        <time>2011-06-12T09:08:47Z</time>
      </trkpt>
      <trkpt lat="45.08607" lon="5.34061">
        <ele>370.003624</ele>
        <time>2011-06-12T09:08:50Z</time>
      </trkpt>
      <trkpt lat="45.08612" lon="5.34067">
        <ele>370.269492</ele>
        <time>2011-06-12T09:08:53Z</time>
      </trkpt>
      <trkpt lat="45.08617" lon="5.34075">
        <ele>370.584804</ele>
        <time>2011-06-12T09:08:56Z</time>
      </trkpt>
      <trkpt lat="45.08621" lon="5.34082">
        <ele>370.888322</ele>
        <time>2011-06-12T09:08:59Z</time>
      </trkpt>
      <trkpt lat="45.08623" lon="5.34091">
        <ele>371.158074</ele>
        <time>2011-06-12T09:09:02Z</time>
      </trkpt>
      <trkpt lat="45.08626" lon="5.34101">
        <ele>371.399132</ele>
        <time>2011-06-12T09:09:05Z</time>
      </trkpt>
      <trkpt lat="45.08627" lon="5.34109">
        <ele>371.62047</ele>
        <time>2011-06-12T09:09:07Z</time>
      </trkpt>
      <trkpt lat="45.08631" lon="5.34121">
        <ele>371.827319</ele>
        <time>2011-06-12T09:09:10Z</time>
      </trkpt>
      <trkpt lat="45.08633" lon="5.34129">
        <ele>372.0293</ele>
        <time>2011-06-12T09:09:12Z</time>
      </trkpt>
      <trkpt lat="45.08636" lon="5.3414">
        <ele>372.230584</ele>
        <time>2011-06-12T09:09:15Z</time>
      </trkpt>
      <trkpt lat="45.0864" lon="5.3415">
        <ele>372.432991</ele>
        <time>2011-06-12T09:09:18Z</time>
      </trkpt>
      <trkpt lat="45.08643" lon="5.34157">
        <ele>372.638408</ele>
        <time>2011-06-12T09:09:20Z</time>
      </trkpt>
      <trkpt lat="45.08648" lon="5.34167">
        <ele>372.850182</ele>
        <time>2011-06-12T09:09:23Z</time>
      </trkpt>
      <trkpt lat="45.08651" lon="5.34173">
        <ele>373.078993</ele>
        <time>2011-06-12T09:09:25Z</time>
      </trkpt>
      <trkpt lat="45.08654" lon="5.34181">
        <ele>373.317813</ele>
        <time>2011-06-12T09:09:27Z</time>
      </trkpt>
      <trkpt lat="45.08657" lon="5.34188">
        <ele>373.543605</ele>
        <time>2011-06-12T09:09:29Z</time>
      </trkpt>
      <trkpt lat="45.0866" lon="5.34196">
        <ele>373.750318</ele>
        <time>2011-06-12T09:09:31Z</time>
      </trkpt>
      <trkpt lat="45.08663" lon="5.34202">
        <ele>373.935757</ele>
        <time>2011-06-12T09:09:33Z</time>
      </trkpt>
      <trkpt lat="45.08666" lon="5.34213">
        <ele>374.098721</ele>
        <time>2011-06-12T09:09:36Z</time>
      </trkpt>
      <trkpt lat="45.0867" lon="5.34225">
        <ele>374.248729</ele>
        <time>2011-06-12T09:09:39Z</time>
      </trkpt>
      <trkpt lat="45.08673" lon="5.34236">
        <ele>374.393439</ele>
        <time>2011-06-12T09:09:42Z</time>
      </trkpt>
      <trkpt lat="45.08677" lon="5.34246">
        <ele>374.54525</ele>
        <time>2011-06-12T09:09:45Z</time>
      </trkpt>
      <trkpt lat="45.0868" lon="5.34253">
        <ele>374.719901</ele>
        <time>2011-06-12T09:09:47Z</time>
      </trkpt>
      <trkpt lat="45.08682" lon="5.3426">
        <ele>374.918976</ele>
        <time>2011-06-12T09:09:49Z</time>
      </trkpt>
      <trkpt lat="45.08685" lon="5.34271">
        <ele>375.126764</ele>
        <time>2011-06-12T09:09:52Z</time>
      </trkpt>
      <trkpt lat="45.08687" lon="5.34278">
        <ele>375.316787</ele>
        <time>2011-06-12T09:09:54Z</time>
      </trkpt>
      <trkpt lat="45.0869" lon="5.34288">
        <ele>375.465247</ele>
        <time>2011-06-12T09:09:57Z</time>
      </trkpt>
      <trkpt lat="45.08694" lon="5.34298">
        <ele>375.575471</ele>
        <time>2011-06-12T09:10:00Z</time>
      </trkpt>
      <trkpt lat="45.08696" lon="5.34304">
        <ele>375.663718</ele>
        <time>2011-06-12T09:10:02Z</time>
      </trkpt>
      <trkpt lat="45.08699" lon="5.3431">
        <ele>375.736298</ele>
        <time>2011-06-12T09:10:04Z</time>
      </trkpt>
      <trkpt lat="45.08703" lon="5.34316">
        <ele>375.792488</ele>
        <time>2011-06-12T09:10:06Z</time>
      </trkpt>
      <trkpt lat="45.08709" lon="5.34322">
        <ele>375.827894</ele>
        <time>2011-06-12T09:10:09Z</time>
      </trkpt>
      <trkpt lat="45.08717" lon="5.34328">
        <ele>375.841021</ele>
        <time>2011-06-12T09:10:12Z</time>
      </trkpt>
      <trkpt lat="45.08722" lon="5.34328">
        <ele>375.840805</ele>
        <time>2011-06-12T09:10:14Z</time>
      </trkpt>
      <trkpt lat="45.0873" lon="5.3433">
        <ele>375.835873</ele>
        <time>2011-06-12T09:10:17Z</time>
      </trkpt>
      <trkpt lat="45.08738" lon="5.34329">
        <ele>375.828515</ele>
        <time>2011-06-12T09:10:20Z</time>
      </trkpt>
      <trkpt lat="45.08747" lon="5.34328">
        <ele>375.817796</ele>
        <time>2011-06-12T09:10:23Z</time>
      </trkpt>
      <trkpt lat="45.08755" lon="5.34326">
        <ele>375.802436</ele>
        <time>2011-06-12T09:10:26Z</time>
      </trkpt>
      <trkpt lat="45.08765" lon="5.34321">
        <ele>375.783101</ele>
        <time>2011-06-12T09:10:29Z</time>
      </trkpt>
      <trkpt lat="45.08775" lon="5.34316">
        <ele>375.76544</ele>
        <time>2011-06-12T09:10:32Z</time>
      </trkpt>
      <trkpt lat="45.08781" lon="5.34313">
        <ele>375.755501</ele>
        <time>2011-06-12T09:10:34Z</time>
      </trkpt>
      <trkpt lat="45.08788" lon="5.34309">
        <ele>375.753059</ele>
        <time>2011-06-12T09:10:37Z</time>
      </trkpt>
      <trkpt lat="45.08794" lon="5.34307">
        <ele>375.77944</ele>
        <time>2011-06-12T09:10:39Z</time>
      </trkpt>
      <trkpt lat="45.08799" lon="5.34304">
        <ele>375.875264</ele>
        <time>2011-06-12T09:10:41Z</time>
      </trkpt>
      <trkpt lat="45.08807" lon="5.34301">
        <ele>376.06092</ele>
        <time>2011-06-12T09:10:44Z</time>
      </trkpt>
      <trkpt lat="45.08815" lon="5.34301">
        <ele>376.312338</ele>
        <time>2011-06-12T09:10:47Z</time>
      </trkpt>
      <trkpt lat="45.0882" lon="5.34302">
        <ele>376.581034</ele>
        <time>2011-06-12T09:10:49Z</time>
      </trkpt>
      <trkpt lat="45.08828" lon="5.34305">
        <ele>376.852091</ele>
        <time>2011-06-12T09:10:52Z</time>
      </trkpt>
      <trkpt lat="45.08836" lon="5.34309">
        <ele>377.156395</ele>
        <time>2011-06-12T09:10:55Z</time>
      </trkpt>
      <trkpt lat="45.08844" lon="5.34314">
        <ele>377.495689</ele>
        <time>2011-06-12T09:10:58Z</time>
      </trkpt>
      <trkpt lat="45.08849" lon="5.34318">
        <ele>377.857394</ele>
        <time>2011-06-12T09:11:00Z</time>
      </trkpt>
      <trkpt lat="45.08857" lon="5.34322">
        <ele>378.2551</ele>
        <time>2011-06-12T09:11:03Z</time>
      </trkpt>
      <trkpt lat="45.08864" lon="5.34325">
        <ele>378.686506</ele>
        <time>2011-06-12T09:11:06Z</time>
      </trkpt>
      <trkpt lat="45.0887" lon="5.34327">
        <ele>379.102778</ele>
        <time>2011-06-12T09:11:08Z</time>
      </trkpt>
      <trkpt lat="45.08875" lon="5.34329">
        <ele>379.47666</ele>
        <time>2011-06-12T09:11:10Z</time>
      </trkpt>
      <trkpt lat="45.08883" lon="5.3433">
        <ele>379.833855</ele>
        <time>2011-06-12T09:11:13Z</time>
      </trkpt>
      <trkpt lat="45.08891" lon="5.34329">
        <ele>380.183201</ele>
        <time>2011-06-12T09:11:16Z</time>
      </trkpt>
      <trkpt lat="45.08899" lon="5.34327">
        <ele>380.492648</ele>
        <time>2011-06-12T09:11:19Z</time>
      </trkpt>
      <trkpt lat="45.08904" lon="5.34327">
        <ele>380.770769</ele>
        <time>2011-06-12T09:11:21Z</time>
      </trkpt>
      <trkpt lat="45.08913" lon="5.34327">
        <ele>381.062726</ele>
        <time>2011-06-12T09:11:24Z</time>
      </trkpt>
      <trkpt lat="45.08922" lon="5.34327">
        <ele>381.378674</ele>
        <time>2011-06-12T09:11:27Z</time>
      </trkpt>
      <trkpt lat="45.08931" lon="5.34323">
        <ele>381.677605</ele>
        <time>2011-06-12T09:11:30Z</time>
      </trkpt>
      <trkpt lat="45.0894" lon="5.34318">
        <ele>381.924288</ele>
        <time>2011-06-12T09:11:33Z</time>
      </trkpt>
      <trkpt lat="45.08945" lon="5.34315">
        <ele>382.1369</ele>
        <time>2011-06-12T09:11:35Z</time>
      </trkpt>
      <trkpt lat="45.08951" lon="5.34314">
        <ele>382.365471</ele>
        <time>2011-06-12T09:11:37Z</time>
      </trkpt>
      <trkpt lat="45.08958" lon="5.34311">
        <ele>382.634776</ele>
        <time>2011-06-12T09:11:40Z</time>
      </trkpt>
      <trkpt lat="45.08963" lon="5.34307">
        <ele>382.918619</ele>
        <time>2011-06-12T09:11:42Z</time>
      </trkpt>
      <trkpt lat="45.08968" lon="5.34303">
        <ele>383.171333</ele>
        <time>2011-06-12T09:11:44Z</time>
      </trkpt>
      <trkpt lat="45.08972" lon="5.34297">
        <ele>383.388946</ele>
        <time>2011-06-12T09:11:46Z</time>
      </trkpt>
      <trkpt lat="45.08976" lon="5.34291">
        <ele>383.589181</ele>
        <time>2011-06-12T09:11:48Z</time>
      </trkpt>
      <trkpt lat="45.08981" lon="5.3428">
        <ele>383.765145</ele>
        <time>2011-06-12T09:11:51Z</time>
      </trkpt>
      <trkpt lat="45.08983" lon="5.34272">
        <ele>383.909981</ele>
        <time>2011-06-12T09:11:53Z</time>
      </trkpt>
      <trkpt lat="45.08984" lon="5.34263">
        <ele>384.037711</ele>
        <time>2011-06-12T09:11:55Z</time>
      </trkpt>
      <trkpt lat="45.08985" lon="5.34254">
        <ele>384.167975</ele>
        <time>2011-06-12T09:11:57Z</time>
      </trkpt>
      <trkpt lat="45.08986" lon="5.34239">
        <ele>384.313538</ele>
        <time>2011-06-12T09:12:00Z</time>
      </trkpt>
      <trkpt lat="45.08987" lon="5.3423">
        <ele>384.473611</ele>
        <time>2011-06-12T09:12:02Z</time>
      </trkpt>
      <trkpt lat="45.08987" lon="5.34221">
        <ele>384.645557</ele>
        <time>2011-06-12T09:12:04Z</time>
      </trkpt>
      <trkpt lat="45.08989" lon="5.34207">
        <ele>384.854669</ele>
        <time>2011-06-12T09:12:07Z</time>
      </trkpt>
      <trkpt lat="45.08993" lon="5.34193">
        <ele>385.119215</ele>
        <time>2011-06-12T09:12:10Z</time>
      </trkpt>
      <trkpt lat="45.08995" lon="5.34184">
        <ele>385.411502</ele>
        <time>2011-06-12T09:12:12Z</time>
      </trkpt>
      <trkpt lat="45.09" lon="5.34177">
        <ele>385.719035</ele>
        <time>2011-06-12T09:12:14Z</time>
      </trkpt>
      <trkpt lat="45.09005" lon="5.34171">
        <ele>386.065893</ele>
        <time>2011-06-12T09:12:16Z</time>
      </trkpt>
      <trkpt lat="45.09016" lon="5.34168">
        <ele>386.427138</ele>
        <time>2011-06-12T09:12:19Z</time>
      </trkpt>
      <trkpt lat="45.09024" lon="5.3417">
        <ele>386.74159</ele>
        <time>2011-06-12T09:12:21Z</time>
      </trkpt>
      <trkpt lat="45.09036" lon="5.34181">
        <ele>386.994125</ele>
        <time>2011-06-12T09:12:24Z</time>
      </trkpt>
      <trkpt lat="45.0905" lon="5.34194">
        <ele>387.23243</ele>
        <time>2011-06-12T09:12:27Z</time>
      </trkpt>
      <trkpt lat="45.09067" lon="5.34208">
        <ele>387.49498</ele>
        <time>2011-06-12T09:12:30Z</time>
      </trkpt>
      <trkpt lat="45.09085" lon="5.34223">
        <ele>388.142967</ele>
        <time>2011-06-12T09:12:33Z</time>
      </trkpt>
      <trkpt lat="45.09105" lon="5.34234">
        <ele>389.550213</ele>
        <time>2011-06-12T09:12:36Z</time>
      </trkpt>
      <trkpt lat="45.09126" lon="5.34242">
        <ele>391.303608</ele>
        <time>2011-06-12T09:12:39Z</time>
      </trkpt>
      <trkpt lat="45.09148" lon="5.34249">
        <ele>392.655048</ele>
        <time>2011-06-12T09:12:42Z</time>
      </trkpt>
      <trkpt lat="45.09172" lon="5.34254">
        <ele>393.453651</ele>
        <time>2011-06-12T09:12:45Z</time>
      </trkpt>
      <trkpt lat="45.09188" lon="5.34258">
        <ele>393.92102</ele>
        <time>2011-06-12T09:12:47Z</time>
      </trkpt>
      <trkpt lat="45.0921" lon="5.34255">
        <ele>394.230531</ele>
        <time>2011-06-12T09:12:50Z</time>
      </trkpt>
      <trkpt lat="45.09227" lon="5.34236">
        <ele>394.418407</ele>
        <time>2011-06-12T09:12:53Z</time>
      </trkpt>
      <trkpt lat="45.09234" lon="5.34218">
        <ele>394.495549</ele>
        <time>2011-06-12T09:12:55Z</time>
      </trkpt>
      <trkpt lat="45.0924" lon="5.34188">
        <ele>394.500027</ele>
        <time>2011-06-12T09:12:58Z</time>
      </trkpt>
      <trkpt lat="45.09246" lon="5.3416">
        <ele>394.379671</ele>
        <time>2011-06-12T09:13:01Z</time>
      </trkpt>
      <trkpt lat="45.0926" lon="5.3414">
        <ele>394.057224</ele>
        <time>2011-06-12T09:13:04Z</time>
      </trkpt>
      <trkpt lat="45.09272" lon="5.34132">
        <ele>393.563094</ele>
        <time>2011-06-12T09:13:06Z</time>
      </trkpt>
      <trkpt lat="45.09292" lon="5.34133">
        <ele>392.911092</ele>
        <time>2011-06-12T09:13:09Z</time>
      </trkpt>
      <trkpt lat="45.09312" lon="5.34139">
        <ele>392.162526</ele>
        <time>2011-06-12T09:13:12Z</time>
      </trkpt>
      <trkpt lat="45.09331" lon="5.34149">
        <ele>391.564989</ele>
        <time>2011-06-12T09:13:15Z</time>
      </trkpt>
      <trkpt lat="45.09349" lon="5.34162">
        <ele>391.255632</ele>
        <time>2011-06-12T09:13:18Z</time>
      </trkpt>
      <trkpt lat="45.09361" lon="5.34173">
        <ele>391.06575</ele>
        <time>2011-06-12T09:13:20Z</time>
      </trkpt>
      <trkpt lat="45.09373" lon="5.34182">
        <ele>390.821598</ele>
        <time>2011-06-12T09:13:22Z</time>
      </trkpt>
      <trkpt lat="45.09389" lon="5.34196">
        <ele>390.573991</ele>
        <time>2011-06-12T09:13:25Z</time>
      </trkpt>
      <trkpt lat="45.09407" lon="5.34206">
        <ele>390.425304</ele>
        <time>2011-06-12T09:13:28Z</time>
      </trkpt>
      <trkpt lat="45.09422" lon="5.34213">
        <ele>390.374397</ele>
        <time>2011-06-12T09:13:30Z</time>
      </trkpt>
      <trkpt lat="45.09437" lon="5.3422">
        <ele>390.388129</ele>
        <time>2011-06-12T09:13:32Z</time>
      </trkpt>
      <trkpt lat="45.09454" lon="5.34226">
        <ele>390.433785</ele>
        <time>2011-06-12T09:13:34Z</time>
      </trkpt>
      <trkpt lat="45.0947" lon="5.34227">
        <ele>390.531484</ele>
        <time>2011-06-12T09:13:36Z</time>
      </trkpt>
      <trkpt lat="45.09491" lon="5.34219">
        <ele>390.691529</ele>
        <time>2011-06-12T09:13:39Z</time>
      </trkpt>
      <trkpt lat="45.09504" lon="5.34193">
        <ele>390.836204</ele>
        <time>2011-06-12T09:13:42Z</time>
      </trkpt>
      <trkpt lat="45.0951" lon="5.34176">
        <ele>390.899394</ele>
        <time>2011-06-12T09:13:44Z</time>
      </trkpt>
      <trkpt lat="45.09518" lon="5.3415">
        <ele>390.852692</ele>
        <time>2011-06-12T09:13:47Z</time>
      </trkpt>
      <trkpt lat="45.09524" lon="5.34126">
        <ele>390.665518</ele>
        <time>2011-06-12T09:13:50Z</time>
      </trkpt>
      <trkpt lat="45.09528" lon="5.34112">
        <ele>390.400286</ele>
        <time>2011-06-12T09:13:52Z</time>
      </trkpt>
      <trkpt lat="45.09534" lon="5.34091">
        <ele>390.174578</ele>
        <time>2011-06-12T09:13:55Z</time>
      </trkpt>
      <trkpt lat="45.09542" lon="5.34071">
        <ele>390.039227</ele>
        <time>2011-06-12T09:13:58Z</time>
      </trkpt>
      <trkpt lat="45.09552" lon="5.34053">
        <ele>389.98311</ele>
        <time>2011-06-12T09:14:01Z</time>
      </trkpt>
      <trkpt lat="45.09565" lon="5.34043">
        <ele>389.97467</ele>
        <time>2011-06-12T09:14:04Z</time>
      </trkpt>
      <trkpt lat="45.09576" lon="5.3404">
        <ele>389.984565</ele>
        <time>2011-06-12T09:14:06Z</time>
      </trkpt>
      <trkpt lat="45.09592" lon="5.34043">
        <ele>389.994879</ele>
        <time>2011-06-12T09:14:09Z</time>
      </trkpt>
      <trkpt lat="45.09603" lon="5.34046">
        <ele>390.014406</ele>
        <time>2011-06-12T09:14:11Z</time>
      </trkpt>
      <trkpt lat="45.09614" lon="5.3405">
        <ele>390.086422</ele>
        <time>2011-06-12T09:14:13Z</time>
      </trkpt>
      <trkpt lat="45.0963" lon="5.34056">
        <ele>390.246318</ele>
        <time>2011-06-12T09:14:16Z</time>
      </trkpt>
      <trkpt lat="45.09646" lon="5.34064">
        <ele>390.443695</ele>
        <time>2011-06-12T09:14:19Z</time>
      </trkpt>
      <trkpt lat="45.09656" lon="5.34069">
        <ele>390.581077</ele>
        <time>2011-06-12T09:14:21Z</time>
      </trkpt>
      <trkpt lat="45.09667" lon="5.34075">
        <ele>390.628147</ele>
        <time>2011-06-12T09:14:23Z</time>
      </trkpt>
      <trkpt lat="45.09683" lon="5.34082">
        <ele>390.586539</ele>
        <time>2011-06-12T09:14:26Z</time>
      </trkpt>
      <trkpt lat="45.09691" lon="5.34089">
        <ele>390.454718</ele>
        <time>2011-06-12T09:14:28Z</time>
      </trkpt>
      <trkpt lat="45.09704" lon="5.341">
        <ele>390.294942</ele>
        <time>2011-06-12T09:14:31Z</time>
      </trkpt>
      <trkpt lat="45.09713" lon="5.34109">
        <ele>390.124396</ele>
        <time>2011-06-12T09:14:33Z</time>
      </trkpt>
      <trkpt lat="45.09725" lon="5.34123">
        <ele>389.879685</ele>
        <time>2011-06-12T09:14:36Z</time>
      </trkpt>
      <trkpt lat="45.09734" lon="5.34133">
        <ele>389.60834</ele>
        <time>2011-06-12T09:14:38Z</time>
      </trkpt>
      <trkpt lat="45.09746" lon="5.34148">
        <ele>389.435782</ele>
        <time>2011-06-12T09:14:41Z</time>
      </trkpt>
      <trkpt lat="45.09762" lon="5.34158">
        <ele>389.383338</ele>
        <time>2011-06-12T09:14:44Z</time>
      </trkpt>
      <trkpt lat="45.09774" lon="5.34156">
        <ele>389.395672</ele>
        <time>2011-06-12T09:14:46Z</time>
      </trkpt>
      <trkpt lat="45.09788" lon="5.34146">
        <ele>389.424718</ele>
        <time>2011-06-12T09:14:49Z</time>
      </trkpt>
      <trkpt lat="45.09797" lon="5.34137">
        <ele>389.445651</ele>
        <time>2011-06-12T09:14:51Z</time>
      </trkpt>
      <trkpt lat="45.09811" lon="5.34122">
        <ele>389.453117</ele>
        <time>2011-06-12T09:14:54Z</time>
      </trkpt>
      <trkpt lat="45.09827" lon="5.34108">
        <ele>389.367855</ele>
        <time>2011-06-12T09:14:57Z</time>
      </trkpt>
      <trkpt lat="45.09846" lon="5.34097">
        <ele>389.080838</ele>
        <time>2011-06-12T09:15:00Z</time>
      </trkpt>
      <trkpt lat="45.09865" lon="5.34088">
        <ele>388.66416</ele>
        <time>2011-06-12T09:15:03Z</time>
      </trkpt>
      <trkpt lat="45.0987" lon="5.34087">
        <ele>388.315524</ele>
        <time>2011-06-12T09:15:05Z</time>
      </trkpt>
      <trkpt lat="45.09879" lon="5.34084">
        <ele>388.06762</ele>
        <time>2011-06-12T09:15:08Z</time>
      </trkpt>
      <trkpt lat="45.09892" lon="5.34086">
        <ele>387.786753</ele>
        <time>2011-06-12T09:15:11Z</time>
      </trkpt>
      <trkpt lat="45.09902" lon="5.34088">
        <ele>387.450493</ele>
        <time>2011-06-12T09:15:13Z</time>
      </trkpt>
      <trkpt lat="45.09915" lon="5.3409">
        <ele>387.191517</ele>
        <time>2011-06-12T09:15:15Z</time>
      </trkpt>
      <trkpt lat="45.09929" lon="5.34094">
        <ele>386.984051</ele>
        <time>2011-06-12T09:15:17Z</time>
      </trkpt>
      <trkpt lat="45.09952" lon="5.34102">
        <ele>386.65468</ele>
        <time>2011-06-12T09:15:20Z</time>
      </trkpt>
      <trkpt lat="45.09968" lon="5.34107">
        <ele>386.15579</ele>
        <time>2011-06-12T09:15:22Z</time>
      </trkpt>
      <trkpt lat="45.09993" lon="5.34117">
        <ele>385.635526</ele>
        <time>2011-06-12T09:15:25Z</time>
      </trkpt>
      <trkpt lat="45.10011" lon="5.34124">
        <ele>385.278417</ele>
        <time>2011-06-12T09:15:27Z</time>
      </trkpt>
      <trkpt lat="45.10029" lon="5.34129">
        <ele>385.124035</ele>
        <time>2011-06-12T09:15:29Z</time>
      </trkpt>
      <trkpt lat="45.10048" lon="5.34134">
        <ele>385.067657</ele>
        <time>2011-06-12T09:15:31Z</time>
      </trkpt>
      <trkpt lat="45.10067" lon="5.34139">
        <ele>385.005171</ele>
        <time>2011-06-12T09:15:33Z</time>
      </trkpt>
      <trkpt lat="45.10096" lon="5.34147">
        <ele>384.874503</ele>
        <time>2011-06-12T09:15:36Z</time>
      </trkpt>
      <trkpt lat="45.10126" lon="5.34155">
        <ele>384.680655</ele>
        <time>2011-06-12T09:15:39Z</time>
      </trkpt>
      <trkpt lat="45.10146" lon="5.34157">
        <ele>384.470188</ele>
        <time>2011-06-12T09:15:41Z</time>
      </trkpt>
      <trkpt lat="45.10176" lon="5.34155">
        <ele>384.285006</ele>
        <time>2011-06-12T09:15:44Z</time>
      </trkpt>
      <trkpt lat="45.10204" lon="5.34141">
        <ele>384.131468</ele>
        <time>2011-06-12T09:15:47Z</time>
      </trkpt>
      <trkpt lat="45.10233" lon="5.34121">
        <ele>383.966563</ele>
        <time>2011-06-12T09:15:50Z</time>
      </trkpt>
      <trkpt lat="45.10253" lon="5.3411">
        <ele>383.716929</ele>
        <time>2011-06-12T09:15:52Z</time>
      </trkpt>
      <trkpt lat="45.10276" lon="5.34103">
        <ele>383.374092</ele>
        <time>2011-06-12T09:15:54Z</time>
      </trkpt>
      <trkpt lat="45.10311" lon="5.34101">
        <ele>383.047974</ele>
        <time>2011-06-12T09:15:57Z</time>
      </trkpt>
      <trkpt lat="45.10335" lon="5.34103">
        <ele>382.840618</ele>
        <time>2011-06-12T09:15:59Z</time>
      </trkpt>
      <trkpt lat="45.10371" lon="5.34111">
        <ele>382.704951</ele>
        <time>2011-06-12T09:16:02Z</time>
      </trkpt>
      <trkpt lat="45.1041" lon="5.34119">
        <ele>382.457752</ele>
        <time>2011-06-12T09:16:05Z</time>
      </trkpt>
      <trkpt lat="45.10438" lon="5.34124">
        <ele>381.988419</ele>
        <time>2011-06-12T09:16:07Z</time>
      </trkpt>
      <trkpt lat="45.10478" lon="5.34132">
        <ele>381.311593</ele>
        <time>2011-06-12T09:16:10Z</time>
      </trkpt>
      <trkpt lat="45.10505" lon="5.34135">
        <ele>380.329803</ele>
        <time>2011-06-12T09:16:12Z</time>
      </trkpt>
      <trkpt lat="45.10545" lon="5.34142">
        <ele>378.962971</ele>
        <time>2011-06-12T09:16:15Z</time>
      </trkpt>
      <trkpt lat="45.10584" lon="5.34148">
        <ele>377.328393</ele>
        <time>2011-06-12T09:16:18Z</time>
      </trkpt>
      <trkpt lat="45.10623" lon="5.34151">
        <ele>375.638292</ele>
        <time>2011-06-12T09:16:21Z</time>
      </trkpt>
      <trkpt lat="45.10651" lon="5.34153">
        <ele>374.058952</ele>
        <time>2011-06-12T09:16:23Z</time>
      </trkpt>
      <trkpt lat="45.1068" lon="5.34157">
        <ele>372.513507</ele>
        <time>2011-06-12T09:16:25Z</time>
      </trkpt>
      <trkpt lat="45.10723" lon="5.34159">
        <ele>370.801906</ele>
        <time>2011-06-12T09:16:28Z</time>
      </trkpt>
      <trkpt lat="45.10765" lon="5.34158">
        <ele>368.904389</ele>
        <time>2011-06-12T09:16:31Z</time>
      </trkpt>
      <trkpt lat="45.10791" lon="5.34152">
        <ele>366.769713</ele>
        <time>2011-06-12T09:16:33Z</time>
      </trkpt>
      <trkpt lat="45.10827" lon="5.34137">
        <ele>364.126684</ele>
        <time>2011-06-12T09:16:36Z</time>
      </trkpt>
      <trkpt lat="45.10857" lon="5.34112">
        <ele>360.90174</ele>
        <time>2011-06-12T09:16:39Z</time>
      </trkpt>
      <trkpt lat="45.10875" lon="5.34091">
        <ele>357.580239</ele>
        <time>2011-06-12T09:16:41Z</time>
      </trkpt>
      <trkpt lat="45.10903" lon="5.34062">
        <ele>354.693894</ele>
        <time>2011-06-12T09:16:44Z</time>
      </trkpt>
      <trkpt lat="45.10928" lon="5.34023">
        <ele>352.395266</ele>
        <time>2011-06-12T09:16:47Z</time>
      </trkpt>
      <trkpt lat="45.10942" lon="5.33993">
        <ele>350.725488</ele>
        <time>2011-06-12T09:16:49Z</time>
      </trkpt>
      <trkpt lat="45.10956" lon="5.33966">
        <ele>349.630852</ele>
        <time>2011-06-12T09:16:51Z</time>
      </trkpt>
      <trkpt lat="45.10977" lon="5.33927">
        <ele>348.830717</ele>
        <time>2011-06-12T09:16:54Z</time>
      </trkpt>
      <trkpt lat="45.10997" lon="5.33909">
        <ele>348.098502</ele>
        <time>2011-06-12T09:16:56Z</time>
      </trkpt>
      <trkpt lat="45.11019" lon="5.33898">
        <ele>347.413373</ele>
        <time>2011-06-12T09:16:58Z</time>
      </trkpt>
      <trkpt lat="45.11037" lon="5.3388">
        <ele>346.793888</ele>
        <time>2011-06-12T09:17:00Z</time>
      </trkpt>
      <trkpt lat="45.11052" lon="5.33853">
        <ele>346.27115</ele>
        <time>2011-06-12T09:17:02Z</time>
      </trkpt>
      <trkpt lat="45.1107" lon="5.33807">
        <ele>345.911112</ele>
        <time>2011-06-12T09:17:05Z</time>
      </trkpt>
      <trkpt lat="45.11081" lon="5.33769">
        <ele>345.691386</ele>
        <time>2011-06-12T09:17:07Z</time>
      </trkpt>
      <trkpt lat="45.11098" lon="5.33689">
        <ele>345.458286</ele>
        <time>2011-06-12T09:17:10Z</time>
      </trkpt>
      <trkpt lat="45.11108" lon="5.3362">
        <ele>345.011194</ele>
        <time>2011-06-12T09:17:13Z</time>
      </trkpt>
      <trkpt lat="45.11105" lon="5.33586">
        <ele>344.315135</ele>
        <time>2011-06-12T09:17:15Z</time>
      </trkpt>
      <trkpt lat="45.11091" lon="5.3356">
        <ele>342.801089</ele>
        <time>2011-06-12T09:17:17Z</time>
      </trkpt>
      <trkpt lat="45.11047" lon="5.33537">
        <ele>339.222724</ele>
        <time>2011-06-12T09:17:20Z</time>
      </trkpt>
      <trkpt lat="45.11019" lon="5.33518">
        <ele>333.878041</ele>
        <time>2011-06-12T09:17:22Z</time>
      </trkpt>
      <trkpt lat="45.10981" lon="5.3349">
        <ele>328.94073</ele>
        <time>2011-06-12T09:17:25Z</time>
      </trkpt>
      <trkpt lat="45.10946" lon="5.33462">
        <ele>325.264835</ele>
        <time>2011-06-12T09:17:28Z</time>
      </trkpt>
      <trkpt lat="45.10924" lon="5.33447">
        <ele>321.707236</ele>
        <time>2011-06-12T09:17:30Z</time>
      </trkpt>
      <trkpt lat="45.109" lon="5.33414">
        <ele>317.108931</ele>
        <time>2011-06-12T09:17:33Z</time>
      </trkpt>
      <trkpt lat="45.10895" lon="5.33386">
        <ele>311.434846</ele>
        <time>2011-06-12T09:17:35Z</time>
      </trkpt>
      <trkpt lat="45.10876" lon="5.33352">
        <ele>305.861124</ele>
        <time>2011-06-12T09:17:38Z</time>
      </trkpt>
      <trkpt lat="45.10859" lon="5.33333">
        <ele>301.514433</ele>
        <time>2011-06-12T09:17:40Z</time>
      </trkpt>
      <trkpt lat="45.10841" lon="5.33316">
        <ele>298.519179</ele>
        <time>2011-06-12T09:17:42Z</time>
      </trkpt>
      <trkpt lat="45.10814" lon="5.33288">
        <ele>296.470541</ele>
        <time>2011-06-12T09:17:45Z</time>
      </trkpt>
      <trkpt lat="45.10796" lon="5.33273">
        <ele>294.743297</ele>
        <time>2011-06-12T09:17:47Z</time>
      </trkpt>
      <trkpt lat="45.10787" lon="5.33238">
        <ele>292.864323</ele>
        <time>2011-06-12T09:17:50Z</time>
      </trkpt>
      <trkpt lat="45.10791" lon="5.33213">
        <ele>290.75966</ele>
        <time>2011-06-12T09:17:52Z</time>
      </trkpt>
      <trkpt lat="45.10802" lon="5.33177">
        <ele>288.54427</ele>
        <time>2011-06-12T09:17:55Z</time>
      </trkpt>
      <trkpt lat="45.10815" lon="5.33139">
        <ele>286.42117</ele>
        <time>2011-06-12T09:17:58Z</time>
      </trkpt>
      <trkpt lat="45.10824" lon="5.33113">
        <ele>284.575078</ele>
        <time>2011-06-12T09:18:00Z</time>
      </trkpt>
      <trkpt lat="45.10836" lon="5.33072">
        <ele>283.096871</ele>
        <time>2011-06-12T09:18:03Z</time>
      </trkpt>
      <trkpt lat="45.10844" lon="5.33044">
        <ele>281.723898</ele>
        <time>2011-06-12T09:18:05Z</time>
      </trkpt>
      <trkpt lat="45.10851" lon="5.33016">
        <ele>280.137765</ele>
        <time>2011-06-12T09:18:07Z</time>
      </trkpt>
      <trkpt lat="45.10862" lon="5.32975">
        <ele>278.452837</ele>
        <time>2011-06-12T09:18:10Z</time>
      </trkpt>
      <trkpt lat="45.10869" lon="5.32949">
        <ele>276.846515</ele>
        <time>2011-06-12T09:18:12Z</time>
      </trkpt>
      <trkpt lat="45.10878" lon="5.32911">
        <ele>275.370827</ele>
        <time>2011-06-12T09:18:15Z</time>
      </trkpt>
      <trkpt lat="45.10883" lon="5.32887">
        <ele>273.946761</ele>
        <time>2011-06-12T09:18:17Z</time>
      </trkpt>
      <trkpt lat="45.10894" lon="5.32859">
        <ele>272.364591</ele>
        <time>2011-06-12T09:18:20Z</time>
      </trkpt>
      <trkpt lat="45.10907" lon="5.32853">
        <ele>270.513762</ele>
        <time>2011-06-12T09:18:22Z</time>
      </trkpt>
      <trkpt lat="45.10927" lon="5.32855">
        <ele>268.528968</ele>
        <time>2011-06-12T09:18:25Z</time>
      </trkpt>
      <trkpt lat="45.10946" lon="5.32858">
        <ele>266.582067</ele>
        <time>2011-06-12T09:18:28Z</time>
      </trkpt>
      <trkpt lat="45.10966" lon="5.3286">
        <ele>264.745992</ele>
        <time>2011-06-12T09:18:31Z</time>
      </trkpt>
      <trkpt lat="45.10977" lon="5.32861">
        <ele>262.94595</ele>
        <time>2011-06-12T09:18:33Z</time>
      </trkpt>
      <trkpt lat="45.10987" lon="5.32862">
        <ele>261.017558</ele>
        <time>2011-06-12T09:18:35Z</time>
      </trkpt>
      <trkpt lat="45.11003" lon="5.32865">
        <ele>258.928064</ele>
        <time>2011-06-12T09:18:38Z</time>
      </trkpt>
      <trkpt lat="45.11014" lon="5.32867">
        <ele>256.995991</ele>
        <time>2011-06-12T09:18:40Z</time>
      </trkpt>
      <trkpt lat="45.11031" lon="5.32871">
        <ele>255.533559</ele>
        <time>2011-06-12T09:18:43Z</time>
      </trkpt>
      <trkpt lat="45.11041" lon="5.32864">
        <ele>254.559384</ele>
        <time>2011-06-12T09:18:45Z</time>
      </trkpt>
      <trkpt lat="45.1105" lon="5.32854">
        <ele>253.90246</ele>
        <time>2011-06-12T09:18:47Z</time>
      </trkpt>
      <trkpt lat="45.11061" lon="5.32831">
        <ele>253.43043</ele>
        <time>2011-06-12T09:18:50Z</time>
      </trkpt>
      <trkpt lat="45.11071" lon="5.32804">
        <ele>253.083788</ele>
        <time>2011-06-12T09:18:53Z</time>
      </trkpt>
      <trkpt lat="45.11078" lon="5.32787">
        <ele>252.832054</ele>
        <time>2011-06-12T09:18:55Z</time>
      </trkpt>
      <trkpt lat="45.11088" lon="5.3276">
        <ele>252.623723</ele>
        <time>2011-06-12T09:18:58Z</time>
      </trkpt>
      <trkpt lat="45.11098" lon="5.32733">
        <ele>252.434378</ele>
        <time>2011-06-12T09:19:01Z</time>
      </trkpt>
      <trkpt lat="45.11108" lon="5.32707">
        <ele>252.305651</ele>
        <time>2011-06-12T09:19:04Z</time>
      </trkpt>
      <trkpt lat="45.11115" lon="5.32691">
        <ele>252.20287</ele>
        <time>2011-06-12T09:19:06Z</time>
      </trkpt>
      <trkpt lat="45.11124" lon="5.32665">
        <ele>251.97063</ele>
        <time>2011-06-12T09:19:09Z</time>
      </trkpt>
      <trkpt lat="45.1113" lon="5.32646">
        <ele>251.484466</ele>
        <time>2011-06-12T09:19:11Z</time>
      </trkpt>
      <trkpt lat="45.11139" lon="5.32618">
        <ele>250.789532</ele>
        <time>2011-06-12T09:19:14Z</time>
      </trkpt>
      <trkpt lat="45.11148" lon="5.3259">
        <ele>250.05482</ele>
        <time>2011-06-12T09:19:17Z</time>
      </trkpt>
      <trkpt lat="45.11159" lon="5.32575">
        <ele>249.414339</ele>
        <time>2011-06-12T09:19:20Z</time>
      </trkpt>
      <trkpt lat="45.11174" lon="5.32575">
        <ele>248.864452</ele>
        <time>2011-06-12T09:19:23Z</time>
      </trkpt>
      <trkpt lat="45.11191" lon="5.3258">
        <ele>248.347852</ele>
        <time>2011-06-12T09:19:26Z</time>
      </trkpt>
      <trkpt lat="45.11203" lon="5.32585">
        <ele>247.851787</ele>
        <time>2011-06-12T09:19:28Z</time>
      </trkpt>
      <trkpt lat="45.11221" lon="5.32594">
        <ele>247.366107</ele>
        <time>2011-06-12T09:19:31Z</time>
      </trkpt>
      <trkpt lat="45.11239" lon="5.32602">
        <ele>246.847195</ele>
        <time>2011-06-12T09:19:34Z</time>
      </trkpt>
      <trkpt lat="45.11255" lon="5.32608">
        <ele>246.290035</ele>
        <time>2011-06-12T09:19:37Z</time>
      </trkpt>
      <trkpt lat="45.11271" lon="5.32614">
        <ele>245.662992</ele>
        <time>2011-06-12T09:19:40Z</time>
      </trkpt>
      <trkpt lat="45.11287" lon="5.32621">
        <ele>244.852779</ele>
        <time>2011-06-12T09:19:43Z</time>
      </trkpt>
      <trkpt lat="45.11297" lon="5.32627">
        <ele>243.888224</ele>
        <time>2011-06-12T09:19:45Z</time>
      </trkpt>
      <trkpt lat="45.11311" lon="5.32638">
        <ele>243.064535</ele>
        <time>2011-06-12T09:19:48Z</time>
      </trkpt>
      <trkpt lat="45.11321" lon="5.32647">
        <ele>242.621858</ele>
        <time>2011-06-12T09:19:50Z</time>
      </trkpt>
      <trkpt lat="45.1133" lon="5.32656">
        <ele>242.508301</ele>
        <time>2011-06-12T09:19:52Z</time>
      </trkpt>
      <trkpt lat="45.11345" lon="5.32672">
        <ele>242.542886</ele>
        <time>2011-06-12T09:19:55Z</time>
      </trkpt>
      <trkpt lat="45.1136" lon="5.32687">
        <ele>242.590946</ele>
        <time>2011-06-12T09:19:58Z</time>
      </trkpt>
      <trkpt lat="45.11372" lon="5.32693">
        <ele>242.598105</ele>
        <time>2011-06-12T09:20:00Z</time>
      </trkpt>
      <trkpt lat="45.11383" lon="5.32699">
        <ele>242.576395</ele>
        <time>2011-06-12T09:20:02Z</time>
      </trkpt>
      <trkpt lat="45.11397" lon="5.32703">
        <ele>242.521359</ele>
        <time>2011-06-12T09:20:04Z</time>
      </trkpt>
      <trkpt lat="45.1141" lon="5.32708">
        <ele>242.296054</ele>
        <time>2011-06-12T09:20:06Z</time>
      </trkpt>
      <trkpt lat="45.11424" lon="5.32713">
        <ele>241.748633</ele>
        <time>2011-06-12T09:20:08Z</time>
      </trkpt>
      <trkpt lat="45.11445" lon="5.32722">
        <ele>240.952704</ele>
        <time>2011-06-12T09:20:11Z</time>
      </trkpt>
      <trkpt lat="45.11459" lon="5.32728">
        <ele>240.170825</ele>
        <time>2011-06-12T09:20:13Z</time>
      </trkpt>
      <trkpt lat="45.1148" lon="5.32735">
        <ele>239.631382</ele>
        <time>2011-06-12T09:20:16Z</time>
      </trkpt>
      <trkpt lat="45.11501" lon="5.32742">
        <ele>239.401846</ele>
        <time>2011-06-12T09:20:19Z</time>
      </trkpt>
      <trkpt lat="45.11522" lon="5.3275">
        <ele>239.382942</ele>
        <time>2011-06-12T09:20:22Z</time>
      </trkpt>
      <trkpt lat="45.11544" lon="5.32754">
        <ele>239.434127</ele>
        <time>2011-06-12T09:20:25Z</time>
      </trkpt>
      <trkpt lat="45.11559" lon="5.32756">
        <ele>239.478003</ele>
        <time>2011-06-12T09:20:27Z</time>
      </trkpt>
      <trkpt lat="45.11581" lon="5.32754">
        <ele>239.496412</ele>
        <time>2011-06-12T09:20:30Z</time>
      </trkpt>
      <trkpt lat="45.11605" lon="5.32753">
        <ele>239.483982</ele>
        <time>2011-06-12T09:20:33Z</time>
      </trkpt>
      <trkpt lat="45.11629" lon="5.32752">
        <ele>239.441918</ele>
        <time>2011-06-12T09:20:36Z</time>
      </trkpt>
      <trkpt lat="45.11652" lon="5.32751">
        <ele>239.392646</ele>
        <time>2011-06-12T09:20:39Z</time>
      </trkpt>
      <trkpt lat="45.11665" lon="5.32751">
        <ele>239.312994</ele>
        <time>2011-06-12T09:20:41Z</time>
      </trkpt>
      <trkpt lat="45.11676" lon="5.32751">
        <ele>239.053159</ele>
        <time>2011-06-12T09:20:43Z</time>
      </trkpt>
      <trkpt lat="45.11686" lon="5.32749">
        <ele>238.362724</ele>
        <time>2011-06-12T09:20:46Z</time>
      </trkpt>
      <trkpt lat="45.11686" lon="5.32749">
        <ele>237.348595</ele>
        <time>2011-06-12T09:20:48Z</time>
      </trkpt>
      <trkpt lat="45.11706" lon="5.32738">
        <ele>236.396647</ele>
        <time>2011-06-12T09:20:56Z</time>
      </trkpt>
      <trkpt lat="45.11715" lon="5.32742">
        <ele>235.611833</ele>
        <time>2011-06-12T09:20:59Z</time>
      </trkpt>
      <trkpt lat="45.11728" lon="5.32751">
        <ele>234.967355</ele>
        <time>2011-06-12T09:21:02Z</time>
      </trkpt>
      <trkpt lat="45.11743" lon="5.32747">
        <ele>234.534483</ele>
        <time>2011-06-12T09:21:05Z</time>
      </trkpt>
      <trkpt lat="45.11759" lon="5.32743">
        <ele>234.267875</ele>
        <time>2011-06-12T09:21:08Z</time>
      </trkpt>
      <trkpt lat="45.1177" lon="5.32744">
        <ele>234.102652</ele>
        <time>2011-06-12T09:21:10Z</time>
      </trkpt>
      <trkpt lat="45.11789" lon="5.32744">
        <ele>234.00223</ele>
        <time>2011-06-12T09:21:13Z</time>
      </trkpt>
      <trkpt lat="45.11801" lon="5.32743">
        <ele>233.933611</ele>
        <time>2011-06-12T09:21:15Z</time>
      </trkpt>
      <trkpt lat="45.11813" lon="5.3274">
        <ele>233.890765</ele>
        <time>2011-06-12T09:21:17Z</time>
      </trkpt>
      <trkpt lat="45.11831" lon="5.32737">
        <ele>233.645129</ele>
        <time>2011-06-12T09:21:20Z</time>
      </trkpt>
      <trkpt lat="45.11842" lon="5.32734">
        <ele>232.900465</ele>
        <time>2011-06-12T09:21:22Z</time>
      </trkpt>
      <trkpt lat="45.11854" lon="5.32732">
        <ele>231.738674</ele>
        <time>2011-06-12T09:21:24Z</time>
      </trkpt>
      <trkpt lat="45.11872" lon="5.32729">
        <ele>230.400121</ele>
        <time>2011-06-12T09:21:27Z</time>
      </trkpt>
      <trkpt lat="45.11884" lon="5.32728">
        <ele>229.035287</ele>
        <time>2011-06-12T09:21:29Z</time>
      </trkpt>
      <trkpt lat="45.11902" lon="5.32726">
        <ele>227.852544</ele>
        <time>2011-06-12T09:21:32Z</time>
      </trkpt>
      <trkpt lat="45.1192" lon="5.32724">
        <ele>226.939038</ele>
        <time>2011-06-12T09:21:35Z</time>
      </trkpt>
      <trkpt lat="45.11939" lon="5.32722">
        <ele>226.214145</ele>
        <time>2011-06-12T09:21:38Z</time>
      </trkpt>
      <trkpt lat="45.11959" lon="5.3272">
        <ele>225.569703</ele>
        <time>2011-06-12T09:21:41Z</time>
      </trkpt>
      <trkpt lat="45.11971" lon="5.32719">
        <ele>224.890926</ele>
        <time>2011-06-12T09:21:43Z</time>
      </trkpt>
      <trkpt lat="45.1199" lon="5.32717">
        <ele>224.145188</ele>
        <time>2011-06-12T09:21:46Z</time>
      </trkpt>
      <trkpt lat="45.12009" lon="5.32714">
        <ele>223.420726</ele>
        <time>2011-06-12T09:21:49Z</time>
      </trkpt>
      <trkpt lat="45.12022" lon="5.32712">
        <ele>222.818514</ele>
        <time>2011-06-12T09:21:51Z</time>
      </trkpt>
      <trkpt lat="45.12036" lon="5.32711">
        <ele>222.313101</ele>
        <time>2011-06-12T09:21:53Z</time>
      </trkpt>
      <trkpt lat="45.12056" lon="5.32709">
        <ele>221.754962</ele>
        <time>2011-06-12T09:21:56Z</time>
      </trkpt>
      <trkpt lat="45.12069" lon="5.32708">
        <ele>221.136197</ele>
        <time>2011-06-12T09:21:58Z</time>
      </trkpt>
      <trkpt lat="45.12089" lon="5.32706">
        <ele>220.656282</ele>
        <time>2011-06-12T09:22:01Z</time>
      </trkpt>
      <trkpt lat="45.12109" lon="5.32704">
        <ele>220.413997</ele>
        <time>2011-06-12T09:22:04Z</time>
      </trkpt>
      <trkpt lat="45.12131" lon="5.32706">
        <ele>220.282392</ele>
        <time>2011-06-12T09:22:07Z</time>
      </trkpt>
      <trkpt lat="45.12154" lon="5.32713">
        <ele>220.077008</ele>
        <time>2011-06-12T09:22:10Z</time>
      </trkpt>
      <trkpt lat="45.1217" lon="5.32721">
        <ele>219.696525</ele>
        <time>2011-06-12T09:22:12Z</time>
      </trkpt>
      <trkpt lat="45.12187" lon="5.32731">
        <ele>219.143999</ele>
        <time>2011-06-12T09:22:14Z</time>
      </trkpt>
      <trkpt lat="45.12211" lon="5.32753">
        <ele>218.518775</ele>
        <time>2011-06-12T09:22:17Z</time>
      </trkpt>
      <trkpt lat="45.12226" lon="5.32771">
        <ele>217.953517</ele>
        <time>2011-06-12T09:22:19Z</time>
      </trkpt>
      <trkpt lat="45.1224" lon="5.32791">
        <ele>217.480817</ele>
        <time>2011-06-12T09:22:21Z</time>
      </trkpt>
      <trkpt lat="45.12258" lon="5.32825">
        <ele>216.997976</ele>
        <time>2011-06-12T09:22:24Z</time>
      </trkpt>
      <trkpt lat="45.1227" lon="5.32851">
        <ele>216.509017</ele>
        <time>2011-06-12T09:22:26Z</time>
      </trkpt>
      <trkpt lat="45.12281" lon="5.32876">
        <ele>216.178721</ele>
        <time>2011-06-12T09:22:28Z</time>
      </trkpt>
      <trkpt lat="45.12298" lon="5.32915">
        <ele>216.069373</ele>
        <time>2011-06-12T09:22:31Z</time>
      </trkpt>
      <trkpt lat="45.12309" lon="5.32941">
        <ele>216.081257</ele>
        <time>2011-06-12T09:22:33Z</time>
      </trkpt>
      <trkpt lat="45.12319" lon="5.32968">
        <ele>216.228221</ele>
        <time>2011-06-12T09:22:35Z</time>
      </trkpt>
      <trkpt lat="45.12329" lon="5.32995">
        <ele>216.643088</ele>
        <time>2011-06-12T09:22:37Z</time>
      </trkpt>
      <trkpt lat="45.12343" lon="5.33034">
        <ele>217.22338</ele>
        <time>2011-06-12T09:22:40Z</time>
      </trkpt>
      <trkpt lat="45.1236" lon="5.3307">
        <ele>217.651286</ele>
        <time>2011-06-12T09:22:43Z</time>
      </trkpt>
      <trkpt lat="45.12387" lon="5.33088">
        <ele>217.807719</ele>
        <time>2011-06-12T09:22:46Z</time>
      </trkpt>
      <trkpt lat="45.12414" lon="5.33083">
        <ele>217.63278</ele>
        <time>2011-06-12T09:22:49Z</time>
      </trkpt>
      <trkpt lat="45.12438" lon="5.33068">
        <ele>216.877582</ele>
        <time>2011-06-12T09:22:52Z</time>
      </trkpt>
      <trkpt lat="45.12453" lon="5.33057">
        <ele>215.427016</ele>
        <time>2011-06-12T09:22:54Z</time>
      </trkpt>
      <trkpt lat="45.12468" lon="5.33046">
        <ele>213.54609</ele>
        <time>2011-06-12T09:22:56Z</time>
      </trkpt>
      <trkpt lat="45.12482" lon="5.33033">
        <ele>211.673085</ele>
        <time>2011-06-12T09:22:58Z</time>
      </trkpt>
      <trkpt lat="45.12502" lon="5.33015">
        <ele>210.216669</ele>
        <time>2011-06-12T09:23:01Z</time>
      </trkpt>
      <trkpt lat="45.12515" lon="5.33005">
        <ele>209.377567</ele>
        <time>2011-06-12T09:23:03Z</time>
      </trkpt>
      <trkpt lat="45.12535" lon="5.3299">
        <ele>209.01769</ele>
        <time>2011-06-12T09:23:06Z</time>
      </trkpt>
      <trkpt lat="45.12554" lon="5.32974">
        <ele>208.675911</ele>
        <time>2011-06-12T09:23:09Z</time>
      </trkpt>
      <trkpt lat="45.12563" lon="5.32959">
        <ele>207.963307</ele>
        <time>2011-06-12T09:23:11Z</time>
      </trkpt>
      <trkpt lat="45.12568" lon="5.32941">
        <ele>206.855947</ele>
        <time>2011-06-12T09:23:13Z</time>
      </trkpt>
      <trkpt lat="45.12568" lon="5.32912">
        <ele>205.414224</ele>
        <time>2011-06-12T09:23:16Z</time>
      </trkpt>
      <trkpt lat="45.12562" lon="5.32884">
        <ele>203.730653</ele>
        <time>2011-06-12T09:23:19Z</time>
      </trkpt>
      <trkpt lat="45.12555" lon="5.32857">
        <ele>202.123281</ele>
        <time>2011-06-12T09:23:22Z</time>
      </trkpt>
      <trkpt lat="45.12546" lon="5.3283">
        <ele>200.845876</ele>
        <time>2011-06-12T09:23:25Z</time>
      </trkpt>
      <trkpt lat="45.1254" lon="5.32812">
        <ele>199.901329</ele>
        <time>2011-06-12T09:23:27Z</time>
      </trkpt>
      <trkpt lat="45.12531" lon="5.32785">
        <ele>199.160251</ele>
        <time>2011-06-12T09:23:30Z</time>
      </trkpt>
      <trkpt lat="45.12523" lon="5.32756">
        <ele>198.421518</ele>
        <time>2011-06-12T09:23:33Z</time>
      </trkpt>
      <trkpt lat="45.12512" lon="5.32725">
        <ele>197.691098</ele>
        <time>2011-06-12T09:23:36Z</time>
      </trkpt>
      <trkpt lat="45.12506" lon="5.32705">
        <ele>197.205682</ele>
        <time>2011-06-12T09:23:38Z</time>
      </trkpt>
      <trkpt lat="45.12499" lon="5.32684">
        <ele>197.048778</ele>
        <time>2011-06-12T09:23:40Z</time>
      </trkpt>
      <trkpt lat="45.12491" lon="5.32653">
        <ele>197.066629</ele>
        <time>2011-06-12T09:23:43Z</time>
      </trkpt>
      <trkpt lat="45.12483" lon="5.32621">
        <ele>197.120184</ele>
        <time>2011-06-12T09:23:46Z</time>
      </trkpt>
      <trkpt lat="45.12474" lon="5.32589">
        <ele>197.159168</ele>
        <time>2011-06-12T09:23:49Z</time>
      </trkpt>
      <trkpt lat="45.12468" lon="5.32569">
        <ele>197.222097</ele>
        <time>2011-06-12T09:23:51Z</time>
      </trkpt>
      <trkpt lat="45.12458" lon="5.3254">
        <ele>197.333794</ele>
        <time>2011-06-12T09:23:54Z</time>
      </trkpt>
      <trkpt lat="45.12449" lon="5.32512">
        <ele>197.567655</ele>
        <time>2011-06-12T09:23:57Z</time>
      </trkpt>
      <trkpt lat="45.12443" lon="5.32492">
        <ele>198.064318</ele>
        <time>2011-06-12T09:23:59Z</time>
      </trkpt>
      <trkpt lat="45.12434" lon="5.32461">
        <ele>198.735539</ele>
        <time>2011-06-12T09:24:02Z</time>
      </trkpt>
      <trkpt lat="45.12427" lon="5.32427">
        <ele>199.262043</ele>
        <time>2011-06-12T09:24:05Z</time>
      </trkpt>
      <trkpt lat="45.12423" lon="5.32402">
        <ele>199.494792</ele>
        <time>2011-06-12T09:24:07Z</time>
      </trkpt>
      <trkpt lat="45.12419" lon="5.32365">
        <ele>199.519799</ele>
        <time>2011-06-12T09:24:10Z</time>
      </trkpt>
      <trkpt lat="45.12421" lon="5.32342">
        <ele>199.455015</ele>
        <time>2011-06-12T09:24:12Z</time>
      </trkpt>
      <trkpt lat="45.12424" lon="5.32321">
        <ele>199.248744</ele>
        <time>2011-06-12T09:24:14Z</time>
      </trkpt>
      <trkpt lat="45.12432" lon="5.32294">
        <ele>198.673628</ele>
        <time>2011-06-12T09:24:17Z</time>
      </trkpt>
      <trkpt lat="45.12442" lon="5.32272">
        <ele>197.661357</ele>
        <time>2011-06-12T09:24:20Z</time>
      </trkpt>
      <trkpt lat="45.12451" lon="5.32252">
        <ele>196.441721</ele>
        <time>2011-06-12T09:24:23Z</time>
      </trkpt>
      <trkpt lat="45.12451" lon="5.32232">
        <ele>195.179967</ele>
        <time>2011-06-12T09:24:26Z</time>
      </trkpt>
      <trkpt lat="45.12445" lon="5.32214">
        <ele>193.842668</ele>
        <time>2011-06-12T09:24:29Z</time>
      </trkpt>
      <trkpt lat="45.1244" lon="5.32207">
        <ele>192.584722</ele>
        <time>2011-06-12T09:24:31Z</time>
      </trkpt>
      <trkpt lat="45.12432" lon="5.32201">
        <ele>191.755294</ele>
        <time>2011-06-12T09:24:34Z</time>
      </trkpt>
      <trkpt lat="45.12425" lon="5.32196">
        <ele>191.439295</ele>
        <time>2011-06-12T09:24:36Z</time>
      </trkpt>
      <trkpt lat="45.12413" lon="5.32183">
        <ele>191.411949</ele>
        <time>2011-06-12T09:24:39Z</time>
      </trkpt>
      <trkpt lat="45.12407" lon="5.3217">
        <ele>191.48142</ele>
        <time>2011-06-12T09:24:41Z</time>
      </trkpt>
      <trkpt lat="45.124" lon="5.32158">
        <ele>191.567501</ele>
        <time>2011-06-12T09:24:43Z</time>
      </trkpt>
      <trkpt lat="45.12394" lon="5.32145">
        <ele>191.660145</ele>
        <time>2011-06-12T09:24:45Z</time>
      </trkpt>
      <trkpt lat="45.12387" lon="5.32125">
        <ele>191.782781</ele>
        <time>2011-06-12T09:24:48Z</time>
      </trkpt>
      <trkpt lat="45.12385" lon="5.32111">
        <ele>191.911439</ele>
        <time>2011-06-12T09:24:50Z</time>
      </trkpt>
      <trkpt lat="45.12379" lon="5.32093">
        <ele>191.989578</ele>
        <time>2011-06-12T09:24:53Z</time>
      </trkpt>
      <trkpt lat="45.12375" lon="5.3208">
        <ele>192.011678</ele>
        <time>2011-06-12T09:24:56Z</time>
      </trkpt>
      <trkpt lat="45.12372" lon="5.32072">
        <ele>191.976732</ele>
        <time>2011-06-12T09:24:58Z</time>
      </trkpt>
      <trkpt lat="45.12368" lon="5.32061">
        <ele>191.846964</ele>
        <time>2011-06-12T09:25:01Z</time>
      </trkpt>
      <trkpt lat="45.12365" lon="5.3205">
        <ele>191.599044</ele>
        <time>2011-06-12T09:25:04Z</time>
      </trkpt>
      <trkpt lat="45.12363" lon="5.32044">
        <ele>191.29411</ele>
        <time>2011-06-12T09:25:06Z</time>
      </trkpt>
      <trkpt lat="45.12361" lon="5.32037">
        <ele>191.05215</ele>
        <time>2011-06-12T09:25:08Z</time>
      </trkpt>
      <trkpt lat="45.12358" lon="5.32028">
        <ele>190.939922</ele>
        <time>2011-06-12T09:25:11Z</time>
      </trkpt>
      <trkpt lat="45.12355" lon="5.32018">
        <ele>190.924471</ele>
        <time>2011-06-12T09:25:14Z</time>
      </trkpt>
      <trkpt lat="45.12353" lon="5.32012">
        <ele>190.949709</ele>
        <time>2011-06-12T09:25:16Z</time>
      </trkpt>
      <trkpt lat="45.12349" lon="5.31998">
        <ele>190.993834</ele>
        <time>2011-06-12T09:25:19Z</time>
      </trkpt>
      <trkpt lat="45.12346" lon="5.31989">
        <ele>191.051066</ele>
        <time>2011-06-12T09:25:21Z</time>
      </trkpt>
      <trkpt lat="45.12343" lon="5.31981">
        <ele>191.101907</ele>
        <time>2011-06-12T09:25:23Z</time>
      </trkpt>
      <trkpt lat="45.12338" lon="5.31969">
        <ele>191.128515</ele>
        <time>2011-06-12T09:25:26Z</time>
      </trkpt>
      <trkpt lat="45.12336" lon="5.31961">
        <ele>191.134037</ele>
        <time>2011-06-12T09:25:28Z</time>
      </trkpt>
      <trkpt lat="45.12333" lon="5.31955">
        <ele>191.122083</ele>
        <time>2011-06-12T09:25:30Z</time>
      </trkpt>
      <trkpt lat="45.1233" lon="5.3195">
        <ele>191.078601</ele>
        <time>2011-06-12T09:25:32Z</time>
      </trkpt>
      <trkpt lat="45.12325" lon="5.31939">
        <ele>191.001073</ele>
        <time>2011-06-12T09:25:35Z</time>
      </trkpt>
      <trkpt lat="45.12322" lon="5.31926">
        <ele>190.923255</ele>
        <time>2011-06-12T09:25:38Z</time>
      </trkpt>
      <trkpt lat="45.12321" lon="5.31911">
        <ele>190.87885</ele>
        <time>2011-06-12T09:25:41Z</time>
      </trkpt>
      <trkpt lat="45.12319" lon="5.31901">
        <ele>190.86763</ele>
        <time>2011-06-12T09:25:43Z</time>
      </trkpt>
      <trkpt lat="45.12318" lon="5.31891">
        <ele>190.895772</ele>
        <time>2011-06-12T09:25:45Z</time>
      </trkpt>
      <trkpt lat="45.12316" lon="5.31877">
        <ele>191.012717</ele>
        <time>2011-06-12T09:25:48Z</time>
      </trkpt>
      <trkpt lat="45.12314" lon="5.31864">
        <ele>191.249214</ele>
        <time>2011-06-12T09:25:51Z</time>
      </trkpt>
      <trkpt lat="45.12313" lon="5.31857">
        <ele>191.561428</ele>
        <time>2011-06-12T09:25:53Z</time>
      </trkpt>
      <trkpt lat="45.12311" lon="5.31844">
        <ele>191.893889</ele>
        <time>2011-06-12T09:25:56Z</time>
      </trkpt>
      <trkpt lat="45.1231" lon="5.31834">
        <ele>192.219593</ele>
        <time>2011-06-12T09:25:59Z</time>
      </trkpt>
      <trkpt lat="45.12309" lon="5.31827">
        <ele>192.508556</ele>
        <time>2011-06-12T09:26:01Z</time>
      </trkpt>
      <trkpt lat="45.12308" lon="5.31819">
        <ele>192.757377</ele>
        <time>2011-06-12T09:26:03Z</time>
      </trkpt>
      <trkpt lat="45.12306" lon="5.31808">
        <ele>193.004546</ele>
        <time>2011-06-12T09:26:06Z</time>
      </trkpt>
      <trkpt lat="45.12303" lon="5.31802">
        <ele>193.258425</ele>
        <time>2011-06-12T09:26:08Z</time>
      </trkpt>
      <trkpt lat="45.1229" lon="5.31756">
        <ele>193.489357</ele>
        <time>2011-06-12T09:26:24Z</time>
      </trkpt>
      <trkpt lat="45.12288" lon="5.31748">
        <ele>193.695759</ele>
        <time>2011-06-12T09:26:27Z</time>
      </trkpt>
      <trkpt lat="45.1228" lon="5.31706">
        <ele>193.894888</ele>
        <time>2011-06-12T09:26:40Z</time>
      </trkpt>
      <trkpt lat="45.12277" lon="5.31692">
        <ele>194.216877</ele>
        <time>2011-06-12T09:26:44Z</time>
      </trkpt>
      <trkpt lat="45.12276" lon="5.31677">
        <ele>194.722321</ele>
        <time>2011-06-12T09:26:48Z</time>
      </trkpt>
      <trkpt lat="45.12275" lon="5.31666">
        <ele>195.24547</ele>
        <time>2011-06-12T09:26:51Z</time>
      </trkpt>
      <trkpt lat="45.12274" lon="5.31651">
        <ele>195.659173</ele>
        <time>2011-06-12T09:26:55Z</time>
      </trkpt>
      <trkpt lat="45.12274" lon="5.31638">
        <ele>196.022726</ele>
        <time>2011-06-12T09:26:59Z</time>
      </trkpt>
      <trkpt lat="45.12273" lon="5.31624">
        <ele>196.407649</ele>
        <time>2011-06-12T09:27:03Z</time>
      </trkpt>
      <trkpt lat="45.12273" lon="5.31608">
        <ele>196.898201</ele>
        <time>2011-06-12T09:27:08Z</time>
      </trkpt>
      <trkpt lat="45.12274" lon="5.31592">
        <ele>197.550396</ele>
        <time>2011-06-12T09:27:12Z</time>
      </trkpt>
      <trkpt lat="45.12273" lon="5.31576">
        <ele>198.325993</ele>
        <time>2011-06-12T09:27:16Z</time>
      </trkpt>
      <trkpt lat="45.12271" lon="5.31559">
        <ele>199.108859</ele>
        <time>2011-06-12T09:27:20Z</time>
      </trkpt>
      <trkpt lat="45.1227" lon="5.31549">
        <ele>199.77385</ele>
        <time>2011-06-12T09:27:22Z</time>
      </trkpt>
      <trkpt lat="45.12267" lon="5.31538">
        <ele>200.235517</ele>
        <time>2011-06-12T09:27:24Z</time>
      </trkpt>
      <trkpt lat="45.12265" lon="5.31529">
        <ele>200.535579</ele>
        <time>2011-06-12T09:27:26Z</time>
      </trkpt>
      <trkpt lat="45.12262" lon="5.31518">
        <ele>200.792115</ele>
        <time>2011-06-12T09:27:29Z</time>
      </trkpt>
      <trkpt lat="45.12261" lon="5.3151">
        <ele>201.067372</ele>
        <time>2011-06-12T09:27:31Z</time>
      </trkpt>
      <trkpt lat="45.1226" lon="5.315">
        <ele>201.366877</ele>
        <time>2011-06-12T09:27:34Z</time>
      </trkpt>
      <trkpt lat="45.12258" lon="5.31494">
        <ele>201.694534</ele>
        <time>2011-06-12T09:27:36Z</time>
      </trkpt>
      <trkpt lat="45.12258" lon="5.31483">
        <ele>202.039311</ele>
        <time>2011-06-12T09:27:39Z</time>
      </trkpt>
      <trkpt lat="45.12257" lon="5.31472">
        <ele>202.374761</ele>
        <time>2011-06-12T09:27:42Z</time>
      </trkpt>
      <trkpt lat="45.12257" lon="5.31465">
        <ele>202.679525</ele>
        <time>2011-06-12T09:27:44Z</time>
      </trkpt>
      <trkpt lat="45.12256" lon="5.31458">
        <ele>202.94863</ele>
        <time>2011-06-12T09:27:46Z</time>
      </trkpt>
      <trkpt lat="45.12257" lon="5.31448">
        <ele>203.191403</ele>
        <time>2011-06-12T09:27:48Z</time>
      </trkpt>
      <trkpt lat="45.1226" lon="5.31438">
        <ele>203.418023</ele>
        <time>2011-06-12T09:27:50Z</time>
      </trkpt>
      <trkpt lat="45.12261" lon="5.31422">
        <ele>203.626607</ele>
        <time>2011-06-12T09:27:53Z</time>
      </trkpt>
      <trkpt lat="45.12261" lon="5.31406">
        <ele>203.827586</ele>
        <time>2011-06-12T09:27:56Z</time>
      </trkpt>
      <trkpt lat="45.12259" lon="5.31391">
        <ele>204.032418</ele>
        <time>2011-06-12T09:27:59Z</time>
      </trkpt>
      <trkpt lat="45.12258" lon="5.31381">
        <ele>204.252119</ele>
        <time>2011-06-12T09:28:01Z</time>
      </trkpt>
      <trkpt lat="45.12257" lon="5.31368">
        <ele>204.508947</ele>
        <time>2011-06-12T09:28:04Z</time>
      </trkpt>
      <trkpt lat="45.12256" lon="5.3136">
        <ele>204.807912</ele>
        <time>2011-06-12T09:28:06Z</time>
      </trkpt>
      <trkpt lat="45.12255" lon="5.31347">
        <ele>205.114734</ele>
        <time>2011-06-12T09:28:09Z</time>
      </trkpt>
      <trkpt lat="45.12254" lon="5.31334">
        <ele>205.409702</ele>
        <time>2011-06-12T09:28:12Z</time>
      </trkpt>
      <trkpt lat="45.12253" lon="5.31321">
        <ele>205.700962</ele>
        <time>2011-06-12T09:28:15Z</time>
      </trkpt>
      <trkpt lat="45.12252" lon="5.31309">
        <ele>206.009375</ele>
        <time>2011-06-12T09:28:18Z</time>
      </trkpt>
      <trkpt lat="45.12251" lon="5.31298">
        <ele>206.375231</ele>
        <time>2011-06-12T09:28:21Z</time>
      </trkpt>
      <trkpt lat="45.12249" lon="5.31287">
        <ele>206.825824</ele>
        <time>2011-06-12T09:28:24Z</time>
      </trkpt>
      <trkpt lat="45.12247" lon="5.31276">
        <ele>207.338631</ele>
        <time>2011-06-12T09:28:27Z</time>
      </trkpt>
      <trkpt lat="45.12246" lon="5.31265">
        <ele>207.878788</ele>
        <time>2011-06-12T09:28:30Z</time>
      </trkpt>
      <trkpt lat="45.12244" lon="5.31253">
        <ele>208.418328</ele>
        <time>2011-06-12T09:28:33Z</time>
      </trkpt>
      <trkpt lat="45.12243" lon="5.31246">
        <ele>208.937708</ele>
        <time>2011-06-12T09:28:35Z</time>
      </trkpt>
      <trkpt lat="45.12242" lon="5.31235">
        <ele>209.430108</ele>
        <time>2011-06-12T09:28:38Z</time>
      </trkpt>
      <trkpt lat="45.12241" lon="5.31228">
        <ele>209.90469</ele>
        <time>2011-06-12T09:28:40Z</time>
      </trkpt>
      <trkpt lat="45.12239" lon="5.31221">
        <ele>210.350806</ele>
        <time>2011-06-12T09:28:42Z</time>
      </trkpt>
      <trkpt lat="45.12238" lon="5.31211">
        <ele>210.752905</ele>
        <time>2011-06-12T09:28:45Z</time>
      </trkpt>
      <trkpt lat="45.12236" lon="5.312">
        <ele>211.117647</ele>
        <time>2011-06-12T09:28:48Z</time>
      </trkpt>
      <trkpt lat="45.12236" lon="5.31194">
        <ele>211.449735</ele>
        <time>2011-06-12T09:28:50Z</time>
      </trkpt>
      <trkpt lat="45.12234" lon="5.31187">
        <ele>211.768617</ele>
        <time>2011-06-12T09:28:52Z</time>
      </trkpt>
      <trkpt lat="45.12233" lon="5.31181">
        <ele>212.122313</ele>
        <time>2011-06-12T09:28:54Z</time>
      </trkpt>
      <trkpt lat="45.12231" lon="5.31171">
        <ele>212.504891</ele>
        <time>2011-06-12T09:28:57Z</time>
      </trkpt>
      <trkpt lat="45.12228" lon="5.31163">
        <ele>212.860259</ele>
        <time>2011-06-12T09:29:00Z</time>
      </trkpt>
      <trkpt lat="45.12227" lon="5.31154">
        <ele>213.163063</ele>
        <time>2011-06-12T09:29:03Z</time>
      </trkpt>
      <trkpt lat="45.12226" lon="5.31145">
        <ele>213.446691</ele>
        <time>2011-06-12T09:29:06Z</time>
      </trkpt>
      <trkpt lat="45.12226" lon="5.31137">
        <ele>213.756361</ele>
        <time>2011-06-12T09:29:08Z</time>
      </trkpt>
      <trkpt lat="45.12224" lon="5.31126">
        <ele>214.096533</ele>
        <time>2011-06-12T09:29:11Z</time>
      </trkpt>
      <trkpt lat="45.12222" lon="5.31116">
        <ele>214.43262</ele>
        <time>2011-06-12T09:29:14Z</time>
      </trkpt>
      <trkpt lat="45.12221" lon="5.3111">
        <ele>214.728934</ele>
        <time>2011-06-12T09:29:16Z</time>
      </trkpt>
      <trkpt lat="45.12219" lon="5.31103">
        <ele>214.984603</ele>
        <time>2011-06-12T09:29:18Z</time>
      </trkpt>
      <trkpt lat="45.12215" lon="5.31093">
        <ele>215.231246</ele>
        <time>2011-06-12T09:29:21Z</time>
      </trkpt>
      <trkpt lat="45.12214" lon="5.31086">
        <ele>215.473439</ele>
        <time>2011-06-12T09:29:23Z</time>
      </trkpt>
      <trkpt lat="45.12212" lon="5.31077">
        <ele>215.684936</ele>
        <time>2011-06-12T09:29:26Z</time>
      </trkpt>
      <trkpt lat="45.12212" lon="5.3107">
        <ele>215.888486</ele>
        <time>2011-06-12T09:29:29Z</time>
      </trkpt>
      <trkpt lat="45.1221" lon="5.31063">
        <ele>216.134276</ele>
        <time>2011-06-12T09:29:32Z</time>
      </trkpt>
      <trkpt lat="45.12209" lon="5.31055">
        <ele>216.440093</ele>
        <time>2011-06-12T09:29:35Z</time>
      </trkpt>
      <trkpt lat="45.12208" lon="5.31045">
        <ele>216.800818</ele>
        <time>2011-06-12T09:29:38Z</time>
      </trkpt>
      <trkpt lat="45.12209" lon="5.31038">
        <ele>217.210244</ele>
        <time>2011-06-12T09:29:40Z</time>
      </trkpt>
      <trkpt lat="45.12207" lon="5.31028">
        <ele>217.656769</ele>
        <time>2011-06-12T09:29:43Z</time>
      </trkpt>
      <trkpt lat="45.12208" lon="5.31018">
        <ele>218.127046</ele>
        <time>2011-06-12T09:29:46Z</time>
      </trkpt>
      <trkpt lat="45.12206" lon="5.31012">
        <ele>218.58727</ele>
        <time>2011-06-12T09:29:48Z</time>
      </trkpt>
      <trkpt lat="45.12204" lon="5.31002">
        <ele>219.019699</ele>
        <time>2011-06-12T09:29:51Z</time>
      </trkpt>
      <trkpt lat="45.12201" lon="5.30992">
        <ele>219.455287</ele>
        <time>2011-06-12T09:29:54Z</time>
      </trkpt>
      <trkpt lat="45.122" lon="5.30985">
        <ele>219.901132</ele>
        <time>2011-06-12T09:29:56Z</time>
      </trkpt>
      <trkpt lat="45.12199" lon="5.30977">
        <ele>220.33704</ele>
        <time>2011-06-12T09:29:59Z</time>
      </trkpt>
      <trkpt lat="45.12196" lon="5.30968">
        <ele>220.76858</ele>
        <time>2011-06-12T09:30:02Z</time>
      </trkpt>
      <trkpt lat="45.12191" lon="5.3096">
        <ele>221.166817</ele>
        <time>2011-06-12T09:30:05Z</time>
      </trkpt>
      <trkpt lat="45.12189" lon="5.30954">
        <ele>221.487139</ele>
        <time>2011-06-12T09:30:07Z</time>
      </trkpt>
      <trkpt lat="45.12187" lon="5.30947">
        <ele>221.757595</ele>
        <time>2011-06-12T09:30:10Z</time>
      </trkpt>
      <trkpt lat="45.12184" lon="5.30939">
        <ele>222.035828</ele>
        <time>2011-06-12T09:30:13Z</time>
      </trkpt>
      <trkpt lat="45.12183" lon="5.3093">
        <ele>222.329894</ele>
        <time>2011-06-12T09:30:16Z</time>
      </trkpt>
      <trkpt lat="45.1218" lon="5.30922">
        <ele>222.624803</ele>
        <time>2011-06-12T09:30:19Z</time>
      </trkpt>
      <trkpt lat="45.12178" lon="5.30912">
        <ele>222.932581</ele>
        <time>2011-06-12T09:30:22Z</time>
      </trkpt>
      <trkpt lat="45.12176" lon="5.30905">
        <ele>223.269688</ele>
        <time>2011-06-12T09:30:24Z</time>
      </trkpt>
      <trkpt lat="45.12173" lon="5.30898">
        <ele>223.631302</ele>
        <time>2011-06-12T09:30:26Z</time>
      </trkpt>
      <trkpt lat="45.12171" lon="5.30884">
        <ele>224.010096</ele>
        <time>2011-06-12T09:30:29Z</time>
      </trkpt>
      <trkpt lat="45.1217" lon="5.30872">
        <ele>224.381347</ele>
        <time>2011-06-12T09:30:32Z</time>
      </trkpt>
      <trkpt lat="45.12166" lon="5.30861">
        <ele>224.716104</ele>
        <time>2011-06-12T09:30:35Z</time>
      </trkpt>
      <trkpt lat="45.12163" lon="5.30849">
        <ele>225.038832</ele>
        <time>2011-06-12T09:30:38Z</time>
      </trkpt>
      <trkpt lat="45.1216" lon="5.30842">
        <ele>225.410401</ele>
        <time>2011-06-12T09:30:40Z</time>
      </trkpt>
      <trkpt lat="45.12157" lon="5.30835">
        <ele>225.854481</ele>
        <time>2011-06-12T09:30:42Z</time>
      </trkpt>
      <trkpt lat="45.12154" lon="5.30825">
        <ele>226.343274</ele>
        <time>2011-06-12T09:30:45Z</time>
      </trkpt>
      <trkpt lat="45.12154" lon="5.30817">
        <ele>226.8105</ele>
        <time>2011-06-12T09:30:47Z</time>
      </trkpt>
      <trkpt lat="45.12155" lon="5.3081">
        <ele>227.19731</ele>
        <time>2011-06-12T09:30:49Z</time>
      </trkpt>
      <trkpt lat="45.12155" lon="5.30801">
        <ele>227.558105</ele>
        <time>2011-06-12T09:30:52Z</time>
      </trkpt>
      <trkpt lat="45.12154" lon="5.30792">
        <ele>227.990792</ele>
        <time>2011-06-12T09:30:55Z</time>
      </trkpt>
      <trkpt lat="45.12154" lon="5.30783">
        <ele>228.502287</ele>
        <time>2011-06-12T09:30:58Z</time>
      </trkpt>
      <trkpt lat="45.12154" lon="5.30774">
        <ele>229.103936</ele>
        <time>2011-06-12T09:31:01Z</time>
      </trkpt>
      <trkpt lat="45.12152" lon="5.30766">
        <ele>229.85446</ele>
        <time>2011-06-12T09:31:04Z</time>
      </trkpt>
      <trkpt lat="45.12149" lon="5.30758">
        <ele>230.726597</ele>
        <time>2011-06-12T09:31:07Z</time>
      </trkpt>
      <trkpt lat="45.12149" lon="5.30749">
        <ele>231.619886</ele>
        <time>2011-06-12T09:31:10Z</time>
      </trkpt>
      <trkpt lat="45.12146" lon="5.30741">
        <ele>232.458746</ele>
        <time>2011-06-12T09:31:13Z</time>
      </trkpt>
      <trkpt lat="45.12145" lon="5.30734">
        <ele>233.208336</ele>
        <time>2011-06-12T09:31:15Z</time>
      </trkpt>
      <trkpt lat="45.12146" lon="5.30726">
        <ele>233.863062</ele>
        <time>2011-06-12T09:31:17Z</time>
      </trkpt>
      <trkpt lat="45.12146" lon="5.30717">
        <ele>234.431114</ele>
        <time>2011-06-12T09:31:19Z</time>
      </trkpt>
      <trkpt lat="45.12143" lon="5.30707">
        <ele>234.898027</ele>
        <time>2011-06-12T09:31:22Z</time>
      </trkpt>
      <trkpt lat="45.12143" lon="5.307">
        <ele>235.239151</ele>
        <time>2011-06-12T09:31:24Z</time>
      </trkpt>
      <trkpt lat="45.12142" lon="5.30691">
        <ele>235.473626</ele>
        <time>2011-06-12T09:31:27Z</time>
      </trkpt>
      <trkpt lat="45.1214" lon="5.30685">
        <ele>235.665095</ele>
        <time>2011-06-12T09:31:29Z</time>
      </trkpt>
      <trkpt lat="45.12138" lon="5.30676">
        <ele>235.858268</ele>
        <time>2011-06-12T09:31:32Z</time>
      </trkpt>
      <trkpt lat="45.12136" lon="5.30667">
        <ele>236.068222</ele>
        <time>2011-06-12T09:31:35Z</time>
      </trkpt>
      <trkpt lat="45.12135" lon="5.30661">
        <ele>236.296549</ele>
        <time>2011-06-12T09:31:37Z</time>
      </trkpt>
      <trkpt lat="45.12134" lon="5.30652">
        <ele>236.540152</ele>
        <time>2011-06-12T09:31:40Z</time>
      </trkpt>
      <trkpt lat="45.12133" lon="5.30644">
        <ele>236.799256</ele>
        <time>2011-06-12T09:31:42Z</time>
      </trkpt>
      <trkpt lat="45.12132" lon="5.30631">
        <ele>237.063583</ele>
        <time>2011-06-12T09:31:45Z</time>
      </trkpt>
      <trkpt lat="45.1213" lon="5.3062">
        <ele>237.313356</ele>
        <time>2011-06-12T09:31:48Z</time>
      </trkpt>
      <trkpt lat="45.12126" lon="5.30613">
        <ele>237.540968</ele>
        <time>2011-06-12T09:31:50Z</time>
      </trkpt>
      <trkpt lat="45.1212" lon="5.30602">
        <ele>237.752253</ele>
        <time>2011-06-12T09:31:53Z</time>
      </trkpt>
      <trkpt lat="45.12116" lon="5.30593">
        <ele>237.966005</ele>
        <time>2011-06-12T09:31:56Z</time>
      </trkpt>
      <trkpt lat="45.12113" lon="5.30587">
        <ele>238.180257</ele>
        <time>2011-06-12T09:31:58Z</time>
      </trkpt>
      <trkpt lat="45.12108" lon="5.30578">
        <ele>238.365083</ele>
        <time>2011-06-12T09:32:01Z</time>
      </trkpt>
      <trkpt lat="45.12104" lon="5.30574">
        <ele>238.522723</ele>
        <time>2011-06-12T09:32:03Z</time>
      </trkpt>
      <trkpt lat="45.12102" lon="5.30565">
        <ele>238.680559</ele>
        <time>2011-06-12T09:32:06Z</time>
      </trkpt>
      <trkpt lat="45.12101" lon="5.30556">
        <ele>238.860692</ele>
        <time>2011-06-12T09:32:09Z</time>
      </trkpt>
      <trkpt lat="45.12102" lon="5.30548">
        <ele>239.063836</ele>
        <time>2011-06-12T09:32:12Z</time>
      </trkpt>
      <trkpt lat="45.121" lon="5.3054">
        <ele>239.288679</ele>
        <time>2011-06-12T09:32:15Z</time>
      </trkpt>
      <trkpt lat="45.12097" lon="5.30533">
        <ele>239.557125</ele>
        <time>2011-06-12T09:32:18Z</time>
      </trkpt>
      <trkpt lat="45.12095" lon="5.30524">
        <ele>239.882829</ele>
        <time>2011-06-12T09:32:21Z</time>
      </trkpt>
      <trkpt lat="45.12094" lon="5.30518">
        <ele>240.237401</ele>
        <time>2011-06-12T09:32:23Z</time>
      </trkpt>
      <trkpt lat="45.12094" lon="5.30508">
        <ele>240.576955</ele>
        <time>2011-06-12T09:32:26Z</time>
      </trkpt>
      <trkpt lat="45.12097" lon="5.30495">
        <ele>240.857836</ele>
        <time>2011-06-12T09:32:29Z</time>
      </trkpt>
      <trkpt lat="45.12101" lon="5.30484">
        <ele>241.043325</ele>
        <time>2011-06-12T09:32:32Z</time>
      </trkpt>
      <trkpt lat="45.12104" lon="5.30477">
        <ele>241.129569</ele>
        <time>2011-06-12T09:32:34Z</time>
      </trkpt>
      <trkpt lat="45.12108" lon="5.30466">
        <ele>241.171353</ele>
        <time>2011-06-12T09:32:37Z</time>
      </trkpt>
      <trkpt lat="45.12111" lon="5.3046">
        <ele>241.251137</ele>
        <time>2011-06-12T09:32:39Z</time>
      </trkpt>
      <trkpt lat="45.12115" lon="5.30455">
        <ele>241.41867</ele>
        <time>2011-06-12T09:32:41Z</time>
      </trkpt>
      <trkpt lat="45.12118" lon="5.30451">
        <ele>241.699099</ele>
        <time>2011-06-12T09:32:43Z</time>
      </trkpt>
      <trkpt lat="45.12124" lon="5.30445">
        <ele>242.092484</ele>
        <time>2011-06-12T09:32:46Z</time>
      </trkpt>
      <trkpt lat="45.1213" lon="5.30441">
        <ele>242.554605</ele>
        <time>2011-06-12T09:32:49Z</time>
      </trkpt>
      <trkpt lat="45.12136" lon="5.3044">
        <ele>243.038158</ele>
        <time>2011-06-12T09:32:52Z</time>
      </trkpt>
      <trkpt lat="45.12143" lon="5.3044">
        <ele>243.560268</ele>
        <time>2011-06-12T09:32:55Z</time>
      </trkpt>
      <trkpt lat="45.12148" lon="5.30439">
        <ele>244.164582</ele>
        <time>2011-06-12T09:32:57Z</time>
      </trkpt>
      <trkpt lat="45.12155" lon="5.30438">
        <ele>244.842758</ele>
        <time>2011-06-12T09:33:00Z</time>
      </trkpt>
      <trkpt lat="45.12161" lon="5.30436">
        <ele>245.535241</ele>
        <time>2011-06-12T09:33:03Z</time>
      </trkpt>
      <trkpt lat="45.12167" lon="5.30435">
        <ele>246.168104</ele>
        <time>2011-06-12T09:33:06Z</time>
      </trkpt>
      <trkpt lat="45.12173" lon="5.30435">
        <ele>246.708803</ele>
        <time>2011-06-12T09:33:09Z</time>
      </trkpt>
      <trkpt lat="45.12179" lon="5.30435">
        <ele>247.200249</ele>
        <time>2011-06-12T09:33:12Z</time>
      </trkpt>
      <trkpt lat="45.12186" lon="5.30436">
        <ele>247.679879</ele>
        <time>2011-06-12T09:33:15Z</time>
      </trkpt>
      <trkpt lat="45.12191" lon="5.30437">
        <ele>248.133835</ele>
        <time>2011-06-12T09:33:17Z</time>
      </trkpt>
      <trkpt lat="45.12199" lon="5.30437">
        <ele>248.549211</ele>
        <time>2011-06-12T09:33:20Z</time>
      </trkpt>
      <trkpt lat="45.12206" lon="5.30436">
        <ele>248.927789</ele>
        <time>2011-06-12T09:33:23Z</time>
      </trkpt>
      <trkpt lat="45.12213" lon="5.30436">
        <ele>249.265125</ele>
        <time>2011-06-12T09:33:26Z</time>
      </trkpt>
      <trkpt lat="45.12217" lon="5.30436">
        <ele>249.571143</ele>
        <time>2011-06-12T09:33:28Z</time>
      </trkpt>
      <trkpt lat="45.12226" lon="5.30435">
        <ele>249.887926</ele>
        <time>2011-06-12T09:33:31Z</time>
      </trkpt>
      <trkpt lat="45.12233" lon="5.30435">
        <ele>250.238169</ele>
        <time>2011-06-12T09:33:34Z</time>
      </trkpt>
      <trkpt lat="45.12238" lon="5.30434">
        <ele>250.588271</ele>
        <time>2011-06-12T09:33:36Z</time>
      </trkpt>
      <trkpt lat="45.12245" lon="5.30433">
        <ele>250.920209</ele>
        <time>2011-06-12T09:33:39Z</time>
      </trkpt>
      <trkpt lat="45.1225" lon="5.30432">
        <ele>251.266368</ele>
        <time>2011-06-12T09:33:41Z</time>
      </trkpt>
      <trkpt lat="45.12258" lon="5.3043">
        <ele>251.632924</ele>
        <time>2011-06-12T09:33:44Z</time>
      </trkpt>
      <trkpt lat="45.12266" lon="5.30426">
        <ele>251.989485</ele>
        <time>2011-06-12T09:33:47Z</time>
      </trkpt>
      <trkpt lat="45.12271" lon="5.30424">
        <ele>252.320846</ele>
        <time>2011-06-12T09:33:49Z</time>
      </trkpt>
      <trkpt lat="45.12278" lon="5.3042">
        <ele>252.637406</ele>
        <time>2011-06-12T09:33:52Z</time>
      </trkpt>
      <trkpt lat="45.12285" lon="5.30417">
        <ele>252.974224</ele>
        <time>2011-06-12T09:33:55Z</time>
      </trkpt>
      <trkpt lat="45.12292" lon="5.30415">
        <ele>253.334133</ele>
        <time>2011-06-12T09:33:58Z</time>
      </trkpt>
      <trkpt lat="45.12299" lon="5.30413">
        <ele>253.682139</ele>
        <time>2011-06-12T09:34:01Z</time>
      </trkpt>
      <trkpt lat="45.12307" lon="5.30409">
        <ele>254.017801</ele>
        <time>2011-06-12T09:34:04Z</time>
      </trkpt>
      <trkpt lat="45.12315" lon="5.30406">
        <ele>254.351112</ele>
        <time>2011-06-12T09:34:07Z</time>
      </trkpt>
      <trkpt lat="45.12322" lon="5.30403">
        <ele>254.667638</ele>
        <time>2011-06-12T09:34:10Z</time>
      </trkpt>
      <trkpt lat="45.12327" lon="5.30401">
        <ele>254.957606</ele>
        <time>2011-06-12T09:34:12Z</time>
      </trkpt>
      <trkpt lat="45.12335" lon="5.30398">
        <ele>255.226832</ele>
        <time>2011-06-12T09:34:15Z</time>
      </trkpt>
      <trkpt lat="45.12342" lon="5.30395">
        <ele>255.483851</ele>
        <time>2011-06-12T09:34:18Z</time>
      </trkpt>
      <trkpt lat="45.12347" lon="5.30392">
        <ele>255.718349</ele>
        <time>2011-06-12T09:34:20Z</time>
      </trkpt>
      <trkpt lat="45.12354" lon="5.30389">
        <ele>255.922274</ele>
        <time>2011-06-12T09:34:23Z</time>
      </trkpt>
      <trkpt lat="45.12361" lon="5.30386">
        <ele>256.115898</ele>
        <time>2011-06-12T09:34:26Z</time>
      </trkpt>
      <trkpt lat="45.12366" lon="5.30383">
        <ele>256.311466</ele>
        <time>2011-06-12T09:34:28Z</time>
      </trkpt>
      <trkpt lat="45.12371" lon="5.3038">
        <ele>256.501349</ele>
        <time>2011-06-12T09:34:30Z</time>
      </trkpt>
      <trkpt lat="45.12378" lon="5.30376">
        <ele>256.690018</ele>
        <time>2011-06-12T09:34:33Z</time>
      </trkpt>
      <trkpt lat="45.12385" lon="5.30372">
        <ele>256.876024</ele>
        <time>2011-06-12T09:34:36Z</time>
      </trkpt>
      <trkpt lat="45.1239" lon="5.3037">
        <ele>257.042293</ele>
        <time>2011-06-12T09:34:38Z</time>
      </trkpt>
      <trkpt lat="45.12398" lon="5.30367">
        <ele>257.198303</ele>
        <time>2011-06-12T09:34:41Z</time>
      </trkpt>
      <trkpt lat="45.12405" lon="5.30364">
        <ele>257.374467</ele>
        <time>2011-06-12T09:34:43Z</time>
      </trkpt>
      <trkpt lat="45.12414" lon="5.3036">
        <ele>257.57072</ele>
        <time>2011-06-12T09:34:46Z</time>
      </trkpt>
      <trkpt lat="45.1242" lon="5.30358">
        <ele>257.771887</ele>
        <time>2011-06-12T09:34:48Z</time>
      </trkpt>
      <trkpt lat="45.12431" lon="5.30354">
        <ele>257.975382</ele>
        <time>2011-06-12T09:34:51Z</time>
      </trkpt>
      <trkpt lat="45.1244" lon="5.30349">
        <ele>258.187074</ele>
        <time>2011-06-12T09:34:54Z</time>
      </trkpt>
      <trkpt lat="45.12447" lon="5.30341">
        <ele>258.407553</ele>
        <time>2011-06-12T09:34:57Z</time>
      </trkpt>
      <trkpt lat="45.12454" lon="5.30331">
        <ele>258.634201</ele>
        <time>2011-06-12T09:35:00Z</time>
      </trkpt>
      <trkpt lat="45.12461" lon="5.30327">
        <ele>258.868942</ele>
        <time>2011-06-12T09:35:02Z</time>
      </trkpt>
      <trkpt lat="45.12471" lon="5.30327">
        <ele>259.116381</ele>
        <time>2011-06-12T09:35:05Z</time>
      </trkpt>
      <trkpt lat="45.12476" lon="5.30332">
        <ele>259.369485</ele>
        <time>2011-06-12T09:35:07Z</time>
      </trkpt>
      <trkpt lat="45.12482" lon="5.30339">
        <ele>259.608994</ele>
        <time>2011-06-12T09:35:09Z</time>
      </trkpt>
      <trkpt lat="45.1249" lon="5.3035">
        <ele>259.822126</ele>
        <time>2011-06-12T09:35:12Z</time>
      </trkpt>
      <trkpt lat="45.12496" lon="5.30358">
        <ele>260.014566</ele>
        <time>2011-06-12T09:35:14Z</time>
      </trkpt>
      <trkpt lat="45.12505" lon="5.30369">
        <ele>260.359721</ele>
        <time>2011-06-12T09:35:17Z</time>
      </trkpt>
      <trkpt lat="45.1251" lon="5.30376">
        <ele>261.123134</ele>
        <time>2011-06-12T09:35:19Z</time>
      </trkpt>
      <trkpt lat="45.12516" lon="5.30383">
        <ele>262.192166</ele>
        <time>2011-06-12T09:35:21Z</time>
      </trkpt>
      <trkpt lat="45.12524" lon="5.30394">
        <ele>263.112181</ele>
        <time>2011-06-12T09:35:24Z</time>
      </trkpt>
      <trkpt lat="45.12529" lon="5.30402">
        <ele>263.636463</ele>
        <time>2011-06-12T09:35:26Z</time>
      </trkpt>
      <trkpt lat="45.12537" lon="5.30413">
        <ele>263.822353</ele>
        <time>2011-06-12T09:35:29Z</time>
      </trkpt>
      <trkpt lat="45.12546" lon="5.30424">
        <ele>263.826454</ele>
        <time>2011-06-12T09:35:32Z</time>
      </trkpt>
      <trkpt lat="45.12551" lon="5.30432">
        <ele>263.78663</ele>
        <time>2011-06-12T09:35:34Z</time>
      </trkpt>
      <trkpt lat="45.1256" lon="5.30443">
        <ele>263.772368</ele>
        <time>2011-06-12T09:35:37Z</time>
      </trkpt>
      <trkpt lat="45.12561" lon="5.30457">
        <ele>263.793345</ele>
        <time>2011-06-12T09:35:40Z</time>
      </trkpt>
      <trkpt lat="45.12558" lon="5.30467">
        <ele>263.829477</ele>
        <time>2011-06-12T09:35:42Z</time>
      </trkpt>
      <trkpt lat="45.12553" lon="5.30476">
        <ele>263.858534</ele>
        <time>2011-06-12T09:35:44Z</time>
      </trkpt>
      <trkpt lat="45.12546" lon="5.3049">
        <ele>263.875286</ele>
        <time>2011-06-12T09:35:47Z</time>
      </trkpt>
      <trkpt lat="45.12542" lon="5.30498">
        <ele>263.913712</ele>
        <time>2011-06-12T09:35:49Z</time>
      </trkpt>
      <trkpt lat="45.12536" lon="5.30509">
        <ele>264.03634</ele>
        <time>2011-06-12T09:35:52Z</time>
      </trkpt>
      <trkpt lat="45.1253" lon="5.30522">
        <ele>264.27913</ele>
        <time>2011-06-12T09:35:55Z</time>
      </trkpt>
      <trkpt lat="45.12525" lon="5.30531">
        <ele>264.591727</ele>
        <time>2011-06-12T09:35:57Z</time>
      </trkpt>
      <trkpt lat="45.12518" lon="5.30544">
        <ele>264.863128</ele>
        <time>2011-06-12T09:36:00Z</time>
      </trkpt>
      <trkpt lat="45.12511" lon="5.30557">
        <ele>265.032735</ele>
        <time>2011-06-12T09:36:03Z</time>
      </trkpt>
      <trkpt lat="45.12508" lon="5.30574">
        <ele>265.128746</ele>
        <time>2011-06-12T09:36:06Z</time>
      </trkpt>
      <trkpt lat="45.12512" lon="5.30585">
        <ele>265.266252</ele>
        <time>2011-06-12T09:36:08Z</time>
      </trkpt>
      <trkpt lat="45.1252" lon="5.30601">
        <ele>265.655539</ele>
        <time>2011-06-12T09:36:11Z</time>
      </trkpt>
      <trkpt lat="45.1253" lon="5.30618">
        <ele>266.300056</ele>
        <time>2011-06-12T09:36:14Z</time>
      </trkpt>
      <trkpt lat="45.12536" lon="5.30629">
        <ele>266.875071</ele>
        <time>2011-06-12T09:36:16Z</time>
      </trkpt>
      <trkpt lat="45.12546" lon="5.30647">
        <ele>267.149473</ele>
        <time>2011-06-12T09:36:19Z</time>
      </trkpt>
      <trkpt lat="45.12552" lon="5.30658">
        <ele>267.191979</ele>
        <time>2011-06-12T09:36:21Z</time>
      </trkpt>
      <trkpt lat="45.12562" lon="5.30676">
        <ele>267.104071</ele>
        <time>2011-06-12T09:36:24Z</time>
      </trkpt>
      <trkpt lat="45.12569" lon="5.30688">
        <ele>266.889952</ele>
        <time>2011-06-12T09:36:26Z</time>
      </trkpt>
      <trkpt lat="45.12579" lon="5.30706">
        <ele>266.578606</ele>
        <time>2011-06-12T09:36:29Z</time>
      </trkpt>
      <trkpt lat="45.12585" lon="5.30717">
        <ele>266.260946</ele>
        <time>2011-06-12T09:36:31Z</time>
      </trkpt>
      <trkpt lat="45.12591" lon="5.30728">
        <ele>265.990971</ele>
        <time>2011-06-12T09:36:33Z</time>
      </trkpt>
      <trkpt lat="45.126" lon="5.30744">
        <ele>265.776566</ele>
        <time>2011-06-12T09:36:36Z</time>
      </trkpt>
      <trkpt lat="45.12608" lon="5.3076">
        <ele>265.628525</ele>
        <time>2011-06-12T09:36:39Z</time>
      </trkpt>
      <trkpt lat="45.12614" lon="5.30771">
        <ele>265.554673</ele>
        <time>2011-06-12T09:36:41Z</time>
      </trkpt>
      <trkpt lat="45.12623" lon="5.30787">
        <ele>265.534766</ele>
        <time>2011-06-12T09:36:44Z</time>
      </trkpt>
      <trkpt lat="45.1263" lon="5.30799">
        <ele>265.505166</ele>
        <time>2011-06-12T09:36:46Z</time>
      </trkpt>
      <trkpt lat="45.12639" lon="5.30816">
        <ele>265.436839</ele>
        <time>2011-06-12T09:36:49Z</time>
      </trkpt>
      <trkpt lat="45.12648" lon="5.30833">
        <ele>265.369123</ele>
        <time>2011-06-12T09:36:52Z</time>
      </trkpt>
      <trkpt lat="45.12657" lon="5.3085">
        <ele>265.337671</ele>
        <time>2011-06-12T09:36:55Z</time>
      </trkpt>
      <trkpt lat="45.12667" lon="5.30867">
        <ele>265.347921</ele>
        <time>2011-06-12T09:36:58Z</time>
      </trkpt>
      <trkpt lat="45.12673" lon="5.3088">
        <ele>265.459239</ele>
        <time>2011-06-12T09:37:00Z</time>
      </trkpt>
      <trkpt lat="45.12681" lon="5.30897">
        <ele>265.741437</ele>
        <time>2011-06-12T09:37:03Z</time>
      </trkpt>
      <trkpt lat="45.12687" lon="5.30908">
        <ele>266.121107</ele>
        <time>2011-06-12T09:37:05Z</time>
      </trkpt>
      <trkpt lat="45.12693" lon="5.30919">
        <ele>266.420956</ele>
        <time>2011-06-12T09:37:07Z</time>
      </trkpt>
      <trkpt lat="45.12698" lon="5.3093">
        <ele>266.561185</ele>
        <time>2011-06-12T09:37:09Z</time>
      </trkpt>
      <trkpt lat="45.12706" lon="5.30946">
        <ele>266.589426</ele>
        <time>2011-06-12T09:37:12Z</time>
      </trkpt>
      <trkpt lat="45.12712" lon="5.30956">
        <ele>266.570708</ele>
        <time>2011-06-12T09:37:14Z</time>
      </trkpt>
      <trkpt lat="45.12721" lon="5.30973">
        <ele>266.540359</ele>
        <time>2011-06-12T09:37:17Z</time>
      </trkpt>
      <trkpt lat="45.12729" lon="5.30988">
        <ele>266.502893</ele>
        <time>2011-06-12T09:37:20Z</time>
      </trkpt>
      <trkpt lat="45.12735" lon="5.31">
        <ele>266.432378</ele>
        <time>2011-06-12T09:37:22Z</time>
      </trkpt>
      <trkpt lat="45.12743" lon="5.31019">
        <ele>266.31039</ele>
        <time>2011-06-12T09:37:25Z</time>
      </trkpt>
      <trkpt lat="45.12753" lon="5.31039">
        <ele>266.173419</ele>
        <time>2011-06-12T09:37:28Z</time>
      </trkpt>
      <trkpt lat="45.1276" lon="5.31052">
        <ele>266.070214</ele>
        <time>2011-06-12T09:37:30Z</time>
      </trkpt>
      <trkpt lat="45.12769" lon="5.31071">
        <ele>266.005099</ele>
        <time>2011-06-12T09:37:33Z</time>
      </trkpt>
      <trkpt lat="45.12778" lon="5.31091">
        <ele>265.960449</ele>
        <time>2011-06-12T09:37:36Z</time>
      </trkpt>
      <trkpt lat="45.12787" lon="5.31109">
        <ele>265.928018</ele>
        <time>2011-06-12T09:37:39Z</time>
      </trkpt>
      <trkpt lat="45.12792" lon="5.31121">
        <ele>265.901812</ele>
        <time>2011-06-12T09:37:41Z</time>
      </trkpt>
      <trkpt lat="45.12798" lon="5.31133">
        <ele>265.860113</ele>
        <time>2011-06-12T09:37:43Z</time>
      </trkpt>
      <trkpt lat="45.12806" lon="5.31151">
        <ele>265.749933</ele>
        <time>2011-06-12T09:37:46Z</time>
      </trkpt>
      <trkpt lat="45.12814" lon="5.31169">
        <ele>265.521691</ele>
        <time>2011-06-12T09:37:49Z</time>
      </trkpt>
      <trkpt lat="45.1282" lon="5.3118">
        <ele>265.172351</ele>
        <time>2011-06-12T09:37:51Z</time>
      </trkpt>
      <trkpt lat="45.12825" lon="5.31191">
        <ele>264.740203</ele>
        <time>2011-06-12T09:37:53Z</time>
      </trkpt>
      <trkpt lat="45.12835" lon="5.31203">
        <ele>264.237128</ele>
        <time>2011-06-12T09:37:56Z</time>
      </trkpt>
      <trkpt lat="45.12849" lon="5.312">
        <ele>263.735495</ele>
        <time>2011-06-12T09:37:59Z</time>
      </trkpt>
      <trkpt lat="45.12858" lon="5.31195">
        <ele>263.402297</ele>
        <time>2011-06-12T09:38:01Z</time>
      </trkpt>
      <trkpt lat="45.12867" lon="5.31188">
        <ele>263.294671</ele>
        <time>2011-06-12T09:38:03Z</time>
      </trkpt>
      <trkpt lat="45.1288" lon="5.31174">
        <ele>263.309678</ele>
        <time>2011-06-12T09:38:06Z</time>
      </trkpt>
      <trkpt lat="45.12894" lon="5.3116">
        <ele>263.397562</ele>
        <time>2011-06-12T09:38:09Z</time>
      </trkpt>
      <trkpt lat="45.12907" lon="5.31145">
        <ele>263.595101</ele>
        <time>2011-06-12T09:38:12Z</time>
      </trkpt>
      <trkpt lat="45.12915" lon="5.31136">
        <ele>263.956311</ele>
        <time>2011-06-12T09:38:14Z</time>
      </trkpt>
      <trkpt lat="45.12922" lon="5.31126">
        <ele>264.480059</ele>
        <time>2011-06-12T09:38:16Z</time>
      </trkpt>
      <trkpt lat="45.12929" lon="5.31115">
        <ele>265.059594</ele>
        <time>2011-06-12T09:38:18Z</time>
      </trkpt>
      <trkpt lat="45.1294" lon="5.31098">
        <ele>265.52012</ele>
        <time>2011-06-12T09:38:21Z</time>
      </trkpt>
      <trkpt lat="45.12949" lon="5.31081">
        <ele>265.762435</ele>
        <time>2011-06-12T09:38:24Z</time>
      </trkpt>
      <trkpt lat="45.12959" lon="5.31065">
        <ele>265.820863</ele>
        <time>2011-06-12T09:38:27Z</time>
      </trkpt>
      <trkpt lat="45.12965" lon="5.31055">
        <ele>265.795758</ele>
        <time>2011-06-12T09:38:29Z</time>
      </trkpt>
      <trkpt lat="45.12975" lon="5.31038">
        <ele>265.756901</ele>
        <time>2011-06-12T09:38:32Z</time>
      </trkpt>
      <trkpt lat="45.12985" lon="5.31022">
        <ele>265.726926</ele>
        <time>2011-06-12T09:38:35Z</time>
      </trkpt>
      <trkpt lat="45.12991" lon="5.31011">
        <ele>265.701511</ele>
        <time>2011-06-12T09:38:37Z</time>
      </trkpt>
      <trkpt lat="45.12998" lon="5.31001">
        <ele>265.646108</ele>
        <time>2011-06-12T09:38:39Z</time>
      </trkpt>
      <trkpt lat="45.13005" lon="5.30991">
        <ele>265.514514</ele>
        <time>2011-06-12T09:38:41Z</time>
      </trkpt>
      <trkpt lat="45.13017" lon="5.3098">
        <ele>265.317384</ele>
        <time>2011-06-12T09:38:44Z</time>
      </trkpt>
      <trkpt lat="45.13029" lon="5.30974">
        <ele>265.127376</ele>
        <time>2011-06-12T09:38:47Z</time>
      </trkpt>
      <trkpt lat="45.13038" lon="5.30973">
        <ele>265.004338</ele>
        <time>2011-06-12T09:38:49Z</time>
      </trkpt>
      <trkpt lat="45.13051" lon="5.30976">
        <ele>264.95139</ele>
        <time>2011-06-12T09:38:52Z</time>
      </trkpt>
      <trkpt lat="45.13063" lon="5.30981">
        <ele>264.938117</ele>
        <time>2011-06-12T09:38:55Z</time>
      </trkpt>
      <trkpt lat="45.1307" lon="5.30987">
        <ele>264.933883</ele>
        <time>2011-06-12T09:38:57Z</time>
      </trkpt>
      <trkpt lat="45.13081" lon="5.30998">
        <ele>264.915999</ele>
        <time>2011-06-12T09:39:00Z</time>
      </trkpt>
      <trkpt lat="45.13086" lon="5.31006">
        <ele>264.867761</ele>
        <time>2011-06-12T09:39:02Z</time>
      </trkpt>
      <trkpt lat="45.13092" lon="5.31015">
        <ele>264.794423</ele>
        <time>2011-06-12T09:39:04Z</time>
      </trkpt>
      <trkpt lat="45.13097" lon="5.31025">
        <ele>264.702582</ele>
        <time>2011-06-12T09:39:06Z</time>
      </trkpt>
      <trkpt lat="45.13103" lon="5.3104">
        <ele>264.581874</ele>
        <time>2011-06-12T09:39:09Z</time>
      </trkpt>
      <trkpt lat="45.13108" lon="5.31049">
        <ele>264.425761</ele>
        <time>2011-06-12T09:39:11Z</time>
      </trkpt>
      <trkpt lat="45.13115" lon="5.31064">
        <ele>264.269738</ele>
        <time>2011-06-12T09:39:14Z</time>
      </trkpt>
      <trkpt lat="45.13119" lon="5.31072">
        <ele>264.169004</ele>
        <time>2011-06-12T09:39:16Z</time>
      </trkpt>
      <trkpt lat="45.13126" lon="5.31086">
        <ele>264.129715</ele>
        <time>2011-06-12T09:39:19Z</time>
      </trkpt>
      <trkpt lat="45.13132" lon="5.31097">
        <ele>264.108764</ele>
        <time>2011-06-12T09:39:21Z</time>
      </trkpt>
      <trkpt lat="45.13137" lon="5.31107">
        <ele>264.088623</ele>
        <time>2011-06-12T09:39:23Z</time>
      </trkpt>
      <trkpt lat="45.13144" lon="5.31123">
        <ele>264.081346</ele>
        <time>2011-06-12T09:39:26Z</time>
      </trkpt>
      <trkpt lat="45.13148" lon="5.31134">
        <ele>264.100928</ele>
        <time>2011-06-12T09:39:28Z</time>
      </trkpt>
      <trkpt lat="45.13153" lon="5.3115">
        <ele>264.141921</ele>
        <time>2011-06-12T09:39:31Z</time>
      </trkpt>
      <trkpt lat="45.13158" lon="5.31167">
        <ele>264.178569</ele>
        <time>2011-06-12T09:39:34Z</time>
      </trkpt>
      <trkpt lat="45.13161" lon="5.31177">
        <ele>264.221148</ele>
        <time>2011-06-12T09:39:36Z</time>
      </trkpt>
      <trkpt lat="45.13166" lon="5.31192">
        <ele>264.360934</ele>
        <time>2011-06-12T09:39:39Z</time>
      </trkpt>
      <trkpt lat="45.13169" lon="5.31207">
        <ele>264.668778</ele>
        <time>2011-06-12T09:39:42Z</time>
      </trkpt>
      <trkpt lat="45.13172" lon="5.31222">
        <ele>265.076814</ele>
        <time>2011-06-12T09:39:45Z</time>
      </trkpt>
      <trkpt lat="45.13174" lon="5.31231">
        <ele>265.460538</ele>
        <time>2011-06-12T09:39:47Z</time>
      </trkpt>
      <trkpt lat="45.13177" lon="5.31246">
        <ele>265.769963</ele>
        <time>2011-06-12T09:39:50Z</time>
      </trkpt>
      <trkpt lat="45.13176" lon="5.31259">
        <ele>265.991098</ele>
        <time>2011-06-12T09:39:53Z</time>
      </trkpt>
      <trkpt lat="45.13175" lon="5.31269">
        <ele>266.108068</ele>
        <time>2011-06-12T09:39:55Z</time>
      </trkpt>
      <trkpt lat="45.13175" lon="5.31279">
        <ele>266.145468</ele>
        <time>2011-06-12T09:39:57Z</time>
      </trkpt>
      <trkpt lat="45.13174" lon="5.31294">
        <ele>266.151973</ele>
        <time>2011-06-12T09:40:00Z</time>
      </trkpt>
      <trkpt lat="45.13173" lon="5.31305">
        <ele>266.153588</ele>
        <time>2011-06-12T09:40:02Z</time>
      </trkpt>
      <trkpt lat="45.13173" lon="5.31316">
        <ele>266.155858</ele>
        <time>2011-06-12T09:40:04Z</time>
      </trkpt>
      <trkpt lat="45.13175" lon="5.31331">
        <ele>266.159346</ele>
        <time>2011-06-12T09:40:07Z</time>
      </trkpt>
      <trkpt lat="45.1318" lon="5.31343">
        <ele>266.180328</ele>
        <time>2011-06-12T09:40:10Z</time>
      </trkpt>
      <trkpt lat="45.13187" lon="5.31354">
        <ele>266.256106</ele>
        <time>2011-06-12T09:40:13Z</time>
      </trkpt>
      <trkpt lat="45.13193" lon="5.3136">
        <ele>266.382836</ele>
        <time>2011-06-12T09:40:15Z</time>
      </trkpt>
      <trkpt lat="45.13204" lon="5.31367">
        <ele>266.499941</ele>
        <time>2011-06-12T09:40:18Z</time>
      </trkpt>
      <trkpt lat="45.13215" lon="5.31371">
        <ele>266.573445</ele>
        <time>2011-06-12T09:40:21Z</time>
      </trkpt>
      <trkpt lat="45.13227" lon="5.31374">
        <ele>266.619706</ele>
        <time>2011-06-12T09:40:24Z</time>
      </trkpt>
      <trkpt lat="45.13238" lon="5.31376">
        <ele>266.654777</ele>
        <time>2011-06-12T09:40:27Z</time>
      </trkpt>
      <trkpt lat="45.1325" lon="5.31378">
        <ele>266.682009</ele>
        <time>2011-06-12T09:40:30Z</time>
      </trkpt>
      <trkpt lat="45.13261" lon="5.3138">
        <ele>266.705817</ele>
        <time>2011-06-12T09:40:33Z</time>
      </trkpt>
      <trkpt lat="45.13269" lon="5.31382">
        <ele>266.732645</ele>
        <time>2011-06-12T09:40:35Z</time>
      </trkpt>
      <trkpt lat="45.13278" lon="5.31384">
        <ele>266.766635</ele>
        <time>2011-06-12T09:40:37Z</time>
      </trkpt>
      <trkpt lat="45.13287" lon="5.31386">
        <ele>266.81053</ele>
        <time>2011-06-12T09:40:39Z</time>
      </trkpt>
      <trkpt lat="45.133" lon="5.3139">
        <ele>266.875269</ele>
        <time>2011-06-12T09:40:42Z</time>
      </trkpt>
      <trkpt lat="45.13313" lon="5.31395">
        <ele>266.983297</ele>
        <time>2011-06-12T09:40:45Z</time>
      </trkpt>
      <trkpt lat="45.13327" lon="5.31402">
        <ele>267.152185</ele>
        <time>2011-06-12T09:40:48Z</time>
      </trkpt>
      <trkpt lat="45.13342" lon="5.31411">
        <ele>267.367591</ele>
        <time>2011-06-12T09:40:51Z</time>
      </trkpt>
      <trkpt lat="45.13351" lon="5.31419">
        <ele>267.587341</ele>
        <time>2011-06-12T09:40:53Z</time>
      </trkpt>
      <trkpt lat="45.13364" lon="5.3143">
        <ele>267.765527</ele>
        <time>2011-06-12T09:40:56Z</time>
      </trkpt>
      <trkpt lat="45.13373" lon="5.31437">
        <ele>267.904104</ele>
        <time>2011-06-12T09:40:58Z</time>
      </trkpt>
      <trkpt lat="45.13386" lon="5.31449">
        <ele>268.047816</ele>
        <time>2011-06-12T09:41:01Z</time>
      </trkpt>
      <trkpt lat="45.13399" lon="5.31461">
        <ele>268.210361</ele>
        <time>2011-06-12T09:41:04Z</time>
      </trkpt>
      <trkpt lat="45.1341" lon="5.31473">
        <ele>268.348802</ele>
        <time>2011-06-12T09:41:07Z</time>
      </trkpt>
      <trkpt lat="45.13417" lon="5.31479">
        <ele>268.424362</ele>
        <time>2011-06-12T09:41:09Z</time>
      </trkpt>
      <trkpt lat="45.13427" lon="5.31489">
        <ele>268.441735</ele>
        <time>2011-06-12T09:41:12Z</time>
      </trkpt>
      <trkpt lat="45.13434" lon="5.31495">
        <ele>268.411233</ele>
        <time>2011-06-12T09:41:14Z</time>
      </trkpt>
      <trkpt lat="45.1344" lon="5.31501">
        <ele>268.329845</ele>
        <time>2011-06-12T09:41:16Z</time>
      </trkpt>
      <trkpt lat="45.13451" lon="5.31512">
        <ele>268.202203</ele>
        <time>2011-06-12T09:41:19Z</time>
      </trkpt>
      <trkpt lat="45.13458" lon="5.31519">
        <ele>268.017618</ele>
        <time>2011-06-12T09:41:21Z</time>
      </trkpt>
      <trkpt lat="45.13468" lon="5.3153">
        <ele>267.765701</ele>
        <time>2011-06-12T09:41:24Z</time>
      </trkpt>
      <trkpt lat="45.13477" lon="5.31541">
        <ele>267.487141</ele>
        <time>2011-06-12T09:41:27Z</time>
      </trkpt>
      <trkpt lat="45.13484" lon="5.31548">
        <ele>267.242856</ele>
        <time>2011-06-12T09:41:29Z</time>
      </trkpt>
      <trkpt lat="45.13494" lon="5.31559">
        <ele>267.021845</ele>
        <time>2011-06-12T09:41:32Z</time>
      </trkpt>
      <trkpt lat="45.13506" lon="5.31569">
        <ele>266.733223</ele>
        <time>2011-06-12T09:41:35Z</time>
      </trkpt>
      <trkpt lat="45.13513" lon="5.31576">
        <ele>266.392645</ele>
        <time>2011-06-12T09:41:37Z</time>
      </trkpt>
      <trkpt lat="45.13525" lon="5.31587">
        <ele>266.148196</ele>
        <time>2011-06-12T09:41:40Z</time>
      </trkpt>
      <trkpt lat="45.13532" lon="5.31594">
        <ele>266.061416</ele>
        <time>2011-06-12T09:41:42Z</time>
      </trkpt>
      <trkpt lat="45.13539" lon="5.31601">
        <ele>266.086886</ele>
        <time>2011-06-12T09:41:44Z</time>
      </trkpt>
      <trkpt lat="45.13552" lon="5.31607">
        <ele>266.261728</ele>
        <time>2011-06-12T09:41:47Z</time>
      </trkpt>
      <trkpt lat="45.13561" lon="5.31598">
        <ele>266.660728</ele>
        <time>2011-06-12T09:41:50Z</time>
      </trkpt>
      <trkpt lat="45.13568" lon="5.31587">
        <ele>267.248691</ele>
        <time>2011-06-12T09:41:53Z</time>
      </trkpt>
      <trkpt lat="45.13573" lon="5.31579">
        <ele>267.971761</ele>
        <time>2011-06-12T09:41:55Z</time>
      </trkpt>
      <trkpt lat="45.13578" lon="5.31571">
        <ele>268.716577</ele>
        <time>2011-06-12T09:41:57Z</time>
      </trkpt>
      <trkpt lat="45.13585" lon="5.31559">
        <ele>269.25463</ele>
        <time>2011-06-12T09:42:00Z</time>
      </trkpt>
      <trkpt lat="45.13591" lon="5.31551">
        <ele>269.500921</ele>
        <time>2011-06-12T09:42:02Z</time>
      </trkpt>
      <trkpt lat="45.13596" lon="5.31543">
        <ele>269.579767</ele>
        <time>2011-06-12T09:42:04Z</time>
      </trkpt>
      <trkpt lat="45.13602" lon="5.31534">
        <ele>269.621611</ele>
        <time>2011-06-12T09:42:06Z</time>
      </trkpt>
      <trkpt lat="45.13611" lon="5.31519">
        <ele>269.694434</ele>
        <time>2011-06-12T09:42:09Z</time>
      </trkpt>
      <trkpt lat="45.1362" lon="5.31506">
        <ele>269.860522</ele>
        <time>2011-06-12T09:42:12Z</time>
      </trkpt>
      <trkpt lat="45.13627" lon="5.31497">
        <ele>270.219537</ele>
        <time>2011-06-12T09:42:14Z</time>
      </trkpt>
      <trkpt lat="45.13633" lon="5.31487">
        <ele>270.813192</ele>
        <time>2011-06-12T09:42:16Z</time>
      </trkpt>
      <trkpt lat="45.13641" lon="5.31477">
        <ele>271.515985</ele>
        <time>2011-06-12T09:42:18Z</time>
      </trkpt>
      <trkpt lat="45.13651" lon="5.31461">
        <ele>272.115388</ele>
        <time>2011-06-12T09:42:21Z</time>
      </trkpt>
      <trkpt lat="45.13659" lon="5.31451">
        <ele>272.514305</ele>
        <time>2011-06-12T09:42:23Z</time>
      </trkpt>
      <trkpt lat="45.13669" lon="5.31438">
        <ele>272.79287</ele>
        <time>2011-06-12T09:42:26Z</time>
      </trkpt>
      <trkpt lat="45.13679" lon="5.31424">
        <ele>273.075159</ele>
        <time>2011-06-12T09:42:29Z</time>
      </trkpt>
      <trkpt lat="45.13689" lon="5.31411">
        <ele>273.396441</ele>
        <time>2011-06-12T09:42:32Z</time>
      </trkpt>
      <trkpt lat="45.13696" lon="5.31402">
        <ele>273.699908</ele>
        <time>2011-06-12T09:42:34Z</time>
      </trkpt>
      <trkpt lat="45.13702" lon="5.31393">
        <ele>273.931882</ele>
        <time>2011-06-12T09:42:36Z</time>
      </trkpt>
      <trkpt lat="45.13712" lon="5.3138">
        <ele>274.110495</ele>
        <time>2011-06-12T09:42:39Z</time>
      </trkpt>
      <trkpt lat="45.13723" lon="5.31368">
        <ele>274.287689</ele>
        <time>2011-06-12T09:42:42Z</time>
      </trkpt>
      <trkpt lat="45.1373" lon="5.31359">
        <ele>274.489505</ele>
        <time>2011-06-12T09:42:44Z</time>
      </trkpt>
      <trkpt lat="45.13741" lon="5.31345">
        <ele>274.725392</ele>
        <time>2011-06-12T09:42:47Z</time>
      </trkpt>
      <trkpt lat="45.13749" lon="5.31336">
        <ele>275.010659</ele>
        <time>2011-06-12T09:42:49Z</time>
      </trkpt>
      <trkpt lat="45.13757" lon="5.31326">
        <ele>275.312479</ele>
        <time>2011-06-12T09:42:51Z</time>
      </trkpt>
      <trkpt lat="45.13764" lon="5.31316">
        <ele>275.570606</ele>
        <time>2011-06-12T09:42:53Z</time>
      </trkpt>
      <trkpt lat="45.13776" lon="5.31301">
        <ele>275.75764</ele>
        <time>2011-06-12T09:42:56Z</time>
      </trkpt>
      <trkpt lat="45.13785" lon="5.31287">
        <ele>275.88242</ele>
        <time>2011-06-12T09:42:59Z</time>
      </trkpt>
      <trkpt lat="45.13791" lon="5.31279">
        <ele>275.985102</ele>
        <time>2011-06-12T09:43:01Z</time>
      </trkpt>
      <trkpt lat="45.13796" lon="5.31271">
        <ele>276.136652</ele>
        <time>2011-06-12T09:43:03Z</time>
      </trkpt>
      <trkpt lat="45.13801" lon="5.31263">
        <ele>276.394802</ele>
        <time>2011-06-12T09:43:05Z</time>
      </trkpt>
      <trkpt lat="45.13808" lon="5.31255">
        <ele>276.742307</ele>
        <time>2011-06-12T09:43:07Z</time>
      </trkpt>
      <trkpt lat="45.13819" lon="5.31243">
        <ele>277.110849</ele>
        <time>2011-06-12T09:43:10Z</time>
      </trkpt>
      <trkpt lat="45.13826" lon="5.31236">
        <ele>277.445341</ele>
        <time>2011-06-12T09:43:12Z</time>
      </trkpt>
      <trkpt lat="45.13836" lon="5.31224">
        <ele>277.694254</ele>
        <time>2011-06-12T09:43:15Z</time>
      </trkpt>
      <trkpt lat="45.13843" lon="5.31217">
        <ele>277.820795</ele>
        <time>2011-06-12T09:43:17Z</time>
      </trkpt>
      <trkpt lat="45.13854" lon="5.31205">
        <ele>277.850566</ele>
        <time>2011-06-12T09:43:20Z</time>
      </trkpt>
      <trkpt lat="45.13867" lon="5.31193">
        <ele>277.849033</ele>
        <time>2011-06-12T09:43:23Z</time>
      </trkpt>
      <trkpt lat="45.13879" lon="5.31179">
        <ele>277.869821</ele>
        <time>2011-06-12T09:43:26Z</time>
      </trkpt>
      <trkpt lat="45.13887" lon="5.31169">
        <ele>277.927127</ele>
        <time>2011-06-12T09:43:28Z</time>
      </trkpt>
      <trkpt lat="45.139" lon="5.31155">
        <ele>278.001682</ele>
        <time>2011-06-12T09:43:31Z</time>
      </trkpt>
      <trkpt lat="45.13913" lon="5.3114">
        <ele>278.076879</ele>
        <time>2011-06-12T09:43:34Z</time>
      </trkpt>
      <trkpt lat="45.13921" lon="5.3113">
        <ele>278.142719</ele>
        <time>2011-06-12T09:43:36Z</time>
      </trkpt>
      <trkpt lat="45.13933" lon="5.31116">
        <ele>278.186057</ele>
        <time>2011-06-12T09:43:39Z</time>
      </trkpt>
      <trkpt lat="45.13942" lon="5.31103">
        <ele>278.204923</ele>
        <time>2011-06-12T09:43:42Z</time>
      </trkpt>
      <trkpt lat="45.13947" lon="5.31093">
        <ele>278.209413</ele>
        <time>2011-06-12T09:43:44Z</time>
      </trkpt>
      <trkpt lat="45.13953" lon="5.31084">
        <ele>278.207414</ele>
        <time>2011-06-12T09:43:46Z</time>
      </trkpt>
      <trkpt lat="45.13961" lon="5.31068">
        <ele>278.20198</ele>
        <time>2011-06-12T09:43:49Z</time>
      </trkpt>
      <trkpt lat="45.1397" lon="5.3105">
        <ele>278.183121</ele>
        <time>2011-06-12T09:43:52Z</time>
      </trkpt>
      <trkpt lat="45.13974" lon="5.31039">
        <ele>278.141227</ele>
        <time>2011-06-12T09:43:54Z</time>
      </trkpt>
      <trkpt lat="45.1398" lon="5.31026">
        <ele>278.081887</ele>
        <time>2011-06-12T09:43:57Z</time>
      </trkpt>
      <trkpt lat="45.13986" lon="5.31015">
        <ele>278.023374</ele>
        <time>2011-06-12T09:44:00Z</time>
      </trkpt>
      <trkpt lat="45.13992" lon="5.31004">
        <ele>277.981394</ele>
        <time>2011-06-12T09:44:03Z</time>
      </trkpt>
      <trkpt lat="45.13996" lon="5.30997">
        <ele>277.956727</ele>
        <time>2011-06-12T09:44:05Z</time>
      </trkpt>
      <trkpt lat="45.14003" lon="5.30987">
        <ele>277.941865</ele>
        <time>2011-06-12T09:44:08Z</time>
      </trkpt>
      <trkpt lat="45.14007" lon="5.3098">
        <ele>277.93222</ele>
        <time>2011-06-12T09:44:10Z</time>
      </trkpt>
      <trkpt lat="45.14013" lon="5.30968">
        <ele>277.918423</ele>
        <time>2011-06-12T09:44:13Z</time>
      </trkpt>
      <trkpt lat="45.14013" lon="5.30959">
        <ele>277.890164</ele>
        <time>2011-06-12T09:44:15Z</time>
      </trkpt>
      <trkpt lat="45.14011" lon="5.3095">
        <ele>277.847482</ele>
        <time>2011-06-12T09:44:17Z</time>
      </trkpt>
      <trkpt lat="45.14003" lon="5.30939">
        <ele>277.798198</ele>
        <time>2011-06-12T09:44:20Z</time>
      </trkpt>
      <trkpt lat="45.13996" lon="5.30931">
        <ele>277.751133</ele>
        <time>2011-06-12T09:44:22Z</time>
      </trkpt>
      <trkpt lat="45.13989" lon="5.30924">
        <ele>277.712459</ele>
        <time>2011-06-12T09:44:24Z</time>
      </trkpt>
      <trkpt lat="45.13978" lon="5.30912">
        <ele>277.655848</ele>
        <time>2011-06-12T09:44:27Z</time>
      </trkpt>
      <trkpt lat="45.1397" lon="5.309">
        <ele>277.518278</ele>
        <time>2011-06-12T09:44:30Z</time>
      </trkpt>
      <trkpt lat="45.13969" lon="5.30884">
        <ele>277.291789</ele>
        <time>2011-06-12T09:44:33Z</time>
      </trkpt>
      <trkpt lat="45.13975" lon="5.30872">
        <ele>277.070943</ele>
        <time>2011-06-12T09:44:36Z</time>
      </trkpt>
      <trkpt lat="45.13984" lon="5.3086">
        <ele>276.945808</ele>
        <time>2011-06-12T09:44:39Z</time>
      </trkpt>
      <trkpt lat="45.13994" lon="5.30847">
        <ele>276.914635</ele>
        <time>2011-06-12T09:44:42Z</time>
      </trkpt>
      <trkpt lat="45.14004" lon="5.30834">
        <ele>276.943521</ele>
        <time>2011-06-12T09:44:45Z</time>
      </trkpt>
      <trkpt lat="45.14013" lon="5.30821">
        <ele>277.011018</ele>
        <time>2011-06-12T09:44:48Z</time>
      </trkpt>
      <trkpt lat="45.14018" lon="5.30812">
        <ele>277.098032</ele>
        <time>2011-06-12T09:44:50Z</time>
      </trkpt>
      <trkpt lat="45.14024" lon="5.30804">
        <ele>277.216443</ele>
        <time>2011-06-12T09:44:52Z</time>
      </trkpt>
      <trkpt lat="45.14029" lon="5.30795">
        <ele>277.399028</ele>
        <time>2011-06-12T09:44:54Z</time>
      </trkpt>
      <trkpt lat="45.14037" lon="5.30782">
        <ele>277.623797</ele>
        <time>2011-06-12T09:44:57Z</time>
      </trkpt>
      <trkpt lat="45.14041" lon="5.30775">
        <ele>277.818938</ele>
        <time>2011-06-12T09:44:59Z</time>
      </trkpt>
      <trkpt lat="45.14049" lon="5.30768">
        <ele>277.938258</ele>
        <time>2011-06-12T09:45:02Z</time>
      </trkpt>
      <trkpt lat="45.14056" lon="5.3077">
        <ele>278.015258</ele>
        <time>2011-06-12T09:45:04Z</time>
      </trkpt>
      <trkpt lat="45.14066" lon="5.30778">
        <ele>278.096425</ele>
        <time>2011-06-12T09:45:07Z</time>
      </trkpt>
      <trkpt lat="45.14077" lon="5.30787">
        <ele>278.172434</ele>
        <time>2011-06-12T09:45:10Z</time>
      </trkpt>
      <trkpt lat="45.14087" lon="5.30794">
        <ele>278.221809</ele>
        <time>2011-06-12T09:45:13Z</time>
      </trkpt>
      <trkpt lat="45.14096" lon="5.30802">
        <ele>278.253429</ele>
        <time>2011-06-12T09:45:16Z</time>
      </trkpt>
      <trkpt lat="45.14103" lon="5.30806">
        <ele>278.280471</ele>
        <time>2011-06-12T09:45:18Z</time>
      </trkpt>
      <trkpt lat="45.14111" lon="5.30812">
        <ele>278.306003</ele>
        <time>2011-06-12T09:45:21Z</time>
      </trkpt>
      <trkpt lat="45.14119" lon="5.30817">
        <ele>278.322739</ele>
        <time>2011-06-12T09:45:24Z</time>
      </trkpt>
      <trkpt lat="45.14124" lon="5.3082">
        <ele>278.328361</ele>
        <time>2011-06-12T09:45:26Z</time>
      </trkpt>
      <trkpt lat="45.14131" lon="5.30823">
        <ele>278.327821</ele>
        <time>2011-06-12T09:45:29Z</time>
      </trkpt>
      <trkpt lat="45.14135" lon="5.30825">
        <ele>278.315135</ele>
        <time>2011-06-12T09:45:31Z</time>
      </trkpt>
      <trkpt lat="45.14143" lon="5.30829">
        <ele>278.277848</ele>
        <time>2011-06-12T09:45:34Z</time>
      </trkpt>
      <trkpt lat="45.14146" lon="5.30834">
        <ele>278.213035</ele>
        <time>2011-06-12T09:45:36Z</time>
      </trkpt>
      <trkpt lat="45.14145" lon="5.30841">
        <ele>278.128505</ele>
        <time>2011-06-12T09:45:39Z</time>
      </trkpt>
      <trkpt lat="45.14145" lon="5.30841">
        <ele>278.030692</ele>
        <time>2011-06-12T09:45:44Z</time>
      </trkpt>
      <trkpt lat="45.14145" lon="5.30841">
        <ele>277.928458</ele>
        <time>2011-06-12T09:46:10Z</time>
      </trkpt>
    </trkseg>
  </trk>
</gpx>